<?xml version="1.0" encoding="UTF-8" standalone="no" ?>
<gpx xmlns="http://www.topografix.com/GPX/1/1" xmlns:xsi="http://www.w3.org/2001/XMLSchema-instance" xsi:schemaLocation="http://www.topografix.com/GPX/1/1 http://www.topografix.com/GPX/1/1/gpx.xsd" version="1.1" creator="VisuGPX - https://www.visugpx.com">
  <metadata>
    <name>Un rubi dans le cians</name>
    <desc><![CDATA[sortie panoramique sur les balcons du cians suivie de la descente du collet de la vigude jusqu'a rubi]]></desc>
  </metadata>
  <trk>
    <name><![CDATA[Un rubi dans le cians_1]]></name>
    <trkseg>
      <trkpt lat="44.0326" lon="7.03527">
        <ele>1308.526611</ele>
        <time>2016-06-25T07:34:57Z</time>
      </trkpt>
      <trkpt lat="44.0326" lon="7.03526">
        <ele>1308.614868</ele>
        <time>2016-06-25T07:34:58Z</time>
      </trkpt>
      <trkpt lat="44.03252" lon="7.03519">
        <ele>1308.607178</ele>
        <time>2016-06-25T07:35:22Z</time>
      </trkpt>
      <trkpt lat="44.0326" lon="7.03523">
        <ele>1307.7</ele>
        <time>2016-06-25T07:36:00Z</time>
      </trkpt>
      <trkpt lat="44.03256" lon="7.03534">
        <ele>1308</ele>
        <time>2016-06-25T07:37:15Z</time>
      </trkpt>
      <trkpt lat="44.03261" lon="7.03524">
        <ele>1308.9</ele>
        <time>2016-06-25T07:40:03Z</time>
      </trkpt>
      <trkpt lat="44.03268" lon="7.03514">
        <ele>1308.2</ele>
        <time>2016-06-25T07:40:45Z</time>
      </trkpt>
      <trkpt lat="44.0326" lon="7.03508">
        <ele>1308.2</ele>
        <time>2016-06-25T07:40:49Z</time>
      </trkpt>
      <trkpt lat="44.03266" lon="7.03496">
        <ele>1306.9</ele>
        <time>2016-06-25T07:40:54Z</time>
      </trkpt>
      <trkpt lat="44.03275" lon="7.03491">
        <ele>1306.5</ele>
        <time>2016-06-25T07:40:56Z</time>
      </trkpt>
      <trkpt lat="44.03284" lon="7.03485">
        <ele>1305.2</ele>
        <time>2016-06-25T07:40:58Z</time>
      </trkpt>
      <trkpt lat="44.03288" lon="7.03471">
        <ele>1303.6</ele>
        <time>2016-06-25T07:41:01Z</time>
      </trkpt>
      <trkpt lat="44.03286" lon="7.03458">
        <ele>1303.1</ele>
        <time>2016-06-25T07:41:03Z</time>
      </trkpt>
      <trkpt lat="44.03279" lon="7.03449">
        <ele>1302.5</ele>
        <time>2016-06-25T07:41:05Z</time>
      </trkpt>
      <trkpt lat="44.03268" lon="7.03448">
        <ele>1302</ele>
        <time>2016-06-25T07:41:07Z</time>
      </trkpt>
      <trkpt lat="44.03257" lon="7.03447">
        <ele>1301.5</ele>
        <time>2016-06-25T07:41:09Z</time>
      </trkpt>
      <trkpt lat="44.03247" lon="7.03444">
        <ele>1301.2</ele>
        <time>2016-06-25T07:41:11Z</time>
      </trkpt>
      <trkpt lat="44.03237" lon="7.03443">
        <ele>1301.2</ele>
        <time>2016-06-25T07:41:13Z</time>
      </trkpt>
      <trkpt lat="44.03226" lon="7.0344">
        <ele>1301.6</ele>
        <time>2016-06-25T07:41:16Z</time>
      </trkpt>
      <trkpt lat="44.03217" lon="7.03437">
        <ele>1300.6</ele>
        <time>2016-06-25T07:41:20Z</time>
      </trkpt>
      <trkpt lat="44.03207" lon="7.03432">
        <ele>1303.2</ele>
        <time>2016-06-25T07:41:26Z</time>
      </trkpt>
      <trkpt lat="44.03198" lon="7.03424">
        <ele>1304.5</ele>
        <time>2016-06-25T07:41:33Z</time>
      </trkpt>
      <trkpt lat="44.0319" lon="7.03415">
        <ele>1304.7</ele>
        <time>2016-06-25T07:41:39Z</time>
      </trkpt>
      <trkpt lat="44.03183" lon="7.03405">
        <ele>1306.3</ele>
        <time>2016-06-25T07:41:46Z</time>
      </trkpt>
      <trkpt lat="44.03177" lon="7.03395">
        <ele>1308.3</ele>
        <time>2016-06-25T07:41:53Z</time>
      </trkpt>
      <trkpt lat="44.03169" lon="7.03385">
        <ele>1309.4</ele>
        <time>2016-06-25T07:42:01Z</time>
      </trkpt>
      <trkpt lat="44.03162" lon="7.03375">
        <ele>1310.7</ele>
        <time>2016-06-25T07:42:09Z</time>
      </trkpt>
      <trkpt lat="44.03156" lon="7.03364">
        <ele>1312.6</ele>
        <time>2016-06-25T07:42:17Z</time>
      </trkpt>
      <trkpt lat="44.03148" lon="7.03356">
        <ele>1313.6</ele>
        <time>2016-06-25T07:42:25Z</time>
      </trkpt>
      <trkpt lat="44.0314" lon="7.0335">
        <ele>1314.7</ele>
        <time>2016-06-25T07:42:32Z</time>
      </trkpt>
      <trkpt lat="44.03134" lon="7.03341">
        <ele>1316.3</ele>
        <time>2016-06-25T07:42:39Z</time>
      </trkpt>
      <trkpt lat="44.03126" lon="7.03332">
        <ele>1316.9</ele>
        <time>2016-06-25T07:42:47Z</time>
      </trkpt>
      <trkpt lat="44.03118" lon="7.03325">
        <ele>1318.5</ele>
        <time>2016-06-25T07:42:55Z</time>
      </trkpt>
      <trkpt lat="44.03109" lon="7.03318">
        <ele>1320.6</ele>
        <time>2016-06-25T07:43:03Z</time>
      </trkpt>
      <trkpt lat="44.03103" lon="7.03307">
        <ele>1321.7</ele>
        <time>2016-06-25T07:43:11Z</time>
      </trkpt>
      <trkpt lat="44.03098" lon="7.03297">
        <ele>1322.9</ele>
        <time>2016-06-25T07:43:18Z</time>
      </trkpt>
      <trkpt lat="44.03092" lon="7.03286">
        <ele>1324.1</ele>
        <time>2016-06-25T07:43:26Z</time>
      </trkpt>
      <trkpt lat="44.03085" lon="7.03278">
        <ele>1324.9</ele>
        <time>2016-06-25T07:43:33Z</time>
      </trkpt>
      <trkpt lat="44.03075" lon="7.03269">
        <ele>1325</ele>
        <time>2016-06-25T07:43:42Z</time>
      </trkpt>
      <trkpt lat="44.03064" lon="7.03274">
        <ele>1327</ele>
        <time>2016-06-25T07:43:54Z</time>
      </trkpt>
      <trkpt lat="44.03051" lon="7.03278">
        <ele>1327</ele>
        <time>2016-06-25T07:44:02Z</time>
      </trkpt>
      <trkpt lat="44.03038" lon="7.03281">
        <ele>1328</ele>
        <time>2016-06-25T07:44:10Z</time>
      </trkpt>
      <trkpt lat="44.03026" lon="7.03281">
        <ele>1330</ele>
        <time>2016-06-25T07:44:18Z</time>
      </trkpt>
      <trkpt lat="44.03016" lon="7.03285">
        <ele>1331</ele>
        <time>2016-06-25T07:44:26Z</time>
      </trkpt>
      <trkpt lat="44.03006" lon="7.03291">
        <ele>1333</ele>
        <time>2016-06-25T07:44:34Z</time>
      </trkpt>
      <trkpt lat="44.02996" lon="7.03295">
        <ele>1334</ele>
        <time>2016-06-25T07:44:42Z</time>
      </trkpt>
      <trkpt lat="44.02986" lon="7.03295">
        <ele>1336.1</ele>
        <time>2016-06-25T07:44:50Z</time>
      </trkpt>
      <trkpt lat="44.02977" lon="7.03294">
        <ele>1335.9</ele>
        <time>2016-06-25T07:44:57Z</time>
      </trkpt>
      <trkpt lat="44.02967" lon="7.03289">
        <ele>1338.3</ele>
        <time>2016-06-25T07:45:04Z</time>
      </trkpt>
      <trkpt lat="44.02958" lon="7.03282">
        <ele>1339.1</ele>
        <time>2016-06-25T07:45:11Z</time>
      </trkpt>
      <trkpt lat="44.0295" lon="7.03274">
        <ele>1340</ele>
        <time>2016-06-25T07:45:18Z</time>
      </trkpt>
      <trkpt lat="44.02942" lon="7.03266">
        <ele>1340.9</ele>
        <time>2016-06-25T07:46:16Z</time>
      </trkpt>
      <trkpt lat="44.02934" lon="7.03257">
        <ele>1341.5</ele>
        <time>2016-06-25T07:46:22Z</time>
      </trkpt>
      <trkpt lat="44.02927" lon="7.03249">
        <ele>1341.6</ele>
        <time>2016-06-25T07:46:27Z</time>
      </trkpt>
      <trkpt lat="44.02919" lon="7.03242">
        <ele>1341.9</ele>
        <time>2016-06-25T07:46:32Z</time>
      </trkpt>
      <trkpt lat="44.02912" lon="7.03233">
        <ele>1343.7</ele>
        <time>2016-06-25T07:46:37Z</time>
      </trkpt>
      <trkpt lat="44.02906" lon="7.03222">
        <ele>1345.8</ele>
        <time>2016-06-25T07:46:42Z</time>
      </trkpt>
      <trkpt lat="44.02902" lon="7.03211">
        <ele>1346.9</ele>
        <time>2016-06-25T07:46:47Z</time>
      </trkpt>
      <trkpt lat="44.02899" lon="7.03196">
        <ele>1348.9</ele>
        <time>2016-06-25T07:46:53Z</time>
      </trkpt>
      <trkpt lat="44.02897" lon="7.03183">
        <ele>1349.8</ele>
        <time>2016-06-25T07:46:59Z</time>
      </trkpt>
      <trkpt lat="44.02896" lon="7.0317">
        <ele>1351</ele>
        <time>2016-06-25T07:47:05Z</time>
      </trkpt>
      <trkpt lat="44.02896" lon="7.03157">
        <ele>1352.4</ele>
        <time>2016-06-25T07:47:11Z</time>
      </trkpt>
      <trkpt lat="44.02896" lon="7.03145">
        <ele>1353.6</ele>
        <time>2016-06-25T07:47:17Z</time>
      </trkpt>
      <trkpt lat="44.02898" lon="7.03131">
        <ele>1355.6</ele>
        <time>2016-06-25T07:47:24Z</time>
      </trkpt>
      <trkpt lat="44.02903" lon="7.03119">
        <ele>1356.5</ele>
        <time>2016-06-25T07:47:32Z</time>
      </trkpt>
      <trkpt lat="44.02909" lon="7.0311">
        <ele>1358.7</ele>
        <time>2016-06-25T07:48:18Z</time>
      </trkpt>
      <trkpt lat="44.02916" lon="7.03099">
        <ele>1358.7</ele>
        <time>2016-06-25T07:48:24Z</time>
      </trkpt>
      <trkpt lat="44.02924" lon="7.03092">
        <ele>1360</ele>
        <time>2016-06-25T07:48:29Z</time>
      </trkpt>
      <trkpt lat="44.02931" lon="7.03081">
        <ele>1361.9</ele>
        <time>2016-06-25T07:48:35Z</time>
      </trkpt>
      <trkpt lat="44.02935" lon="7.03069">
        <ele>1364</ele>
        <time>2016-06-25T07:48:41Z</time>
      </trkpt>
      <trkpt lat="44.02936" lon="7.03056">
        <ele>1365</ele>
        <time>2016-06-25T07:48:46Z</time>
      </trkpt>
      <trkpt lat="44.02934" lon="7.03041">
        <ele>1366.9</ele>
        <time>2016-06-25T07:48:52Z</time>
      </trkpt>
      <trkpt lat="44.02931" lon="7.03029">
        <ele>1366.3</ele>
        <time>2016-06-25T07:48:58Z</time>
      </trkpt>
      <trkpt lat="44.02923" lon="7.0302">
        <ele>1368.7</ele>
        <time>2016-06-25T07:49:04Z</time>
      </trkpt>
      <trkpt lat="44.02915" lon="7.03017">
        <ele>1370.1</ele>
        <time>2016-06-25T07:49:09Z</time>
      </trkpt>
      <trkpt lat="44.02904" lon="7.03013">
        <ele>1371.6</ele>
        <time>2016-06-25T07:49:15Z</time>
      </trkpt>
      <trkpt lat="44.02894" lon="7.0301">
        <ele>1372.6</ele>
        <time>2016-06-25T07:49:21Z</time>
      </trkpt>
      <trkpt lat="44.02884" lon="7.03008">
        <ele>1372.7</ele>
        <time>2016-06-25T07:49:27Z</time>
      </trkpt>
      <trkpt lat="44.02874" lon="7.03011">
        <ele>1373.9</ele>
        <time>2016-06-25T07:49:33Z</time>
      </trkpt>
      <trkpt lat="44.02865" lon="7.03006">
        <ele>1375.4</ele>
        <time>2016-06-25T07:49:39Z</time>
      </trkpt>
      <trkpt lat="44.0286" lon="7.02995">
        <ele>1375.4</ele>
        <time>2016-06-25T07:49:45Z</time>
      </trkpt>
      <trkpt lat="44.02854" lon="7.02985">
        <ele>1377.6</ele>
        <time>2016-06-25T07:49:51Z</time>
      </trkpt>
      <trkpt lat="44.02846" lon="7.02976">
        <ele>1378.3</ele>
        <time>2016-06-25T07:49:58Z</time>
      </trkpt>
      <trkpt lat="44.02838" lon="7.0297">
        <ele>1380.4</ele>
        <time>2016-06-25T07:50:04Z</time>
      </trkpt>
      <trkpt lat="44.02829" lon="7.02962">
        <ele>1380.4</ele>
        <time>2016-06-25T07:50:11Z</time>
      </trkpt>
      <trkpt lat="44.02823" lon="7.02951">
        <ele>1382.2</ele>
        <time>2016-06-25T07:50:18Z</time>
      </trkpt>
      <trkpt lat="44.02819" lon="7.02938">
        <ele>1383.9</ele>
        <time>2016-06-25T07:50:25Z</time>
      </trkpt>
      <trkpt lat="44.02814" lon="7.02927">
        <ele>1385.3</ele>
        <time>2016-06-25T07:50:31Z</time>
      </trkpt>
      <trkpt lat="44.02806" lon="7.02921">
        <ele>1386.5</ele>
        <time>2016-06-25T07:50:37Z</time>
      </trkpt>
      <trkpt lat="44.02796" lon="7.02922">
        <ele>1388.4</ele>
        <time>2016-06-25T07:50:43Z</time>
      </trkpt>
      <trkpt lat="44.02786" lon="7.0292">
        <ele>1390.7</ele>
        <time>2016-06-25T07:50:49Z</time>
      </trkpt>
      <trkpt lat="44.02777" lon="7.02913">
        <ele>1390.2</ele>
        <time>2016-06-25T07:50:55Z</time>
      </trkpt>
      <trkpt lat="44.02771" lon="7.02903">
        <ele>1391</ele>
        <time>2016-06-25T07:51:01Z</time>
      </trkpt>
      <trkpt lat="44.02761" lon="7.02897">
        <ele>1392.3</ele>
        <time>2016-06-25T07:51:08Z</time>
      </trkpt>
      <trkpt lat="44.02751" lon="7.02896">
        <ele>1394.5</ele>
        <time>2016-06-25T07:51:14Z</time>
      </trkpt>
      <trkpt lat="44.02742" lon="7.02894">
        <ele>1394.7</ele>
        <time>2016-06-25T07:51:19Z</time>
      </trkpt>
      <trkpt lat="44.02732" lon="7.02888">
        <ele>1395.2</ele>
        <time>2016-06-25T07:51:25Z</time>
      </trkpt>
      <trkpt lat="44.02723" lon="7.02881">
        <ele>1397.1</ele>
        <time>2016-06-25T07:51:31Z</time>
      </trkpt>
      <trkpt lat="44.0273" lon="7.02873">
        <ele>1396.8</ele>
        <time>2016-06-25T07:51:39Z</time>
      </trkpt>
      <trkpt lat="44.02739" lon="7.02878">
        <ele>1398.4</ele>
        <time>2016-06-25T07:51:45Z</time>
      </trkpt>
      <trkpt lat="44.02748" lon="7.02881">
        <ele>1400.3</ele>
        <time>2016-06-25T07:51:51Z</time>
      </trkpt>
      <trkpt lat="44.02758" lon="7.0288">
        <ele>1401.7</ele>
        <time>2016-06-25T07:51:57Z</time>
      </trkpt>
      <trkpt lat="44.02768" lon="7.02877">
        <ele>1401.9</ele>
        <time>2016-06-25T07:52:03Z</time>
      </trkpt>
      <trkpt lat="44.02778" lon="7.0288">
        <ele>1403.1</ele>
        <time>2016-06-25T07:52:09Z</time>
      </trkpt>
      <trkpt lat="44.02787" lon="7.02886">
        <ele>1404.4</ele>
        <time>2016-06-25T07:52:15Z</time>
      </trkpt>
      <trkpt lat="44.02796" lon="7.02886">
        <ele>1404.9</ele>
        <time>2016-06-25T07:52:20Z</time>
      </trkpt>
      <trkpt lat="44.02805" lon="7.02883">
        <ele>1405.7</ele>
        <time>2016-06-25T07:52:25Z</time>
      </trkpt>
      <trkpt lat="44.02814" lon="7.02883">
        <ele>1406.4</ele>
        <time>2016-06-25T07:52:30Z</time>
      </trkpt>
      <trkpt lat="44.02824" lon="7.02886">
        <ele>1407.3</ele>
        <time>2016-06-25T07:52:35Z</time>
      </trkpt>
      <trkpt lat="44.02832" lon="7.02892">
        <ele>1407.4</ele>
        <time>2016-06-25T07:52:40Z</time>
      </trkpt>
      <trkpt lat="44.02839" lon="7.029">
        <ele>1408.1</ele>
        <time>2016-06-25T07:52:45Z</time>
      </trkpt>
      <trkpt lat="44.02847" lon="7.0291">
        <ele>1409.9</ele>
        <time>2016-06-25T07:52:51Z</time>
      </trkpt>
      <trkpt lat="44.02846" lon="7.02896">
        <ele>1412</ele>
        <time>2016-06-25T07:53:06Z</time>
      </trkpt>
      <trkpt lat="44.0284" lon="7.02885">
        <ele>1412.9</ele>
        <time>2016-06-25T07:53:12Z</time>
      </trkpt>
      <trkpt lat="44.02833" lon="7.02875">
        <ele>1413</ele>
        <time>2016-06-25T07:53:18Z</time>
      </trkpt>
      <trkpt lat="44.02825" lon="7.02868">
        <ele>1414.1</ele>
        <time>2016-06-25T07:53:24Z</time>
      </trkpt>
      <trkpt lat="44.02815" lon="7.02863">
        <ele>1414.5</ele>
        <time>2016-06-25T07:53:30Z</time>
      </trkpt>
      <trkpt lat="44.02805" lon="7.02861">
        <ele>1416.2</ele>
        <time>2016-06-25T07:53:36Z</time>
      </trkpt>
      <trkpt lat="44.02795" lon="7.02859">
        <ele>1416.4</ele>
        <time>2016-06-25T07:53:42Z</time>
      </trkpt>
      <trkpt lat="44.02786" lon="7.02853">
        <ele>1418</ele>
        <time>2016-06-25T07:53:48Z</time>
      </trkpt>
      <trkpt lat="44.02777" lon="7.02847">
        <ele>1419.1</ele>
        <time>2016-06-25T07:53:54Z</time>
      </trkpt>
      <trkpt lat="44.02767" lon="7.02845">
        <ele>1419.6</ele>
        <time>2016-06-25T07:54:00Z</time>
      </trkpt>
      <trkpt lat="44.02756" lon="7.02842">
        <ele>1419.3</ele>
        <time>2016-06-25T07:54:06Z</time>
      </trkpt>
      <trkpt lat="44.02747" lon="7.02839">
        <ele>1420.4</ele>
        <time>2016-06-25T07:54:11Z</time>
      </trkpt>
      <trkpt lat="44.02738" lon="7.02833">
        <ele>1421.8</ele>
        <time>2016-06-25T07:54:17Z</time>
      </trkpt>
      <trkpt lat="44.0273" lon="7.02827">
        <ele>1423.4</ele>
        <time>2016-06-25T07:54:23Z</time>
      </trkpt>
      <trkpt lat="44.02722" lon="7.02819">
        <ele>1423.4</ele>
        <time>2016-06-25T07:54:29Z</time>
      </trkpt>
      <trkpt lat="44.02715" lon="7.02811">
        <ele>1425.2</ele>
        <time>2016-06-25T07:54:35Z</time>
      </trkpt>
      <trkpt lat="44.02706" lon="7.02806">
        <ele>1426.4</ele>
        <time>2016-06-25T07:54:41Z</time>
      </trkpt>
      <trkpt lat="44.02697" lon="7.02802">
        <ele>1427</ele>
        <time>2016-06-25T07:54:47Z</time>
      </trkpt>
      <trkpt lat="44.02688" lon="7.02799">
        <ele>1428.2</ele>
        <time>2016-06-25T07:54:53Z</time>
      </trkpt>
      <trkpt lat="44.02679" lon="7.02795">
        <ele>1430.3</ele>
        <time>2016-06-25T07:54:59Z</time>
      </trkpt>
      <trkpt lat="44.0267" lon="7.0279">
        <ele>1430.6</ele>
        <time>2016-06-25T07:55:05Z</time>
      </trkpt>
      <trkpt lat="44.0266" lon="7.02785">
        <ele>1431.5</ele>
        <time>2016-06-25T07:55:11Z</time>
      </trkpt>
      <trkpt lat="44.02651" lon="7.02777">
        <ele>1432.6</ele>
        <time>2016-06-25T07:55:17Z</time>
      </trkpt>
      <trkpt lat="44.02644" lon="7.02767">
        <ele>1433.6</ele>
        <time>2016-06-25T07:55:23Z</time>
      </trkpt>
      <trkpt lat="44.02639" lon="7.02755">
        <ele>1434.3</ele>
        <time>2016-06-25T07:55:30Z</time>
      </trkpt>
      <trkpt lat="44.02635" lon="7.02743">
        <ele>1435.9</ele>
        <time>2016-06-25T07:55:36Z</time>
      </trkpt>
      <trkpt lat="44.02631" lon="7.02731">
        <ele>1437</ele>
        <time>2016-06-25T07:55:42Z</time>
      </trkpt>
      <trkpt lat="44.02628" lon="7.02718">
        <ele>1437.9</ele>
        <time>2016-06-25T07:55:48Z</time>
      </trkpt>
      <trkpt lat="44.02624" lon="7.02704">
        <ele>1440</ele>
        <time>2016-06-25T07:55:54Z</time>
      </trkpt>
      <trkpt lat="44.02621" lon="7.02692">
        <ele>1441.6</ele>
        <time>2016-06-25T07:56:00Z</time>
      </trkpt>
      <trkpt lat="44.02617" lon="7.02678">
        <ele>1442.2</ele>
        <time>2016-06-25T07:56:06Z</time>
      </trkpt>
      <trkpt lat="44.02614" lon="7.02666">
        <ele>1442.7</ele>
        <time>2016-06-25T07:56:11Z</time>
      </trkpt>
      <trkpt lat="44.02611" lon="7.02654">
        <ele>1444.3</ele>
        <time>2016-06-25T07:56:16Z</time>
      </trkpt>
      <trkpt lat="44.02608" lon="7.02642">
        <ele>1445.4</ele>
        <time>2016-06-25T07:56:21Z</time>
      </trkpt>
      <trkpt lat="44.02605" lon="7.02628">
        <ele>1446.6</ele>
        <time>2016-06-25T07:56:27Z</time>
      </trkpt>
      <trkpt lat="44.02601" lon="7.02614">
        <ele>1446.6</ele>
        <time>2016-06-25T07:56:33Z</time>
      </trkpt>
      <trkpt lat="44.02596" lon="7.02603">
        <ele>1448.1</ele>
        <time>2016-06-25T07:56:38Z</time>
      </trkpt>
      <trkpt lat="44.02589" lon="7.02594">
        <ele>1447.6</ele>
        <time>2016-06-25T07:56:43Z</time>
      </trkpt>
      <trkpt lat="44.02581" lon="7.02585">
        <ele>1449</ele>
        <time>2016-06-25T07:56:48Z</time>
      </trkpt>
      <trkpt lat="44.02573" lon="7.02578">
        <ele>1449.9</ele>
        <time>2016-06-25T07:56:53Z</time>
      </trkpt>
      <trkpt lat="44.02564" lon="7.0257">
        <ele>1450.4</ele>
        <time>2016-06-25T07:56:58Z</time>
      </trkpt>
      <trkpt lat="44.02556" lon="7.02563">
        <ele>1450.6</ele>
        <time>2016-06-25T07:57:03Z</time>
      </trkpt>
      <trkpt lat="44.02547" lon="7.02556">
        <ele>1451.9</ele>
        <time>2016-06-25T07:57:08Z</time>
      </trkpt>
      <trkpt lat="44.02538" lon="7.02548">
        <ele>1452.4</ele>
        <time>2016-06-25T07:57:13Z</time>
      </trkpt>
      <trkpt lat="44.0253" lon="7.02539">
        <ele>1453</ele>
        <time>2016-06-25T07:57:17Z</time>
      </trkpt>
      <trkpt lat="44.02524" lon="7.02529">
        <ele>1452.9</ele>
        <time>2016-06-25T07:57:21Z</time>
      </trkpt>
      <trkpt lat="44.02517" lon="7.02519">
        <ele>1453.9</ele>
        <time>2016-06-25T07:57:26Z</time>
      </trkpt>
      <trkpt lat="44.02511" lon="7.02506">
        <ele>1454.7</ele>
        <time>2016-06-25T07:57:31Z</time>
      </trkpt>
      <trkpt lat="44.02505" lon="7.02494">
        <ele>1454.3</ele>
        <time>2016-06-25T07:57:36Z</time>
      </trkpt>
      <trkpt lat="44.02499" lon="7.02482">
        <ele>1454.8</ele>
        <time>2016-06-25T07:57:41Z</time>
      </trkpt>
      <trkpt lat="44.02494" lon="7.0247">
        <ele>1454.6</ele>
        <time>2016-06-25T07:57:46Z</time>
      </trkpt>
      <trkpt lat="44.02489" lon="7.0246">
        <ele>1455.7</ele>
        <time>2016-06-25T07:57:51Z</time>
      </trkpt>
      <trkpt lat="44.02483" lon="7.02448">
        <ele>1457.4</ele>
        <time>2016-06-25T07:57:56Z</time>
      </trkpt>
      <trkpt lat="44.02476" lon="7.02436">
        <ele>1458.4</ele>
        <time>2016-06-25T07:58:01Z</time>
      </trkpt>
      <trkpt lat="44.0247" lon="7.02426">
        <ele>1459.3</ele>
        <time>2016-06-25T07:58:05Z</time>
      </trkpt>
      <trkpt lat="44.02465" lon="7.02416">
        <ele>1459.9</ele>
        <time>2016-06-25T07:58:09Z</time>
      </trkpt>
      <trkpt lat="44.02458" lon="7.02405">
        <ele>1460</ele>
        <time>2016-06-25T07:58:14Z</time>
      </trkpt>
      <trkpt lat="44.02452" lon="7.02394">
        <ele>1460.9</ele>
        <time>2016-06-25T07:58:19Z</time>
      </trkpt>
      <trkpt lat="44.02444" lon="7.02382">
        <ele>1462.4</ele>
        <time>2016-06-25T07:58:24Z</time>
      </trkpt>
      <trkpt lat="44.02436" lon="7.02372">
        <ele>1463.7</ele>
        <time>2016-06-25T07:58:29Z</time>
      </trkpt>
      <trkpt lat="44.02428" lon="7.02362">
        <ele>1465.3</ele>
        <time>2016-06-25T07:58:34Z</time>
      </trkpt>
      <trkpt lat="44.02421" lon="7.02353">
        <ele>1466.7</ele>
        <time>2016-06-25T07:58:39Z</time>
      </trkpt>
      <trkpt lat="44.02413" lon="7.02344">
        <ele>1467.3</ele>
        <time>2016-06-25T07:58:44Z</time>
      </trkpt>
      <trkpt lat="44.02406" lon="7.02335">
        <ele>1467.8</ele>
        <time>2016-06-25T07:58:49Z</time>
      </trkpt>
      <trkpt lat="44.02398" lon="7.02325">
        <ele>1469</ele>
        <time>2016-06-25T07:58:55Z</time>
      </trkpt>
      <trkpt lat="44.02391" lon="7.02317">
        <ele>1470.6</ele>
        <time>2016-06-25T07:59:00Z</time>
      </trkpt>
      <trkpt lat="44.02384" lon="7.02307">
        <ele>1470.3</ele>
        <time>2016-06-25T07:59:05Z</time>
      </trkpt>
      <trkpt lat="44.02378" lon="7.02296">
        <ele>1472.4</ele>
        <time>2016-06-25T07:59:10Z</time>
      </trkpt>
      <trkpt lat="44.02374" lon="7.02283">
        <ele>1473.1</ele>
        <time>2016-06-25T07:59:15Z</time>
      </trkpt>
      <trkpt lat="44.02372" lon="7.02269">
        <ele>1473.4</ele>
        <time>2016-06-25T07:59:20Z</time>
      </trkpt>
      <trkpt lat="44.02371" lon="7.02255">
        <ele>1474.2</ele>
        <time>2016-06-25T07:59:25Z</time>
      </trkpt>
      <trkpt lat="44.0237" lon="7.02243">
        <ele>1475.8</ele>
        <time>2016-06-25T07:59:57Z</time>
      </trkpt>
      <trkpt lat="44.02372" lon="7.02231">
        <ele>1475.5</ele>
        <time>2016-06-25T08:00:02Z</time>
      </trkpt>
      <trkpt lat="44.02375" lon="7.02218">
        <ele>1476.3</ele>
        <time>2016-06-25T08:00:07Z</time>
      </trkpt>
      <trkpt lat="44.02375" lon="7.02205">
        <ele>1477.2</ele>
        <time>2016-06-25T08:00:12Z</time>
      </trkpt>
      <trkpt lat="44.02374" lon="7.0219">
        <ele>1478.2</ele>
        <time>2016-06-25T08:00:18Z</time>
      </trkpt>
      <trkpt lat="44.02371" lon="7.02177">
        <ele>1478.8</ele>
        <time>2016-06-25T08:00:23Z</time>
      </trkpt>
      <trkpt lat="44.02368" lon="7.02165">
        <ele>1479.6</ele>
        <time>2016-06-25T08:00:28Z</time>
      </trkpt>
      <trkpt lat="44.02364" lon="7.02151">
        <ele>1480.4</ele>
        <time>2016-06-25T08:00:33Z</time>
      </trkpt>
      <trkpt lat="44.02359" lon="7.0214">
        <ele>1481.4</ele>
        <time>2016-06-25T08:00:37Z</time>
      </trkpt>
      <trkpt lat="44.02355" lon="7.02128">
        <ele>1482.4</ele>
        <time>2016-06-25T08:00:42Z</time>
      </trkpt>
      <trkpt lat="44.02348" lon="7.02116">
        <ele>1484.1</ele>
        <time>2016-06-25T08:00:47Z</time>
      </trkpt>
      <trkpt lat="44.02341" lon="7.02106">
        <ele>1485</ele>
        <time>2016-06-25T08:00:52Z</time>
      </trkpt>
      <trkpt lat="44.02334" lon="7.02096">
        <ele>1485.2</ele>
        <time>2016-06-25T08:00:57Z</time>
      </trkpt>
      <trkpt lat="44.02326" lon="7.02086">
        <ele>1486.4</ele>
        <time>2016-06-25T08:01:02Z</time>
      </trkpt>
      <trkpt lat="44.02318" lon="7.02075">
        <ele>1487.6</ele>
        <time>2016-06-25T08:01:07Z</time>
      </trkpt>
      <trkpt lat="44.02312" lon="7.02064">
        <ele>1488.6</ele>
        <time>2016-06-25T08:01:12Z</time>
      </trkpt>
      <trkpt lat="44.02306" lon="7.02054">
        <ele>1489.3</ele>
        <time>2016-06-25T08:01:17Z</time>
      </trkpt>
      <trkpt lat="44.023" lon="7.02044">
        <ele>1490.4</ele>
        <time>2016-06-25T08:01:22Z</time>
      </trkpt>
      <trkpt lat="44.02293" lon="7.02033">
        <ele>1491.6</ele>
        <time>2016-06-25T08:01:27Z</time>
      </trkpt>
      <trkpt lat="44.02287" lon="7.02022">
        <ele>1492.3</ele>
        <time>2016-06-25T08:01:32Z</time>
      </trkpt>
      <trkpt lat="44.02282" lon="7.02009">
        <ele>1493.5</ele>
        <time>2016-06-25T08:01:37Z</time>
      </trkpt>
      <trkpt lat="44.02278" lon="7.01996">
        <ele>1494.5</ele>
        <time>2016-06-25T08:01:42Z</time>
      </trkpt>
      <trkpt lat="44.02275" lon="7.01984">
        <ele>1494.8</ele>
        <time>2016-06-25T08:01:51Z</time>
      </trkpt>
      <trkpt lat="44.02283" lon="7.01976">
        <ele>1494.9</ele>
        <time>2016-06-25T08:02:00Z</time>
      </trkpt>
      <trkpt lat="44.02292" lon="7.0198">
        <ele>1495.5</ele>
        <time>2016-06-25T08:06:13Z</time>
      </trkpt>
      <trkpt lat="44.02301" lon="7.01987">
        <ele>1498.1</ele>
        <time>2016-06-25T08:06:20Z</time>
      </trkpt>
      <trkpt lat="44.02308" lon="7.01996">
        <ele>1497.6</ele>
        <time>2016-06-25T08:06:25Z</time>
      </trkpt>
      <trkpt lat="44.02315" lon="7.02007">
        <ele>1498.8</ele>
        <time>2016-06-25T08:06:30Z</time>
      </trkpt>
      <trkpt lat="44.02322" lon="7.02015">
        <ele>1500.6</ele>
        <time>2016-06-25T08:06:35Z</time>
      </trkpt>
      <trkpt lat="44.02329" lon="7.02023">
        <ele>1502</ele>
        <time>2016-06-25T08:06:40Z</time>
      </trkpt>
      <trkpt lat="44.02339" lon="7.02029">
        <ele>1501.2</ele>
        <time>2016-06-25T08:06:46Z</time>
      </trkpt>
      <trkpt lat="44.02348" lon="7.02035">
        <ele>1503.2</ele>
        <time>2016-06-25T08:06:52Z</time>
      </trkpt>
      <trkpt lat="44.02357" lon="7.0204">
        <ele>1504.9</ele>
        <time>2016-06-25T08:06:58Z</time>
      </trkpt>
      <trkpt lat="44.02366" lon="7.02047">
        <ele>1505.7</ele>
        <time>2016-06-25T08:07:03Z</time>
      </trkpt>
      <trkpt lat="44.02374" lon="7.02053">
        <ele>1505.9</ele>
        <time>2016-06-25T08:07:08Z</time>
      </trkpt>
      <trkpt lat="44.02382" lon="7.02061">
        <ele>1506.3</ele>
        <time>2016-06-25T08:07:13Z</time>
      </trkpt>
      <trkpt lat="44.02389" lon="7.02069">
        <ele>1508.8</ele>
        <time>2016-06-25T08:07:18Z</time>
      </trkpt>
      <trkpt lat="44.02397" lon="7.02078">
        <ele>1508.8</ele>
        <time>2016-06-25T08:07:24Z</time>
      </trkpt>
      <trkpt lat="44.02405" lon="7.02087">
        <ele>1510.4</ele>
        <time>2016-06-25T08:07:30Z</time>
      </trkpt>
      <trkpt lat="44.02414" lon="7.02096">
        <ele>1512.2</ele>
        <time>2016-06-25T08:07:36Z</time>
      </trkpt>
      <trkpt lat="44.02422" lon="7.02104">
        <ele>1512.2</ele>
        <time>2016-06-25T08:07:42Z</time>
      </trkpt>
      <trkpt lat="44.0243" lon="7.02114">
        <ele>1512.9</ele>
        <time>2016-06-25T08:07:48Z</time>
      </trkpt>
      <trkpt lat="44.02436" lon="7.02123">
        <ele>1514.3</ele>
        <time>2016-06-25T08:07:53Z</time>
      </trkpt>
      <trkpt lat="44.02443" lon="7.02133">
        <ele>1515.2</ele>
        <time>2016-06-25T08:07:58Z</time>
      </trkpt>
      <trkpt lat="44.02449" lon="7.02143">
        <ele>1515.7</ele>
        <time>2016-06-25T08:08:03Z</time>
      </trkpt>
      <trkpt lat="44.02455" lon="7.02153">
        <ele>1517.2</ele>
        <time>2016-06-25T08:08:08Z</time>
      </trkpt>
      <trkpt lat="44.02463" lon="7.02163">
        <ele>1517.8</ele>
        <time>2016-06-25T08:08:14Z</time>
      </trkpt>
      <trkpt lat="44.0247" lon="7.02171">
        <ele>1518.2</ele>
        <time>2016-06-25T08:08:19Z</time>
      </trkpt>
      <trkpt lat="44.02479" lon="7.02177">
        <ele>1519.5</ele>
        <time>2016-06-25T08:08:24Z</time>
      </trkpt>
      <trkpt lat="44.02487" lon="7.02184">
        <ele>1520.4</ele>
        <time>2016-06-25T08:08:29Z</time>
      </trkpt>
      <trkpt lat="44.02495" lon="7.02192">
        <ele>1520.5</ele>
        <time>2016-06-25T08:08:34Z</time>
      </trkpt>
      <trkpt lat="44.02501" lon="7.02204">
        <ele>1521.4</ele>
        <time>2016-06-25T08:08:39Z</time>
      </trkpt>
      <trkpt lat="44.02506" lon="7.02217">
        <ele>1523.2</ele>
        <time>2016-06-25T08:08:44Z</time>
      </trkpt>
      <trkpt lat="44.0251" lon="7.02229">
        <ele>1523.7</ele>
        <time>2016-06-25T08:08:49Z</time>
      </trkpt>
      <trkpt lat="44.02514" lon="7.02242">
        <ele>1524.3</ele>
        <time>2016-06-25T08:08:54Z</time>
      </trkpt>
      <trkpt lat="44.02519" lon="7.02254">
        <ele>1525</ele>
        <time>2016-06-25T08:08:59Z</time>
      </trkpt>
      <trkpt lat="44.02526" lon="7.02265">
        <ele>1524.9</ele>
        <time>2016-06-25T08:09:04Z</time>
      </trkpt>
      <trkpt lat="44.02534" lon="7.02276">
        <ele>1526.6</ele>
        <time>2016-06-25T08:09:09Z</time>
      </trkpt>
      <trkpt lat="44.02542" lon="7.02283">
        <ele>1527.5</ele>
        <time>2016-06-25T08:09:13Z</time>
      </trkpt>
      <trkpt lat="44.0255" lon="7.0229">
        <ele>1528.2</ele>
        <time>2016-06-25T08:09:17Z</time>
      </trkpt>
      <trkpt lat="44.0256" lon="7.023">
        <ele>1528.6</ele>
        <time>2016-06-25T08:09:21Z</time>
      </trkpt>
      <trkpt lat="44.02568" lon="7.02309">
        <ele>1528.8</ele>
        <time>2016-06-25T08:09:25Z</time>
      </trkpt>
      <trkpt lat="44.02576" lon="7.0232">
        <ele>1528.7</ele>
        <time>2016-06-25T08:09:29Z</time>
      </trkpt>
      <trkpt lat="44.02583" lon="7.02332">
        <ele>1530</ele>
        <time>2016-06-25T08:09:33Z</time>
      </trkpt>
      <trkpt lat="44.0259" lon="7.02342">
        <ele>1529.3</ele>
        <time>2016-06-25T08:09:37Z</time>
      </trkpt>
      <trkpt lat="44.02597" lon="7.02353">
        <ele>1530.3</ele>
        <time>2016-06-25T08:09:42Z</time>
      </trkpt>
      <trkpt lat="44.02604" lon="7.02364">
        <ele>1531</ele>
        <time>2016-06-25T08:09:47Z</time>
      </trkpt>
      <trkpt lat="44.02611" lon="7.02372">
        <ele>1532.3</ele>
        <time>2016-06-25T08:09:51Z</time>
      </trkpt>
      <trkpt lat="44.02619" lon="7.0238">
        <ele>1531.5</ele>
        <time>2016-06-25T08:09:54Z</time>
      </trkpt>
      <trkpt lat="44.02626" lon="7.0239">
        <ele>1531.2</ele>
        <time>2016-06-25T08:09:58Z</time>
      </trkpt>
      <trkpt lat="44.02634" lon="7.024">
        <ele>1532.1</ele>
        <time>2016-06-25T08:10:02Z</time>
      </trkpt>
      <trkpt lat="44.02642" lon="7.02407">
        <ele>1532.8</ele>
        <time>2016-06-25T08:10:05Z</time>
      </trkpt>
      <trkpt lat="44.0265" lon="7.02414">
        <ele>1531.6</ele>
        <time>2016-06-25T08:10:08Z</time>
      </trkpt>
      <trkpt lat="44.02658" lon="7.0242">
        <ele>1531.4</ele>
        <time>2016-06-25T08:10:11Z</time>
      </trkpt>
      <trkpt lat="44.02667" lon="7.02429">
        <ele>1531.9</ele>
        <time>2016-06-25T08:10:14Z</time>
      </trkpt>
      <trkpt lat="44.02676" lon="7.02437">
        <ele>1531.8</ele>
        <time>2016-06-25T08:10:17Z</time>
      </trkpt>
      <trkpt lat="44.02684" lon="7.02446">
        <ele>1531.9</ele>
        <time>2016-06-25T08:10:20Z</time>
      </trkpt>
      <trkpt lat="44.02692" lon="7.02455">
        <ele>1532.5</ele>
        <time>2016-06-25T08:10:24Z</time>
      </trkpt>
      <trkpt lat="44.027" lon="7.02464">
        <ele>1533.4</ele>
        <time>2016-06-25T08:10:28Z</time>
      </trkpt>
      <trkpt lat="44.02708" lon="7.02472">
        <ele>1533.7</ele>
        <time>2016-06-25T08:10:32Z</time>
      </trkpt>
      <trkpt lat="44.02715" lon="7.0248">
        <ele>1534.4</ele>
        <time>2016-06-25T08:10:37Z</time>
      </trkpt>
      <trkpt lat="44.02722" lon="7.02489">
        <ele>1535.5</ele>
        <time>2016-06-25T08:10:42Z</time>
      </trkpt>
      <trkpt lat="44.02728" lon="7.02498">
        <ele>1535.9</ele>
        <time>2016-06-25T08:10:47Z</time>
      </trkpt>
      <trkpt lat="44.02734" lon="7.02508">
        <ele>1536.7</ele>
        <time>2016-06-25T08:10:52Z</time>
      </trkpt>
      <trkpt lat="44.0274" lon="7.02518">
        <ele>1537.9</ele>
        <time>2016-06-25T08:10:57Z</time>
      </trkpt>
      <trkpt lat="44.02747" lon="7.02528">
        <ele>1538.4</ele>
        <time>2016-06-25T08:11:02Z</time>
      </trkpt>
      <trkpt lat="44.02755" lon="7.02537">
        <ele>1538.4</ele>
        <time>2016-06-25T08:11:07Z</time>
      </trkpt>
      <trkpt lat="44.02763" lon="7.02547">
        <ele>1539.5</ele>
        <time>2016-06-25T08:11:12Z</time>
      </trkpt>
      <trkpt lat="44.02768" lon="7.02557">
        <ele>1540.3</ele>
        <time>2016-06-25T08:11:16Z</time>
      </trkpt>
      <trkpt lat="44.02775" lon="7.02568">
        <ele>1540.7</ele>
        <time>2016-06-25T08:11:21Z</time>
      </trkpt>
      <trkpt lat="44.02783" lon="7.02577">
        <ele>1541.5</ele>
        <time>2016-06-25T08:11:26Z</time>
      </trkpt>
      <trkpt lat="44.02792" lon="7.02584">
        <ele>1542.6</ele>
        <time>2016-06-25T08:11:32Z</time>
      </trkpt>
      <trkpt lat="44.02801" lon="7.02587">
        <ele>1543.4</ele>
        <time>2016-06-25T08:11:38Z</time>
      </trkpt>
      <trkpt lat="44.02812" lon="7.02588">
        <ele>1544.4</ele>
        <time>2016-06-25T08:11:44Z</time>
      </trkpt>
      <trkpt lat="44.02822" lon="7.02589">
        <ele>1545</ele>
        <time>2016-06-25T08:11:49Z</time>
      </trkpt>
      <trkpt lat="44.02832" lon="7.02588">
        <ele>1545.7</ele>
        <time>2016-06-25T08:11:54Z</time>
      </trkpt>
      <trkpt lat="44.02842" lon="7.02587">
        <ele>1547.4</ele>
        <time>2016-06-25T08:11:59Z</time>
      </trkpt>
      <trkpt lat="44.02853" lon="7.02586">
        <ele>1547.7</ele>
        <time>2016-06-25T08:12:04Z</time>
      </trkpt>
      <trkpt lat="44.02863" lon="7.02585">
        <ele>1548</ele>
        <time>2016-06-25T08:12:09Z</time>
      </trkpt>
      <trkpt lat="44.02872" lon="7.02585">
        <ele>1548.6</ele>
        <time>2016-06-25T08:12:13Z</time>
      </trkpt>
      <trkpt lat="44.02881" lon="7.02585">
        <ele>1550.3</ele>
        <time>2016-06-25T08:12:17Z</time>
      </trkpt>
      <trkpt lat="44.0289" lon="7.02585">
        <ele>1550.2</ele>
        <time>2016-06-25T08:12:21Z</time>
      </trkpt>
      <trkpt lat="44.029" lon="7.02585">
        <ele>1550.9</ele>
        <time>2016-06-25T08:12:25Z</time>
      </trkpt>
      <trkpt lat="44.0291" lon="7.02584">
        <ele>1549.6</ele>
        <time>2016-06-25T08:12:29Z</time>
      </trkpt>
      <trkpt lat="44.02921" lon="7.02584">
        <ele>1549.9</ele>
        <time>2016-06-25T08:12:33Z</time>
      </trkpt>
      <trkpt lat="44.0293" lon="7.02583">
        <ele>1551</ele>
        <time>2016-06-25T08:12:36Z</time>
      </trkpt>
      <trkpt lat="44.02939" lon="7.02584">
        <ele>1551.4</ele>
        <time>2016-06-25T08:12:39Z</time>
      </trkpt>
      <trkpt lat="44.02948" lon="7.02585">
        <ele>1550.7</ele>
        <time>2016-06-25T08:12:42Z</time>
      </trkpt>
      <trkpt lat="44.02958" lon="7.02588">
        <ele>1550.9</ele>
        <time>2016-06-25T08:12:45Z</time>
      </trkpt>
      <trkpt lat="44.02967" lon="7.02589">
        <ele>1551</ele>
        <time>2016-06-25T08:12:48Z</time>
      </trkpt>
      <trkpt lat="44.02979" lon="7.02591">
        <ele>1551.6</ele>
        <time>2016-06-25T08:12:52Z</time>
      </trkpt>
      <trkpt lat="44.02989" lon="7.02594">
        <ele>1551.8</ele>
        <time>2016-06-25T08:12:55Z</time>
      </trkpt>
      <trkpt lat="44.02998" lon="7.02597">
        <ele>1551</ele>
        <time>2016-06-25T08:12:58Z</time>
      </trkpt>
      <trkpt lat="44.03007" lon="7.02601">
        <ele>1551.2</ele>
        <time>2016-06-25T08:13:01Z</time>
      </trkpt>
      <trkpt lat="44.03017" lon="7.02606">
        <ele>1551.3</ele>
        <time>2016-06-25T08:13:04Z</time>
      </trkpt>
      <trkpt lat="44.03025" lon="7.02612">
        <ele>1551.3</ele>
        <time>2016-06-25T08:13:07Z</time>
      </trkpt>
      <trkpt lat="44.03033" lon="7.02619">
        <ele>1551.8</ele>
        <time>2016-06-25T08:13:10Z</time>
      </trkpt>
      <trkpt lat="44.03042" lon="7.02627">
        <ele>1551.9</ele>
        <time>2016-06-25T08:13:13Z</time>
      </trkpt>
      <trkpt lat="44.0305" lon="7.02633">
        <ele>1552.5</ele>
        <time>2016-06-25T08:13:16Z</time>
      </trkpt>
      <trkpt lat="44.03059" lon="7.02638">
        <ele>1553.1</ele>
        <time>2016-06-25T08:13:19Z</time>
      </trkpt>
      <trkpt lat="44.03067" lon="7.02643">
        <ele>1553.5</ele>
        <time>2016-06-25T08:13:22Z</time>
      </trkpt>
      <trkpt lat="44.03078" lon="7.02651">
        <ele>1553.7</ele>
        <time>2016-06-25T08:13:26Z</time>
      </trkpt>
      <trkpt lat="44.03087" lon="7.02656">
        <ele>1554.4</ele>
        <time>2016-06-25T08:13:29Z</time>
      </trkpt>
      <trkpt lat="44.03096" lon="7.0266">
        <ele>1555.4</ele>
        <time>2016-06-25T08:13:33Z</time>
      </trkpt>
      <trkpt lat="44.03107" lon="7.02664">
        <ele>1554.7</ele>
        <time>2016-06-25T08:13:37Z</time>
      </trkpt>
      <trkpt lat="44.03117" lon="7.02668">
        <ele>1555.7</ele>
        <time>2016-06-25T08:13:41Z</time>
      </trkpt>
      <trkpt lat="44.03127" lon="7.02671">
        <ele>1557.6</ele>
        <time>2016-06-25T08:13:46Z</time>
      </trkpt>
      <trkpt lat="44.03136" lon="7.02672">
        <ele>1557.4</ele>
        <time>2016-06-25T08:13:51Z</time>
      </trkpt>
      <trkpt lat="44.03146" lon="7.02673">
        <ele>1559.1</ele>
        <time>2016-06-25T08:13:57Z</time>
      </trkpt>
      <trkpt lat="44.03156" lon="7.02675">
        <ele>1560.2</ele>
        <time>2016-06-25T08:14:03Z</time>
      </trkpt>
      <trkpt lat="44.03167" lon="7.02677">
        <ele>1561.4</ele>
        <time>2016-06-25T08:14:09Z</time>
      </trkpt>
      <trkpt lat="44.03176" lon="7.02681">
        <ele>1562.3</ele>
        <time>2016-06-25T08:14:15Z</time>
      </trkpt>
      <trkpt lat="44.03186" lon="7.02688">
        <ele>1564.2</ele>
        <time>2016-06-25T08:14:21Z</time>
      </trkpt>
      <trkpt lat="44.03193" lon="7.02695">
        <ele>1564.4</ele>
        <time>2016-06-25T08:14:26Z</time>
      </trkpt>
      <trkpt lat="44.03201" lon="7.02701">
        <ele>1565.6</ele>
        <time>2016-06-25T08:14:31Z</time>
      </trkpt>
      <trkpt lat="44.0321" lon="7.02707">
        <ele>1566.6</ele>
        <time>2016-06-25T08:14:36Z</time>
      </trkpt>
      <trkpt lat="44.03218" lon="7.02713">
        <ele>1567.3</ele>
        <time>2016-06-25T08:14:41Z</time>
      </trkpt>
      <trkpt lat="44.03227" lon="7.02719">
        <ele>1568.7</ele>
        <time>2016-06-25T08:14:46Z</time>
      </trkpt>
      <trkpt lat="44.03236" lon="7.02724">
        <ele>1569.8</ele>
        <time>2016-06-25T08:14:52Z</time>
      </trkpt>
      <trkpt lat="44.03245" lon="7.02729">
        <ele>1569.8</ele>
        <time>2016-06-25T08:14:57Z</time>
      </trkpt>
      <trkpt lat="44.03253" lon="7.02733">
        <ele>1569.5</ele>
        <time>2016-06-25T08:15:02Z</time>
      </trkpt>
      <trkpt lat="44.03262" lon="7.02738">
        <ele>1571.9</ele>
        <time>2016-06-25T08:15:07Z</time>
      </trkpt>
      <trkpt lat="44.03271" lon="7.02745">
        <ele>1572.2</ele>
        <time>2016-06-25T08:15:13Z</time>
      </trkpt>
      <trkpt lat="44.03281" lon="7.02752">
        <ele>1574.6</ele>
        <time>2016-06-25T08:15:19Z</time>
      </trkpt>
      <trkpt lat="44.03289" lon="7.02758">
        <ele>1575.8</ele>
        <time>2016-06-25T08:15:24Z</time>
      </trkpt>
      <trkpt lat="44.03296" lon="7.02765">
        <ele>1576.3</ele>
        <time>2016-06-25T08:15:29Z</time>
      </trkpt>
      <trkpt lat="44.03305" lon="7.02772">
        <ele>1576.9</ele>
        <time>2016-06-25T08:15:35Z</time>
      </trkpt>
      <trkpt lat="44.03314" lon="7.0278">
        <ele>1578.7</ele>
        <time>2016-06-25T08:15:41Z</time>
      </trkpt>
      <trkpt lat="44.03322" lon="7.02788">
        <ele>1579.7</ele>
        <time>2016-06-25T08:15:47Z</time>
      </trkpt>
      <trkpt lat="44.03331" lon="7.02796">
        <ele>1581.4</ele>
        <time>2016-06-25T08:15:53Z</time>
      </trkpt>
      <trkpt lat="44.03338" lon="7.02804">
        <ele>1583.2</ele>
        <time>2016-06-25T08:15:59Z</time>
      </trkpt>
      <trkpt lat="44.03346" lon="7.02812">
        <ele>1583.4</ele>
        <time>2016-06-25T08:16:05Z</time>
      </trkpt>
      <trkpt lat="44.03354" lon="7.02815">
        <ele>1583.5</ele>
        <time>2016-06-25T08:16:11Z</time>
      </trkpt>
      <trkpt lat="44.03351" lon="7.02803">
        <ele>1586.8</ele>
        <time>2016-06-25T08:16:20Z</time>
      </trkpt>
      <trkpt lat="44.03345" lon="7.02793">
        <ele>1586.6</ele>
        <time>2016-06-25T08:16:25Z</time>
      </trkpt>
      <trkpt lat="44.03341" lon="7.0278">
        <ele>1587.4</ele>
        <time>2016-06-25T08:16:31Z</time>
      </trkpt>
      <trkpt lat="44.03336" lon="7.02768">
        <ele>1587.7</ele>
        <time>2016-06-25T08:16:36Z</time>
      </trkpt>
      <trkpt lat="44.03329" lon="7.02757">
        <ele>1590.5</ele>
        <time>2016-06-25T08:16:42Z</time>
      </trkpt>
      <trkpt lat="44.03322" lon="7.02746">
        <ele>1589.6</ele>
        <time>2016-06-25T08:16:48Z</time>
      </trkpt>
      <trkpt lat="44.03316" lon="7.02737">
        <ele>1590.5</ele>
        <time>2016-06-25T08:16:53Z</time>
      </trkpt>
      <trkpt lat="44.0331" lon="7.02728">
        <ele>1591.6</ele>
        <time>2016-06-25T08:16:58Z</time>
      </trkpt>
      <trkpt lat="44.03303" lon="7.02719">
        <ele>1593</ele>
        <time>2016-06-25T08:17:03Z</time>
      </trkpt>
      <trkpt lat="44.03295" lon="7.0271">
        <ele>1594.1</ele>
        <time>2016-06-25T08:17:08Z</time>
      </trkpt>
      <trkpt lat="44.03287" lon="7.02702">
        <ele>1595.3</ele>
        <time>2016-06-25T08:17:13Z</time>
      </trkpt>
      <trkpt lat="44.03279" lon="7.02693">
        <ele>1595.3</ele>
        <time>2016-06-25T08:17:18Z</time>
      </trkpt>
      <trkpt lat="44.03271" lon="7.02685">
        <ele>1596.1</ele>
        <time>2016-06-25T08:17:23Z</time>
      </trkpt>
      <trkpt lat="44.03263" lon="7.02676">
        <ele>1597.4</ele>
        <time>2016-06-25T08:17:28Z</time>
      </trkpt>
      <trkpt lat="44.03257" lon="7.02665">
        <ele>1599.2</ele>
        <time>2016-06-25T08:17:33Z</time>
      </trkpt>
      <trkpt lat="44.0325" lon="7.02655">
        <ele>1598.9</ele>
        <time>2016-06-25T08:17:38Z</time>
      </trkpt>
      <trkpt lat="44.03244" lon="7.02644">
        <ele>1599.7</ele>
        <time>2016-06-25T08:17:43Z</time>
      </trkpt>
      <trkpt lat="44.03237" lon="7.02635">
        <ele>1600.7</ele>
        <time>2016-06-25T08:17:48Z</time>
      </trkpt>
      <trkpt lat="44.03231" lon="7.02625">
        <ele>1602.2</ele>
        <time>2016-06-25T08:17:53Z</time>
      </trkpt>
      <trkpt lat="44.03224" lon="7.02615">
        <ele>1603.2</ele>
        <time>2016-06-25T08:17:58Z</time>
      </trkpt>
      <trkpt lat="44.03216" lon="7.02605">
        <ele>1603.5</ele>
        <time>2016-06-25T08:18:03Z</time>
      </trkpt>
      <trkpt lat="44.03209" lon="7.02595">
        <ele>1603.9</ele>
        <time>2016-06-25T08:18:08Z</time>
      </trkpt>
      <trkpt lat="44.03201" lon="7.02585">
        <ele>1604.5</ele>
        <time>2016-06-25T08:18:13Z</time>
      </trkpt>
      <trkpt lat="44.03194" lon="7.02575">
        <ele>1604.6</ele>
        <time>2016-06-25T08:18:18Z</time>
      </trkpt>
      <trkpt lat="44.03187" lon="7.02565">
        <ele>1606.2</ele>
        <time>2016-06-25T08:18:23Z</time>
      </trkpt>
      <trkpt lat="44.0318" lon="7.02556">
        <ele>1606.4</ele>
        <time>2016-06-25T08:18:28Z</time>
      </trkpt>
      <trkpt lat="44.03173" lon="7.02546">
        <ele>1608</ele>
        <time>2016-06-25T08:18:33Z</time>
      </trkpt>
      <trkpt lat="44.03167" lon="7.02536">
        <ele>1608.7</ele>
        <time>2016-06-25T08:18:38Z</time>
      </trkpt>
      <trkpt lat="44.03159" lon="7.02528">
        <ele>1608.4</ele>
        <time>2016-06-25T08:18:43Z</time>
      </trkpt>
      <trkpt lat="44.03152" lon="7.0252">
        <ele>1609.2</ele>
        <time>2016-06-25T08:18:48Z</time>
      </trkpt>
      <trkpt lat="44.03144" lon="7.02511">
        <ele>1610.7</ele>
        <time>2016-06-25T08:18:53Z</time>
      </trkpt>
      <trkpt lat="44.03136" lon="7.02501">
        <ele>1611.5</ele>
        <time>2016-06-25T08:18:58Z</time>
      </trkpt>
      <trkpt lat="44.03129" lon="7.02492">
        <ele>1612.7</ele>
        <time>2016-06-25T08:19:03Z</time>
      </trkpt>
      <trkpt lat="44.03121" lon="7.02483">
        <ele>1613.4</ele>
        <time>2016-06-25T08:19:08Z</time>
      </trkpt>
      <trkpt lat="44.03113" lon="7.02475">
        <ele>1613.4</ele>
        <time>2016-06-25T08:19:13Z</time>
      </trkpt>
      <trkpt lat="44.03104" lon="7.02468">
        <ele>1615</ele>
        <time>2016-06-25T08:19:18Z</time>
      </trkpt>
      <trkpt lat="44.03096" lon="7.02461">
        <ele>1615.7</ele>
        <time>2016-06-25T08:19:23Z</time>
      </trkpt>
      <trkpt lat="44.03088" lon="7.02454">
        <ele>1616.8</ele>
        <time>2016-06-25T08:19:28Z</time>
      </trkpt>
      <trkpt lat="44.03079" lon="7.02447">
        <ele>1617.6</ele>
        <time>2016-06-25T08:19:33Z</time>
      </trkpt>
      <trkpt lat="44.0307" lon="7.02444">
        <ele>1618.9</ele>
        <time>2016-06-25T08:19:38Z</time>
      </trkpt>
      <trkpt lat="44.03061" lon="7.02441">
        <ele>1619.1</ele>
        <time>2016-06-25T08:19:43Z</time>
      </trkpt>
      <trkpt lat="44.03052" lon="7.02438">
        <ele>1620.6</ele>
        <time>2016-06-25T08:19:48Z</time>
      </trkpt>
      <trkpt lat="44.03043" lon="7.02433">
        <ele>1622.1</ele>
        <time>2016-06-25T08:19:53Z</time>
      </trkpt>
      <trkpt lat="44.03034" lon="7.02428">
        <ele>1623.4</ele>
        <time>2016-06-25T08:19:58Z</time>
      </trkpt>
      <trkpt lat="44.03025" lon="7.02423">
        <ele>1623.6</ele>
        <time>2016-06-25T08:20:03Z</time>
      </trkpt>
      <trkpt lat="44.03016" lon="7.02417">
        <ele>1624.5</ele>
        <time>2016-06-25T08:20:08Z</time>
      </trkpt>
      <trkpt lat="44.03006" lon="7.02412">
        <ele>1624.9</ele>
        <time>2016-06-25T08:20:13Z</time>
      </trkpt>
      <trkpt lat="44.02997" lon="7.02406">
        <ele>1626.1</ele>
        <time>2016-06-25T08:20:19Z</time>
      </trkpt>
      <trkpt lat="44.02987" lon="7.024">
        <ele>1626.6</ele>
        <time>2016-06-25T08:20:25Z</time>
      </trkpt>
      <trkpt lat="44.02979" lon="7.02394">
        <ele>1627.6</ele>
        <time>2016-06-25T08:20:29Z</time>
      </trkpt>
      <trkpt lat="44.0297" lon="7.02386">
        <ele>1627.6</ele>
        <time>2016-06-25T08:20:34Z</time>
      </trkpt>
      <trkpt lat="44.02962" lon="7.02379">
        <ele>1628.4</ele>
        <time>2016-06-25T08:20:38Z</time>
      </trkpt>
      <trkpt lat="44.02953" lon="7.02371">
        <ele>1629.1</ele>
        <time>2016-06-25T08:20:43Z</time>
      </trkpt>
      <trkpt lat="44.02945" lon="7.02363">
        <ele>1629.7</ele>
        <time>2016-06-25T08:20:48Z</time>
      </trkpt>
      <trkpt lat="44.02938" lon="7.02352">
        <ele>1630.8</ele>
        <time>2016-06-25T08:21:29Z</time>
      </trkpt>
      <trkpt lat="44.02932" lon="7.02341">
        <ele>1630.8</ele>
        <time>2016-06-25T08:21:34Z</time>
      </trkpt>
      <trkpt lat="44.02926" lon="7.02328">
        <ele>1632.6</ele>
        <time>2016-06-25T08:21:39Z</time>
      </trkpt>
      <trkpt lat="44.02921" lon="7.02315">
        <ele>1633.6</ele>
        <time>2016-06-25T08:21:44Z</time>
      </trkpt>
      <trkpt lat="44.02916" lon="7.02304">
        <ele>1634.1</ele>
        <time>2016-06-25T08:21:48Z</time>
      </trkpt>
      <trkpt lat="44.02911" lon="7.02291">
        <ele>1634.5</ele>
        <time>2016-06-25T08:21:53Z</time>
      </trkpt>
      <trkpt lat="44.02906" lon="7.02278">
        <ele>1634.6</ele>
        <time>2016-06-25T08:21:58Z</time>
      </trkpt>
      <trkpt lat="44.02902" lon="7.02264">
        <ele>1635.8</ele>
        <time>2016-06-25T08:22:03Z</time>
      </trkpt>
      <trkpt lat="44.02897" lon="7.0225">
        <ele>1636.6</ele>
        <time>2016-06-25T08:22:08Z</time>
      </trkpt>
      <trkpt lat="44.0289" lon="7.02238">
        <ele>1637.7</ele>
        <time>2016-06-25T08:22:13Z</time>
      </trkpt>
      <trkpt lat="44.02884" lon="7.02227">
        <ele>1638.1</ele>
        <time>2016-06-25T08:22:18Z</time>
      </trkpt>
      <trkpt lat="44.02892" lon="7.02222">
        <ele>1639.3</ele>
        <time>2016-06-25T08:22:26Z</time>
      </trkpt>
      <trkpt lat="44.02899" lon="7.02231">
        <ele>1639.8</ele>
        <time>2016-06-25T08:22:31Z</time>
      </trkpt>
      <trkpt lat="44.02907" lon="7.0224">
        <ele>1640.8</ele>
        <time>2016-06-25T08:22:36Z</time>
      </trkpt>
      <trkpt lat="44.02915" lon="7.02249">
        <ele>1641.8</ele>
        <time>2016-06-25T08:22:41Z</time>
      </trkpt>
      <trkpt lat="44.02924" lon="7.02255">
        <ele>1642</ele>
        <time>2016-06-25T08:22:46Z</time>
      </trkpt>
      <trkpt lat="44.02933" lon="7.02264">
        <ele>1643.3</ele>
        <time>2016-06-25T08:22:51Z</time>
      </trkpt>
      <trkpt lat="44.02941" lon="7.02271">
        <ele>1644.6</ele>
        <time>2016-06-25T08:22:56Z</time>
      </trkpt>
      <trkpt lat="44.02951" lon="7.02275">
        <ele>1645.4</ele>
        <time>2016-06-25T08:23:01Z</time>
      </trkpt>
      <trkpt lat="44.02961" lon="7.02278">
        <ele>1646.2</ele>
        <time>2016-06-25T08:23:06Z</time>
      </trkpt>
      <trkpt lat="44.02971" lon="7.02279">
        <ele>1647.2</ele>
        <time>2016-06-25T08:23:11Z</time>
      </trkpt>
      <trkpt lat="44.02981" lon="7.02282">
        <ele>1648</ele>
        <time>2016-06-25T08:23:16Z</time>
      </trkpt>
      <trkpt lat="44.02991" lon="7.02285">
        <ele>1648.9</ele>
        <time>2016-06-25T08:23:21Z</time>
      </trkpt>
      <trkpt lat="44.03" lon="7.02288">
        <ele>1649.5</ele>
        <time>2016-06-25T08:23:25Z</time>
      </trkpt>
      <trkpt lat="44.0301" lon="7.02294">
        <ele>1650</ele>
        <time>2016-06-25T08:23:29Z</time>
      </trkpt>
      <trkpt lat="44.03019" lon="7.023">
        <ele>1649.7</ele>
        <time>2016-06-25T08:23:32Z</time>
      </trkpt>
      <trkpt lat="44.03027" lon="7.02306">
        <ele>1649.3</ele>
        <time>2016-06-25T08:23:35Z</time>
      </trkpt>
      <trkpt lat="44.03038" lon="7.02313">
        <ele>1649.9</ele>
        <time>2016-06-25T08:23:39Z</time>
      </trkpt>
      <trkpt lat="44.03046" lon="7.02318">
        <ele>1650.3</ele>
        <time>2016-06-25T08:23:44Z</time>
      </trkpt>
      <trkpt lat="44.03055" lon="7.02324">
        <ele>1650.4</ele>
        <time>2016-06-25T08:24:10Z</time>
      </trkpt>
      <trkpt lat="44.03065" lon="7.02327">
        <ele>1651.4</ele>
        <time>2016-06-25T08:24:15Z</time>
      </trkpt>
      <trkpt lat="44.03065" lon="7.02314">
        <ele>1653.4</ele>
        <time>2016-06-25T08:24:25Z</time>
      </trkpt>
      <trkpt lat="44.03057" lon="7.02307">
        <ele>1654.3</ele>
        <time>2016-06-25T08:26:04Z</time>
      </trkpt>
      <trkpt lat="44.03051" lon="7.02296">
        <ele>1655.2</ele>
        <time>2016-06-25T08:26:10Z</time>
      </trkpt>
      <trkpt lat="44.03046" lon="7.02286">
        <ele>1656.2</ele>
        <time>2016-06-25T08:26:15Z</time>
      </trkpt>
      <trkpt lat="44.03039" lon="7.02276">
        <ele>1656.8</ele>
        <time>2016-06-25T08:26:20Z</time>
      </trkpt>
      <trkpt lat="44.0303" lon="7.02268">
        <ele>1656.8</ele>
        <time>2016-06-25T08:26:25Z</time>
      </trkpt>
      <trkpt lat="44.03022" lon="7.02262">
        <ele>1657.7</ele>
        <time>2016-06-25T08:26:29Z</time>
      </trkpt>
      <trkpt lat="44.03013" lon="7.02255">
        <ele>1659.4</ele>
        <time>2016-06-25T08:26:33Z</time>
      </trkpt>
      <trkpt lat="44.03003" lon="7.02249">
        <ele>1660.4</ele>
        <time>2016-06-25T08:26:38Z</time>
      </trkpt>
      <trkpt lat="44.02993" lon="7.02246">
        <ele>1660.7</ele>
        <time>2016-06-25T08:26:44Z</time>
      </trkpt>
      <trkpt lat="44.02984" lon="7.02243">
        <ele>1661.6</ele>
        <time>2016-06-25T08:26:49Z</time>
      </trkpt>
      <trkpt lat="44.02976" lon="7.02238">
        <ele>1662.2</ele>
        <time>2016-06-25T08:26:54Z</time>
      </trkpt>
      <trkpt lat="44.02968" lon="7.02229">
        <ele>1662.3</ele>
        <time>2016-06-25T08:26:59Z</time>
      </trkpt>
      <trkpt lat="44.02962" lon="7.02216">
        <ele>1662.7</ele>
        <time>2016-06-25T08:27:04Z</time>
      </trkpt>
      <trkpt lat="44.02957" lon="7.02205">
        <ele>1663.9</ele>
        <time>2016-06-25T08:27:09Z</time>
      </trkpt>
      <trkpt lat="44.02952" lon="7.02193">
        <ele>1664.3</ele>
        <time>2016-06-25T08:27:14Z</time>
      </trkpt>
      <trkpt lat="44.0295" lon="7.02181">
        <ele>1665.6</ele>
        <time>2016-06-25T08:27:19Z</time>
      </trkpt>
      <trkpt lat="44.02956" lon="7.0217">
        <ele>1665.6</ele>
        <time>2016-06-25T08:27:25Z</time>
      </trkpt>
      <trkpt lat="44.02964" lon="7.02173">
        <ele>1667.3</ele>
        <time>2016-06-25T08:28:31Z</time>
      </trkpt>
      <trkpt lat="44.0297" lon="7.02161">
        <ele>1667.3</ele>
        <time>2016-06-25T08:29:05Z</time>
      </trkpt>
      <trkpt lat="44.02977" lon="7.02153">
        <ele>1668.1</ele>
        <time>2016-06-25T08:29:11Z</time>
      </trkpt>
      <trkpt lat="44.02984" lon="7.02141">
        <ele>1669.7</ele>
        <time>2016-06-25T08:30:51Z</time>
      </trkpt>
      <trkpt lat="44.02992" lon="7.02131">
        <ele>1670.5</ele>
        <time>2016-06-25T08:30:55Z</time>
      </trkpt>
      <trkpt lat="44.02994" lon="7.02144">
        <ele>1672.6</ele>
        <time>2016-06-25T08:31:02Z</time>
      </trkpt>
      <trkpt lat="44.02992" lon="7.02159">
        <ele>1672.8</ele>
        <time>2016-06-25T08:31:07Z</time>
      </trkpt>
      <trkpt lat="44.02995" lon="7.02171">
        <ele>1673.9</ele>
        <time>2016-06-25T08:31:12Z</time>
      </trkpt>
      <trkpt lat="44.03004" lon="7.02178">
        <ele>1675</ele>
        <time>2016-06-25T08:31:18Z</time>
      </trkpt>
      <trkpt lat="44.03013" lon="7.0218">
        <ele>1676.3</ele>
        <time>2016-06-25T08:31:24Z</time>
      </trkpt>
      <trkpt lat="44.03021" lon="7.02173">
        <ele>1678.4</ele>
        <time>2016-06-25T08:31:41Z</time>
      </trkpt>
      <trkpt lat="44.03025" lon="7.0216">
        <ele>1682.1</ele>
        <time>2016-06-25T08:32:08Z</time>
      </trkpt>
      <trkpt lat="44.03027" lon="7.02148">
        <ele>1683</ele>
        <time>2016-06-25T08:33:47Z</time>
      </trkpt>
      <trkpt lat="44.03022" lon="7.02135">
        <ele>1682.4</ele>
        <time>2016-06-25T08:33:51Z</time>
      </trkpt>
      <trkpt lat="44.03021" lon="7.02122">
        <ele>1680.9</ele>
        <time>2016-06-25T08:33:55Z</time>
      </trkpt>
      <trkpt lat="44.03027" lon="7.02108">
        <ele>1678.7</ele>
        <time>2016-06-25T08:33:59Z</time>
      </trkpt>
      <trkpt lat="44.03032" lon="7.02096">
        <ele>1677.6</ele>
        <time>2016-06-25T08:34:02Z</time>
      </trkpt>
      <trkpt lat="44.03037" lon="7.02085">
        <ele>1675.6</ele>
        <time>2016-06-25T08:34:05Z</time>
      </trkpt>
      <trkpt lat="44.03044" lon="7.02075">
        <ele>1673.5</ele>
        <time>2016-06-25T08:34:08Z</time>
      </trkpt>
      <trkpt lat="44.03052" lon="7.02066">
        <ele>1671.5</ele>
        <time>2016-06-25T08:34:19Z</time>
      </trkpt>
      <trkpt lat="44.03059" lon="7.02057">
        <ele>1671.8</ele>
        <time>2016-06-25T08:34:24Z</time>
      </trkpt>
      <trkpt lat="44.03066" lon="7.02048">
        <ele>1672</ele>
        <time>2016-06-25T08:34:31Z</time>
      </trkpt>
      <trkpt lat="44.03074" lon="7.0204">
        <ele>1672.1</ele>
        <time>2016-06-25T08:34:40Z</time>
      </trkpt>
      <trkpt lat="44.03081" lon="7.02031">
        <ele>1673.7</ele>
        <time>2016-06-25T08:34:49Z</time>
      </trkpt>
      <trkpt lat="44.03089" lon="7.02025">
        <ele>1673.9</ele>
        <time>2016-06-25T08:35:24Z</time>
      </trkpt>
      <trkpt lat="44.03097" lon="7.02017">
        <ele>1675.7</ele>
        <time>2016-06-25T08:35:30Z</time>
      </trkpt>
      <trkpt lat="44.03107" lon="7.0201">
        <ele>1675.4</ele>
        <time>2016-06-25T08:35:35Z</time>
      </trkpt>
      <trkpt lat="44.03115" lon="7.02002">
        <ele>1675.5</ele>
        <time>2016-06-25T08:35:40Z</time>
      </trkpt>
      <trkpt lat="44.03124" lon="7.01994">
        <ele>1675.6</ele>
        <time>2016-06-25T08:35:45Z</time>
      </trkpt>
      <trkpt lat="44.03132" lon="7.01986">
        <ele>1675.9</ele>
        <time>2016-06-25T08:35:50Z</time>
      </trkpt>
      <trkpt lat="44.03139" lon="7.01975">
        <ele>1676.4</ele>
        <time>2016-06-25T08:35:55Z</time>
      </trkpt>
      <trkpt lat="44.03145" lon="7.01963">
        <ele>1677.4</ele>
        <time>2016-06-25T08:36:00Z</time>
      </trkpt>
      <trkpt lat="44.03151" lon="7.01953">
        <ele>1679.3</ele>
        <time>2016-06-25T08:36:04Z</time>
      </trkpt>
      <trkpt lat="44.03159" lon="7.01942">
        <ele>1680.6</ele>
        <time>2016-06-25T08:36:09Z</time>
      </trkpt>
      <trkpt lat="44.03167" lon="7.01932">
        <ele>1679.7</ele>
        <time>2016-06-25T08:36:14Z</time>
      </trkpt>
      <trkpt lat="44.03176" lon="7.01926">
        <ele>1679.9</ele>
        <time>2016-06-25T08:36:20Z</time>
      </trkpt>
      <trkpt lat="44.03185" lon="7.01923">
        <ele>1679.9</ele>
        <time>2016-06-25T08:36:26Z</time>
      </trkpt>
      <trkpt lat="44.03194" lon="7.01919">
        <ele>1681.1</ele>
        <time>2016-06-25T08:36:32Z</time>
      </trkpt>
      <trkpt lat="44.03202" lon="7.01914">
        <ele>1681.6</ele>
        <time>2016-06-25T08:36:43Z</time>
      </trkpt>
      <trkpt lat="44.03211" lon="7.01906">
        <ele>1681.8</ele>
        <time>2016-06-25T08:36:53Z</time>
      </trkpt>
      <trkpt lat="44.03217" lon="7.01894">
        <ele>1683.1</ele>
        <time>2016-06-25T08:36:58Z</time>
      </trkpt>
      <trkpt lat="44.03224" lon="7.01884">
        <ele>1683.2</ele>
        <time>2016-06-25T08:37:03Z</time>
      </trkpt>
      <trkpt lat="44.03233" lon="7.01881">
        <ele>1684.2</ele>
        <time>2016-06-25T08:37:15Z</time>
      </trkpt>
      <trkpt lat="44.03242" lon="7.01877">
        <ele>1684.8</ele>
        <time>2016-06-25T08:37:24Z</time>
      </trkpt>
      <trkpt lat="44.03247" lon="7.01866">
        <ele>1684.6</ele>
        <time>2016-06-25T08:37:33Z</time>
      </trkpt>
      <trkpt lat="44.0325" lon="7.01853">
        <ele>1684.4</ele>
        <time>2016-06-25T08:37:41Z</time>
      </trkpt>
      <trkpt lat="44.03254" lon="7.01838">
        <ele>1685.9</ele>
        <time>2016-06-25T08:37:47Z</time>
      </trkpt>
      <trkpt lat="44.03258" lon="7.01823">
        <ele>1687.4</ele>
        <time>2016-06-25T08:37:52Z</time>
      </trkpt>
      <trkpt lat="44.03261" lon="7.0181">
        <ele>1686.8</ele>
        <time>2016-06-25T08:37:56Z</time>
      </trkpt>
      <trkpt lat="44.03264" lon="7.01796">
        <ele>1686.9</ele>
        <time>2016-06-25T08:38:00Z</time>
      </trkpt>
      <trkpt lat="44.03267" lon="7.01781">
        <ele>1686.5</ele>
        <time>2016-06-25T08:38:04Z</time>
      </trkpt>
      <trkpt lat="44.0327" lon="7.01768">
        <ele>1687.2</ele>
        <time>2016-06-25T08:38:08Z</time>
      </trkpt>
      <trkpt lat="44.03274" lon="7.01756">
        <ele>1688.3</ele>
        <time>2016-06-25T08:38:12Z</time>
      </trkpt>
      <trkpt lat="44.03277" lon="7.01744">
        <ele>1688.6</ele>
        <time>2016-06-25T08:38:18Z</time>
      </trkpt>
      <trkpt lat="44.03283" lon="7.01733">
        <ele>1688.9</ele>
        <time>2016-06-25T08:38:22Z</time>
      </trkpt>
      <trkpt lat="44.03289" lon="7.01724">
        <ele>1689.8</ele>
        <time>2016-06-25T08:38:26Z</time>
      </trkpt>
      <trkpt lat="44.03295" lon="7.01713">
        <ele>1691.1</ele>
        <time>2016-06-25T08:38:31Z</time>
      </trkpt>
      <trkpt lat="44.03301" lon="7.01702">
        <ele>1692.2</ele>
        <time>2016-06-25T08:38:42Z</time>
      </trkpt>
      <trkpt lat="44.03309" lon="7.01694">
        <ele>1693.2</ele>
        <time>2016-06-25T08:40:16Z</time>
      </trkpt>
      <trkpt lat="44.03317" lon="7.01685">
        <ele>1693.1</ele>
        <time>2016-06-25T08:40:20Z</time>
      </trkpt>
      <trkpt lat="44.03324" lon="7.01675">
        <ele>1692.9</ele>
        <time>2016-06-25T08:40:24Z</time>
      </trkpt>
      <trkpt lat="44.03332" lon="7.01667">
        <ele>1693.5</ele>
        <time>2016-06-25T08:40:27Z</time>
      </trkpt>
      <trkpt lat="44.0334" lon="7.0166">
        <ele>1693.9</ele>
        <time>2016-06-25T08:40:31Z</time>
      </trkpt>
      <trkpt lat="44.0335" lon="7.0166">
        <ele>1695.2</ele>
        <time>2016-06-25T08:40:36Z</time>
      </trkpt>
      <trkpt lat="44.03359" lon="7.01659">
        <ele>1695.3</ele>
        <time>2016-06-25T08:40:44Z</time>
      </trkpt>
      <trkpt lat="44.03367" lon="7.01652">
        <ele>1696.6</ele>
        <time>2016-06-25T08:40:55Z</time>
      </trkpt>
      <trkpt lat="44.03374" lon="7.01645">
        <ele>1699.5</ele>
        <time>2016-06-25T08:41:09Z</time>
      </trkpt>
      <trkpt lat="44.03383" lon="7.01641">
        <ele>1699.4</ele>
        <time>2016-06-25T08:41:22Z</time>
      </trkpt>
      <trkpt lat="44.03391" lon="7.01635">
        <ele>1699.7</ele>
        <time>2016-06-25T08:41:32Z</time>
      </trkpt>
      <trkpt lat="44.034" lon="7.01629">
        <ele>1700.2</ele>
        <time>2016-06-25T08:41:41Z</time>
      </trkpt>
      <trkpt lat="44.03401" lon="7.01616">
        <ele>1702.8</ele>
        <time>2016-06-25T08:42:15Z</time>
      </trkpt>
      <trkpt lat="44.03408" lon="7.01607">
        <ele>1703.9</ele>
        <time>2016-06-25T08:42:24Z</time>
      </trkpt>
      <trkpt lat="44.03414" lon="7.01597">
        <ele>1704.5</ele>
        <time>2016-06-25T08:43:00Z</time>
      </trkpt>
      <trkpt lat="44.03422" lon="7.01589">
        <ele>1705.6</ele>
        <time>2016-06-25T08:43:08Z</time>
      </trkpt>
      <trkpt lat="44.03429" lon="7.0158">
        <ele>1706.3</ele>
        <time>2016-06-25T08:43:16Z</time>
      </trkpt>
      <trkpt lat="44.03438" lon="7.01577">
        <ele>1708.1</ele>
        <time>2016-06-25T08:43:24Z</time>
      </trkpt>
      <trkpt lat="44.03447" lon="7.01569">
        <ele>1708.8</ele>
        <time>2016-06-25T08:43:32Z</time>
      </trkpt>
      <trkpt lat="44.03455" lon="7.01563">
        <ele>1710.9</ele>
        <time>2016-06-25T08:43:41Z</time>
      </trkpt>
      <trkpt lat="44.03463" lon="7.01556">
        <ele>1711.9</ele>
        <time>2016-06-25T08:43:52Z</time>
      </trkpt>
      <trkpt lat="44.03471" lon="7.01548">
        <ele>1710.9</ele>
        <time>2016-06-25T08:44:32Z</time>
      </trkpt>
      <trkpt lat="44.0348" lon="7.01545">
        <ele>1711.3</ele>
        <time>2016-06-25T08:44:40Z</time>
      </trkpt>
      <trkpt lat="44.0349" lon="7.01547">
        <ele>1712.9</ele>
        <time>2016-06-25T08:44:48Z</time>
      </trkpt>
      <trkpt lat="44.0349" lon="7.01534">
        <ele>1714.8</ele>
        <time>2016-06-25T08:44:59Z</time>
      </trkpt>
      <trkpt lat="44.03494" lon="7.01521">
        <ele>1715.6</ele>
        <time>2016-06-25T08:45:09Z</time>
      </trkpt>
      <trkpt lat="44.03498" lon="7.01509">
        <ele>1718.1</ele>
        <time>2016-06-25T08:45:19Z</time>
      </trkpt>
      <trkpt lat="44.03502" lon="7.01497">
        <ele>1718.9</ele>
        <time>2016-06-25T08:45:49Z</time>
      </trkpt>
      <trkpt lat="44.03509" lon="7.01485">
        <ele>1718.3</ele>
        <time>2016-06-25T08:45:55Z</time>
      </trkpt>
      <trkpt lat="44.03514" lon="7.01474">
        <ele>1719.1</ele>
        <time>2016-06-25T08:46:00Z</time>
      </trkpt>
      <trkpt lat="44.0352" lon="7.01464">
        <ele>1720.1</ele>
        <time>2016-06-25T08:46:04Z</time>
      </trkpt>
      <trkpt lat="44.03525" lon="7.01452">
        <ele>1721.6</ele>
        <time>2016-06-25T08:46:09Z</time>
      </trkpt>
      <trkpt lat="44.0353" lon="7.0144">
        <ele>1721.2</ele>
        <time>2016-06-25T08:46:14Z</time>
      </trkpt>
      <trkpt lat="44.03535" lon="7.01428">
        <ele>1722.8</ele>
        <time>2016-06-25T08:46:28Z</time>
      </trkpt>
      <trkpt lat="44.0354" lon="7.01417">
        <ele>1723.3</ele>
        <time>2016-06-25T08:46:33Z</time>
      </trkpt>
      <trkpt lat="44.03544" lon="7.01403">
        <ele>1724.2</ele>
        <time>2016-06-25T08:46:38Z</time>
      </trkpt>
      <trkpt lat="44.03544" lon="7.0139">
        <ele>1725.1</ele>
        <time>2016-06-25T08:46:47Z</time>
      </trkpt>
      <trkpt lat="44.03537" lon="7.01381">
        <ele>1725.6</ele>
        <time>2016-06-25T08:47:00Z</time>
      </trkpt>
      <trkpt lat="44.0353" lon="7.01371">
        <ele>1725.5</ele>
        <time>2016-06-25T08:47:25Z</time>
      </trkpt>
      <trkpt lat="44.03523" lon="7.01362">
        <ele>1724.9</ele>
        <time>2016-06-25T08:47:30Z</time>
      </trkpt>
      <trkpt lat="44.03514" lon="7.01352">
        <ele>1724.8</ele>
        <time>2016-06-25T08:47:35Z</time>
      </trkpt>
      <trkpt lat="44.03509" lon="7.01342">
        <ele>1726.8</ele>
        <time>2016-06-25T08:47:43Z</time>
      </trkpt>
      <trkpt lat="44.03503" lon="7.01332">
        <ele>1727.4</ele>
        <time>2016-06-25T08:47:50Z</time>
      </trkpt>
      <trkpt lat="44.03497" lon="7.01321">
        <ele>1727.4</ele>
        <time>2016-06-25T08:47:54Z</time>
      </trkpt>
      <trkpt lat="44.03491" lon="7.01311">
        <ele>1727.7</ele>
        <time>2016-06-25T08:47:58Z</time>
      </trkpt>
      <trkpt lat="44.03488" lon="7.01299">
        <ele>1726.9</ele>
        <time>2016-06-25T08:48:02Z</time>
      </trkpt>
      <trkpt lat="44.03486" lon="7.01285">
        <ele>1727.6</ele>
        <time>2016-06-25T08:48:14Z</time>
      </trkpt>
      <trkpt lat="44.03488" lon="7.01272">
        <ele>1728.1</ele>
        <time>2016-06-25T08:48:28Z</time>
      </trkpt>
      <trkpt lat="44.03489" lon="7.01259">
        <ele>1729.6</ele>
        <time>2016-06-25T08:48:41Z</time>
      </trkpt>
      <trkpt lat="44.03489" lon="7.01245">
        <ele>1729.8</ele>
        <time>2016-06-25T08:48:49Z</time>
      </trkpt>
      <trkpt lat="44.03491" lon="7.01232">
        <ele>1729.5</ele>
        <time>2016-06-25T08:48:54Z</time>
      </trkpt>
      <trkpt lat="44.03497" lon="7.01215">
        <ele>1728</ele>
        <time>2016-06-25T08:48:59Z</time>
      </trkpt>
      <trkpt lat="44.03502" lon="7.01204">
        <ele>1727</ele>
        <time>2016-06-25T08:49:03Z</time>
      </trkpt>
      <trkpt lat="44.03508" lon="7.01192">
        <ele>1727.4</ele>
        <time>2016-06-25T08:49:08Z</time>
      </trkpt>
      <trkpt lat="44.03516" lon="7.01181">
        <ele>1728</ele>
        <time>2016-06-25T08:49:13Z</time>
      </trkpt>
      <trkpt lat="44.03526" lon="7.01168">
        <ele>1729.2</ele>
        <time>2016-06-25T08:49:25Z</time>
      </trkpt>
      <trkpt lat="44.03534" lon="7.0116">
        <ele>1731</ele>
        <time>2016-06-25T08:49:32Z</time>
      </trkpt>
      <trkpt lat="44.03541" lon="7.01151">
        <ele>1731.4</ele>
        <time>2016-06-25T08:49:36Z</time>
      </trkpt>
      <trkpt lat="44.03548" lon="7.01142">
        <ele>1732.5</ele>
        <time>2016-06-25T08:49:41Z</time>
      </trkpt>
      <trkpt lat="44.03555" lon="7.01133">
        <ele>1732</ele>
        <time>2016-06-25T08:50:04Z</time>
      </trkpt>
      <trkpt lat="44.03561" lon="7.01123">
        <ele>1732.8</ele>
        <time>2016-06-25T08:50:08Z</time>
      </trkpt>
      <trkpt lat="44.0357" lon="7.01119">
        <ele>1732.6</ele>
        <time>2016-06-25T08:50:13Z</time>
      </trkpt>
      <trkpt lat="44.03575" lon="7.01108">
        <ele>1734.3</ele>
        <time>2016-06-25T08:50:20Z</time>
      </trkpt>
      <trkpt lat="44.03568" lon="7.01098">
        <ele>1733.7</ele>
        <time>2016-06-25T08:50:25Z</time>
      </trkpt>
      <trkpt lat="44.03563" lon="7.01086">
        <ele>1733</ele>
        <time>2016-06-25T08:50:31Z</time>
      </trkpt>
      <trkpt lat="44.03558" lon="7.01074">
        <ele>1734.2</ele>
        <time>2016-06-25T08:50:36Z</time>
      </trkpt>
      <trkpt lat="44.03551" lon="7.01064">
        <ele>1734.3</ele>
        <time>2016-06-25T08:50:42Z</time>
      </trkpt>
      <trkpt lat="44.03544" lon="7.01055">
        <ele>1735.1</ele>
        <time>2016-06-25T08:50:49Z</time>
      </trkpt>
      <trkpt lat="44.03536" lon="7.01045">
        <ele>1736.8</ele>
        <time>2016-06-25T08:50:55Z</time>
      </trkpt>
      <trkpt lat="44.03531" lon="7.01034">
        <ele>1736.5</ele>
        <time>2016-06-25T08:51:01Z</time>
      </trkpt>
      <trkpt lat="44.03527" lon="7.01022">
        <ele>1740.5</ele>
        <time>2016-06-25T08:51:15Z</time>
      </trkpt>
      <trkpt lat="44.03523" lon="7.01011">
        <ele>1741</ele>
        <time>2016-06-25T08:53:03Z</time>
      </trkpt>
      <trkpt lat="44.03518" lon="7.01">
        <ele>1742.2</ele>
        <time>2016-06-25T08:53:16Z</time>
      </trkpt>
      <trkpt lat="44.03512" lon="7.0099">
        <ele>1743.4</ele>
        <time>2016-06-25T08:53:24Z</time>
      </trkpt>
      <trkpt lat="44.03506" lon="7.00979">
        <ele>1744.5</ele>
        <time>2016-06-25T08:53:30Z</time>
      </trkpt>
      <trkpt lat="44.035" lon="7.00967">
        <ele>1745.5</ele>
        <time>2016-06-25T08:53:36Z</time>
      </trkpt>
      <trkpt lat="44.03495" lon="7.00956">
        <ele>1748.2</ele>
        <time>2016-06-25T08:53:43Z</time>
      </trkpt>
      <trkpt lat="44.03489" lon="7.00945">
        <ele>1748.8</ele>
        <time>2016-06-25T08:53:50Z</time>
      </trkpt>
      <trkpt lat="44.03485" lon="7.00934">
        <ele>1750.4</ele>
        <time>2016-06-25T08:53:57Z</time>
      </trkpt>
      <trkpt lat="44.0348" lon="7.00921">
        <ele>1751.7</ele>
        <time>2016-06-25T08:54:04Z</time>
      </trkpt>
      <trkpt lat="44.03477" lon="7.00908">
        <ele>1752.5</ele>
        <time>2016-06-25T08:54:11Z</time>
      </trkpt>
      <trkpt lat="44.03475" lon="7.00894">
        <ele>1753.9</ele>
        <time>2016-06-25T08:54:18Z</time>
      </trkpt>
      <trkpt lat="44.03476" lon="7.00881">
        <ele>1754.2</ele>
        <time>2016-06-25T08:54:25Z</time>
      </trkpt>
      <trkpt lat="44.03478" lon="7.00867">
        <ele>1755.6</ele>
        <time>2016-06-25T08:54:32Z</time>
      </trkpt>
      <trkpt lat="44.0348" lon="7.00854">
        <ele>1756.6</ele>
        <time>2016-06-25T08:54:39Z</time>
      </trkpt>
      <trkpt lat="44.03485" lon="7.00842">
        <ele>1758.3</ele>
        <time>2016-06-25T08:54:46Z</time>
      </trkpt>
      <trkpt lat="44.03491" lon="7.00832">
        <ele>1758.3</ele>
        <time>2016-06-25T08:54:52Z</time>
      </trkpt>
      <trkpt lat="44.03496" lon="7.00821">
        <ele>1759.2</ele>
        <time>2016-06-25T08:54:58Z</time>
      </trkpt>
      <trkpt lat="44.03502" lon="7.00811">
        <ele>1760.1</ele>
        <time>2016-06-25T08:55:03Z</time>
      </trkpt>
      <trkpt lat="44.03507" lon="7.00801">
        <ele>1761.9</ele>
        <time>2016-06-25T08:55:08Z</time>
      </trkpt>
      <trkpt lat="44.03513" lon="7.0079">
        <ele>1761.5</ele>
        <time>2016-06-25T08:55:14Z</time>
      </trkpt>
      <trkpt lat="44.03521" lon="7.00782">
        <ele>1761.9</ele>
        <time>2016-06-25T08:55:19Z</time>
      </trkpt>
      <trkpt lat="44.03529" lon="7.00776">
        <ele>1761.2</ele>
        <time>2016-06-25T08:55:23Z</time>
      </trkpt>
      <trkpt lat="44.03537" lon="7.00768">
        <ele>1760.7</ele>
        <time>2016-06-25T08:55:27Z</time>
      </trkpt>
      <trkpt lat="44.03546" lon="7.00763">
        <ele>1760.2</ele>
        <time>2016-06-25T08:55:31Z</time>
      </trkpt>
      <trkpt lat="44.03556" lon="7.0076">
        <ele>1760.1</ele>
        <time>2016-06-25T08:55:36Z</time>
      </trkpt>
      <trkpt lat="44.03566" lon="7.00756">
        <ele>1759.2</ele>
        <time>2016-06-25T08:55:39Z</time>
      </trkpt>
      <trkpt lat="44.03578" lon="7.00753">
        <ele>1758.2</ele>
        <time>2016-06-25T08:55:42Z</time>
      </trkpt>
      <trkpt lat="44.03588" lon="7.00752">
        <ele>1757.5</ele>
        <time>2016-06-25T08:55:44Z</time>
      </trkpt>
      <trkpt lat="44.03597" lon="7.00748">
        <ele>1756.6</ele>
        <time>2016-06-25T08:55:46Z</time>
      </trkpt>
      <trkpt lat="44.03609" lon="7.00742">
        <ele>1755.7</ele>
        <time>2016-06-25T08:55:49Z</time>
      </trkpt>
      <trkpt lat="44.03619" lon="7.00735">
        <ele>1755.2</ele>
        <time>2016-06-25T08:55:52Z</time>
      </trkpt>
      <trkpt lat="44.03627" lon="7.00727">
        <ele>1755.9</ele>
        <time>2016-06-25T08:55:59Z</time>
      </trkpt>
      <trkpt lat="44.03635" lon="7.00718">
        <ele>1754.9</ele>
        <time>2016-06-25T08:56:04Z</time>
      </trkpt>
      <trkpt lat="44.03641" lon="7.00705">
        <ele>1754.8</ele>
        <time>2016-06-25T08:56:07Z</time>
      </trkpt>
      <trkpt lat="44.03647" lon="7.00692">
        <ele>1753.2</ele>
        <time>2016-06-25T08:56:12Z</time>
      </trkpt>
      <trkpt lat="44.03654" lon="7.00685">
        <ele>1753.2</ele>
        <time>2016-06-25T08:56:29Z</time>
      </trkpt>
      <trkpt lat="44.03662" lon="7.00678">
        <ele>1753.3</ele>
        <time>2016-06-25T08:57:04Z</time>
      </trkpt>
      <trkpt lat="44.03669" lon="7.00669">
        <ele>1752.9</ele>
        <time>2016-06-25T08:57:27Z</time>
      </trkpt>
      <trkpt lat="44.03677" lon="7.00662">
        <ele>1753.8</ele>
        <time>2016-06-25T08:57:33Z</time>
      </trkpt>
      <trkpt lat="44.03684" lon="7.00652">
        <ele>1753.2</ele>
        <time>2016-06-25T08:58:52Z</time>
      </trkpt>
      <trkpt lat="44.03689" lon="7.0064">
        <ele>1752.9</ele>
        <time>2016-06-25T08:58:57Z</time>
      </trkpt>
      <trkpt lat="44.03694" lon="7.00628">
        <ele>1752.2</ele>
        <time>2016-06-25T08:59:03Z</time>
      </trkpt>
      <trkpt lat="44.037" lon="7.00617">
        <ele>1752.9</ele>
        <time>2016-06-25T08:59:11Z</time>
      </trkpt>
      <trkpt lat="44.03697" lon="7.00629">
        <ele>1753.6</ele>
        <time>2016-06-25T09:00:07Z</time>
      </trkpt>
      <trkpt lat="44.03689" lon="7.00624">
        <ele>1754.7</ele>
        <time>2016-06-25T09:00:39Z</time>
      </trkpt>
      <trkpt lat="44.0368" lon="7.0062">
        <ele>1754.2</ele>
        <time>2016-06-25T09:01:32Z</time>
      </trkpt>
      <trkpt lat="44.0367" lon="7.00617">
        <ele>1756.9</ele>
        <time>2016-06-25T09:01:45Z</time>
      </trkpt>
      <trkpt lat="44.03666" lon="7.00606">
        <ele>1758.2</ele>
        <time>2016-06-25T09:01:58Z</time>
      </trkpt>
      <trkpt lat="44.03659" lon="7.00595">
        <ele>1758.7</ele>
        <time>2016-06-25T09:02:07Z</time>
      </trkpt>
      <trkpt lat="44.03653" lon="7.00585">
        <ele>1760.6</ele>
        <time>2016-06-25T09:02:13Z</time>
      </trkpt>
      <trkpt lat="44.03647" lon="7.00575">
        <ele>1762.3</ele>
        <time>2016-06-25T09:02:22Z</time>
      </trkpt>
      <trkpt lat="44.0364" lon="7.00565">
        <ele>1763.9</ele>
        <time>2016-06-25T09:02:29Z</time>
      </trkpt>
      <trkpt lat="44.03632" lon="7.00558">
        <ele>1763.9</ele>
        <time>2016-06-25T09:02:35Z</time>
      </trkpt>
      <trkpt lat="44.03624" lon="7.0055">
        <ele>1766.3</ele>
        <time>2016-06-25T09:02:42Z</time>
      </trkpt>
      <trkpt lat="44.03617" lon="7.00541">
        <ele>1767.4</ele>
        <time>2016-06-25T09:02:49Z</time>
      </trkpt>
      <trkpt lat="44.03608" lon="7.00533">
        <ele>1769.3</ele>
        <time>2016-06-25T09:02:56Z</time>
      </trkpt>
      <trkpt lat="44.03602" lon="7.00524">
        <ele>1769.8</ele>
        <time>2016-06-25T09:03:02Z</time>
      </trkpt>
      <trkpt lat="44.03594" lon="7.00516">
        <ele>1770.6</ele>
        <time>2016-06-25T09:03:09Z</time>
      </trkpt>
      <trkpt lat="44.03588" lon="7.00505">
        <ele>1771.8</ele>
        <time>2016-06-25T09:03:16Z</time>
      </trkpt>
      <trkpt lat="44.03584" lon="7.00492">
        <ele>1771.9</ele>
        <time>2016-06-25T09:03:24Z</time>
      </trkpt>
      <trkpt lat="44.03579" lon="7.0048">
        <ele>1773.4</ele>
        <time>2016-06-25T09:03:31Z</time>
      </trkpt>
      <trkpt lat="44.03572" lon="7.00471">
        <ele>1774.5</ele>
        <time>2016-06-25T09:03:37Z</time>
      </trkpt>
      <trkpt lat="44.03565" lon="7.00461">
        <ele>1773.9</ele>
        <time>2016-06-25T09:03:42Z</time>
      </trkpt>
      <trkpt lat="44.0356" lon="7.0045">
        <ele>1776.5</ele>
        <time>2016-06-25T09:03:50Z</time>
      </trkpt>
      <trkpt lat="44.03553" lon="7.00441">
        <ele>1776.7</ele>
        <time>2016-06-25T09:03:55Z</time>
      </trkpt>
      <trkpt lat="44.03547" lon="7.0043">
        <ele>1777.2</ele>
        <time>2016-06-25T09:04:00Z</time>
      </trkpt>
      <trkpt lat="44.03543" lon="7.00418">
        <ele>1777.2</ele>
        <time>2016-06-25T09:04:05Z</time>
      </trkpt>
      <trkpt lat="44.03541" lon="7.00403">
        <ele>1778.4</ele>
        <time>2016-06-25T09:04:10Z</time>
      </trkpt>
      <trkpt lat="44.03539" lon="7.00388">
        <ele>1778.6</ele>
        <time>2016-06-25T09:04:15Z</time>
      </trkpt>
      <trkpt lat="44.03536" lon="7.00374">
        <ele>1778.5</ele>
        <time>2016-06-25T09:04:19Z</time>
      </trkpt>
      <trkpt lat="44.03536" lon="7.00359">
        <ele>1779</ele>
        <time>2016-06-25T09:04:24Z</time>
      </trkpt>
      <trkpt lat="44.03534" lon="7.00347">
        <ele>1778.5</ele>
        <time>2016-06-25T09:04:28Z</time>
      </trkpt>
      <trkpt lat="44.03532" lon="7.00332">
        <ele>1777.3</ele>
        <time>2016-06-25T09:04:32Z</time>
      </trkpt>
      <trkpt lat="44.03533" lon="7.00316">
        <ele>1776.8</ele>
        <time>2016-06-25T09:04:36Z</time>
      </trkpt>
      <trkpt lat="44.03535" lon="7.003">
        <ele>1775.2</ele>
        <time>2016-06-25T09:04:39Z</time>
      </trkpt>
      <trkpt lat="44.03537" lon="7.00284">
        <ele>1774.4</ele>
        <time>2016-06-25T09:04:42Z</time>
      </trkpt>
      <trkpt lat="44.03541" lon="7.00268">
        <ele>1774.4</ele>
        <time>2016-06-25T09:04:46Z</time>
      </trkpt>
      <trkpt lat="44.03544" lon="7.00256">
        <ele>1773.3</ele>
        <time>2016-06-25T09:04:49Z</time>
      </trkpt>
      <trkpt lat="44.03547" lon="7.00243">
        <ele>1773.7</ele>
        <time>2016-06-25T09:04:52Z</time>
      </trkpt>
      <trkpt lat="44.03548" lon="7.00228">
        <ele>1773.9</ele>
        <time>2016-06-25T09:04:56Z</time>
      </trkpt>
      <trkpt lat="44.03552" lon="7.00216">
        <ele>1774.6</ele>
        <time>2016-06-25T09:05:00Z</time>
      </trkpt>
      <trkpt lat="44.03555" lon="7.00201">
        <ele>1775.4</ele>
        <time>2016-06-25T09:05:05Z</time>
      </trkpt>
      <trkpt lat="44.03557" lon="7.00186">
        <ele>1774.8</ele>
        <time>2016-06-25T09:05:09Z</time>
      </trkpt>
      <trkpt lat="44.03561" lon="7.00172">
        <ele>1774.6</ele>
        <time>2016-06-25T09:05:13Z</time>
      </trkpt>
      <trkpt lat="44.03567" lon="7.00161">
        <ele>1775.5</ele>
        <time>2016-06-25T09:05:39Z</time>
      </trkpt>
      <trkpt lat="44.03575" lon="7.00151">
        <ele>1775.7</ele>
        <time>2016-06-25T09:05:47Z</time>
      </trkpt>
      <trkpt lat="44.03572" lon="7.00138">
        <ele>1774.4</ele>
        <time>2016-06-25T09:05:55Z</time>
      </trkpt>
      <trkpt lat="44.03572" lon="7.00121">
        <ele>1774.8</ele>
        <time>2016-06-25T09:06:02Z</time>
      </trkpt>
      <trkpt lat="44.03576" lon="7.00107">
        <ele>1772.6</ele>
        <time>2016-06-25T09:06:05Z</time>
      </trkpt>
      <trkpt lat="44.03576" lon="7.00095">
        <ele>1772.8</ele>
        <time>2016-06-25T09:07:59Z</time>
      </trkpt>
      <trkpt lat="44.03572" lon="7.00082">
        <ele>1770.2</ele>
        <time>2016-06-25T09:08:17Z</time>
      </trkpt>
      <trkpt lat="44.03568" lon="7.00071">
        <ele>1767.7</ele>
        <time>2016-06-25T09:08:23Z</time>
      </trkpt>
      <trkpt lat="44.0357" lon="7.00058">
        <ele>1764.8</ele>
        <time>2016-06-25T09:08:30Z</time>
      </trkpt>
      <trkpt lat="44.03564" lon="7.00048">
        <ele>1765.1</ele>
        <time>2016-06-25T09:08:37Z</time>
      </trkpt>
      <trkpt lat="44.03558" lon="7.00039">
        <ele>1766.4</ele>
        <time>2016-06-25T09:08:43Z</time>
      </trkpt>
      <trkpt lat="44.03553" lon="7.00027">
        <ele>1766</ele>
        <time>2016-06-25T09:08:53Z</time>
      </trkpt>
      <trkpt lat="44.03544" lon="7.00032">
        <ele>1765.5</ele>
        <time>2016-06-25T09:08:58Z</time>
      </trkpt>
      <trkpt lat="44.03534" lon="7.00034">
        <ele>1767.3</ele>
        <time>2016-06-25T09:09:03Z</time>
      </trkpt>
      <trkpt lat="44.03525" lon="7.00034">
        <ele>1765.8</ele>
        <time>2016-06-25T09:09:10Z</time>
      </trkpt>
      <trkpt lat="44.03525" lon="7.0002">
        <ele>1766.7</ele>
        <time>2016-06-25T09:10:31Z</time>
      </trkpt>
      <trkpt lat="44.03517" lon="7.00017">
        <ele>1767.3</ele>
        <time>2016-06-25T09:10:38Z</time>
      </trkpt>
      <trkpt lat="44.03509" lon="7.00023">
        <ele>1766.7</ele>
        <time>2016-06-25T09:10:43Z</time>
      </trkpt>
      <trkpt lat="44.03498" lon="7.00024">
        <ele>1766.7</ele>
        <time>2016-06-25T09:10:49Z</time>
      </trkpt>
      <trkpt lat="44.03487" lon="7.00026">
        <ele>1766.1</ele>
        <time>2016-06-25T09:10:54Z</time>
      </trkpt>
      <trkpt lat="44.03477" lon="7.00026">
        <ele>1766.9</ele>
        <time>2016-06-25T09:10:58Z</time>
      </trkpt>
      <trkpt lat="44.03465" lon="7.00029">
        <ele>1767.2</ele>
        <time>2016-06-25T09:11:02Z</time>
      </trkpt>
      <trkpt lat="44.03454" lon="7.00025">
        <ele>1767.6</ele>
        <time>2016-06-25T09:11:06Z</time>
      </trkpt>
      <trkpt lat="44.03445" lon="7.00019">
        <ele>1768.9</ele>
        <time>2016-06-25T09:11:10Z</time>
      </trkpt>
      <trkpt lat="44.03438" lon="7.00012">
        <ele>1769.5</ele>
        <time>2016-06-25T09:11:13Z</time>
      </trkpt>
      <trkpt lat="44.03431" lon="7.00002">
        <ele>1768.4</ele>
        <time>2016-06-25T09:11:17Z</time>
      </trkpt>
      <trkpt lat="44.03427" lon="6.9999">
        <ele>1768.1</ele>
        <time>2016-06-25T09:11:22Z</time>
      </trkpt>
      <trkpt lat="44.03425" lon="6.99977">
        <ele>1768.9</ele>
        <time>2016-06-25T09:11:27Z</time>
      </trkpt>
      <trkpt lat="44.03424" lon="6.99964">
        <ele>1768.8</ele>
        <time>2016-06-25T09:11:33Z</time>
      </trkpt>
      <trkpt lat="44.03424" lon="6.99951">
        <ele>1770.9</ele>
        <time>2016-06-25T09:11:45Z</time>
      </trkpt>
      <trkpt lat="44.03416" lon="6.99945">
        <ele>1771.6</ele>
        <time>2016-06-25T09:12:03Z</time>
      </trkpt>
      <trkpt lat="44.03407" lon="6.99951">
        <ele>1772.7</ele>
        <time>2016-06-25T09:12:13Z</time>
      </trkpt>
      <trkpt lat="44.03398" lon="6.99957">
        <ele>1772.5</ele>
        <time>2016-06-25T09:12:18Z</time>
      </trkpt>
      <trkpt lat="44.03388" lon="6.99951">
        <ele>1773.1</ele>
        <time>2016-06-25T09:12:24Z</time>
      </trkpt>
      <trkpt lat="44.0338" lon="6.99942">
        <ele>1773.9</ele>
        <time>2016-06-25T09:12:29Z</time>
      </trkpt>
      <trkpt lat="44.03372" lon="6.99933">
        <ele>1774.7</ele>
        <time>2016-06-25T09:12:33Z</time>
      </trkpt>
      <trkpt lat="44.03365" lon="6.99924">
        <ele>1774.8</ele>
        <time>2016-06-25T09:12:37Z</time>
      </trkpt>
      <trkpt lat="44.03357" lon="6.99914">
        <ele>1775.2</ele>
        <time>2016-06-25T09:12:42Z</time>
      </trkpt>
      <trkpt lat="44.03352" lon="6.99902">
        <ele>1776.7</ele>
        <time>2016-06-25T09:12:46Z</time>
      </trkpt>
      <trkpt lat="44.03347" lon="6.99891">
        <ele>1776.9</ele>
        <time>2016-06-25T09:12:50Z</time>
      </trkpt>
      <trkpt lat="44.03342" lon="6.99879">
        <ele>1776.8</ele>
        <time>2016-06-25T09:12:54Z</time>
      </trkpt>
      <trkpt lat="44.03338" lon="6.99866">
        <ele>1775.8</ele>
        <time>2016-06-25T09:12:58Z</time>
      </trkpt>
      <trkpt lat="44.03334" lon="6.99853">
        <ele>1776.1</ele>
        <time>2016-06-25T09:13:02Z</time>
      </trkpt>
      <trkpt lat="44.03331" lon="6.99842">
        <ele>1776.7</ele>
        <time>2016-06-25T09:13:08Z</time>
      </trkpt>
      <trkpt lat="44.03325" lon="6.9983">
        <ele>1777.4</ele>
        <time>2016-06-25T09:13:18Z</time>
      </trkpt>
      <trkpt lat="44.03322" lon="6.99817">
        <ele>1777.2</ele>
        <time>2016-06-25T09:13:22Z</time>
      </trkpt>
      <trkpt lat="44.03321" lon="6.99804">
        <ele>1777.8</ele>
        <time>2016-06-25T09:13:26Z</time>
      </trkpt>
      <trkpt lat="44.03321" lon="6.9979">
        <ele>1779</ele>
        <time>2016-06-25T09:13:31Z</time>
      </trkpt>
      <trkpt lat="44.03322" lon="6.99776">
        <ele>1779</ele>
        <time>2016-06-25T09:13:38Z</time>
      </trkpt>
      <trkpt lat="44.03325" lon="6.99762">
        <ele>1780.3</ele>
        <time>2016-06-25T09:13:44Z</time>
      </trkpt>
      <trkpt lat="44.03324" lon="6.99748">
        <ele>1782.3</ele>
        <time>2016-06-25T09:14:15Z</time>
      </trkpt>
      <trkpt lat="44.03322" lon="6.99735">
        <ele>1782.4</ele>
        <time>2016-06-25T09:14:20Z</time>
      </trkpt>
      <trkpt lat="44.03321" lon="6.9972">
        <ele>1783.1</ele>
        <time>2016-06-25T09:14:25Z</time>
      </trkpt>
      <trkpt lat="44.03319" lon="6.99705">
        <ele>1783.6</ele>
        <time>2016-06-25T09:14:30Z</time>
      </trkpt>
      <trkpt lat="44.0332" lon="6.9969">
        <ele>1785.1</ele>
        <time>2016-06-25T09:14:35Z</time>
      </trkpt>
      <trkpt lat="44.03319" lon="6.99676">
        <ele>1787.3</ele>
        <time>2016-06-25T09:14:41Z</time>
      </trkpt>
      <trkpt lat="44.03319" lon="6.99662">
        <ele>1787.9</ele>
        <time>2016-06-25T09:14:46Z</time>
      </trkpt>
      <trkpt lat="44.03321" lon="6.99647">
        <ele>1789.3</ele>
        <time>2016-06-25T09:14:51Z</time>
      </trkpt>
      <trkpt lat="44.03322" lon="6.99635">
        <ele>1789.5</ele>
        <time>2016-06-25T09:14:55Z</time>
      </trkpt>
      <trkpt lat="44.03323" lon="6.9962">
        <ele>1790</ele>
        <time>2016-06-25T09:15:00Z</time>
      </trkpt>
      <trkpt lat="44.03324" lon="6.99605">
        <ele>1790.4</ele>
        <time>2016-06-25T09:15:05Z</time>
      </trkpt>
      <trkpt lat="44.03327" lon="6.99592">
        <ele>1790.7</ele>
        <time>2016-06-25T09:15:09Z</time>
      </trkpt>
      <trkpt lat="44.03326" lon="6.99579">
        <ele>1792</ele>
        <time>2016-06-25T09:15:13Z</time>
      </trkpt>
      <trkpt lat="44.03326" lon="6.99563">
        <ele>1792.8</ele>
        <time>2016-06-25T09:15:17Z</time>
      </trkpt>
      <trkpt lat="44.03327" lon="6.9955">
        <ele>1792.7</ele>
        <time>2016-06-25T09:15:21Z</time>
      </trkpt>
      <trkpt lat="44.0333" lon="6.99536">
        <ele>1793.3</ele>
        <time>2016-06-25T09:16:02Z</time>
      </trkpt>
      <trkpt lat="44.03331" lon="6.99522">
        <ele>1793.5</ele>
        <time>2016-06-25T09:16:06Z</time>
      </trkpt>
      <trkpt lat="44.03334" lon="6.99509">
        <ele>1794.3</ele>
        <time>2016-06-25T09:16:11Z</time>
      </trkpt>
      <trkpt lat="44.03333" lon="6.99494">
        <ele>1794.5</ele>
        <time>2016-06-25T09:16:15Z</time>
      </trkpt>
      <trkpt lat="44.03335" lon="6.99479">
        <ele>1795.6</ele>
        <time>2016-06-25T09:16:20Z</time>
      </trkpt>
      <trkpt lat="44.03331" lon="6.99465">
        <ele>1796.1</ele>
        <time>2016-06-25T09:16:25Z</time>
      </trkpt>
      <trkpt lat="44.03329" lon="6.9945">
        <ele>1796</ele>
        <time>2016-06-25T09:16:29Z</time>
      </trkpt>
      <trkpt lat="44.03327" lon="6.99437">
        <ele>1797</ele>
        <time>2016-06-25T09:16:33Z</time>
      </trkpt>
      <trkpt lat="44.03325" lon="6.99422">
        <ele>1796.7</ele>
        <time>2016-06-25T09:16:38Z</time>
      </trkpt>
      <trkpt lat="44.03325" lon="6.9941">
        <ele>1795.7</ele>
        <time>2016-06-25T09:17:00Z</time>
      </trkpt>
      <trkpt lat="44.03323" lon="6.99397">
        <ele>1797.4</ele>
        <time>2016-06-25T09:17:05Z</time>
      </trkpt>
      <trkpt lat="44.0332" lon="6.99385">
        <ele>1796.8</ele>
        <time>2016-06-25T09:17:12Z</time>
      </trkpt>
      <trkpt lat="44.03313" lon="6.99394">
        <ele>1796.1</ele>
        <time>2016-06-25T09:17:18Z</time>
      </trkpt>
      <trkpt lat="44.03307" lon="6.99383">
        <ele>1793.7</ele>
        <time>2016-06-25T09:26:01Z</time>
      </trkpt>
      <trkpt lat="44.033" lon="6.9937">
        <ele>1793</ele>
        <time>2016-06-25T09:26:05Z</time>
      </trkpt>
      <trkpt lat="44.03295" lon="6.99357">
        <ele>1792.4</ele>
        <time>2016-06-25T09:26:09Z</time>
      </trkpt>
      <trkpt lat="44.03302" lon="6.99348">
        <ele>1792.4</ele>
        <time>2016-06-25T09:26:15Z</time>
      </trkpt>
      <trkpt lat="44.03311" lon="6.99342">
        <ele>1792.1</ele>
        <time>2016-06-25T09:26:21Z</time>
      </trkpt>
      <trkpt lat="44.03321" lon="6.99346">
        <ele>1793.5</ele>
        <time>2016-06-25T09:26:28Z</time>
      </trkpt>
      <trkpt lat="44.0333" lon="6.99352">
        <ele>1796.3</ele>
        <time>2016-06-25T09:27:26Z</time>
      </trkpt>
      <trkpt lat="44.03337" lon="6.99341">
        <ele>1795.9</ele>
        <time>2016-06-25T09:27:37Z</time>
      </trkpt>
      <trkpt lat="44.03343" lon="6.9933">
        <ele>1797.6</ele>
        <time>2016-06-25T09:27:45Z</time>
      </trkpt>
      <trkpt lat="44.03349" lon="6.99318">
        <ele>1797.9</ele>
        <time>2016-06-25T09:27:53Z</time>
      </trkpt>
      <trkpt lat="44.03355" lon="6.99307">
        <ele>1798.1</ele>
        <time>2016-06-25T09:28:00Z</time>
      </trkpt>
      <trkpt lat="44.03361" lon="6.99295">
        <ele>1799.3</ele>
        <time>2016-06-25T09:28:07Z</time>
      </trkpt>
      <trkpt lat="44.03368" lon="6.99285">
        <ele>1800.3</ele>
        <time>2016-06-25T09:28:12Z</time>
      </trkpt>
      <trkpt lat="44.03378" lon="6.99283">
        <ele>1799.6</ele>
        <time>2016-06-25T09:28:17Z</time>
      </trkpt>
      <trkpt lat="44.03387" lon="6.9928">
        <ele>1799.8</ele>
        <time>2016-06-25T09:28:30Z</time>
      </trkpt>
      <trkpt lat="44.03395" lon="6.99274">
        <ele>1800.2</ele>
        <time>2016-06-25T09:28:39Z</time>
      </trkpt>
      <trkpt lat="44.034" lon="6.99262">
        <ele>1800.9</ele>
        <time>2016-06-25T09:28:48Z</time>
      </trkpt>
      <trkpt lat="44.03406" lon="6.99251">
        <ele>1801.7</ele>
        <time>2016-06-25T09:28:57Z</time>
      </trkpt>
      <trkpt lat="44.03412" lon="6.9924">
        <ele>1802.6</ele>
        <time>2016-06-25T09:29:02Z</time>
      </trkpt>
      <trkpt lat="44.03419" lon="6.99231">
        <ele>1802.8</ele>
        <time>2016-06-25T09:29:06Z</time>
      </trkpt>
      <trkpt lat="44.03425" lon="6.9922">
        <ele>1802.6</ele>
        <time>2016-06-25T09:29:10Z</time>
      </trkpt>
      <trkpt lat="44.0343" lon="6.9921">
        <ele>1804.4</ele>
        <time>2016-06-25T09:29:15Z</time>
      </trkpt>
      <trkpt lat="44.03436" lon="6.992">
        <ele>1804.8</ele>
        <time>2016-06-25T09:29:20Z</time>
      </trkpt>
      <trkpt lat="44.03443" lon="6.9919">
        <ele>1806</ele>
        <time>2016-06-25T09:29:26Z</time>
      </trkpt>
      <trkpt lat="44.03451" lon="6.99183">
        <ele>1807</ele>
        <time>2016-06-25T09:29:40Z</time>
      </trkpt>
      <trkpt lat="44.03459" lon="6.99174">
        <ele>1808.9</ele>
        <time>2016-06-25T09:30:18Z</time>
      </trkpt>
      <trkpt lat="44.03461" lon="6.99162">
        <ele>1808.9</ele>
        <time>2016-06-25T09:30:27Z</time>
      </trkpt>
      <trkpt lat="44.03466" lon="6.99151">
        <ele>1809.3</ele>
        <time>2016-06-25T09:30:41Z</time>
      </trkpt>
      <trkpt lat="44.03473" lon="6.99143">
        <ele>1810.5</ele>
        <time>2016-06-25T09:30:52Z</time>
      </trkpt>
      <trkpt lat="44.03481" lon="6.99133">
        <ele>1811</ele>
        <time>2016-06-25T09:30:59Z</time>
      </trkpt>
      <trkpt lat="44.03489" lon="6.99127">
        <ele>1810.8</ele>
        <time>2016-06-25T09:31:05Z</time>
      </trkpt>
      <trkpt lat="44.03497" lon="6.9912">
        <ele>1811.9</ele>
        <time>2016-06-25T09:31:10Z</time>
      </trkpt>
      <trkpt lat="44.03505" lon="6.99112">
        <ele>1812.8</ele>
        <time>2016-06-25T09:31:15Z</time>
      </trkpt>
      <trkpt lat="44.03514" lon="6.99106">
        <ele>1812.1</ele>
        <time>2016-06-25T09:31:21Z</time>
      </trkpt>
      <trkpt lat="44.03524" lon="6.99102">
        <ele>1812.4</ele>
        <time>2016-06-25T09:31:33Z</time>
      </trkpt>
      <trkpt lat="44.03532" lon="6.99095">
        <ele>1810.3</ele>
        <time>2016-06-25T09:31:50Z</time>
      </trkpt>
      <trkpt lat="44.03539" lon="6.99087">
        <ele>1810</ele>
        <time>2016-06-25T09:32:01Z</time>
      </trkpt>
      <trkpt lat="44.03548" lon="6.99083">
        <ele>1809.8</ele>
        <time>2016-06-25T09:32:19Z</time>
      </trkpt>
      <trkpt lat="44.03557" lon="6.99077">
        <ele>1807.4</ele>
        <time>2016-06-25T09:32:37Z</time>
      </trkpt>
      <trkpt lat="44.03567" lon="6.99074">
        <ele>1807.4</ele>
        <time>2016-06-25T09:32:42Z</time>
      </trkpt>
      <trkpt lat="44.03576" lon="6.99074">
        <ele>1809.6</ele>
        <time>2016-06-25T09:32:57Z</time>
      </trkpt>
      <trkpt lat="44.03586" lon="6.99077">
        <ele>1810.2</ele>
        <time>2016-06-25T09:33:12Z</time>
      </trkpt>
      <trkpt lat="44.03592" lon="6.99087">
        <ele>1808.3</ele>
        <time>2016-06-25T09:33:47Z</time>
      </trkpt>
      <trkpt lat="44.03601" lon="6.99085">
        <ele>1807.7</ele>
        <time>2016-06-25T09:34:04Z</time>
      </trkpt>
      <trkpt lat="44.03611" lon="6.99085">
        <ele>1807.1</ele>
        <time>2016-06-25T09:34:11Z</time>
      </trkpt>
      <trkpt lat="44.03621" lon="6.99082">
        <ele>1806.3</ele>
        <time>2016-06-25T09:34:28Z</time>
      </trkpt>
      <trkpt lat="44.03631" lon="6.99077">
        <ele>1804.6</ele>
        <time>2016-06-25T09:34:33Z</time>
      </trkpt>
      <trkpt lat="44.03642" lon="6.99077">
        <ele>1803.6</ele>
        <time>2016-06-25T09:34:38Z</time>
      </trkpt>
      <trkpt lat="44.03652" lon="6.99076">
        <ele>1803.1</ele>
        <time>2016-06-25T09:34:43Z</time>
      </trkpt>
      <trkpt lat="44.03661" lon="6.99076">
        <ele>1802.8</ele>
        <time>2016-06-25T09:34:49Z</time>
      </trkpt>
      <trkpt lat="44.0367" lon="6.99082">
        <ele>1801.8</ele>
        <time>2016-06-25T09:35:06Z</time>
      </trkpt>
      <trkpt lat="44.0366" lon="6.99076">
        <ele>1800.6</ele>
        <time>2016-06-25T09:35:18Z</time>
      </trkpt>
      <trkpt lat="44.0365" lon="6.99076">
        <ele>1799</ele>
        <time>2016-06-25T09:35:22Z</time>
      </trkpt>
      <trkpt lat="44.0364" lon="6.99077">
        <ele>1797.8</ele>
        <time>2016-06-25T09:35:26Z</time>
      </trkpt>
      <trkpt lat="44.03629" lon="6.99078">
        <ele>1797.7</ele>
        <time>2016-06-25T09:35:31Z</time>
      </trkpt>
      <trkpt lat="44.03638" lon="6.99076">
        <ele>1796.6</ele>
        <time>2016-06-25T09:35:43Z</time>
      </trkpt>
      <trkpt lat="44.03648" lon="6.99072">
        <ele>1796.2</ele>
        <time>2016-06-25T09:35:48Z</time>
      </trkpt>
      <trkpt lat="44.03658" lon="6.99072">
        <ele>1795.5</ele>
        <time>2016-06-25T09:35:52Z</time>
      </trkpt>
      <trkpt lat="44.03669" lon="6.99076">
        <ele>1794.3</ele>
        <time>2016-06-25T09:35:56Z</time>
      </trkpt>
      <trkpt lat="44.03676" lon="6.99085">
        <ele>1794.4</ele>
        <time>2016-06-25T09:36:01Z</time>
      </trkpt>
      <trkpt lat="44.03685" lon="6.9909">
        <ele>1792.5</ele>
        <time>2016-06-25T09:36:18Z</time>
      </trkpt>
      <trkpt lat="44.03695" lon="6.99086">
        <ele>1790.6</ele>
        <time>2016-06-25T09:36:29Z</time>
      </trkpt>
      <trkpt lat="44.03704" lon="6.99084">
        <ele>1789.4</ele>
        <time>2016-06-25T09:36:35Z</time>
      </trkpt>
      <trkpt lat="44.03713" lon="6.99084">
        <ele>1788.3</ele>
        <time>2016-06-25T09:36:46Z</time>
      </trkpt>
      <trkpt lat="44.03722" lon="6.9908">
        <ele>1785.7</ele>
        <time>2016-06-25T09:36:58Z</time>
      </trkpt>
      <trkpt lat="44.03731" lon="6.99077">
        <ele>1784.4</ele>
        <time>2016-06-25T09:37:03Z</time>
      </trkpt>
      <trkpt lat="44.0374" lon="6.99081">
        <ele>1783.3</ele>
        <time>2016-06-25T09:37:09Z</time>
      </trkpt>
      <trkpt lat="44.03749" lon="6.99084">
        <ele>1782.5</ele>
        <time>2016-06-25T09:37:21Z</time>
      </trkpt>
      <trkpt lat="44.03758" lon="6.99086">
        <ele>1783.3</ele>
        <time>2016-06-25T09:37:29Z</time>
      </trkpt>
      <trkpt lat="44.03767" lon="6.99081">
        <ele>1780.6</ele>
        <time>2016-06-25T09:37:41Z</time>
      </trkpt>
      <trkpt lat="44.03777" lon="6.99078">
        <ele>1779.1</ele>
        <time>2016-06-25T09:37:48Z</time>
      </trkpt>
      <trkpt lat="44.03787" lon="6.9908">
        <ele>1778.1</ele>
        <time>2016-06-25T09:37:52Z</time>
      </trkpt>
      <trkpt lat="44.03797" lon="6.99074">
        <ele>1776.6</ele>
        <time>2016-06-25T09:37:55Z</time>
      </trkpt>
      <trkpt lat="44.03807" lon="6.99074">
        <ele>1775.5</ele>
        <time>2016-06-25T09:37:58Z</time>
      </trkpt>
      <trkpt lat="44.0381" lon="6.99062">
        <ele>1773.8</ele>
        <time>2016-06-25T09:38:04Z</time>
      </trkpt>
      <trkpt lat="44.03817" lon="6.99052">
        <ele>1774.1</ele>
        <time>2016-06-25T09:38:11Z</time>
      </trkpt>
      <trkpt lat="44.03824" lon="6.99043">
        <ele>1774</ele>
        <time>2016-06-25T09:38:18Z</time>
      </trkpt>
      <trkpt lat="44.0383" lon="6.99034">
        <ele>1772.6</ele>
        <time>2016-06-25T09:38:29Z</time>
      </trkpt>
      <trkpt lat="44.03836" lon="6.99023">
        <ele>1774.1</ele>
        <time>2016-06-25T09:38:39Z</time>
      </trkpt>
      <trkpt lat="44.03841" lon="6.99012">
        <ele>1774.2</ele>
        <time>2016-06-25T09:38:49Z</time>
      </trkpt>
      <trkpt lat="44.03846" lon="6.99">
        <ele>1774.2</ele>
        <time>2016-06-25T09:39:00Z</time>
      </trkpt>
      <trkpt lat="44.03851" lon="6.98988">
        <ele>1773.5</ele>
        <time>2016-06-25T09:39:04Z</time>
      </trkpt>
      <trkpt lat="44.03859" lon="6.98977">
        <ele>1773.1</ele>
        <time>2016-06-25T09:39:08Z</time>
      </trkpt>
      <trkpt lat="44.03868" lon="6.9897">
        <ele>1771.9</ele>
        <time>2016-06-25T09:39:13Z</time>
      </trkpt>
      <trkpt lat="44.03875" lon="6.98963">
        <ele>1771.2</ele>
        <time>2016-06-25T09:39:22Z</time>
      </trkpt>
      <trkpt lat="44.03884" lon="6.98961">
        <ele>1771</ele>
        <time>2016-06-25T09:39:37Z</time>
      </trkpt>
      <trkpt lat="44.03895" lon="6.98959">
        <ele>1770.2</ele>
        <time>2016-06-25T09:39:45Z</time>
      </trkpt>
      <trkpt lat="44.03904" lon="6.98956">
        <ele>1770.8</ele>
        <time>2016-06-25T09:39:48Z</time>
      </trkpt>
      <trkpt lat="44.03913" lon="6.98954">
        <ele>1770.5</ele>
        <time>2016-06-25T09:39:50Z</time>
      </trkpt>
      <trkpt lat="44.03925" lon="6.98954">
        <ele>1769.9</ele>
        <time>2016-06-25T09:39:53Z</time>
      </trkpt>
      <trkpt lat="44.03935" lon="6.98957">
        <ele>1768.3</ele>
        <time>2016-06-25T09:39:56Z</time>
      </trkpt>
      <trkpt lat="44.03944" lon="6.9896">
        <ele>1767.7</ele>
        <time>2016-06-25T09:40:00Z</time>
      </trkpt>
      <trkpt lat="44.03952" lon="6.98965">
        <ele>1768</ele>
        <time>2016-06-25T09:40:05Z</time>
      </trkpt>
      <trkpt lat="44.03961" lon="6.98968">
        <ele>1767.8</ele>
        <time>2016-06-25T09:40:16Z</time>
      </trkpt>
      <trkpt lat="44.03966" lon="6.98958">
        <ele>1767.5</ele>
        <time>2016-06-25T09:40:21Z</time>
      </trkpt>
      <trkpt lat="44.0397" lon="6.98945">
        <ele>1766.6</ele>
        <time>2016-06-25T09:40:26Z</time>
      </trkpt>
      <trkpt lat="44.03975" lon="6.98932">
        <ele>1765.8</ele>
        <time>2016-06-25T09:40:32Z</time>
      </trkpt>
      <trkpt lat="44.03978" lon="6.9892">
        <ele>1765.9</ele>
        <time>2016-06-25T09:40:37Z</time>
      </trkpt>
      <trkpt lat="44.03981" lon="6.98906">
        <ele>1766.5</ele>
        <time>2016-06-25T09:40:42Z</time>
      </trkpt>
      <trkpt lat="44.03986" lon="6.98893">
        <ele>1766.7</ele>
        <time>2016-06-25T09:40:47Z</time>
      </trkpt>
      <trkpt lat="44.03993" lon="6.98879">
        <ele>1766.7</ele>
        <time>2016-06-25T09:40:52Z</time>
      </trkpt>
      <trkpt lat="44.03999" lon="6.98866">
        <ele>1766.1</ele>
        <time>2016-06-25T09:40:56Z</time>
      </trkpt>
      <trkpt lat="44.04004" lon="6.98855">
        <ele>1766.5</ele>
        <time>2016-06-25T09:40:59Z</time>
      </trkpt>
      <trkpt lat="44.04009" lon="6.98844">
        <ele>1766.7</ele>
        <time>2016-06-25T09:41:03Z</time>
      </trkpt>
      <trkpt lat="44.04017" lon="6.98832">
        <ele>1766</ele>
        <time>2016-06-25T09:41:07Z</time>
      </trkpt>
      <trkpt lat="44.04024" lon="6.9882">
        <ele>1765</ele>
        <time>2016-06-25T09:41:11Z</time>
      </trkpt>
      <trkpt lat="44.04031" lon="6.98809">
        <ele>1764.8</ele>
        <time>2016-06-25T09:41:14Z</time>
      </trkpt>
      <trkpt lat="44.04038" lon="6.98799">
        <ele>1763.8</ele>
        <time>2016-06-25T09:41:17Z</time>
      </trkpt>
      <trkpt lat="44.04045" lon="6.98793">
        <ele>1762.9</ele>
        <time>2016-06-25T09:41:23Z</time>
      </trkpt>
      <trkpt lat="44.04051" lon="6.98782">
        <ele>1729.4</ele>
        <time>2016-06-25T09:46:32Z</time>
      </trkpt>
      <trkpt lat="44.04059" lon="6.98776">
        <ele>1728.1</ele>
        <time>2016-06-25T09:46:35Z</time>
      </trkpt>
      <trkpt lat="44.04069" lon="6.9877">
        <ele>1727.1</ele>
        <time>2016-06-25T09:46:38Z</time>
      </trkpt>
      <trkpt lat="44.04079" lon="6.98766">
        <ele>1727.1</ele>
        <time>2016-06-25T09:46:41Z</time>
      </trkpt>
      <trkpt lat="44.04089" lon="6.98766">
        <ele>1726</ele>
        <time>2016-06-25T09:46:43Z</time>
      </trkpt>
      <trkpt lat="44.04098" lon="6.98762">
        <ele>1725.1</ele>
        <time>2016-06-25T09:46:45Z</time>
      </trkpt>
      <trkpt lat="44.04107" lon="6.98754">
        <ele>1724.2</ele>
        <time>2016-06-25T09:46:47Z</time>
      </trkpt>
      <trkpt lat="44.04115" lon="6.98747">
        <ele>1723.3</ele>
        <time>2016-06-25T09:46:49Z</time>
      </trkpt>
      <trkpt lat="44.04124" lon="6.98742">
        <ele>1722.3</ele>
        <time>2016-06-25T09:46:51Z</time>
      </trkpt>
      <trkpt lat="44.04134" lon="6.98743">
        <ele>1721.5</ele>
        <time>2016-06-25T09:46:53Z</time>
      </trkpt>
      <trkpt lat="44.04144" lon="6.98739">
        <ele>1720.5</ele>
        <time>2016-06-25T09:46:55Z</time>
      </trkpt>
      <trkpt lat="44.04156" lon="6.98737">
        <ele>1718.5</ele>
        <time>2016-06-25T09:46:57Z</time>
      </trkpt>
      <trkpt lat="44.04168" lon="6.98738">
        <ele>1718.2</ele>
        <time>2016-06-25T09:46:59Z</time>
      </trkpt>
      <trkpt lat="44.04176" lon="6.98744">
        <ele>1716.6</ele>
        <time>2016-06-25T09:47:01Z</time>
      </trkpt>
      <trkpt lat="44.04185" lon="6.98755">
        <ele>1712.2</ele>
        <time>2016-06-25T09:47:05Z</time>
      </trkpt>
      <trkpt lat="44.04194" lon="6.98762">
        <ele>1709.2</ele>
        <time>2016-06-25T09:47:11Z</time>
      </trkpt>
      <trkpt lat="44.04204" lon="6.98753">
        <ele>1707.9</ele>
        <time>2016-06-25T09:47:15Z</time>
      </trkpt>
      <trkpt lat="44.04214" lon="6.98748">
        <ele>1706.7</ele>
        <time>2016-06-25T09:47:18Z</time>
      </trkpt>
      <trkpt lat="44.04225" lon="6.98749">
        <ele>1706.4</ele>
        <time>2016-06-25T09:47:21Z</time>
      </trkpt>
      <trkpt lat="44.04236" lon="6.98755">
        <ele>1705.6</ele>
        <time>2016-06-25T09:47:24Z</time>
      </trkpt>
      <trkpt lat="44.04245" lon="6.98761">
        <ele>1704.9</ele>
        <time>2016-06-25T09:47:26Z</time>
      </trkpt>
      <trkpt lat="44.04255" lon="6.98773">
        <ele>1702.8</ele>
        <time>2016-06-25T09:47:29Z</time>
      </trkpt>
      <trkpt lat="44.04266" lon="6.98777">
        <ele>1701.2</ele>
        <time>2016-06-25T09:47:32Z</time>
      </trkpt>
      <trkpt lat="44.04275" lon="6.98779">
        <ele>1700.2</ele>
        <time>2016-06-25T09:47:34Z</time>
      </trkpt>
      <trkpt lat="44.04287" lon="6.98783">
        <ele>1699.1</ele>
        <time>2016-06-25T09:47:36Z</time>
      </trkpt>
      <trkpt lat="44.04296" lon="6.98786">
        <ele>1697.3</ele>
        <time>2016-06-25T09:47:39Z</time>
      </trkpt>
      <trkpt lat="44.04306" lon="6.98787">
        <ele>1696.3</ele>
        <time>2016-06-25T09:47:44Z</time>
      </trkpt>
      <trkpt lat="44.04315" lon="6.98794">
        <ele>1695.3</ele>
        <time>2016-06-25T09:47:47Z</time>
      </trkpt>
      <trkpt lat="44.04322" lon="6.98803">
        <ele>1695.3</ele>
        <time>2016-06-25T09:47:49Z</time>
      </trkpt>
      <trkpt lat="44.04332" lon="6.98814">
        <ele>1694.5</ele>
        <time>2016-06-25T09:47:51Z</time>
      </trkpt>
      <trkpt lat="44.04342" lon="6.98824">
        <ele>1692.6</ele>
        <time>2016-06-25T09:47:53Z</time>
      </trkpt>
      <trkpt lat="44.04352" lon="6.98837">
        <ele>1690.5</ele>
        <time>2016-06-25T09:47:55Z</time>
      </trkpt>
      <trkpt lat="44.04363" lon="6.9885">
        <ele>1689</ele>
        <time>2016-06-25T09:47:57Z</time>
      </trkpt>
      <trkpt lat="44.04368" lon="6.98861">
        <ele>1686.5</ele>
        <time>2016-06-25T09:47:59Z</time>
      </trkpt>
      <trkpt lat="44.04376" lon="6.98871">
        <ele>1682.5</ele>
        <time>2016-06-25T09:48:04Z</time>
      </trkpt>
      <trkpt lat="44.04386" lon="6.98872">
        <ele>1682</ele>
        <time>2016-06-25T09:48:08Z</time>
      </trkpt>
      <trkpt lat="44.04396" lon="6.98863">
        <ele>1681.3</ele>
        <time>2016-06-25T09:48:11Z</time>
      </trkpt>
      <trkpt lat="44.04405" lon="6.98859">
        <ele>1680.3</ele>
        <time>2016-06-25T09:48:14Z</time>
      </trkpt>
      <trkpt lat="44.04418" lon="6.98857">
        <ele>1679.6</ele>
        <time>2016-06-25T09:48:17Z</time>
      </trkpt>
      <trkpt lat="44.04428" lon="6.98859">
        <ele>1678.9</ele>
        <time>2016-06-25T09:48:19Z</time>
      </trkpt>
      <trkpt lat="44.04439" lon="6.98862">
        <ele>1678.2</ele>
        <time>2016-06-25T09:48:21Z</time>
      </trkpt>
      <trkpt lat="44.04449" lon="6.98862">
        <ele>1676.9</ele>
        <time>2016-06-25T09:48:25Z</time>
      </trkpt>
      <trkpt lat="44.04459" lon="6.98863">
        <ele>1675.8</ele>
        <time>2016-06-25T09:48:28Z</time>
      </trkpt>
      <trkpt lat="44.04468" lon="6.98864">
        <ele>1674.8</ele>
        <time>2016-06-25T09:48:31Z</time>
      </trkpt>
      <trkpt lat="44.04478" lon="6.98866">
        <ele>1674.2</ele>
        <time>2016-06-25T09:48:36Z</time>
      </trkpt>
      <trkpt lat="44.04489" lon="6.98872">
        <ele>1673</ele>
        <time>2016-06-25T09:48:40Z</time>
      </trkpt>
      <trkpt lat="44.045" lon="6.98878">
        <ele>1671.5</ele>
        <time>2016-06-25T09:48:43Z</time>
      </trkpt>
      <trkpt lat="44.04509" lon="6.98882">
        <ele>1671.3</ele>
        <time>2016-06-25T09:48:45Z</time>
      </trkpt>
      <trkpt lat="44.04516" lon="6.9889">
        <ele>1671.4</ele>
        <time>2016-06-25T09:48:47Z</time>
      </trkpt>
      <trkpt lat="44.04529" lon="6.98891">
        <ele>1669.2</ele>
        <time>2016-06-25T09:48:50Z</time>
      </trkpt>
      <trkpt lat="44.04541" lon="6.98897">
        <ele>1667.4</ele>
        <time>2016-06-25T09:48:53Z</time>
      </trkpt>
      <trkpt lat="44.04551" lon="6.98903">
        <ele>1666.1</ele>
        <time>2016-06-25T09:48:55Z</time>
      </trkpt>
      <trkpt lat="44.0456" lon="6.98913">
        <ele>1664.9</ele>
        <time>2016-06-25T09:49:00Z</time>
      </trkpt>
      <trkpt lat="44.04568" lon="6.98922">
        <ele>1665.6</ele>
        <time>2016-06-25T09:49:04Z</time>
      </trkpt>
      <trkpt lat="44.04577" lon="6.98923">
        <ele>1664.1</ele>
        <time>2016-06-25T09:49:15Z</time>
      </trkpt>
      <trkpt lat="44.04586" lon="6.98921">
        <ele>1663.8</ele>
        <time>2016-06-25T09:49:28Z</time>
      </trkpt>
      <trkpt lat="44.04591" lon="6.98909">
        <ele>1663.9</ele>
        <time>2016-06-25T09:49:39Z</time>
      </trkpt>
      <trkpt lat="44.04593" lon="6.98896">
        <ele>1662.5</ele>
        <time>2016-06-25T09:49:48Z</time>
      </trkpt>
      <trkpt lat="44.04595" lon="6.98883">
        <ele>1662.8</ele>
        <time>2016-06-25T09:49:57Z</time>
      </trkpt>
      <trkpt lat="44.04595" lon="6.98868">
        <ele>1662.8</ele>
        <time>2016-06-25T09:50:06Z</time>
      </trkpt>
      <trkpt lat="44.04594" lon="6.98855">
        <ele>1662.3</ele>
        <time>2016-06-25T09:50:10Z</time>
      </trkpt>
      <trkpt lat="44.04595" lon="6.98842">
        <ele>1662.1</ele>
        <time>2016-06-25T09:50:14Z</time>
      </trkpt>
      <trkpt lat="44.046" lon="6.98829">
        <ele>1662.2</ele>
        <time>2016-06-25T09:50:18Z</time>
      </trkpt>
      <trkpt lat="44.04607" lon="6.9882">
        <ele>1662.6</ele>
        <time>2016-06-25T09:50:22Z</time>
      </trkpt>
      <trkpt lat="44.0461" lon="6.98807">
        <ele>1651.9</ele>
        <time>2016-06-25T09:52:16Z</time>
      </trkpt>
      <trkpt lat="44.0461" lon="6.98792">
        <ele>1650.4</ele>
        <time>2016-06-25T09:52:22Z</time>
      </trkpt>
      <trkpt lat="44.04609" lon="6.98777">
        <ele>1649.6</ele>
        <time>2016-06-25T09:52:25Z</time>
      </trkpt>
      <trkpt lat="44.04605" lon="6.98764">
        <ele>1649.1</ele>
        <time>2016-06-25T09:52:28Z</time>
      </trkpt>
      <trkpt lat="44.04599" lon="6.98753">
        <ele>1648.6</ele>
        <time>2016-06-25T09:52:31Z</time>
      </trkpt>
      <trkpt lat="44.04594" lon="6.98741">
        <ele>1649.2</ele>
        <time>2016-06-25T09:52:34Z</time>
      </trkpt>
      <trkpt lat="44.04588" lon="6.98728">
        <ele>1646.3</ele>
        <time>2016-06-25T09:53:27Z</time>
      </trkpt>
      <trkpt lat="44.04582" lon="6.98716">
        <ele>1644.6</ele>
        <time>2016-06-25T09:53:31Z</time>
      </trkpt>
      <trkpt lat="44.04587" lon="6.98702">
        <ele>1641.9</ele>
        <time>2016-06-25T09:53:36Z</time>
      </trkpt>
      <trkpt lat="44.04589" lon="6.98688">
        <ele>1639.3</ele>
        <time>2016-06-25T09:53:39Z</time>
      </trkpt>
      <trkpt lat="44.04596" lon="6.98676">
        <ele>1636.3</ele>
        <time>2016-06-25T09:53:43Z</time>
      </trkpt>
      <trkpt lat="44.04594" lon="6.98663">
        <ele>1629</ele>
        <time>2016-06-25T09:54:07Z</time>
      </trkpt>
      <trkpt lat="44.04595" lon="6.9865">
        <ele>1621.6</ele>
        <time>2016-06-25T09:54:50Z</time>
      </trkpt>
      <trkpt lat="44.04606" lon="6.9865">
        <ele>1619.9</ele>
        <time>2016-06-25T09:54:54Z</time>
      </trkpt>
      <trkpt lat="44.04619" lon="6.9865">
        <ele>1618.8</ele>
        <time>2016-06-25T09:54:57Z</time>
      </trkpt>
      <trkpt lat="44.0463" lon="6.98656">
        <ele>1617.1</ele>
        <time>2016-06-25T09:54:59Z</time>
      </trkpt>
      <trkpt lat="44.0464" lon="6.98662">
        <ele>1614.2</ele>
        <time>2016-06-25T09:55:02Z</time>
      </trkpt>
      <trkpt lat="44.04647" lon="6.98648">
        <ele>1612.5</ele>
        <time>2016-06-25T09:55:06Z</time>
      </trkpt>
      <trkpt lat="44.04653" lon="6.98636">
        <ele>1610.7</ele>
        <time>2016-06-25T09:55:09Z</time>
      </trkpt>
      <trkpt lat="44.04664" lon="6.98639">
        <ele>1611.6</ele>
        <time>2016-06-25T09:55:12Z</time>
      </trkpt>
      <trkpt lat="44.04677" lon="6.98641">
        <ele>1610.9</ele>
        <time>2016-06-25T09:55:15Z</time>
      </trkpt>
      <trkpt lat="44.04686" lon="6.98642">
        <ele>1609.2</ele>
        <time>2016-06-25T09:55:18Z</time>
      </trkpt>
      <trkpt lat="44.04696" lon="6.98646">
        <ele>1608.1</ele>
        <time>2016-06-25T09:55:21Z</time>
      </trkpt>
      <trkpt lat="44.04704" lon="6.98652">
        <ele>1606</ele>
        <time>2016-06-25T09:55:26Z</time>
      </trkpt>
      <trkpt lat="44.04715" lon="6.98649">
        <ele>1604.6</ele>
        <time>2016-06-25T09:55:30Z</time>
      </trkpt>
      <trkpt lat="44.04727" lon="6.98651">
        <ele>1603.9</ele>
        <time>2016-06-25T09:55:33Z</time>
      </trkpt>
      <trkpt lat="44.04737" lon="6.98649">
        <ele>1601.3</ele>
        <time>2016-06-25T09:55:37Z</time>
      </trkpt>
      <trkpt lat="44.04749" lon="6.98652">
        <ele>1600</ele>
        <time>2016-06-25T09:55:41Z</time>
      </trkpt>
      <trkpt lat="44.04757" lon="6.98661">
        <ele>1597.7</ele>
        <time>2016-06-25T09:55:44Z</time>
      </trkpt>
      <trkpt lat="44.04766" lon="6.98666">
        <ele>1593</ele>
        <time>2016-06-25T09:56:02Z</time>
      </trkpt>
      <trkpt lat="44.04775" lon="6.98671">
        <ele>1591.1</ele>
        <time>2016-06-25T09:56:06Z</time>
      </trkpt>
      <trkpt lat="44.04782" lon="6.98682">
        <ele>1589.8</ele>
        <time>2016-06-25T09:56:10Z</time>
      </trkpt>
      <trkpt lat="44.04793" lon="6.9868">
        <ele>1587.6</ele>
        <time>2016-06-25T09:56:14Z</time>
      </trkpt>
      <trkpt lat="44.04803" lon="6.98672">
        <ele>1587.4</ele>
        <time>2016-06-25T09:56:17Z</time>
      </trkpt>
      <trkpt lat="44.04815" lon="6.98663">
        <ele>1587.1</ele>
        <time>2016-06-25T09:56:20Z</time>
      </trkpt>
      <trkpt lat="44.04824" lon="6.98663">
        <ele>1585.6</ele>
        <time>2016-06-25T09:56:22Z</time>
      </trkpt>
      <trkpt lat="44.04837" lon="6.98666">
        <ele>1584.7</ele>
        <time>2016-06-25T09:56:25Z</time>
      </trkpt>
      <trkpt lat="44.04848" lon="6.9867">
        <ele>1583.5</ele>
        <time>2016-06-25T09:56:28Z</time>
      </trkpt>
      <trkpt lat="44.04855" lon="6.98683">
        <ele>1582.2</ele>
        <time>2016-06-25T09:56:32Z</time>
      </trkpt>
      <trkpt lat="44.04863" lon="6.98691">
        <ele>1580</ele>
        <time>2016-06-25T09:56:37Z</time>
      </trkpt>
      <trkpt lat="44.04864" lon="6.98703">
        <ele>1577.9</ele>
        <time>2016-06-25T09:56:41Z</time>
      </trkpt>
      <trkpt lat="44.04873" lon="6.98709">
        <ele>1577.7</ele>
        <time>2016-06-25T09:56:45Z</time>
      </trkpt>
      <trkpt lat="44.04885" lon="6.9871">
        <ele>1576.8</ele>
        <time>2016-06-25T09:56:48Z</time>
      </trkpt>
      <trkpt lat="44.04895" lon="6.9871">
        <ele>1576</ele>
        <time>2016-06-25T09:56:50Z</time>
      </trkpt>
      <trkpt lat="44.04904" lon="6.98712">
        <ele>1575.2</ele>
        <time>2016-06-25T09:56:52Z</time>
      </trkpt>
      <trkpt lat="44.04912" lon="6.98722">
        <ele>1572.3</ele>
        <time>2016-06-25T09:56:55Z</time>
      </trkpt>
      <trkpt lat="44.04924" lon="6.98725">
        <ele>1570.5</ele>
        <time>2016-06-25T09:56:58Z</time>
      </trkpt>
      <trkpt lat="44.04933" lon="6.98733">
        <ele>1567.9</ele>
        <time>2016-06-25T09:57:01Z</time>
      </trkpt>
      <trkpt lat="44.04943" lon="6.98742">
        <ele>1566.1</ele>
        <time>2016-06-25T09:57:04Z</time>
      </trkpt>
      <trkpt lat="44.04951" lon="6.98752">
        <ele>1565.3</ele>
        <time>2016-06-25T09:57:06Z</time>
      </trkpt>
      <trkpt lat="44.0496" lon="6.98757">
        <ele>1563.2</ele>
        <time>2016-06-25T09:57:09Z</time>
      </trkpt>
      <trkpt lat="44.0497" lon="6.98762">
        <ele>1560.9</ele>
        <time>2016-06-25T09:57:12Z</time>
      </trkpt>
      <trkpt lat="44.04982" lon="6.98764">
        <ele>1557.8</ele>
        <time>2016-06-25T09:57:16Z</time>
      </trkpt>
      <trkpt lat="44.04989" lon="6.98773">
        <ele>1556.1</ele>
        <time>2016-06-25T09:57:19Z</time>
      </trkpt>
      <trkpt lat="44.04994" lon="6.98784">
        <ele>1553.7</ele>
        <time>2016-06-25T09:57:22Z</time>
      </trkpt>
      <trkpt lat="44.05004" lon="6.98785">
        <ele>1550</ele>
        <time>2016-06-25T09:57:26Z</time>
      </trkpt>
      <trkpt lat="44.05017" lon="6.98785">
        <ele>1548.6</ele>
        <time>2016-06-25T09:57:29Z</time>
      </trkpt>
      <trkpt lat="44.0503" lon="6.98789">
        <ele>1546.8</ele>
        <time>2016-06-25T09:57:32Z</time>
      </trkpt>
      <trkpt lat="44.0504" lon="6.98798">
        <ele>1543.7</ele>
        <time>2016-06-25T09:57:35Z</time>
      </trkpt>
      <trkpt lat="44.05048" lon="6.98806">
        <ele>1541.6</ele>
        <time>2016-06-25T09:57:41Z</time>
      </trkpt>
      <trkpt lat="44.05058" lon="6.98804">
        <ele>1537.9</ele>
        <time>2016-06-25T09:58:15Z</time>
      </trkpt>
      <trkpt lat="44.05066" lon="6.98798">
        <ele>1531.8</ele>
        <time>2016-06-25T09:59:02Z</time>
      </trkpt>
      <trkpt lat="44.05079" lon="6.98791">
        <ele>1530.9</ele>
        <time>2016-06-25T09:59:05Z</time>
      </trkpt>
      <trkpt lat="44.05089" lon="6.98784">
        <ele>1529.8</ele>
        <time>2016-06-25T09:59:07Z</time>
      </trkpt>
      <trkpt lat="44.05097" lon="6.98778">
        <ele>1528.7</ele>
        <time>2016-06-25T09:59:09Z</time>
      </trkpt>
      <trkpt lat="44.05109" lon="6.98772">
        <ele>1526.9</ele>
        <time>2016-06-25T09:59:12Z</time>
      </trkpt>
      <trkpt lat="44.05119" lon="6.98767">
        <ele>1524.5</ele>
        <time>2016-06-25T09:59:15Z</time>
      </trkpt>
      <trkpt lat="44.0513" lon="6.98764">
        <ele>1522.9</ele>
        <time>2016-06-25T09:59:18Z</time>
      </trkpt>
      <trkpt lat="44.05143" lon="6.98763">
        <ele>1520.8</ele>
        <time>2016-06-25T09:59:21Z</time>
      </trkpt>
      <trkpt lat="44.05152" lon="6.98763">
        <ele>1518.6</ele>
        <time>2016-06-25T09:59:24Z</time>
      </trkpt>
      <trkpt lat="44.05163" lon="6.98756">
        <ele>1517.1</ele>
        <time>2016-06-25T09:59:27Z</time>
      </trkpt>
      <trkpt lat="44.05174" lon="6.98751">
        <ele>1514.9</ele>
        <time>2016-06-25T09:59:30Z</time>
      </trkpt>
      <trkpt lat="44.05186" lon="6.98754">
        <ele>1512.9</ele>
        <time>2016-06-25T09:59:33Z</time>
      </trkpt>
      <trkpt lat="44.05194" lon="6.98763">
        <ele>1512</ele>
        <time>2016-06-25T09:59:35Z</time>
      </trkpt>
      <trkpt lat="44.05201" lon="6.98775">
        <ele>1510.7</ele>
        <time>2016-06-25T09:59:38Z</time>
      </trkpt>
      <trkpt lat="44.05208" lon="6.98787">
        <ele>1509.3</ele>
        <time>2016-06-25T09:59:41Z</time>
      </trkpt>
      <trkpt lat="44.05213" lon="6.98798">
        <ele>1507.3</ele>
        <time>2016-06-25T09:59:44Z</time>
      </trkpt>
      <trkpt lat="44.05214" lon="6.98812">
        <ele>1504</ele>
        <time>2016-06-25T09:59:48Z</time>
      </trkpt>
      <trkpt lat="44.05216" lon="6.98826">
        <ele>1501.7</ele>
        <time>2016-06-25T09:59:54Z</time>
      </trkpt>
      <trkpt lat="44.05223" lon="6.98836">
        <ele>1500.3</ele>
        <time>2016-06-25T09:59:57Z</time>
      </trkpt>
      <trkpt lat="44.05233" lon="6.98846">
        <ele>1498.6</ele>
        <time>2016-06-25T10:00:00Z</time>
      </trkpt>
      <trkpt lat="44.05244" lon="6.9885">
        <ele>1495.7</ele>
        <time>2016-06-25T10:00:04Z</time>
      </trkpt>
      <trkpt lat="44.05254" lon="6.98849">
        <ele>1492.6</ele>
        <time>2016-06-25T10:00:07Z</time>
      </trkpt>
      <trkpt lat="44.05264" lon="6.98852">
        <ele>1490.2</ele>
        <time>2016-06-25T10:00:10Z</time>
      </trkpt>
      <trkpt lat="44.05271" lon="6.98859">
        <ele>1488.6</ele>
        <time>2016-06-25T10:00:13Z</time>
      </trkpt>
      <trkpt lat="44.05278" lon="6.98867">
        <ele>1485.8</ele>
        <time>2016-06-25T10:00:16Z</time>
      </trkpt>
      <trkpt lat="44.05285" lon="6.98875">
        <ele>1484.2</ele>
        <time>2016-06-25T10:00:20Z</time>
      </trkpt>
      <trkpt lat="44.05294" lon="6.98881">
        <ele>1481</ele>
        <time>2016-06-25T10:00:35Z</time>
      </trkpt>
      <trkpt lat="44.05303" lon="6.98879">
        <ele>1480.9</ele>
        <time>2016-06-25T10:00:48Z</time>
      </trkpt>
      <trkpt lat="44.05313" lon="6.98874">
        <ele>1479.8</ele>
        <time>2016-06-25T10:00:58Z</time>
      </trkpt>
      <trkpt lat="44.0532" lon="6.98865">
        <ele>1480</ele>
        <time>2016-06-25T10:01:02Z</time>
      </trkpt>
      <trkpt lat="44.05328" lon="6.98856">
        <ele>1477.5</ele>
        <time>2016-06-25T10:01:05Z</time>
      </trkpt>
      <trkpt lat="44.05336" lon="6.98846">
        <ele>1476.4</ele>
        <time>2016-06-25T10:01:08Z</time>
      </trkpt>
      <trkpt lat="44.05342" lon="6.98837">
        <ele>1474.6</ele>
        <time>2016-06-25T10:01:11Z</time>
      </trkpt>
      <trkpt lat="44.0535" lon="6.98827">
        <ele>1472</ele>
        <time>2016-06-25T10:01:15Z</time>
      </trkpt>
      <trkpt lat="44.05358" lon="6.98822">
        <ele>1467.1</ele>
        <time>2016-06-25T10:01:26Z</time>
      </trkpt>
      <trkpt lat="44.05366" lon="6.98814">
        <ele>1464.9</ele>
        <time>2016-06-25T10:01:44Z</time>
      </trkpt>
      <trkpt lat="44.05374" lon="6.98806">
        <ele>1464.4</ele>
        <time>2016-06-25T10:01:55Z</time>
      </trkpt>
      <trkpt lat="44.05382" lon="6.98799">
        <ele>1462.5</ele>
        <time>2016-06-25T10:02:01Z</time>
      </trkpt>
      <trkpt lat="44.05391" lon="6.98796">
        <ele>1461.3</ele>
        <time>2016-06-25T10:02:09Z</time>
      </trkpt>
      <trkpt lat="44.05402" lon="6.98793">
        <ele>1459</ele>
        <time>2016-06-25T10:02:15Z</time>
      </trkpt>
      <trkpt lat="44.05412" lon="6.98788">
        <ele>1457.7</ele>
        <time>2016-06-25T10:02:20Z</time>
      </trkpt>
      <trkpt lat="44.05422" lon="6.98782">
        <ele>1457.7</ele>
        <time>2016-06-25T10:02:24Z</time>
      </trkpt>
      <trkpt lat="44.05431" lon="6.98774">
        <ele>1457.6</ele>
        <time>2016-06-25T10:02:27Z</time>
      </trkpt>
      <trkpt lat="44.05442" lon="6.98764">
        <ele>1456.8</ele>
        <time>2016-06-25T10:02:30Z</time>
      </trkpt>
      <trkpt lat="44.05449" lon="6.98756">
        <ele>1456.7</ele>
        <time>2016-06-25T10:02:32Z</time>
      </trkpt>
      <trkpt lat="44.05458" lon="6.98748">
        <ele>1456</ele>
        <time>2016-06-25T10:02:34Z</time>
      </trkpt>
      <trkpt lat="44.05469" lon="6.98739">
        <ele>1453.4</ele>
        <time>2016-06-25T10:02:37Z</time>
      </trkpt>
      <trkpt lat="44.05479" lon="6.98729">
        <ele>1450.9</ele>
        <time>2016-06-25T10:02:40Z</time>
      </trkpt>
      <trkpt lat="44.05486" lon="6.98722">
        <ele>1451</ele>
        <time>2016-06-25T10:02:42Z</time>
      </trkpt>
      <trkpt lat="44.05496" lon="6.98713">
        <ele>1449</ele>
        <time>2016-06-25T10:02:45Z</time>
      </trkpt>
      <trkpt lat="44.05504" lon="6.98705">
        <ele>1447.6</ele>
        <time>2016-06-25T10:02:48Z</time>
      </trkpt>
      <trkpt lat="44.05513" lon="6.98697">
        <ele>1445.4</ele>
        <time>2016-06-25T10:02:51Z</time>
      </trkpt>
      <trkpt lat="44.05521" lon="6.98692">
        <ele>1444.1</ele>
        <time>2016-06-25T10:02:53Z</time>
      </trkpt>
      <trkpt lat="44.0553" lon="6.98686">
        <ele>1442.4</ele>
        <time>2016-06-25T10:02:56Z</time>
      </trkpt>
      <trkpt lat="44.05538" lon="6.9868">
        <ele>1439</ele>
        <time>2016-06-25T10:03:12Z</time>
      </trkpt>
      <trkpt lat="44.05549" lon="6.98676">
        <ele>1438.9</ele>
        <time>2016-06-25T10:03:17Z</time>
      </trkpt>
      <trkpt lat="44.05559" lon="6.98676">
        <ele>1438</ele>
        <time>2016-06-25T10:03:22Z</time>
      </trkpt>
      <trkpt lat="44.05569" lon="6.98675">
        <ele>1434.6</ele>
        <time>2016-06-25T10:03:28Z</time>
      </trkpt>
      <trkpt lat="44.05579" lon="6.98677">
        <ele>1431.4</ele>
        <time>2016-06-25T10:03:39Z</time>
      </trkpt>
      <trkpt lat="44.05589" lon="6.98685">
        <ele>1429.6</ele>
        <time>2016-06-25T10:03:44Z</time>
      </trkpt>
      <trkpt lat="44.05598" lon="6.98694">
        <ele>1426.5</ele>
        <time>2016-06-25T10:03:48Z</time>
      </trkpt>
      <trkpt lat="44.05607" lon="6.987">
        <ele>1425.2</ele>
        <time>2016-06-25T10:03:51Z</time>
      </trkpt>
      <trkpt lat="44.05615" lon="6.98712">
        <ele>1423.2</ele>
        <time>2016-06-25T10:03:55Z</time>
      </trkpt>
      <trkpt lat="44.05623" lon="6.98721">
        <ele>1421.8</ele>
        <time>2016-06-25T10:03:58Z</time>
      </trkpt>
      <trkpt lat="44.05633" lon="6.98727">
        <ele>1420.7</ele>
        <time>2016-06-25T10:04:02Z</time>
      </trkpt>
      <trkpt lat="44.05643" lon="6.98731">
        <ele>1420.3</ele>
        <time>2016-06-25T10:04:05Z</time>
      </trkpt>
      <trkpt lat="44.05651" lon="6.98735">
        <ele>1420.3</ele>
        <time>2016-06-25T10:04:08Z</time>
      </trkpt>
      <trkpt lat="44.05661" lon="6.98737">
        <ele>1419.9</ele>
        <time>2016-06-25T10:04:11Z</time>
      </trkpt>
      <trkpt lat="44.0567" lon="6.98739">
        <ele>1418.4</ele>
        <time>2016-06-25T10:04:19Z</time>
      </trkpt>
      <trkpt lat="44.05679" lon="6.98741">
        <ele>1416.3</ele>
        <time>2016-06-25T10:04:30Z</time>
      </trkpt>
      <trkpt lat="44.05685" lon="6.98731">
        <ele>1416.7</ele>
        <time>2016-06-25T10:04:51Z</time>
      </trkpt>
      <trkpt lat="44.05691" lon="6.98721">
        <ele>1416.1</ele>
        <time>2016-06-25T10:05:19Z</time>
      </trkpt>
      <trkpt lat="44.05696" lon="6.98711">
        <ele>1414.8</ele>
        <time>2016-06-25T10:06:46Z</time>
      </trkpt>
      <trkpt lat="44.05705" lon="6.98705">
        <ele>1413.5</ele>
        <time>2016-06-25T10:06:53Z</time>
      </trkpt>
      <trkpt lat="44.05712" lon="6.98712">
        <ele>1411.6</ele>
        <time>2016-06-25T10:07:07Z</time>
      </trkpt>
      <trkpt lat="44.05719" lon="6.98701">
        <ele>1409.6</ele>
        <time>2016-06-25T10:07:21Z</time>
      </trkpt>
      <trkpt lat="44.05721" lon="6.98689">
        <ele>1409</ele>
        <time>2016-06-25T10:07:25Z</time>
      </trkpt>
      <trkpt lat="44.05726" lon="6.98676">
        <ele>1411</ele>
        <time>2016-06-25T10:07:30Z</time>
      </trkpt>
      <trkpt lat="44.05732" lon="6.98663">
        <ele>1411.4</ele>
        <time>2016-06-25T10:07:36Z</time>
      </trkpt>
      <trkpt lat="44.05741" lon="6.98653">
        <ele>1410.2</ele>
        <time>2016-06-25T10:07:39Z</time>
      </trkpt>
      <trkpt lat="44.0575" lon="6.98649">
        <ele>1409.4</ele>
        <time>2016-06-25T10:07:41Z</time>
      </trkpt>
      <trkpt lat="44.0576" lon="6.98643">
        <ele>1409.3</ele>
        <time>2016-06-25T10:07:44Z</time>
      </trkpt>
      <trkpt lat="44.05769" lon="6.98638">
        <ele>1409.3</ele>
        <time>2016-06-25T10:07:46Z</time>
      </trkpt>
      <trkpt lat="44.05777" lon="6.98632">
        <ele>1407.8</ele>
        <time>2016-06-25T10:07:48Z</time>
      </trkpt>
      <trkpt lat="44.05787" lon="6.98626">
        <ele>1406.9</ele>
        <time>2016-06-25T10:07:50Z</time>
      </trkpt>
      <trkpt lat="44.05796" lon="6.98621">
        <ele>1406.4</ele>
        <time>2016-06-25T10:07:52Z</time>
      </trkpt>
      <trkpt lat="44.05808" lon="6.98615">
        <ele>1405</ele>
        <time>2016-06-25T10:07:55Z</time>
      </trkpt>
      <trkpt lat="44.05818" lon="6.98609">
        <ele>1404</ele>
        <time>2016-06-25T10:07:58Z</time>
      </trkpt>
      <trkpt lat="44.05827" lon="6.98605">
        <ele>1403.2</ele>
        <time>2016-06-25T10:08:00Z</time>
      </trkpt>
      <trkpt lat="44.05836" lon="6.98599">
        <ele>1400.7</ele>
        <time>2016-06-25T10:08:04Z</time>
      </trkpt>
      <trkpt lat="44.05845" lon="6.98591">
        <ele>1398.7</ele>
        <time>2016-06-25T10:08:09Z</time>
      </trkpt>
      <trkpt lat="44.05853" lon="6.98584">
        <ele>1397.4</ele>
        <time>2016-06-25T10:08:12Z</time>
      </trkpt>
      <trkpt lat="44.05861" lon="6.98575">
        <ele>1396.9</ele>
        <time>2016-06-25T10:08:16Z</time>
      </trkpt>
      <trkpt lat="44.05867" lon="6.98565">
        <ele>1396</ele>
        <time>2016-06-25T10:08:20Z</time>
      </trkpt>
      <trkpt lat="44.05876" lon="6.98557">
        <ele>1395.3</ele>
        <time>2016-06-25T10:08:23Z</time>
      </trkpt>
      <trkpt lat="44.05883" lon="6.98548">
        <ele>1394.7</ele>
        <time>2016-06-25T10:08:26Z</time>
      </trkpt>
      <trkpt lat="44.05891" lon="6.98542">
        <ele>1391.5</ele>
        <time>2016-06-25T10:08:30Z</time>
      </trkpt>
      <trkpt lat="44.05901" lon="6.98537">
        <ele>1390.3</ele>
        <time>2016-06-25T10:08:33Z</time>
      </trkpt>
      <trkpt lat="44.0591" lon="6.98533">
        <ele>1388.7</ele>
        <time>2016-06-25T10:08:36Z</time>
      </trkpt>
      <trkpt lat="44.05921" lon="6.98529">
        <ele>1387.2</ele>
        <time>2016-06-25T10:08:40Z</time>
      </trkpt>
      <trkpt lat="44.05931" lon="6.98522">
        <ele>1385.1</ele>
        <time>2016-06-25T10:08:43Z</time>
      </trkpt>
      <trkpt lat="44.05939" lon="6.98512">
        <ele>1383.2</ele>
        <time>2016-06-25T10:08:46Z</time>
      </trkpt>
      <trkpt lat="44.0595" lon="6.98504">
        <ele>1381.3</ele>
        <time>2016-06-25T10:08:49Z</time>
      </trkpt>
      <trkpt lat="44.05959" lon="6.98498">
        <ele>1379.4</ele>
        <time>2016-06-25T10:08:51Z</time>
      </trkpt>
      <trkpt lat="44.05969" lon="6.98494">
        <ele>1377.8</ele>
        <time>2016-06-25T10:08:53Z</time>
      </trkpt>
      <trkpt lat="44.05978" lon="6.9849">
        <ele>1376.7</ele>
        <time>2016-06-25T10:08:55Z</time>
      </trkpt>
      <trkpt lat="44.05988" lon="6.98489">
        <ele>1375.4</ele>
        <time>2016-06-25T10:08:57Z</time>
      </trkpt>
      <trkpt lat="44.05999" lon="6.98489">
        <ele>1374.1</ele>
        <time>2016-06-25T10:08:59Z</time>
      </trkpt>
      <trkpt lat="44.0601" lon="6.9849">
        <ele>1373.1</ele>
        <time>2016-06-25T10:09:01Z</time>
      </trkpt>
      <trkpt lat="44.06021" lon="6.9849">
        <ele>1372.2</ele>
        <time>2016-06-25T10:09:03Z</time>
      </trkpt>
      <trkpt lat="44.06032" lon="6.98493">
        <ele>1371.5</ele>
        <time>2016-06-25T10:09:05Z</time>
      </trkpt>
      <trkpt lat="44.06043" lon="6.98497">
        <ele>1371.2</ele>
        <time>2016-06-25T10:09:07Z</time>
      </trkpt>
      <trkpt lat="44.06056" lon="6.98501">
        <ele>1370.6</ele>
        <time>2016-06-25T10:09:10Z</time>
      </trkpt>
      <trkpt lat="44.06066" lon="6.98505">
        <ele>1370.1</ele>
        <time>2016-06-25T10:09:12Z</time>
      </trkpt>
      <trkpt lat="44.06077" lon="6.98509">
        <ele>1369.9</ele>
        <time>2016-06-25T10:09:15Z</time>
      </trkpt>
      <trkpt lat="44.06086" lon="6.98512">
        <ele>1369.8</ele>
        <time>2016-06-25T10:09:18Z</time>
      </trkpt>
      <trkpt lat="44.06096" lon="6.98514">
        <ele>1368.3</ele>
        <time>2016-06-25T10:09:21Z</time>
      </trkpt>
      <trkpt lat="44.06106" lon="6.98509">
        <ele>1366.5</ele>
        <time>2016-06-25T10:09:26Z</time>
      </trkpt>
      <trkpt lat="44.06114" lon="6.98503">
        <ele>1365.2</ele>
        <time>2016-06-25T10:09:30Z</time>
      </trkpt>
      <trkpt lat="44.06125" lon="6.98497">
        <ele>1363.6</ele>
        <time>2016-06-25T10:09:34Z</time>
      </trkpt>
      <trkpt lat="44.06136" lon="6.98492">
        <ele>1361.5</ele>
        <time>2016-06-25T10:09:37Z</time>
      </trkpt>
      <trkpt lat="44.06146" lon="6.98486">
        <ele>1360.5</ele>
        <time>2016-06-25T10:09:40Z</time>
      </trkpt>
      <trkpt lat="44.06155" lon="6.98479">
        <ele>1357.9</ele>
        <time>2016-06-25T10:09:44Z</time>
      </trkpt>
      <trkpt lat="44.06165" lon="6.98468">
        <ele>1357.5</ele>
        <time>2016-06-25T10:09:47Z</time>
      </trkpt>
      <trkpt lat="44.06174" lon="6.98461">
        <ele>1357.3</ele>
        <time>2016-06-25T10:09:49Z</time>
      </trkpt>
      <trkpt lat="44.06185" lon="6.98453">
        <ele>1356.9</ele>
        <time>2016-06-25T10:09:52Z</time>
      </trkpt>
      <trkpt lat="44.06196" lon="6.98449">
        <ele>1355.6</ele>
        <time>2016-06-25T10:09:55Z</time>
      </trkpt>
      <trkpt lat="44.06206" lon="6.9845">
        <ele>1353.5</ele>
        <time>2016-06-25T10:09:58Z</time>
      </trkpt>
      <trkpt lat="44.06217" lon="6.98453">
        <ele>1350.6</ele>
        <time>2016-06-25T10:10:34Z</time>
      </trkpt>
      <trkpt lat="44.06226" lon="6.98462">
        <ele>1349.6</ele>
        <time>2016-06-25T10:10:37Z</time>
      </trkpt>
      <trkpt lat="44.06234" lon="6.98469">
        <ele>1348.6</ele>
        <time>2016-06-25T10:10:39Z</time>
      </trkpt>
      <trkpt lat="44.06243" lon="6.98476">
        <ele>1348.1</ele>
        <time>2016-06-25T10:10:41Z</time>
      </trkpt>
      <trkpt lat="44.06254" lon="6.98482">
        <ele>1347.8</ele>
        <time>2016-06-25T10:10:44Z</time>
      </trkpt>
      <trkpt lat="44.06264" lon="6.98483">
        <ele>1345.3</ele>
        <time>2016-06-25T10:10:47Z</time>
      </trkpt>
      <trkpt lat="44.06273" lon="6.98489">
        <ele>1343.5</ele>
        <time>2016-06-25T10:10:49Z</time>
      </trkpt>
      <trkpt lat="44.06281" lon="6.98499">
        <ele>1341.9</ele>
        <time>2016-06-25T10:10:51Z</time>
      </trkpt>
      <trkpt lat="44.06289" lon="6.9851">
        <ele>1340.1</ele>
        <time>2016-06-25T10:10:54Z</time>
      </trkpt>
      <trkpt lat="44.06298" lon="6.98516">
        <ele>1339.8</ele>
        <time>2016-06-25T10:10:56Z</time>
      </trkpt>
      <trkpt lat="44.06306" lon="6.98527">
        <ele>1337.2</ele>
        <time>2016-06-25T10:10:59Z</time>
      </trkpt>
      <trkpt lat="44.06314" lon="6.98536">
        <ele>1335.3</ele>
        <time>2016-06-25T10:11:02Z</time>
      </trkpt>
      <trkpt lat="44.06314" lon="6.98524">
        <ele>1331</ele>
        <time>2016-06-25T10:11:31Z</time>
      </trkpt>
      <trkpt lat="44.0632" lon="6.98513">
        <ele>1325.9</ele>
        <time>2016-06-25T10:11:49Z</time>
      </trkpt>
      <trkpt lat="44.06328" lon="6.9852">
        <ele>1322</ele>
        <time>2016-06-25T10:12:05Z</time>
      </trkpt>
      <trkpt lat="44.06335" lon="6.98533">
        <ele>1322</ele>
        <time>2016-06-25T10:12:10Z</time>
      </trkpt>
      <trkpt lat="44.06341" lon="6.98542">
        <ele>1321.7</ele>
        <time>2016-06-25T10:12:13Z</time>
      </trkpt>
      <trkpt lat="44.06348" lon="6.98552">
        <ele>1320</ele>
        <time>2016-06-25T10:12:17Z</time>
      </trkpt>
      <trkpt lat="44.06357" lon="6.98556">
        <ele>1317.4</ele>
        <time>2016-06-25T10:12:24Z</time>
      </trkpt>
      <trkpt lat="44.06365" lon="6.98548">
        <ele>1316</ele>
        <time>2016-06-25T10:12:38Z</time>
      </trkpt>
      <trkpt lat="44.06374" lon="6.98539">
        <ele>1316.9</ele>
        <time>2016-06-25T10:12:45Z</time>
      </trkpt>
      <trkpt lat="44.06384" lon="6.9853">
        <ele>1316.4</ele>
        <time>2016-06-25T10:12:49Z</time>
      </trkpt>
      <trkpt lat="44.06394" lon="6.98525">
        <ele>1316.5</ele>
        <time>2016-06-25T10:12:53Z</time>
      </trkpt>
      <trkpt lat="44.06405" lon="6.98518">
        <ele>1317.1</ele>
        <time>2016-06-25T10:12:57Z</time>
      </trkpt>
      <trkpt lat="44.06416" lon="6.98511">
        <ele>1316.4</ele>
        <time>2016-06-25T10:13:00Z</time>
      </trkpt>
      <trkpt lat="44.06429" lon="6.98507">
        <ele>1315.7</ele>
        <time>2016-06-25T10:13:03Z</time>
      </trkpt>
      <trkpt lat="44.06442" lon="6.98504">
        <ele>1314.5</ele>
        <time>2016-06-25T10:13:06Z</time>
      </trkpt>
      <trkpt lat="44.06452" lon="6.98504">
        <ele>1313.1</ele>
        <time>2016-06-25T10:13:08Z</time>
      </trkpt>
      <trkpt lat="44.06461" lon="6.98504">
        <ele>1312.4</ele>
        <time>2016-06-25T10:13:10Z</time>
      </trkpt>
      <trkpt lat="44.06473" lon="6.98504">
        <ele>1311.4</ele>
        <time>2016-06-25T10:13:13Z</time>
      </trkpt>
      <trkpt lat="44.06482" lon="6.98503">
        <ele>1310.4</ele>
        <time>2016-06-25T10:13:15Z</time>
      </trkpt>
      <trkpt lat="44.06491" lon="6.98505">
        <ele>1309.6</ele>
        <time>2016-06-25T10:13:17Z</time>
      </trkpt>
      <trkpt lat="44.065" lon="6.98506">
        <ele>1308.6</ele>
        <time>2016-06-25T10:13:19Z</time>
      </trkpt>
      <trkpt lat="44.06509" lon="6.9851">
        <ele>1307.8</ele>
        <time>2016-06-25T10:13:21Z</time>
      </trkpt>
      <trkpt lat="44.06521" lon="6.98514">
        <ele>1308.1</ele>
        <time>2016-06-25T10:13:23Z</time>
      </trkpt>
      <trkpt lat="44.0653" lon="6.98518">
        <ele>1306.7</ele>
        <time>2016-06-25T10:13:25Z</time>
      </trkpt>
      <trkpt lat="44.06541" lon="6.98527">
        <ele>1304.6</ele>
        <time>2016-06-25T10:13:28Z</time>
      </trkpt>
      <trkpt lat="44.06552" lon="6.98527">
        <ele>1303.3</ele>
        <time>2016-06-25T10:13:31Z</time>
      </trkpt>
      <trkpt lat="44.06561" lon="6.98532">
        <ele>1302.4</ele>
        <time>2016-06-25T10:13:34Z</time>
      </trkpt>
      <trkpt lat="44.06571" lon="6.98534">
        <ele>1302.2</ele>
        <time>2016-06-25T10:13:37Z</time>
      </trkpt>
      <trkpt lat="44.06581" lon="6.98537">
        <ele>1301.1</ele>
        <time>2016-06-25T10:13:40Z</time>
      </trkpt>
      <trkpt lat="44.06596" lon="6.98535">
        <ele>1298.3</ele>
        <time>2016-06-25T10:13:43Z</time>
      </trkpt>
      <trkpt lat="44.06607" lon="6.98538">
        <ele>1297.4</ele>
        <time>2016-06-25T10:13:45Z</time>
      </trkpt>
      <trkpt lat="44.06616" lon="6.98542">
        <ele>1297</ele>
        <time>2016-06-25T10:13:47Z</time>
      </trkpt>
      <trkpt lat="44.06628" lon="6.98547">
        <ele>1295.5</ele>
        <time>2016-06-25T10:13:49Z</time>
      </trkpt>
      <trkpt lat="44.06637" lon="6.98554">
        <ele>1294</ele>
        <time>2016-06-25T10:13:51Z</time>
      </trkpt>
      <trkpt lat="44.06648" lon="6.98556">
        <ele>1292.3</ele>
        <time>2016-06-25T10:13:53Z</time>
      </trkpt>
      <trkpt lat="44.06658" lon="6.98557">
        <ele>1290.8</ele>
        <time>2016-06-25T10:13:55Z</time>
      </trkpt>
      <trkpt lat="44.0667" lon="6.98563">
        <ele>1288.6</ele>
        <time>2016-06-25T10:13:58Z</time>
      </trkpt>
      <trkpt lat="44.06683" lon="6.98566">
        <ele>1286.2</ele>
        <time>2016-06-25T10:14:01Z</time>
      </trkpt>
      <trkpt lat="44.06693" lon="6.98567">
        <ele>1284.8</ele>
        <time>2016-06-25T10:14:03Z</time>
      </trkpt>
      <trkpt lat="44.06704" lon="6.98567">
        <ele>1283.1</ele>
        <time>2016-06-25T10:14:05Z</time>
      </trkpt>
      <trkpt lat="44.06715" lon="6.98569">
        <ele>1282.2</ele>
        <time>2016-06-25T10:14:07Z</time>
      </trkpt>
      <trkpt lat="44.06724" lon="6.98567">
        <ele>1281.8</ele>
        <time>2016-06-25T10:14:09Z</time>
      </trkpt>
      <trkpt lat="44.06734" lon="6.98565">
        <ele>1280.8</ele>
        <time>2016-06-25T10:14:14Z</time>
      </trkpt>
      <trkpt lat="44.06741" lon="6.98556">
        <ele>1279.3</ele>
        <time>2016-06-25T10:14:28Z</time>
      </trkpt>
      <trkpt lat="44.06744" lon="6.98543">
        <ele>1279.2</ele>
        <time>2016-06-25T10:14:40Z</time>
      </trkpt>
      <trkpt lat="44.06737" lon="6.98535">
        <ele>1279.3</ele>
        <time>2016-06-25T10:14:51Z</time>
      </trkpt>
      <trkpt lat="44.06727" lon="6.98533">
        <ele>1280.3</ele>
        <time>2016-06-25T10:15:06Z</time>
      </trkpt>
      <trkpt lat="44.06718" lon="6.98533">
        <ele>1280.6</ele>
        <time>2016-06-25T10:15:13Z</time>
      </trkpt>
      <trkpt lat="44.06707" lon="6.98532">
        <ele>1280.7</ele>
        <time>2016-06-25T10:15:18Z</time>
      </trkpt>
      <trkpt lat="44.06697" lon="6.98531">
        <ele>1280.6</ele>
        <time>2016-06-25T10:15:22Z</time>
      </trkpt>
      <trkpt lat="44.06686" lon="6.98531">
        <ele>1281.8</ele>
        <time>2016-06-25T10:15:26Z</time>
      </trkpt>
      <trkpt lat="44.06677" lon="6.9853">
        <ele>1281.2</ele>
        <time>2016-06-25T10:15:30Z</time>
      </trkpt>
      <trkpt lat="44.06667" lon="6.9853">
        <ele>1280.8</ele>
        <time>2016-06-25T10:15:35Z</time>
      </trkpt>
      <trkpt lat="44.06657" lon="6.9853">
        <ele>1280.1</ele>
        <time>2016-06-25T10:15:42Z</time>
      </trkpt>
      <trkpt lat="44.06648" lon="6.9853">
        <ele>1280.4</ele>
        <time>2016-06-25T10:15:55Z</time>
      </trkpt>
      <trkpt lat="44.06638" lon="6.9853">
        <ele>1280</ele>
        <time>2016-06-25T10:16:11Z</time>
      </trkpt>
      <trkpt lat="44.06629" lon="6.98531">
        <ele>1280</ele>
        <time>2016-06-25T10:16:18Z</time>
      </trkpt>
      <trkpt lat="44.0662" lon="6.98533">
        <ele>1280</ele>
        <time>2016-06-25T10:16:26Z</time>
      </trkpt>
      <trkpt lat="44.0661" lon="6.98534">
        <ele>1280.1</ele>
        <time>2016-06-25T10:16:33Z</time>
      </trkpt>
      <trkpt lat="44.066" lon="6.98536">
        <ele>1280.9</ele>
        <time>2016-06-25T10:16:41Z</time>
      </trkpt>
      <trkpt lat="44.06591" lon="6.98538">
        <ele>1280.2</ele>
        <time>2016-06-25T10:16:50Z</time>
      </trkpt>
      <trkpt lat="44.06582" lon="6.98541">
        <ele>1280.1</ele>
        <time>2016-06-25T10:17:02Z</time>
      </trkpt>
      <trkpt lat="44.0659" lon="6.98546">
        <ele>1279.2</ele>
        <time>2016-06-25T10:17:47Z</time>
      </trkpt>
      <trkpt lat="44.06599" lon="6.98548">
        <ele>1279.8</ele>
        <time>2016-06-25T10:18:45Z</time>
      </trkpt>
      <trkpt lat="44.06609" lon="6.98547">
        <ele>1280.7</ele>
        <time>2016-06-25T10:19:38Z</time>
      </trkpt>
      <trkpt lat="44.0662" lon="6.98547">
        <ele>1280.3</ele>
        <time>2016-06-25T10:19:45Z</time>
      </trkpt>
      <trkpt lat="44.0663" lon="6.98547">
        <ele>1280.8</ele>
        <time>2016-06-25T10:19:50Z</time>
      </trkpt>
      <trkpt lat="44.06639" lon="6.98547">
        <ele>1281.4</ele>
        <time>2016-06-25T10:19:55Z</time>
      </trkpt>
      <trkpt lat="44.06648" lon="6.98549">
        <ele>1279.7</ele>
        <time>2016-06-25T10:20:11Z</time>
      </trkpt>
      <trkpt lat="44.06656" lon="6.98557">
        <ele>1281</ele>
        <time>2016-06-25T10:20:45Z</time>
      </trkpt>
      <trkpt lat="44.06665" lon="6.98564">
        <ele>1281.7</ele>
        <time>2016-06-25T10:20:50Z</time>
      </trkpt>
      <trkpt lat="44.06675" lon="6.98573">
        <ele>1281.7</ele>
        <time>2016-06-25T10:20:54Z</time>
      </trkpt>
      <trkpt lat="44.06682" lon="6.98581">
        <ele>1281.9</ele>
        <time>2016-06-25T10:20:57Z</time>
      </trkpt>
      <trkpt lat="44.0669" lon="6.98591">
        <ele>1282.4</ele>
        <time>2016-06-25T10:21:01Z</time>
      </trkpt>
      <trkpt lat="44.06698" lon="6.98598">
        <ele>1283.5</ele>
        <time>2016-06-25T10:21:05Z</time>
      </trkpt>
      <trkpt lat="44.06708" lon="6.98608">
        <ele>1284.4</ele>
        <time>2016-06-25T10:21:10Z</time>
      </trkpt>
      <trkpt lat="44.06719" lon="6.98611">
        <ele>1284</ele>
        <time>2016-06-25T10:21:14Z</time>
      </trkpt>
      <trkpt lat="44.06729" lon="6.98614">
        <ele>1285.8</ele>
        <time>2016-06-25T10:21:18Z</time>
      </trkpt>
      <trkpt lat="44.06739" lon="6.98612">
        <ele>1285.4</ele>
        <time>2016-06-25T10:21:22Z</time>
      </trkpt>
      <trkpt lat="44.06748" lon="6.9861">
        <ele>1285.4</ele>
        <time>2016-06-25T10:21:28Z</time>
      </trkpt>
      <trkpt lat="44.06738" lon="6.9861">
        <ele>1285.5</ele>
        <time>2016-06-25T10:21:35Z</time>
      </trkpt>
      <trkpt lat="44.06726" lon="6.98608">
        <ele>1286.3</ele>
        <time>2016-06-25T10:21:39Z</time>
      </trkpt>
      <trkpt lat="44.06717" lon="6.98609">
        <ele>1287</ele>
        <time>2016-06-25T10:21:42Z</time>
      </trkpt>
      <trkpt lat="44.06708" lon="6.98609">
        <ele>1287.1</ele>
        <time>2016-06-25T10:21:45Z</time>
      </trkpt>
      <trkpt lat="44.06697" lon="6.9861">
        <ele>1288.1</ele>
        <time>2016-06-25T10:21:51Z</time>
      </trkpt>
      <trkpt lat="44.06688" lon="6.9861">
        <ele>1289.1</ele>
        <time>2016-06-25T10:21:56Z</time>
      </trkpt>
      <trkpt lat="44.06677" lon="6.98609">
        <ele>1289.9</ele>
        <time>2016-06-25T10:22:02Z</time>
      </trkpt>
      <trkpt lat="44.06666" lon="6.98609">
        <ele>1290.1</ele>
        <time>2016-06-25T10:22:06Z</time>
      </trkpt>
      <trkpt lat="44.06657" lon="6.98609">
        <ele>1290.2</ele>
        <time>2016-06-25T10:22:09Z</time>
      </trkpt>
      <trkpt lat="44.06647" lon="6.98609">
        <ele>1290.6</ele>
        <time>2016-06-25T10:22:12Z</time>
      </trkpt>
      <trkpt lat="44.06638" lon="6.98604">
        <ele>1291.1</ele>
        <time>2016-06-25T10:22:16Z</time>
      </trkpt>
      <trkpt lat="44.06631" lon="6.98596">
        <ele>1292.3</ele>
        <time>2016-06-25T10:22:31Z</time>
      </trkpt>
      <trkpt lat="44.06627" lon="6.98584">
        <ele>1293.1</ele>
        <time>2016-06-25T10:22:48Z</time>
      </trkpt>
      <trkpt lat="44.06627" lon="6.9857">
        <ele>1295.9</ele>
        <time>2016-06-25T10:22:58Z</time>
      </trkpt>
      <trkpt lat="44.06636" lon="6.98565">
        <ele>1296.2</ele>
        <time>2016-06-25T10:23:07Z</time>
      </trkpt>
      <trkpt lat="44.06644" lon="6.98557">
        <ele>1297.7</ele>
        <time>2016-06-25T10:23:15Z</time>
      </trkpt>
      <trkpt lat="44.06653" lon="6.98549">
        <ele>1297.8</ele>
        <time>2016-06-25T10:23:21Z</time>
      </trkpt>
      <trkpt lat="44.06662" lon="6.98543">
        <ele>1299.7</ele>
        <time>2016-06-25T10:23:27Z</time>
      </trkpt>
      <trkpt lat="44.06671" lon="6.98539">
        <ele>1300.5</ele>
        <time>2016-06-25T10:23:32Z</time>
      </trkpt>
      <trkpt lat="44.0668" lon="6.98535">
        <ele>1300.7</ele>
        <time>2016-06-25T10:23:35Z</time>
      </trkpt>
      <trkpt lat="44.06691" lon="6.98531">
        <ele>1301</ele>
        <time>2016-06-25T10:23:38Z</time>
      </trkpt>
      <trkpt lat="44.06702" lon="6.98527">
        <ele>1302.2</ele>
        <time>2016-06-25T10:23:41Z</time>
      </trkpt>
      <trkpt lat="44.06714" lon="6.98522">
        <ele>1303.1</ele>
        <time>2016-06-25T10:23:44Z</time>
      </trkpt>
      <trkpt lat="44.06724" lon="6.98518">
        <ele>1303.5</ele>
        <time>2016-06-25T10:23:47Z</time>
      </trkpt>
      <trkpt lat="44.06733" lon="6.98514">
        <ele>1304.4</ele>
        <time>2016-06-25T10:23:50Z</time>
      </trkpt>
      <trkpt lat="44.06742" lon="6.98508">
        <ele>1304.7</ele>
        <time>2016-06-25T10:23:54Z</time>
      </trkpt>
      <trkpt lat="44.06751" lon="6.98503">
        <ele>1305.2</ele>
        <time>2016-06-25T10:23:59Z</time>
      </trkpt>
      <trkpt lat="44.06759" lon="6.98497">
        <ele>1305.8</ele>
        <time>2016-06-25T10:24:08Z</time>
      </trkpt>
      <trkpt lat="44.06752" lon="6.98487">
        <ele>1307.9</ele>
        <time>2016-06-25T10:24:29Z</time>
      </trkpt>
      <trkpt lat="44.06743" lon="6.98484">
        <ele>1308.1</ele>
        <time>2016-06-25T10:24:38Z</time>
      </trkpt>
      <trkpt lat="44.06733" lon="6.98485">
        <ele>1308.2</ele>
        <time>2016-06-25T10:24:42Z</time>
      </trkpt>
      <trkpt lat="44.06724" lon="6.98478">
        <ele>1309.3</ele>
        <time>2016-06-25T10:24:47Z</time>
      </trkpt>
      <trkpt lat="44.06716" lon="6.98473">
        <ele>1311.8</ele>
        <time>2016-06-25T10:24:52Z</time>
      </trkpt>
      <trkpt lat="44.06707" lon="6.98469">
        <ele>1313.6</ele>
        <time>2016-06-25T10:24:59Z</time>
      </trkpt>
      <trkpt lat="44.06699" lon="6.98461">
        <ele>1315.2</ele>
        <time>2016-06-25T10:25:05Z</time>
      </trkpt>
      <trkpt lat="44.06693" lon="6.9845">
        <ele>1316.4</ele>
        <time>2016-06-25T10:25:12Z</time>
      </trkpt>
      <trkpt lat="44.0669" lon="6.98438">
        <ele>1317.4</ele>
        <time>2016-06-25T10:25:18Z</time>
      </trkpt>
      <trkpt lat="44.06686" lon="6.98426">
        <ele>1319.2</ele>
        <time>2016-06-25T10:25:33Z</time>
      </trkpt>
      <trkpt lat="44.06684" lon="6.98414">
        <ele>1321.6</ele>
        <time>2016-06-25T10:25:44Z</time>
      </trkpt>
      <trkpt lat="44.06685" lon="6.98401">
        <ele>1322.8</ele>
        <time>2016-06-25T10:25:53Z</time>
      </trkpt>
      <trkpt lat="44.06688" lon="6.98389">
        <ele>1323.5</ele>
        <time>2016-06-25T10:26:04Z</time>
      </trkpt>
      <trkpt lat="44.06689" lon="6.98376">
        <ele>1326.7</ele>
        <time>2016-06-25T10:26:16Z</time>
      </trkpt>
      <trkpt lat="44.06686" lon="6.98364">
        <ele>1328.4</ele>
        <time>2016-06-25T10:26:31Z</time>
      </trkpt>
      <trkpt lat="44.06677" lon="6.98364">
        <ele>1327.8</ele>
        <time>2016-06-25T10:26:42Z</time>
      </trkpt>
      <trkpt lat="44.06668" lon="6.98364">
        <ele>1329.7</ele>
        <time>2016-06-25T10:26:56Z</time>
      </trkpt>
      <trkpt lat="44.0666" lon="6.98358">
        <ele>1332.7</ele>
        <time>2016-06-25T10:27:08Z</time>
      </trkpt>
      <trkpt lat="44.06651" lon="6.98359">
        <ele>1333.3</ele>
        <time>2016-06-25T10:27:23Z</time>
      </trkpt>
      <trkpt lat="44.06641" lon="6.98359">
        <ele>1334.1</ele>
        <time>2016-06-25T10:27:34Z</time>
      </trkpt>
      <trkpt lat="44.06633" lon="6.98354">
        <ele>1336.1</ele>
        <time>2016-06-25T10:27:45Z</time>
      </trkpt>
      <trkpt lat="44.06629" lon="6.98342">
        <ele>1339.4</ele>
        <time>2016-06-25T10:27:59Z</time>
      </trkpt>
      <trkpt lat="44.06627" lon="6.9833">
        <ele>1340.8</ele>
        <time>2016-06-25T10:28:12Z</time>
      </trkpt>
      <trkpt lat="44.06618" lon="6.98329">
        <ele>1340.5</ele>
        <time>2016-06-25T10:28:53Z</time>
      </trkpt>
      <trkpt lat="44.06614" lon="6.98317">
        <ele>1341.2</ele>
        <time>2016-06-25T10:29:38Z</time>
      </trkpt>
      <trkpt lat="44.06605" lon="6.98323">
        <ele>1341.5</ele>
        <time>2016-06-25T10:32:03Z</time>
      </trkpt>
      <trkpt lat="44.06616" lon="6.9832">
        <ele>1340.7</ele>
        <time>2016-06-25T10:32:31Z</time>
      </trkpt>
      <trkpt lat="44.06626" lon="6.98318">
        <ele>1341.8</ele>
        <time>2016-06-25T10:32:41Z</time>
      </trkpt>
      <trkpt lat="44.0663" lon="6.9833">
        <ele>1343.1</ele>
        <time>2016-06-25T10:33:59Z</time>
      </trkpt>
      <trkpt lat="44.06639" lon="6.98329">
        <ele>1345.7</ele>
        <time>2016-06-25T10:34:09Z</time>
      </trkpt>
      <trkpt lat="44.06636" lon="6.98316">
        <ele>1350.3</ele>
        <time>2016-06-25T10:34:33Z</time>
      </trkpt>
      <trkpt lat="44.06643" lon="6.98307">
        <ele>1354.7</ele>
        <time>2016-06-25T10:35:01Z</time>
      </trkpt>
      <trkpt lat="44.06641" lon="6.98294">
        <ele>1357.6</ele>
        <time>2016-06-25T10:35:20Z</time>
      </trkpt>
      <trkpt lat="44.06641" lon="6.98281">
        <ele>1360.6</ele>
        <time>2016-06-25T10:35:35Z</time>
      </trkpt>
      <trkpt lat="44.06638" lon="6.98268">
        <ele>1364.1</ele>
        <time>2016-06-25T10:35:53Z</time>
      </trkpt>
      <trkpt lat="44.06647" lon="6.98264">
        <ele>1371.4</ele>
        <time>2016-06-25T10:36:44Z</time>
      </trkpt>
      <trkpt lat="44.06648" lon="6.98251">
        <ele>1376.3</ele>
        <time>2016-06-25T10:37:12Z</time>
      </trkpt>
      <trkpt lat="44.06646" lon="6.98238">
        <ele>1377.9</ele>
        <time>2016-06-25T10:37:29Z</time>
      </trkpt>
      <trkpt lat="44.06645" lon="6.98225">
        <ele>1382.1</ele>
        <time>2016-06-25T10:37:54Z</time>
      </trkpt>
      <trkpt lat="44.06638" lon="6.98216">
        <ele>1384.7</ele>
        <time>2016-06-25T10:38:09Z</time>
      </trkpt>
      <trkpt lat="44.0663" lon="6.98209">
        <ele>1386.5</ele>
        <time>2016-06-25T10:38:22Z</time>
      </trkpt>
      <trkpt lat="44.06621" lon="6.98206">
        <ele>1387.4</ele>
        <time>2016-06-25T10:38:38Z</time>
      </trkpt>
      <trkpt lat="44.06613" lon="6.982">
        <ele>1390.8</ele>
        <time>2016-06-25T10:38:59Z</time>
      </trkpt>
      <trkpt lat="44.06612" lon="6.98187">
        <ele>1392.4</ele>
        <time>2016-06-25T10:39:10Z</time>
      </trkpt>
      <trkpt lat="44.06611" lon="6.98174">
        <ele>1394.7</ele>
        <time>2016-06-25T10:39:25Z</time>
      </trkpt>
      <trkpt lat="44.06604" lon="6.98166">
        <ele>1397.3</ele>
        <time>2016-06-25T10:39:41Z</time>
      </trkpt>
      <trkpt lat="44.06598" lon="6.98156">
        <ele>1398.3</ele>
        <time>2016-06-25T10:39:56Z</time>
      </trkpt>
      <trkpt lat="44.0659" lon="6.98149">
        <ele>1401</ele>
        <time>2016-06-25T10:40:12Z</time>
      </trkpt>
      <trkpt lat="44.06585" lon="6.98138">
        <ele>1403</ele>
        <time>2016-06-25T10:40:26Z</time>
      </trkpt>
      <trkpt lat="44.06581" lon="6.98126">
        <ele>1405</ele>
        <time>2016-06-25T10:40:38Z</time>
      </trkpt>
      <trkpt lat="44.06573" lon="6.98117">
        <ele>1406.3</ele>
        <time>2016-06-25T10:41:10Z</time>
      </trkpt>
      <trkpt lat="44.06565" lon="6.98113">
        <ele>1407.6</ele>
        <time>2016-06-25T10:41:22Z</time>
      </trkpt>
      <trkpt lat="44.06557" lon="6.98107">
        <ele>1410.4</ele>
        <time>2016-06-25T10:41:38Z</time>
      </trkpt>
      <trkpt lat="44.06548" lon="6.98102">
        <ele>1412.9</ele>
        <time>2016-06-25T10:41:58Z</time>
      </trkpt>
      <trkpt lat="44.06539" lon="6.98099">
        <ele>1414.2</ele>
        <time>2016-06-25T10:42:16Z</time>
      </trkpt>
      <trkpt lat="44.06532" lon="6.98091">
        <ele>1417.8</ele>
        <time>2016-06-25T10:42:33Z</time>
      </trkpt>
      <trkpt lat="44.06525" lon="6.98082">
        <ele>1420.7</ele>
        <time>2016-06-25T10:42:50Z</time>
      </trkpt>
      <trkpt lat="44.06517" lon="6.98075">
        <ele>1423.6</ele>
        <time>2016-06-25T10:43:09Z</time>
      </trkpt>
      <trkpt lat="44.0651" lon="6.98066">
        <ele>1426.4</ele>
        <time>2016-06-25T10:43:26Z</time>
      </trkpt>
      <trkpt lat="44.06504" lon="6.98056">
        <ele>1429</ele>
        <time>2016-06-25T10:43:43Z</time>
      </trkpt>
      <trkpt lat="44.06497" lon="6.98049">
        <ele>1431.2</ele>
        <time>2016-06-25T10:43:59Z</time>
      </trkpt>
      <trkpt lat="44.06489" lon="6.98043">
        <ele>1432.6</ele>
        <time>2016-06-25T10:44:14Z</time>
      </trkpt>
      <trkpt lat="44.06483" lon="6.98033">
        <ele>1434.7</ele>
        <time>2016-06-25T10:44:29Z</time>
      </trkpt>
      <trkpt lat="44.06474" lon="6.98032">
        <ele>1437.4</ele>
        <time>2016-06-25T10:44:46Z</time>
      </trkpt>
      <trkpt lat="44.06464" lon="6.98033">
        <ele>1440</ele>
        <time>2016-06-25T10:45:03Z</time>
      </trkpt>
      <trkpt lat="44.06455" lon="6.98031">
        <ele>1442.7</ele>
        <time>2016-06-25T10:45:19Z</time>
      </trkpt>
      <trkpt lat="44.06446" lon="6.98032">
        <ele>1444.1</ele>
        <time>2016-06-25T10:45:36Z</time>
      </trkpt>
      <trkpt lat="44.06437" lon="6.98037">
        <ele>1445.7</ele>
        <time>2016-06-25T10:45:48Z</time>
      </trkpt>
      <trkpt lat="44.06428" lon="6.98041">
        <ele>1445.3</ele>
        <time>2016-06-25T10:45:54Z</time>
      </trkpt>
      <trkpt lat="44.06419" lon="6.98048">
        <ele>1446.8</ele>
        <time>2016-06-25T10:46:00Z</time>
      </trkpt>
      <trkpt lat="44.0641" lon="6.98054">
        <ele>1446.6</ele>
        <time>2016-06-25T10:46:07Z</time>
      </trkpt>
      <trkpt lat="44.064" lon="6.98057">
        <ele>1446.3</ele>
        <time>2016-06-25T10:46:14Z</time>
      </trkpt>
      <trkpt lat="44.06392" lon="6.98061">
        <ele>1447.5</ele>
        <time>2016-06-25T10:46:19Z</time>
      </trkpt>
      <trkpt lat="44.06382" lon="6.98065">
        <ele>1448</ele>
        <time>2016-06-25T10:46:25Z</time>
      </trkpt>
      <trkpt lat="44.06372" lon="6.98058">
        <ele>1447</ele>
        <time>2016-06-25T10:46:31Z</time>
      </trkpt>
      <trkpt lat="44.06367" lon="6.98046">
        <ele>1447.2</ele>
        <time>2016-06-25T10:46:35Z</time>
      </trkpt>
      <trkpt lat="44.06361" lon="6.98035">
        <ele>1446.8</ele>
        <time>2016-06-25T10:46:40Z</time>
      </trkpt>
      <trkpt lat="44.06353" lon="6.98026">
        <ele>1445.4</ele>
        <time>2016-06-25T10:46:44Z</time>
      </trkpt>
      <trkpt lat="44.06346" lon="6.98019">
        <ele>1445.6</ele>
        <time>2016-06-25T10:47:10Z</time>
      </trkpt>
      <trkpt lat="44.06349" lon="6.98033">
        <ele>1446.1</ele>
        <time>2016-06-25T10:47:41Z</time>
      </trkpt>
      <trkpt lat="44.06355" lon="6.98046">
        <ele>1447.6</ele>
        <time>2016-06-25T10:47:48Z</time>
      </trkpt>
      <trkpt lat="44.0636" lon="6.98059">
        <ele>1448.5</ele>
        <time>2016-06-25T10:47:53Z</time>
      </trkpt>
      <trkpt lat="44.06368" lon="6.98067">
        <ele>1448.6</ele>
        <time>2016-06-25T10:47:58Z</time>
      </trkpt>
      <trkpt lat="44.06363" lon="6.98055">
        <ele>1449.4</ele>
        <time>2016-06-25T10:48:29Z</time>
      </trkpt>
      <trkpt lat="44.06359" lon="6.98043">
        <ele>1448.1</ele>
        <time>2016-06-25T10:48:43Z</time>
      </trkpt>
      <trkpt lat="44.06352" lon="6.98034">
        <ele>1447.2</ele>
        <time>2016-06-25T10:48:48Z</time>
      </trkpt>
      <trkpt lat="44.06343" lon="6.98023">
        <ele>1446.5</ele>
        <time>2016-06-25T10:48:52Z</time>
      </trkpt>
      <trkpt lat="44.06336" lon="6.98013">
        <ele>1446.6</ele>
        <time>2016-06-25T10:48:55Z</time>
      </trkpt>
      <trkpt lat="44.06327" lon="6.98008">
        <ele>1446.6</ele>
        <time>2016-06-25T10:48:59Z</time>
      </trkpt>
      <trkpt lat="44.06318" lon="6.98001">
        <ele>1446.5</ele>
        <time>2016-06-25T10:49:03Z</time>
      </trkpt>
      <trkpt lat="44.06307" lon="6.97997">
        <ele>1446.7</ele>
        <time>2016-06-25T10:49:07Z</time>
      </trkpt>
      <trkpt lat="44.06298" lon="6.97993">
        <ele>1446.9</ele>
        <time>2016-06-25T10:49:11Z</time>
      </trkpt>
      <trkpt lat="44.06287" lon="6.97989">
        <ele>1448.3</ele>
        <time>2016-06-25T10:49:16Z</time>
      </trkpt>
      <trkpt lat="44.06278" lon="6.97983">
        <ele>1447.4</ele>
        <time>2016-06-25T10:49:40Z</time>
      </trkpt>
      <trkpt lat="44.06269" lon="6.97978">
        <ele>1446.3</ele>
        <time>2016-06-25T10:50:00Z</time>
      </trkpt>
      <trkpt lat="44.06262" lon="6.97969">
        <ele>1446</ele>
        <time>2016-06-25T10:50:06Z</time>
      </trkpt>
      <trkpt lat="44.06254" lon="6.97962">
        <ele>1446.5</ele>
        <time>2016-06-25T10:50:11Z</time>
      </trkpt>
      <trkpt lat="44.06245" lon="6.97954">
        <ele>1446.4</ele>
        <time>2016-06-25T10:50:15Z</time>
      </trkpt>
      <trkpt lat="44.06234" lon="6.9795">
        <ele>1445.6</ele>
        <time>2016-06-25T10:50:20Z</time>
      </trkpt>
      <trkpt lat="44.06223" lon="6.97947">
        <ele>1446.2</ele>
        <time>2016-06-25T10:50:24Z</time>
      </trkpt>
      <trkpt lat="44.06213" lon="6.97944">
        <ele>1445.8</ele>
        <time>2016-06-25T10:50:27Z</time>
      </trkpt>
      <trkpt lat="44.06204" lon="6.97939">
        <ele>1445.2</ele>
        <time>2016-06-25T10:50:30Z</time>
      </trkpt>
      <trkpt lat="44.06194" lon="6.97931">
        <ele>1445</ele>
        <time>2016-06-25T10:50:34Z</time>
      </trkpt>
      <trkpt lat="44.06187" lon="6.97921">
        <ele>1445.1</ele>
        <time>2016-06-25T10:50:38Z</time>
      </trkpt>
      <trkpt lat="44.0618" lon="6.97912">
        <ele>1446.5</ele>
        <time>2016-06-25T10:50:42Z</time>
      </trkpt>
      <trkpt lat="44.06171" lon="6.97905">
        <ele>1448.1</ele>
        <time>2016-06-25T10:50:48Z</time>
      </trkpt>
      <trkpt lat="44.06165" lon="6.97895">
        <ele>1451</ele>
        <time>2016-06-25T10:50:57Z</time>
      </trkpt>
      <trkpt lat="44.06156" lon="6.97888">
        <ele>1452.5</ele>
        <time>2016-06-25T10:51:13Z</time>
      </trkpt>
      <trkpt lat="44.06146" lon="6.97887">
        <ele>1452.7</ele>
        <time>2016-06-25T10:51:19Z</time>
      </trkpt>
      <trkpt lat="44.06136" lon="6.97887">
        <ele>1453.6</ele>
        <time>2016-06-25T10:51:25Z</time>
      </trkpt>
      <trkpt lat="44.06126" lon="6.97888">
        <ele>1455.2</ele>
        <time>2016-06-25T10:51:31Z</time>
      </trkpt>
      <trkpt lat="44.06117" lon="6.97889">
        <ele>1455.6</ele>
        <time>2016-06-25T10:51:37Z</time>
      </trkpt>
      <trkpt lat="44.06108" lon="6.97883">
        <ele>1456.7</ele>
        <time>2016-06-25T10:51:43Z</time>
      </trkpt>
      <trkpt lat="44.06099" lon="6.97878">
        <ele>1457</ele>
        <time>2016-06-25T10:51:50Z</time>
      </trkpt>
      <trkpt lat="44.0609" lon="6.97875">
        <ele>1457.2</ele>
        <time>2016-06-25T10:51:56Z</time>
      </trkpt>
      <trkpt lat="44.06081" lon="6.97872">
        <ele>1458.5</ele>
        <time>2016-06-25T10:52:02Z</time>
      </trkpt>
      <trkpt lat="44.06072" lon="6.97871">
        <ele>1458.6</ele>
        <time>2016-06-25T10:52:07Z</time>
      </trkpt>
      <trkpt lat="44.06061" lon="6.97871">
        <ele>1459.3</ele>
        <time>2016-06-25T10:52:12Z</time>
      </trkpt>
      <trkpt lat="44.06052" lon="6.97873">
        <ele>1459.8</ele>
        <time>2016-06-25T10:52:16Z</time>
      </trkpt>
      <trkpt lat="44.06042" lon="6.97873">
        <ele>1458.7</ele>
        <time>2016-06-25T10:52:20Z</time>
      </trkpt>
      <trkpt lat="44.06034" lon="6.97868">
        <ele>1459.6</ele>
        <time>2016-06-25T10:52:25Z</time>
      </trkpt>
      <trkpt lat="44.06024" lon="6.97865">
        <ele>1460.8</ele>
        <time>2016-06-25T10:52:30Z</time>
      </trkpt>
      <trkpt lat="44.06014" lon="6.97858">
        <ele>1461.5</ele>
        <time>2016-06-25T10:52:36Z</time>
      </trkpt>
      <trkpt lat="44.06006" lon="6.97852">
        <ele>1462.2</ele>
        <time>2016-06-25T10:52:41Z</time>
      </trkpt>
      <trkpt lat="44.05997" lon="6.97843">
        <ele>1463.3</ele>
        <time>2016-06-25T10:52:47Z</time>
      </trkpt>
      <trkpt lat="44.05988" lon="6.97837">
        <ele>1463.3</ele>
        <time>2016-06-25T10:52:52Z</time>
      </trkpt>
      <trkpt lat="44.05979" lon="6.97832">
        <ele>1465.6</ele>
        <time>2016-06-25T10:52:58Z</time>
      </trkpt>
      <trkpt lat="44.05969" lon="6.97832">
        <ele>1465.4</ele>
        <time>2016-06-25T10:53:03Z</time>
      </trkpt>
      <trkpt lat="44.0596" lon="6.97832">
        <ele>1465.1</ele>
        <time>2016-06-25T10:53:07Z</time>
      </trkpt>
      <trkpt lat="44.05951" lon="6.97827">
        <ele>1466.5</ele>
        <time>2016-06-25T10:53:14Z</time>
      </trkpt>
      <trkpt lat="44.0595" lon="6.97814">
        <ele>1468.5</ele>
        <time>2016-06-25T10:53:22Z</time>
      </trkpt>
      <trkpt lat="44.05954" lon="6.97803">
        <ele>1467.7</ele>
        <time>2016-06-25T10:53:33Z</time>
      </trkpt>
      <trkpt lat="44.05958" lon="6.97791">
        <ele>1467.9</ele>
        <time>2016-06-25T10:54:08Z</time>
      </trkpt>
      <trkpt lat="44.0595" lon="6.97796">
        <ele>1467.8</ele>
        <time>2016-06-25T10:56:08Z</time>
      </trkpt>
      <trkpt lat="44.05954" lon="6.97784">
        <ele>1469.9</ele>
        <time>2016-06-25T10:59:26Z</time>
      </trkpt>
      <trkpt lat="44.05944" lon="6.97789">
        <ele>1467.7</ele>
        <time>2016-06-25T10:59:36Z</time>
      </trkpt>
      <trkpt lat="44.05935" lon="6.97788">
        <ele>1462.8</ele>
        <time>2016-06-25T10:59:46Z</time>
      </trkpt>
      <trkpt lat="44.05935" lon="6.97775">
        <ele>1459.3</ele>
        <time>2016-06-25T10:59:53Z</time>
      </trkpt>
      <trkpt lat="44.0593" lon="6.97764">
        <ele>1453.3</ele>
        <time>2016-06-25T11:00:01Z</time>
      </trkpt>
      <trkpt lat="44.05933" lon="6.97751">
        <ele>1449.9</ele>
        <time>2016-06-25T11:00:06Z</time>
      </trkpt>
      <trkpt lat="44.05927" lon="6.97741">
        <ele>1442</ele>
        <time>2016-06-25T11:00:17Z</time>
      </trkpt>
      <trkpt lat="44.05929" lon="6.97729">
        <ele>1439.5</ele>
        <time>2016-06-25T11:00:22Z</time>
      </trkpt>
      <trkpt lat="44.05927" lon="6.97715">
        <ele>1433.4</ele>
        <time>2016-06-25T11:00:30Z</time>
      </trkpt>
      <trkpt lat="44.0593" lon="6.977">
        <ele>1429.8</ele>
        <time>2016-06-25T11:00:35Z</time>
      </trkpt>
      <trkpt lat="44.05932" lon="6.97688">
        <ele>1425.3</ele>
        <time>2016-06-25T11:00:39Z</time>
      </trkpt>
      <trkpt lat="44.0593" lon="6.97673">
        <ele>1422.1</ele>
        <time>2016-06-25T11:00:43Z</time>
      </trkpt>
      <trkpt lat="44.0593" lon="6.97659">
        <ele>1418.3</ele>
        <time>2016-06-25T11:00:48Z</time>
      </trkpt>
      <trkpt lat="44.05933" lon="6.97645">
        <ele>1416.5</ele>
        <time>2016-06-25T11:00:54Z</time>
      </trkpt>
      <trkpt lat="44.05926" lon="6.97638">
        <ele>1411.8</ele>
        <time>2016-06-25T11:01:05Z</time>
      </trkpt>
      <trkpt lat="44.05927" lon="6.97625">
        <ele>1409.1</ele>
        <time>2016-06-25T11:01:18Z</time>
      </trkpt>
      <trkpt lat="44.05926" lon="6.97611">
        <ele>1406.6</ele>
        <time>2016-06-25T11:01:23Z</time>
      </trkpt>
      <trkpt lat="44.05917" lon="6.97617">
        <ele>1402.9</ele>
        <time>2016-06-25T11:01:32Z</time>
      </trkpt>
      <trkpt lat="44.05907" lon="6.9762">
        <ele>1397.6</ele>
        <time>2016-06-25T11:01:51Z</time>
      </trkpt>
      <trkpt lat="44.05898" lon="6.9762">
        <ele>1390.9</ele>
        <time>2016-06-25T11:02:06Z</time>
      </trkpt>
      <trkpt lat="44.05898" lon="6.97606">
        <ele>1387.5</ele>
        <time>2016-06-25T11:02:22Z</time>
      </trkpt>
      <trkpt lat="44.05902" lon="6.97592">
        <ele>1385.8</ele>
        <time>2016-06-25T11:02:26Z</time>
      </trkpt>
      <trkpt lat="44.05905" lon="6.9758">
        <ele>1383</ele>
        <time>2016-06-25T11:02:30Z</time>
      </trkpt>
      <trkpt lat="44.0591" lon="6.97565">
        <ele>1379.7</ele>
        <time>2016-06-25T11:02:34Z</time>
      </trkpt>
      <trkpt lat="44.05918" lon="6.97558">
        <ele>1377.5</ele>
        <time>2016-06-25T11:02:38Z</time>
      </trkpt>
      <trkpt lat="44.05928" lon="6.97558">
        <ele>1375.2</ele>
        <time>2016-06-25T11:02:43Z</time>
      </trkpt>
      <trkpt lat="44.05939" lon="6.97562">
        <ele>1372.9</ele>
        <time>2016-06-25T11:02:47Z</time>
      </trkpt>
      <trkpt lat="44.05948" lon="6.97563">
        <ele>1371.7</ele>
        <time>2016-06-25T11:02:50Z</time>
      </trkpt>
      <trkpt lat="44.05958" lon="6.97565">
        <ele>1369.3</ele>
        <time>2016-06-25T11:02:54Z</time>
      </trkpt>
      <trkpt lat="44.0597" lon="6.97564">
        <ele>1366.4</ele>
        <time>2016-06-25T11:02:59Z</time>
      </trkpt>
      <trkpt lat="44.05978" lon="6.97556">
        <ele>1366.3</ele>
        <time>2016-06-25T11:03:02Z</time>
      </trkpt>
      <trkpt lat="44.05987" lon="6.97548">
        <ele>1363.1</ele>
        <time>2016-06-25T11:03:06Z</time>
      </trkpt>
      <trkpt lat="44.05996" lon="6.9754">
        <ele>1360.7</ele>
        <time>2016-06-25T11:03:10Z</time>
      </trkpt>
      <trkpt lat="44.06001" lon="6.97528">
        <ele>1358.1</ele>
        <time>2016-06-25T11:03:14Z</time>
      </trkpt>
      <trkpt lat="44.06011" lon="6.97519">
        <ele>1356.5</ele>
        <time>2016-06-25T11:03:18Z</time>
      </trkpt>
      <trkpt lat="44.0602" lon="6.97511">
        <ele>1355.4</ele>
        <time>2016-06-25T11:03:21Z</time>
      </trkpt>
      <trkpt lat="44.06027" lon="6.97502">
        <ele>1353.1</ele>
        <time>2016-06-25T11:03:25Z</time>
      </trkpt>
      <trkpt lat="44.06034" lon="6.97493">
        <ele>1350.6</ele>
        <time>2016-06-25T11:03:29Z</time>
      </trkpt>
      <trkpt lat="44.06043" lon="6.97488">
        <ele>1347.4</ele>
        <time>2016-06-25T11:03:41Z</time>
      </trkpt>
      <trkpt lat="44.0605" lon="6.97478">
        <ele>1341.8</ele>
        <time>2016-06-25T11:04:09Z</time>
      </trkpt>
      <trkpt lat="44.06049" lon="6.97466">
        <ele>1340.4</ele>
        <time>2016-06-25T11:04:25Z</time>
      </trkpt>
      <trkpt lat="44.06039" lon="6.97462">
        <ele>1339.5</ele>
        <time>2016-06-25T11:04:45Z</time>
      </trkpt>
      <trkpt lat="44.0603" lon="6.97468">
        <ele>1339.5</ele>
        <time>2016-06-25T11:04:58Z</time>
      </trkpt>
      <trkpt lat="44.0604" lon="6.97466">
        <ele>1338.8</ele>
        <time>2016-06-25T11:05:23Z</time>
      </trkpt>
      <trkpt lat="44.06036" lon="6.97478">
        <ele>1339.5</ele>
        <time>2016-06-25T11:06:17Z</time>
      </trkpt>
      <trkpt lat="44.06043" lon="6.9747">
        <ele>1339.5</ele>
        <time>2016-06-25T11:07:45Z</time>
      </trkpt>
      <trkpt lat="44.06051" lon="6.97462">
        <ele>1339.3</ele>
        <time>2016-06-25T11:07:58Z</time>
      </trkpt>
      <trkpt lat="44.06042" lon="6.97466">
        <ele>1340.5</ele>
        <time>2016-06-25T11:09:00Z</time>
      </trkpt>
      <trkpt lat="44.06033" lon="6.97469">
        <ele>1341.7</ele>
        <time>2016-06-25T11:11:03Z</time>
      </trkpt>
      <trkpt lat="44.06041" lon="6.9746">
        <ele>1342</ele>
        <time>2016-06-25T11:12:14Z</time>
      </trkpt>
      <trkpt lat="44.0605" lon="6.97461">
        <ele>1342.6</ele>
        <time>2016-06-25T11:13:17Z</time>
      </trkpt>
      <trkpt lat="44.06058" lon="6.97456">
        <ele>1342.1</ele>
        <time>2016-06-25T11:16:20Z</time>
      </trkpt>
      <trkpt lat="44.06051" lon="6.97448">
        <ele>1343</ele>
        <time>2016-06-25T11:17:17Z</time>
      </trkpt>
      <trkpt lat="44.06042" lon="6.97455">
        <ele>1342.9</ele>
        <time>2016-06-25T11:17:34Z</time>
      </trkpt>
      <trkpt lat="44.06033" lon="6.97461">
        <ele>1347</ele>
        <time>2016-06-25T11:19:04Z</time>
      </trkpt>
      <trkpt lat="44.06023" lon="6.97462">
        <ele>1347.7</ele>
        <time>2016-06-25T11:19:12Z</time>
      </trkpt>
      <trkpt lat="44.06014" lon="6.97465">
        <ele>1349.9</ele>
        <time>2016-06-25T11:19:27Z</time>
      </trkpt>
      <trkpt lat="44.06005" lon="6.97466">
        <ele>1352.8</ele>
        <time>2016-06-25T11:19:43Z</time>
      </trkpt>
      <trkpt lat="44.05996" lon="6.97468">
        <ele>1354.8</ele>
        <time>2016-06-25T11:20:01Z</time>
      </trkpt>
      <trkpt lat="44.05987" lon="6.97471">
        <ele>1358.2</ele>
        <time>2016-06-25T11:20:15Z</time>
      </trkpt>
      <trkpt lat="44.05979" lon="6.97478">
        <ele>1360.7</ele>
        <time>2016-06-25T11:20:27Z</time>
      </trkpt>
      <trkpt lat="44.05969" lon="6.9748">
        <ele>1363.7</ele>
        <time>2016-06-25T11:20:43Z</time>
      </trkpt>
      <trkpt lat="44.05961" lon="6.97483">
        <ele>1365.3</ele>
        <time>2016-06-25T11:20:56Z</time>
      </trkpt>
      <trkpt lat="44.05951" lon="6.97483">
        <ele>1367.5</ele>
        <time>2016-06-25T11:21:08Z</time>
      </trkpt>
      <trkpt lat="44.05943" lon="6.97487">
        <ele>1367.6</ele>
        <time>2016-06-25T11:21:20Z</time>
      </trkpt>
      <trkpt lat="44.05941" lon="6.975">
        <ele>1370.6</ele>
        <time>2016-06-25T11:21:31Z</time>
      </trkpt>
      <trkpt lat="44.05937" lon="6.97513">
        <ele>1371.7</ele>
        <time>2016-06-25T11:21:43Z</time>
      </trkpt>
      <trkpt lat="44.05934" lon="6.97525">
        <ele>1372.4</ele>
        <time>2016-06-25T11:21:53Z</time>
      </trkpt>
      <trkpt lat="44.05927" lon="6.97535">
        <ele>1372.8</ele>
        <time>2016-06-25T11:22:01Z</time>
      </trkpt>
      <trkpt lat="44.05919" lon="6.97542">
        <ele>1373.5</ele>
        <time>2016-06-25T11:22:08Z</time>
      </trkpt>
      <trkpt lat="44.05911" lon="6.97548">
        <ele>1374.7</ele>
        <time>2016-06-25T11:22:14Z</time>
      </trkpt>
      <trkpt lat="44.05903" lon="6.97555">
        <ele>1375.3</ele>
        <time>2016-06-25T11:22:20Z</time>
      </trkpt>
      <trkpt lat="44.05895" lon="6.97561">
        <ele>1376.9</ele>
        <time>2016-06-25T11:22:29Z</time>
      </trkpt>
      <trkpt lat="44.05886" lon="6.97566">
        <ele>1377.4</ele>
        <time>2016-06-25T11:22:39Z</time>
      </trkpt>
      <trkpt lat="44.05881" lon="6.97576">
        <ele>1381.2</ele>
        <time>2016-06-25T11:22:51Z</time>
      </trkpt>
      <trkpt lat="44.05872" lon="6.97581">
        <ele>1381.3</ele>
        <time>2016-06-25T11:23:03Z</time>
      </trkpt>
      <trkpt lat="44.05863" lon="6.97585">
        <ele>1383</ele>
        <time>2016-06-25T11:23:16Z</time>
      </trkpt>
      <trkpt lat="44.05853" lon="6.97586">
        <ele>1384.9</ele>
        <time>2016-06-25T11:23:29Z</time>
      </trkpt>
      <trkpt lat="44.05844" lon="6.97583">
        <ele>1386.5</ele>
        <time>2016-06-25T11:23:39Z</time>
      </trkpt>
      <trkpt lat="44.05834" lon="6.97579">
        <ele>1388.6</ele>
        <time>2016-06-25T11:23:51Z</time>
      </trkpt>
      <trkpt lat="44.05825" lon="6.9758">
        <ele>1390.1</ele>
        <time>2016-06-25T11:24:01Z</time>
      </trkpt>
      <trkpt lat="44.05816" lon="6.97579">
        <ele>1392.6</ele>
        <time>2016-06-25T11:24:10Z</time>
      </trkpt>
      <trkpt lat="44.05807" lon="6.97578">
        <ele>1393.1</ele>
        <time>2016-06-25T11:24:22Z</time>
      </trkpt>
      <trkpt lat="44.05803" lon="6.97566">
        <ele>1394.2</ele>
        <time>2016-06-25T11:24:37Z</time>
      </trkpt>
      <trkpt lat="44.05807" lon="6.97554">
        <ele>1394.3</ele>
        <time>2016-06-25T11:24:45Z</time>
      </trkpt>
      <trkpt lat="44.05813" lon="6.97541">
        <ele>1393.6</ele>
        <time>2016-06-25T11:24:51Z</time>
      </trkpt>
      <trkpt lat="44.05818" lon="6.9753">
        <ele>1393.7</ele>
        <time>2016-06-25T11:24:54Z</time>
      </trkpt>
      <trkpt lat="44.05824" lon="6.97518">
        <ele>1393.7</ele>
        <time>2016-06-25T11:24:57Z</time>
      </trkpt>
      <trkpt lat="44.05831" lon="6.97503">
        <ele>1393.6</ele>
        <time>2016-06-25T11:25:00Z</time>
      </trkpt>
      <trkpt lat="44.05839" lon="6.97489">
        <ele>1394</ele>
        <time>2016-06-25T11:25:03Z</time>
      </trkpt>
      <trkpt lat="44.05846" lon="6.97475">
        <ele>1394.1</ele>
        <time>2016-06-25T11:25:06Z</time>
      </trkpt>
      <trkpt lat="44.05852" lon="6.97462">
        <ele>1394.5</ele>
        <time>2016-06-25T11:25:10Z</time>
      </trkpt>
      <trkpt lat="44.05857" lon="6.97451">
        <ele>1395</ele>
        <time>2016-06-25T11:25:14Z</time>
      </trkpt>
      <trkpt lat="44.05863" lon="6.97439">
        <ele>1395.2</ele>
        <time>2016-06-25T11:25:18Z</time>
      </trkpt>
      <trkpt lat="44.05868" lon="6.97427">
        <ele>1394.7</ele>
        <time>2016-06-25T11:25:22Z</time>
      </trkpt>
      <trkpt lat="44.05875" lon="6.97412">
        <ele>1393</ele>
        <time>2016-06-25T11:25:29Z</time>
      </trkpt>
      <trkpt lat="44.05881" lon="6.974">
        <ele>1394</ele>
        <time>2016-06-25T11:25:41Z</time>
      </trkpt>
      <trkpt lat="44.05872" lon="6.97401">
        <ele>1394</ele>
        <time>2016-06-25T11:26:35Z</time>
      </trkpt>
      <trkpt lat="44.05865" lon="6.97394">
        <ele>1396</ele>
        <time>2016-06-25T11:26:46Z</time>
      </trkpt>
      <trkpt lat="44.05858" lon="6.97386">
        <ele>1398</ele>
        <time>2016-06-25T11:26:58Z</time>
      </trkpt>
      <trkpt lat="44.05851" lon="6.97376">
        <ele>1402</ele>
        <time>2016-06-25T11:27:22Z</time>
      </trkpt>
      <trkpt lat="44.05843" lon="6.97371">
        <ele>1405.9</ele>
        <time>2016-06-25T11:27:41Z</time>
      </trkpt>
      <trkpt lat="44.05838" lon="6.97359">
        <ele>1406</ele>
        <time>2016-06-25T11:27:56Z</time>
      </trkpt>
      <trkpt lat="44.05829" lon="6.97354">
        <ele>1407</ele>
        <time>2016-06-25T11:28:08Z</time>
      </trkpt>
      <trkpt lat="44.0582" lon="6.97354">
        <ele>1409</ele>
        <time>2016-06-25T11:28:20Z</time>
      </trkpt>
      <trkpt lat="44.05812" lon="6.97347">
        <ele>1410.2</ele>
        <time>2016-06-25T11:28:33Z</time>
      </trkpt>
      <trkpt lat="44.05801" lon="6.97339">
        <ele>1412</ele>
        <time>2016-06-25T11:28:49Z</time>
      </trkpt>
      <trkpt lat="44.05792" lon="6.97338">
        <ele>1411.9</ele>
        <time>2016-06-25T11:29:53Z</time>
      </trkpt>
      <trkpt lat="44.05783" lon="6.97332">
        <ele>1413.1</ele>
        <time>2016-06-25T11:30:04Z</time>
      </trkpt>
      <trkpt lat="44.05774" lon="6.97329">
        <ele>1415.3</ele>
        <time>2016-06-25T11:30:21Z</time>
      </trkpt>
      <trkpt lat="44.05765" lon="6.97325">
        <ele>1415.8</ele>
        <time>2016-06-25T11:30:31Z</time>
      </trkpt>
      <trkpt lat="44.05756" lon="6.97321">
        <ele>1416.5</ele>
        <time>2016-06-25T11:30:48Z</time>
      </trkpt>
      <trkpt lat="44.05747" lon="6.97322">
        <ele>1418.2</ele>
        <time>2016-06-25T11:30:59Z</time>
      </trkpt>
      <trkpt lat="44.0574" lon="6.97313">
        <ele>1421.1</ele>
        <time>2016-06-25T11:31:19Z</time>
      </trkpt>
      <trkpt lat="44.05735" lon="6.97302">
        <ele>1421.2</ele>
        <time>2016-06-25T11:31:28Z</time>
      </trkpt>
      <trkpt lat="44.0573" lon="6.97291">
        <ele>1423.5</ele>
        <time>2016-06-25T11:31:40Z</time>
      </trkpt>
      <trkpt lat="44.05724" lon="6.97281">
        <ele>1426.5</ele>
        <time>2016-06-25T11:31:55Z</time>
      </trkpt>
      <trkpt lat="44.05723" lon="6.97268">
        <ele>1429.9</ele>
        <time>2016-06-25T11:32:13Z</time>
      </trkpt>
      <trkpt lat="44.05726" lon="6.97255">
        <ele>1430.8</ele>
        <time>2016-06-25T11:32:47Z</time>
      </trkpt>
      <trkpt lat="44.05732" lon="6.97246">
        <ele>1432.4</ele>
        <time>2016-06-25T11:33:06Z</time>
      </trkpt>
      <trkpt lat="44.05732" lon="6.97232">
        <ele>1433.5</ele>
        <time>2016-06-25T11:33:20Z</time>
      </trkpt>
      <trkpt lat="44.05731" lon="6.9722">
        <ele>1434.1</ele>
        <time>2016-06-25T11:33:39Z</time>
      </trkpt>
      <trkpt lat="44.05724" lon="6.97211">
        <ele>1434.8</ele>
        <time>2016-06-25T11:33:53Z</time>
      </trkpt>
      <trkpt lat="44.05717" lon="6.97201">
        <ele>1436</ele>
        <time>2016-06-25T11:34:09Z</time>
      </trkpt>
      <trkpt lat="44.05715" lon="6.97189">
        <ele>1439.7</ele>
        <time>2016-06-25T11:34:38Z</time>
      </trkpt>
      <trkpt lat="44.05713" lon="6.97175">
        <ele>1442.1</ele>
        <time>2016-06-25T11:34:55Z</time>
      </trkpt>
      <trkpt lat="44.05713" lon="6.97163">
        <ele>1445.3</ele>
        <time>2016-06-25T11:35:11Z</time>
      </trkpt>
      <trkpt lat="44.05715" lon="6.9715">
        <ele>1448.4</ele>
        <time>2016-06-25T11:35:32Z</time>
      </trkpt>
      <trkpt lat="44.05707" lon="6.97143">
        <ele>1451.4</ele>
        <time>2016-06-25T11:35:54Z</time>
      </trkpt>
      <trkpt lat="44.057" lon="6.97135">
        <ele>1454.8</ele>
        <time>2016-06-25T11:36:11Z</time>
      </trkpt>
      <trkpt lat="44.05692" lon="6.97131">
        <ele>1457.7</ele>
        <time>2016-06-25T11:36:31Z</time>
      </trkpt>
      <trkpt lat="44.05689" lon="6.97118">
        <ele>1462.7</ele>
        <time>2016-06-25T11:36:53Z</time>
      </trkpt>
      <trkpt lat="44.05685" lon="6.97107">
        <ele>1464.9</ele>
        <time>2016-06-25T11:37:06Z</time>
      </trkpt>
      <trkpt lat="44.05684" lon="6.97094">
        <ele>1468.4</ele>
        <time>2016-06-25T11:37:20Z</time>
      </trkpt>
      <trkpt lat="44.05686" lon="6.97081">
        <ele>1470.9</ele>
        <time>2016-06-25T11:37:31Z</time>
      </trkpt>
      <trkpt lat="44.05687" lon="6.97068">
        <ele>1472.2</ele>
        <time>2016-06-25T11:37:44Z</time>
      </trkpt>
      <trkpt lat="44.05679" lon="6.9706">
        <ele>1470.6</ele>
        <time>2016-06-25T11:37:55Z</time>
      </trkpt>
      <trkpt lat="44.05672" lon="6.97052">
        <ele>1474.5</ele>
        <time>2016-06-25T11:38:26Z</time>
      </trkpt>
      <trkpt lat="44.05669" lon="6.97041">
        <ele>1478.9</ele>
        <time>2016-06-25T11:38:50Z</time>
      </trkpt>
      <trkpt lat="44.05665" lon="6.97027">
        <ele>1479</ele>
        <time>2016-06-25T11:39:11Z</time>
      </trkpt>
      <trkpt lat="44.05661" lon="6.97017">
        <ele>1482.4</ele>
        <time>2016-06-25T11:40:07Z</time>
      </trkpt>
      <trkpt lat="44.05655" lon="6.97006">
        <ele>1486.4</ele>
        <time>2016-06-25T11:40:35Z</time>
      </trkpt>
      <trkpt lat="44.05663" lon="6.96999">
        <ele>1487.4</ele>
        <time>2016-06-25T11:40:58Z</time>
      </trkpt>
      <trkpt lat="44.05672" lon="6.97004">
        <ele>1487.9</ele>
        <time>2016-06-25T11:41:12Z</time>
      </trkpt>
      <trkpt lat="44.05664" lon="6.96997">
        <ele>1489.2</ele>
        <time>2016-06-25T11:41:29Z</time>
      </trkpt>
      <trkpt lat="44.05657" lon="6.96988">
        <ele>1491.9</ele>
        <time>2016-06-25T11:41:45Z</time>
      </trkpt>
      <trkpt lat="44.05653" lon="6.96977">
        <ele>1492.2</ele>
        <time>2016-06-25T11:42:23Z</time>
      </trkpt>
      <trkpt lat="44.05644" lon="6.96974">
        <ele>1492.9</ele>
        <time>2016-06-25T11:42:45Z</time>
      </trkpt>
      <trkpt lat="44.05635" lon="6.96978">
        <ele>1492.8</ele>
        <time>2016-06-25T11:42:57Z</time>
      </trkpt>
      <trkpt lat="44.05631" lon="6.96991">
        <ele>1492.3</ele>
        <time>2016-06-25T11:43:03Z</time>
      </trkpt>
      <trkpt lat="44.05625" lon="6.97001">
        <ele>1491.8</ele>
        <time>2016-06-25T11:43:08Z</time>
      </trkpt>
      <trkpt lat="44.05621" lon="6.97013">
        <ele>1493.1</ele>
        <time>2016-06-25T11:43:14Z</time>
      </trkpt>
      <trkpt lat="44.05615" lon="6.97025">
        <ele>1494</ele>
        <time>2016-06-25T11:43:20Z</time>
      </trkpt>
      <trkpt lat="44.05608" lon="6.97034">
        <ele>1494.9</ele>
        <time>2016-06-25T11:43:25Z</time>
      </trkpt>
      <trkpt lat="44.05601" lon="6.97044">
        <ele>1495.3</ele>
        <time>2016-06-25T11:43:32Z</time>
      </trkpt>
      <trkpt lat="44.05593" lon="6.97051">
        <ele>1498.5</ele>
        <time>2016-06-25T11:43:43Z</time>
      </trkpt>
      <trkpt lat="44.05584" lon="6.97052">
        <ele>1499.9</ele>
        <time>2016-06-25T11:44:08Z</time>
      </trkpt>
      <trkpt lat="44.05577" lon="6.97043">
        <ele>1501.2</ele>
        <time>2016-06-25T11:44:20Z</time>
      </trkpt>
      <trkpt lat="44.0557" lon="6.97034">
        <ele>1500.8</ele>
        <time>2016-06-25T11:44:31Z</time>
      </trkpt>
      <trkpt lat="44.05576" lon="6.97024">
        <ele>1505.4</ele>
        <time>2016-06-25T11:45:13Z</time>
      </trkpt>
      <trkpt lat="44.05572" lon="6.97013">
        <ele>1510</ele>
        <time>2016-06-25T11:45:36Z</time>
      </trkpt>
      <trkpt lat="44.05564" lon="6.97007">
        <ele>1514.4</ele>
        <time>2016-06-25T11:45:59Z</time>
      </trkpt>
      <trkpt lat="44.05558" lon="6.96998">
        <ele>1518.3</ele>
        <time>2016-06-25T11:46:19Z</time>
      </trkpt>
      <trkpt lat="44.05551" lon="6.9699">
        <ele>1518.8</ele>
        <time>2016-06-25T11:46:32Z</time>
      </trkpt>
      <trkpt lat="44.05548" lon="6.96978">
        <ele>1520.5</ele>
        <time>2016-06-25T11:46:56Z</time>
      </trkpt>
      <trkpt lat="44.05541" lon="6.9697">
        <ele>1520</ele>
        <time>2016-06-25T11:48:32Z</time>
      </trkpt>
      <trkpt lat="44.05532" lon="6.96964">
        <ele>1524.1</ele>
        <time>2016-06-25T11:48:54Z</time>
      </trkpt>
      <trkpt lat="44.05527" lon="6.96954">
        <ele>1526.5</ele>
        <time>2016-06-25T11:49:13Z</time>
      </trkpt>
      <trkpt lat="44.05518" lon="6.96948">
        <ele>1529</ele>
        <time>2016-06-25T11:49:34Z</time>
      </trkpt>
      <trkpt lat="44.05511" lon="6.96939">
        <ele>1531</ele>
        <time>2016-06-25T11:49:53Z</time>
      </trkpt>
      <trkpt lat="44.05508" lon="6.96927">
        <ele>1534</ele>
        <time>2016-06-25T11:50:12Z</time>
      </trkpt>
      <trkpt lat="44.05507" lon="6.96914">
        <ele>1536.8</ele>
        <time>2016-06-25T11:50:34Z</time>
      </trkpt>
      <trkpt lat="44.05501" lon="6.96904">
        <ele>1539.3</ele>
        <time>2016-06-25T11:50:49Z</time>
      </trkpt>
      <trkpt lat="44.05495" lon="6.96894">
        <ele>1540.5</ele>
        <time>2016-06-25T11:51:05Z</time>
      </trkpt>
      <trkpt lat="44.05488" lon="6.96884">
        <ele>1540.8</ele>
        <time>2016-06-25T11:51:25Z</time>
      </trkpt>
      <trkpt lat="44.05485" lon="6.96872">
        <ele>1543.1</ele>
        <time>2016-06-25T11:51:43Z</time>
      </trkpt>
      <trkpt lat="44.05477" lon="6.96865">
        <ele>1542.9</ele>
        <time>2016-06-25T11:51:58Z</time>
      </trkpt>
      <trkpt lat="44.0547" lon="6.96856">
        <ele>1545.7</ele>
        <time>2016-06-25T11:52:15Z</time>
      </trkpt>
      <trkpt lat="44.05464" lon="6.96846">
        <ele>1547.6</ele>
        <time>2016-06-25T11:52:39Z</time>
      </trkpt>
      <trkpt lat="44.05459" lon="6.96835">
        <ele>1548.4</ele>
        <time>2016-06-25T11:52:53Z</time>
      </trkpt>
      <trkpt lat="44.05452" lon="6.96828">
        <ele>1549.2</ele>
        <time>2016-06-25T11:53:09Z</time>
      </trkpt>
      <trkpt lat="44.05443" lon="6.96821">
        <ele>1548.7</ele>
        <time>2016-06-25T11:53:25Z</time>
      </trkpt>
      <trkpt lat="44.05436" lon="6.96814">
        <ele>1548</ele>
        <time>2016-06-25T11:53:36Z</time>
      </trkpt>
      <trkpt lat="44.05429" lon="6.96805">
        <ele>1548.8</ele>
        <time>2016-06-25T11:53:49Z</time>
      </trkpt>
      <trkpt lat="44.0542" lon="6.96805">
        <ele>1551.1</ele>
        <time>2016-06-25T11:54:05Z</time>
      </trkpt>
      <trkpt lat="44.0541" lon="6.96807">
        <ele>1552.6</ele>
        <time>2016-06-25T11:54:18Z</time>
      </trkpt>
      <trkpt lat="44.05401" lon="6.96809">
        <ele>1555.2</ele>
        <time>2016-06-25T11:54:32Z</time>
      </trkpt>
      <trkpt lat="44.05391" lon="6.9681">
        <ele>1557.3</ele>
        <time>2016-06-25T11:54:48Z</time>
      </trkpt>
      <trkpt lat="44.05382" lon="6.9681">
        <ele>1559.2</ele>
        <time>2016-06-25T11:55:03Z</time>
      </trkpt>
      <trkpt lat="44.05373" lon="6.96814">
        <ele>1562</ele>
        <time>2016-06-25T11:55:28Z</time>
      </trkpt>
      <trkpt lat="44.05367" lon="6.96823">
        <ele>1561.8</ele>
        <time>2016-06-25T11:56:36Z</time>
      </trkpt>
      <trkpt lat="44.05358" lon="6.96826">
        <ele>1561.8</ele>
        <time>2016-06-25T11:56:48Z</time>
      </trkpt>
      <trkpt lat="44.05349" lon="6.96829">
        <ele>1562.7</ele>
        <time>2016-06-25T11:57:00Z</time>
      </trkpt>
      <trkpt lat="44.0534" lon="6.96833">
        <ele>1564.9</ele>
        <time>2016-06-25T11:57:31Z</time>
      </trkpt>
      <trkpt lat="44.05332" lon="6.96837">
        <ele>1565</ele>
        <time>2016-06-25T11:57:44Z</time>
      </trkpt>
      <trkpt lat="44.05323" lon="6.96831">
        <ele>1566.5</ele>
        <time>2016-06-25T11:57:57Z</time>
      </trkpt>
      <trkpt lat="44.05314" lon="6.96828">
        <ele>1565.6</ele>
        <time>2016-06-25T11:58:08Z</time>
      </trkpt>
      <trkpt lat="44.05305" lon="6.96828">
        <ele>1568.2</ele>
        <time>2016-06-25T11:58:17Z</time>
      </trkpt>
      <trkpt lat="44.05296" lon="6.96826">
        <ele>1570.4</ele>
        <time>2016-06-25T11:58:27Z</time>
      </trkpt>
      <trkpt lat="44.05287" lon="6.96821">
        <ele>1571.2</ele>
        <time>2016-06-25T11:58:38Z</time>
      </trkpt>
      <trkpt lat="44.05278" lon="6.96816">
        <ele>1570</ele>
        <time>2016-06-25T11:58:49Z</time>
      </trkpt>
      <trkpt lat="44.05268" lon="6.96813">
        <ele>1570.3</ele>
        <time>2016-06-25T11:58:59Z</time>
      </trkpt>
      <trkpt lat="44.05261" lon="6.96804">
        <ele>1569.7</ele>
        <time>2016-06-25T11:59:12Z</time>
      </trkpt>
      <trkpt lat="44.05252" lon="6.96799">
        <ele>1570.3</ele>
        <time>2016-06-25T11:59:32Z</time>
      </trkpt>
      <trkpt lat="44.05244" lon="6.96794">
        <ele>1569.7</ele>
        <time>2016-06-25T12:00:02Z</time>
      </trkpt>
      <trkpt lat="44.05236" lon="6.96787">
        <ele>1570</ele>
        <time>2016-06-25T12:00:12Z</time>
      </trkpt>
      <trkpt lat="44.05229" lon="6.9678">
        <ele>1569.5</ele>
        <time>2016-06-25T12:00:21Z</time>
      </trkpt>
      <trkpt lat="44.05221" lon="6.96772">
        <ele>1571.8</ele>
        <time>2016-06-25T12:00:31Z</time>
      </trkpt>
      <trkpt lat="44.05212" lon="6.96767">
        <ele>1572</ele>
        <time>2016-06-25T12:00:43Z</time>
      </trkpt>
      <trkpt lat="44.05203" lon="6.96764">
        <ele>1571.3</ele>
        <time>2016-06-25T12:00:55Z</time>
      </trkpt>
      <trkpt lat="44.05194" lon="6.96758">
        <ele>1570.5</ele>
        <time>2016-06-25T12:01:06Z</time>
      </trkpt>
      <trkpt lat="44.05186" lon="6.96752">
        <ele>1570.1</ele>
        <time>2016-06-25T12:01:16Z</time>
      </trkpt>
      <trkpt lat="44.0518" lon="6.96742">
        <ele>1570.4</ele>
        <time>2016-06-25T12:01:27Z</time>
      </trkpt>
      <trkpt lat="44.05171" lon="6.9674">
        <ele>1570.2</ele>
        <time>2016-06-25T12:02:21Z</time>
      </trkpt>
      <trkpt lat="44.05162" lon="6.96737">
        <ele>1570.7</ele>
        <time>2016-06-25T12:02:33Z</time>
      </trkpt>
      <trkpt lat="44.05153" lon="6.96733">
        <ele>1571.6</ele>
        <time>2016-06-25T12:02:49Z</time>
      </trkpt>
      <trkpt lat="44.05145" lon="6.96726">
        <ele>1571.3</ele>
        <time>2016-06-25T12:03:00Z</time>
      </trkpt>
      <trkpt lat="44.05136" lon="6.96727">
        <ele>1571.4</ele>
        <time>2016-06-25T12:03:09Z</time>
      </trkpt>
      <trkpt lat="44.05127" lon="6.96731">
        <ele>1572.6</ele>
        <time>2016-06-25T12:03:20Z</time>
      </trkpt>
      <trkpt lat="44.05117" lon="6.96731">
        <ele>1573.6</ele>
        <time>2016-06-25T12:03:31Z</time>
      </trkpt>
      <trkpt lat="44.05107" lon="6.96731">
        <ele>1575.2</ele>
        <time>2016-06-25T12:03:42Z</time>
      </trkpt>
      <trkpt lat="44.05098" lon="6.96732">
        <ele>1574.6</ele>
        <time>2016-06-25T12:03:53Z</time>
      </trkpt>
      <trkpt lat="44.05088" lon="6.9673">
        <ele>1576.1</ele>
        <time>2016-06-25T12:04:23Z</time>
      </trkpt>
      <trkpt lat="44.05078" lon="6.96731">
        <ele>1576.3</ele>
        <time>2016-06-25T12:04:34Z</time>
      </trkpt>
      <trkpt lat="44.05069" lon="6.96728">
        <ele>1576.8</ele>
        <time>2016-06-25T12:04:47Z</time>
      </trkpt>
      <trkpt lat="44.05061" lon="6.96721">
        <ele>1581.3</ele>
        <time>2016-06-25T12:05:30Z</time>
      </trkpt>
      <trkpt lat="44.05054" lon="6.96714">
        <ele>1585.3</ele>
        <time>2016-06-25T12:06:09Z</time>
      </trkpt>
      <trkpt lat="44.05044" lon="6.96712">
        <ele>1586.5</ele>
        <time>2016-06-25T12:06:41Z</time>
      </trkpt>
      <trkpt lat="44.05036" lon="6.96716">
        <ele>1586.5</ele>
        <time>2016-06-25T12:06:58Z</time>
      </trkpt>
      <trkpt lat="44.05026" lon="6.96717">
        <ele>1588</ele>
        <time>2016-06-25T12:07:12Z</time>
      </trkpt>
      <trkpt lat="44.05017" lon="6.96713">
        <ele>1588.3</ele>
        <time>2016-06-25T12:07:38Z</time>
      </trkpt>
      <trkpt lat="44.05008" lon="6.96714">
        <ele>1590.8</ele>
        <time>2016-06-25T12:08:11Z</time>
      </trkpt>
      <trkpt lat="44.05002" lon="6.96704">
        <ele>1594</ele>
        <time>2016-06-25T12:09:03Z</time>
      </trkpt>
      <trkpt lat="44.04993" lon="6.96703">
        <ele>1597.1</ele>
        <time>2016-06-25T12:09:19Z</time>
      </trkpt>
      <trkpt lat="44.04984" lon="6.96708">
        <ele>1596.8</ele>
        <time>2016-06-25T12:09:31Z</time>
      </trkpt>
      <trkpt lat="44.04975" lon="6.96711">
        <ele>1597.4</ele>
        <time>2016-06-25T12:09:45Z</time>
      </trkpt>
      <trkpt lat="44.04973" lon="6.96699">
        <ele>1600.2</ele>
        <time>2016-06-25T12:10:16Z</time>
      </trkpt>
      <trkpt lat="44.04966" lon="6.96691">
        <ele>1604.3</ele>
        <time>2016-06-25T12:11:24Z</time>
      </trkpt>
      <trkpt lat="44.04957" lon="6.96691">
        <ele>1606.4</ele>
        <time>2016-06-25T12:11:43Z</time>
      </trkpt>
      <trkpt lat="44.04963" lon="6.96682">
        <ele>1606</ele>
        <time>2016-06-25T12:13:48Z</time>
      </trkpt>
      <trkpt lat="44.04971" lon="6.96674">
        <ele>1607.6</ele>
        <time>2016-06-25T12:14:06Z</time>
      </trkpt>
      <trkpt lat="44.04979" lon="6.96669">
        <ele>1609.7</ele>
        <time>2016-06-25T12:15:09Z</time>
      </trkpt>
      <trkpt lat="44.04988" lon="6.96663">
        <ele>1612.4</ele>
        <time>2016-06-25T12:15:25Z</time>
      </trkpt>
      <trkpt lat="44.04983" lon="6.96651">
        <ele>1615.3</ele>
        <time>2016-06-25T12:17:30Z</time>
      </trkpt>
      <trkpt lat="44.04973" lon="6.9665">
        <ele>1617.8</ele>
        <time>2016-06-25T12:17:43Z</time>
      </trkpt>
      <trkpt lat="44.04964" lon="6.96646">
        <ele>1616.1</ele>
        <time>2016-06-25T12:20:31Z</time>
      </trkpt>
      <trkpt lat="44.04964" lon="6.96658">
        <ele>1618.3</ele>
        <time>2016-06-25T12:34:15Z</time>
      </trkpt>
      <trkpt lat="44.04965" lon="6.96645">
        <ele>1616.3</ele>
        <time>2016-06-25T12:53:34Z</time>
      </trkpt>
      <trkpt lat="44.04972" lon="6.96636">
        <ele>1617.9</ele>
        <time>2016-06-25T12:53:46Z</time>
      </trkpt>
      <trkpt lat="44.04979" lon="6.96627">
        <ele>1619.2</ele>
        <time>2016-06-25T12:53:58Z</time>
      </trkpt>
      <trkpt lat="44.04988" lon="6.96624">
        <ele>1620.4</ele>
        <time>2016-06-25T12:54:11Z</time>
      </trkpt>
      <trkpt lat="44.04997" lon="6.96622">
        <ele>1622.7</ele>
        <time>2016-06-25T12:54:26Z</time>
      </trkpt>
      <trkpt lat="44.05007" lon="6.96619">
        <ele>1625.6</ele>
        <time>2016-06-25T12:54:41Z</time>
      </trkpt>
      <trkpt lat="44.05016" lon="6.96618">
        <ele>1627.8</ele>
        <time>2016-06-25T12:54:54Z</time>
      </trkpt>
      <trkpt lat="44.05025" lon="6.96617">
        <ele>1628.6</ele>
        <time>2016-06-25T12:55:07Z</time>
      </trkpt>
      <trkpt lat="44.05016" lon="6.96611">
        <ele>1630.6</ele>
        <time>2016-06-25T12:55:36Z</time>
      </trkpt>
      <trkpt lat="44.05005" lon="6.96605">
        <ele>1629.8</ele>
        <time>2016-06-25T12:55:39Z</time>
      </trkpt>
      <trkpt lat="44.05" lon="6.96594">
        <ele>1628.7</ele>
        <time>2016-06-25T12:55:41Z</time>
      </trkpt>
      <trkpt lat="44.04997" lon="6.96575">
        <ele>1627.1</ele>
        <time>2016-06-25T12:55:44Z</time>
      </trkpt>
      <trkpt lat="44.04997" lon="6.9656">
        <ele>1626.5</ele>
        <time>2016-06-25T12:55:46Z</time>
      </trkpt>
      <trkpt lat="44.04994" lon="6.96543">
        <ele>1624.6</ele>
        <time>2016-06-25T12:55:48Z</time>
      </trkpt>
      <trkpt lat="44.04991" lon="6.96524">
        <ele>1622.9</ele>
        <time>2016-06-25T12:55:50Z</time>
      </trkpt>
      <trkpt lat="44.04988" lon="6.96504">
        <ele>1621.6</ele>
        <time>2016-06-25T12:55:52Z</time>
      </trkpt>
      <trkpt lat="44.04987" lon="6.96483">
        <ele>1621.1</ele>
        <time>2016-06-25T12:55:54Z</time>
      </trkpt>
      <trkpt lat="44.04985" lon="6.96462">
        <ele>1620</ele>
        <time>2016-06-25T12:55:56Z</time>
      </trkpt>
      <trkpt lat="44.04978" lon="6.96444">
        <ele>1618.2</ele>
        <time>2016-06-25T12:55:58Z</time>
      </trkpt>
      <trkpt lat="44.04971" lon="6.96426">
        <ele>1616.7</ele>
        <time>2016-06-25T12:56:00Z</time>
      </trkpt>
      <trkpt lat="44.04966" lon="6.96409">
        <ele>1615.9</ele>
        <time>2016-06-25T12:56:02Z</time>
      </trkpt>
      <trkpt lat="44.0496" lon="6.96391">
        <ele>1615.1</ele>
        <time>2016-06-25T12:56:04Z</time>
      </trkpt>
      <trkpt lat="44.04953" lon="6.96373">
        <ele>1613.6</ele>
        <time>2016-06-25T12:56:06Z</time>
      </trkpt>
      <trkpt lat="44.04948" lon="6.96354">
        <ele>1612.4</ele>
        <time>2016-06-25T12:56:08Z</time>
      </trkpt>
      <trkpt lat="44.04945" lon="6.96335">
        <ele>1610.7</ele>
        <time>2016-06-25T12:56:10Z</time>
      </trkpt>
      <trkpt lat="44.04941" lon="6.96316">
        <ele>1608.4</ele>
        <time>2016-06-25T12:56:12Z</time>
      </trkpt>
      <trkpt lat="44.04939" lon="6.96299">
        <ele>1606.8</ele>
        <time>2016-06-25T12:56:14Z</time>
      </trkpt>
      <trkpt lat="44.04937" lon="6.96279">
        <ele>1605.1</ele>
        <time>2016-06-25T12:56:16Z</time>
      </trkpt>
      <trkpt lat="44.04931" lon="6.96259">
        <ele>1603.4</ele>
        <time>2016-06-25T12:56:18Z</time>
      </trkpt>
      <trkpt lat="44.04929" lon="6.96236">
        <ele>1602.3</ele>
        <time>2016-06-25T12:56:20Z</time>
      </trkpt>
      <trkpt lat="44.0493" lon="6.96216">
        <ele>1601</ele>
        <time>2016-06-25T12:56:22Z</time>
      </trkpt>
      <trkpt lat="44.04931" lon="6.96201">
        <ele>1599.6</ele>
        <time>2016-06-25T12:56:24Z</time>
      </trkpt>
      <trkpt lat="44.04925" lon="6.96185">
        <ele>1599.6</ele>
        <time>2016-06-25T12:56:27Z</time>
      </trkpt>
      <trkpt lat="44.04917" lon="6.96172">
        <ele>1599</ele>
        <time>2016-06-25T12:56:30Z</time>
      </trkpt>
      <trkpt lat="44.04909" lon="6.9616">
        <ele>1598.9</ele>
        <time>2016-06-25T12:56:33Z</time>
      </trkpt>
      <trkpt lat="44.04903" lon="6.96149">
        <ele>1598.1</ele>
        <time>2016-06-25T12:56:35Z</time>
      </trkpt>
      <trkpt lat="44.04899" lon="6.96137">
        <ele>1597.4</ele>
        <time>2016-06-25T12:56:37Z</time>
      </trkpt>
      <trkpt lat="44.04897" lon="6.96124">
        <ele>1597.1</ele>
        <time>2016-06-25T12:56:39Z</time>
      </trkpt>
      <trkpt lat="44.04893" lon="6.96109">
        <ele>1596.8</ele>
        <time>2016-06-25T12:56:41Z</time>
      </trkpt>
      <trkpt lat="44.04889" lon="6.96094">
        <ele>1596</ele>
        <time>2016-06-25T12:56:43Z</time>
      </trkpt>
      <trkpt lat="44.04883" lon="6.96078">
        <ele>1594.7</ele>
        <time>2016-06-25T12:56:45Z</time>
      </trkpt>
      <trkpt lat="44.04874" lon="6.96061">
        <ele>1594</ele>
        <time>2016-06-25T12:56:47Z</time>
      </trkpt>
      <trkpt lat="44.04864" lon="6.96045">
        <ele>1593</ele>
        <time>2016-06-25T12:56:49Z</time>
      </trkpt>
      <trkpt lat="44.04851" lon="6.96036">
        <ele>1591.6</ele>
        <time>2016-06-25T12:56:51Z</time>
      </trkpt>
      <trkpt lat="44.04837" lon="6.96037">
        <ele>1590.7</ele>
        <time>2016-06-25T12:56:53Z</time>
      </trkpt>
      <trkpt lat="44.04826" lon="6.96043">
        <ele>1589.8</ele>
        <time>2016-06-25T12:56:55Z</time>
      </trkpt>
      <trkpt lat="44.04814" lon="6.96037">
        <ele>1588.6</ele>
        <time>2016-06-25T12:56:58Z</time>
      </trkpt>
      <trkpt lat="44.0481" lon="6.96025">
        <ele>1588.6</ele>
        <time>2016-06-25T12:57:00Z</time>
      </trkpt>
      <trkpt lat="44.04808" lon="6.96012">
        <ele>1587.7</ele>
        <time>2016-06-25T12:57:02Z</time>
      </trkpt>
      <trkpt lat="44.04805" lon="6.95998">
        <ele>1587.2</ele>
        <time>2016-06-25T12:57:04Z</time>
      </trkpt>
      <trkpt lat="44.04803" lon="6.95983">
        <ele>1586.1</ele>
        <time>2016-06-25T12:57:06Z</time>
      </trkpt>
      <trkpt lat="44.04805" lon="6.95967">
        <ele>1585</ele>
        <time>2016-06-25T12:57:08Z</time>
      </trkpt>
      <trkpt lat="44.04801" lon="6.95952">
        <ele>1584.5</ele>
        <time>2016-06-25T12:57:10Z</time>
      </trkpt>
      <trkpt lat="44.04792" lon="6.95945">
        <ele>1584.3</ele>
        <time>2016-06-25T12:57:12Z</time>
      </trkpt>
      <trkpt lat="44.04781" lon="6.9594">
        <ele>1584.9</ele>
        <time>2016-06-25T12:57:14Z</time>
      </trkpt>
      <trkpt lat="44.04771" lon="6.95934">
        <ele>1585.5</ele>
        <time>2016-06-25T12:57:16Z</time>
      </trkpt>
      <trkpt lat="44.04762" lon="6.95929">
        <ele>1585.4</ele>
        <time>2016-06-25T12:57:18Z</time>
      </trkpt>
      <trkpt lat="44.0475" lon="6.95925">
        <ele>1585.1</ele>
        <time>2016-06-25T12:57:21Z</time>
      </trkpt>
      <trkpt lat="44.04741" lon="6.95917">
        <ele>1583.2</ele>
        <time>2016-06-25T12:57:24Z</time>
      </trkpt>
      <trkpt lat="44.04734" lon="6.95904">
        <ele>1583.9</ele>
        <time>2016-06-25T12:57:28Z</time>
      </trkpt>
      <trkpt lat="44.04729" lon="6.95889">
        <ele>1583.5</ele>
        <time>2016-06-25T12:57:31Z</time>
      </trkpt>
      <trkpt lat="44.04727" lon="6.95872">
        <ele>1582.9</ele>
        <time>2016-06-25T12:57:34Z</time>
      </trkpt>
      <trkpt lat="44.04726" lon="6.95859">
        <ele>1582.5</ele>
        <time>2016-06-25T12:57:36Z</time>
      </trkpt>
      <trkpt lat="44.04727" lon="6.95844">
        <ele>1582.3</ele>
        <time>2016-06-25T12:57:38Z</time>
      </trkpt>
      <trkpt lat="44.04727" lon="6.95829">
        <ele>1582</ele>
        <time>2016-06-25T12:57:40Z</time>
      </trkpt>
      <trkpt lat="44.0473" lon="6.95813">
        <ele>1581.3</ele>
        <time>2016-06-25T12:57:43Z</time>
      </trkpt>
      <trkpt lat="44.04733" lon="6.95798">
        <ele>1578.9</ele>
        <time>2016-06-25T12:57:46Z</time>
      </trkpt>
      <trkpt lat="44.04732" lon="6.95779">
        <ele>1577.5</ele>
        <time>2016-06-25T12:57:49Z</time>
      </trkpt>
      <trkpt lat="44.04732" lon="6.95764">
        <ele>1576.8</ele>
        <time>2016-06-25T12:57:51Z</time>
      </trkpt>
      <trkpt lat="44.04733" lon="6.95749">
        <ele>1576.5</ele>
        <time>2016-06-25T12:57:53Z</time>
      </trkpt>
      <trkpt lat="44.04734" lon="6.95732">
        <ele>1576.6</ele>
        <time>2016-06-25T12:57:55Z</time>
      </trkpt>
      <trkpt lat="44.04732" lon="6.95714">
        <ele>1575.5</ele>
        <time>2016-06-25T12:57:57Z</time>
      </trkpt>
      <trkpt lat="44.04729" lon="6.95696">
        <ele>1574.5</ele>
        <time>2016-06-25T12:57:59Z</time>
      </trkpt>
      <trkpt lat="44.04727" lon="6.95678">
        <ele>1573.7</ele>
        <time>2016-06-25T12:58:01Z</time>
      </trkpt>
      <trkpt lat="44.04727" lon="6.95661">
        <ele>1573.3</ele>
        <time>2016-06-25T12:58:03Z</time>
      </trkpt>
      <trkpt lat="44.04724" lon="6.95643">
        <ele>1572.5</ele>
        <time>2016-06-25T12:58:05Z</time>
      </trkpt>
      <trkpt lat="44.04718" lon="6.95631">
        <ele>1572.4</ele>
        <time>2016-06-25T12:58:07Z</time>
      </trkpt>
      <trkpt lat="44.04711" lon="6.95621">
        <ele>1573.1</ele>
        <time>2016-06-25T12:58:11Z</time>
      </trkpt>
      <trkpt lat="44.04705" lon="6.9561">
        <ele>1574.3</ele>
        <time>2016-06-25T12:58:17Z</time>
      </trkpt>
      <trkpt lat="44.047" lon="6.95597">
        <ele>1574.8</ele>
        <time>2016-06-25T12:58:22Z</time>
      </trkpt>
      <trkpt lat="44.04692" lon="6.95587">
        <ele>1575.6</ele>
        <time>2016-06-25T12:58:27Z</time>
      </trkpt>
      <trkpt lat="44.04684" lon="6.95581">
        <ele>1575.8</ele>
        <time>2016-06-25T12:58:33Z</time>
      </trkpt>
      <trkpt lat="44.04674" lon="6.95578">
        <ele>1578.8</ele>
        <time>2016-06-25T12:58:40Z</time>
      </trkpt>
      <trkpt lat="44.04664" lon="6.95572">
        <ele>1580.1</ele>
        <time>2016-06-25T12:58:47Z</time>
      </trkpt>
      <trkpt lat="44.04657" lon="6.95565">
        <ele>1581.7</ele>
        <time>2016-06-25T12:58:53Z</time>
      </trkpt>
      <trkpt lat="44.0465" lon="6.95555">
        <ele>1583.1</ele>
        <time>2016-06-25T12:59:00Z</time>
      </trkpt>
      <trkpt lat="44.04646" lon="6.95544">
        <ele>1583.9</ele>
        <time>2016-06-25T12:59:07Z</time>
      </trkpt>
      <trkpt lat="44.04645" lon="6.9553">
        <ele>1584.3</ele>
        <time>2016-06-25T12:59:14Z</time>
      </trkpt>
      <trkpt lat="44.04645" lon="6.95516">
        <ele>1586</ele>
        <time>2016-06-25T12:59:21Z</time>
      </trkpt>
      <trkpt lat="44.04645" lon="6.95502">
        <ele>1586.9</ele>
        <time>2016-06-25T12:59:29Z</time>
      </trkpt>
      <trkpt lat="44.04644" lon="6.95489">
        <ele>1588.3</ele>
        <time>2016-06-25T12:59:37Z</time>
      </trkpt>
      <trkpt lat="44.04644" lon="6.95476">
        <ele>1589.6</ele>
        <time>2016-06-25T12:59:44Z</time>
      </trkpt>
      <trkpt lat="44.04641" lon="6.95463">
        <ele>1590.5</ele>
        <time>2016-06-25T12:59:52Z</time>
      </trkpt>
      <trkpt lat="44.04631" lon="6.9546">
        <ele>1592.2</ele>
        <time>2016-06-25T13:00:00Z</time>
      </trkpt>
      <trkpt lat="44.04622" lon="6.95456">
        <ele>1593.7</ele>
        <time>2016-06-25T13:00:09Z</time>
      </trkpt>
      <trkpt lat="44.04616" lon="6.95445">
        <ele>1594.2</ele>
        <time>2016-06-25T13:00:17Z</time>
      </trkpt>
      <trkpt lat="44.04614" lon="6.95431">
        <ele>1595.9</ele>
        <time>2016-06-25T13:00:24Z</time>
      </trkpt>
      <trkpt lat="44.04611" lon="6.95419">
        <ele>1596.5</ele>
        <time>2016-06-25T13:00:31Z</time>
      </trkpt>
      <trkpt lat="44.04609" lon="6.95405">
        <ele>1598.2</ele>
        <time>2016-06-25T13:00:38Z</time>
      </trkpt>
      <trkpt lat="44.0461" lon="6.95391">
        <ele>1598.4</ele>
        <time>2016-06-25T13:00:45Z</time>
      </trkpt>
      <trkpt lat="44.04614" lon="6.95379">
        <ele>1599.3</ele>
        <time>2016-06-25T13:00:51Z</time>
      </trkpt>
      <trkpt lat="44.04618" lon="6.95365">
        <ele>1601</ele>
        <time>2016-06-25T13:00:57Z</time>
      </trkpt>
      <trkpt lat="44.04619" lon="6.95352">
        <ele>1601.6</ele>
        <time>2016-06-25T13:01:02Z</time>
      </trkpt>
      <trkpt lat="44.04617" lon="6.95338">
        <ele>1601.2</ele>
        <time>2016-06-25T13:01:08Z</time>
      </trkpt>
      <trkpt lat="44.04616" lon="6.95325">
        <ele>1602.6</ele>
        <time>2016-06-25T13:01:14Z</time>
      </trkpt>
      <trkpt lat="44.0461" lon="6.95313">
        <ele>1603.2</ele>
        <time>2016-06-25T13:01:20Z</time>
      </trkpt>
      <trkpt lat="44.04602" lon="6.95306">
        <ele>1604.5</ele>
        <time>2016-06-25T13:01:25Z</time>
      </trkpt>
      <trkpt lat="44.04594" lon="6.95299">
        <ele>1605.1</ele>
        <time>2016-06-25T13:01:30Z</time>
      </trkpt>
      <trkpt lat="44.04586" lon="6.95294">
        <ele>1604.7</ele>
        <time>2016-06-25T13:01:57Z</time>
      </trkpt>
      <trkpt lat="44.04576" lon="6.95293">
        <ele>1605.3</ele>
        <time>2016-06-25T13:02:03Z</time>
      </trkpt>
      <trkpt lat="44.04567" lon="6.95299">
        <ele>1606.8</ele>
        <time>2016-06-25T13:02:48Z</time>
      </trkpt>
      <trkpt lat="44.04559" lon="6.95305">
        <ele>1606.5</ele>
        <time>2016-06-25T13:02:52Z</time>
      </trkpt>
      <trkpt lat="44.04549" lon="6.95312">
        <ele>1606.6</ele>
        <time>2016-06-25T13:02:56Z</time>
      </trkpt>
      <trkpt lat="44.0454" lon="6.95316">
        <ele>1607.5</ele>
        <time>2016-06-25T13:02:59Z</time>
      </trkpt>
      <trkpt lat="44.04531" lon="6.95317">
        <ele>1607.9</ele>
        <time>2016-06-25T13:03:02Z</time>
      </trkpt>
      <trkpt lat="44.04523" lon="6.9531">
        <ele>1608</ele>
        <time>2016-06-25T13:03:05Z</time>
      </trkpt>
      <trkpt lat="44.04517" lon="6.95296">
        <ele>1608.3</ele>
        <time>2016-06-25T13:03:09Z</time>
      </trkpt>
      <trkpt lat="44.04512" lon="6.95282">
        <ele>1609.4</ele>
        <time>2016-06-25T13:03:13Z</time>
      </trkpt>
      <trkpt lat="44.04509" lon="6.95268">
        <ele>1610.6</ele>
        <time>2016-06-25T13:03:17Z</time>
      </trkpt>
      <trkpt lat="44.0451" lon="6.95254">
        <ele>1610</ele>
        <time>2016-06-25T13:03:21Z</time>
      </trkpt>
      <trkpt lat="44.04512" lon="6.95238">
        <ele>1610.2</ele>
        <time>2016-06-25T13:03:25Z</time>
      </trkpt>
      <trkpt lat="44.04512" lon="6.95222">
        <ele>1611</ele>
        <time>2016-06-25T13:03:29Z</time>
      </trkpt>
      <trkpt lat="44.04511" lon="6.95209">
        <ele>1610.8</ele>
        <time>2016-06-25T13:03:32Z</time>
      </trkpt>
      <trkpt lat="44.04509" lon="6.95193">
        <ele>1611.7</ele>
        <time>2016-06-25T13:03:36Z</time>
      </trkpt>
      <trkpt lat="44.04506" lon="6.95181">
        <ele>1612</ele>
        <time>2016-06-25T13:03:39Z</time>
      </trkpt>
      <trkpt lat="44.045" lon="6.95171">
        <ele>1612.1</ele>
        <time>2016-06-25T13:03:42Z</time>
      </trkpt>
      <trkpt lat="44.04493" lon="6.95159">
        <ele>1612.3</ele>
        <time>2016-06-25T13:03:46Z</time>
      </trkpt>
      <trkpt lat="44.04486" lon="6.95146">
        <ele>1613.2</ele>
        <time>2016-06-25T13:03:50Z</time>
      </trkpt>
      <trkpt lat="44.04478" lon="6.95136">
        <ele>1613.8</ele>
        <time>2016-06-25T13:03:54Z</time>
      </trkpt>
      <trkpt lat="44.04471" lon="6.95125">
        <ele>1613.8</ele>
        <time>2016-06-25T13:03:58Z</time>
      </trkpt>
      <trkpt lat="44.04465" lon="6.95111">
        <ele>1614.5</ele>
        <time>2016-06-25T13:04:02Z</time>
      </trkpt>
      <trkpt lat="44.04461" lon="6.95097">
        <ele>1613.9</ele>
        <time>2016-06-25T13:04:06Z</time>
      </trkpt>
      <trkpt lat="44.04458" lon="6.95082">
        <ele>1614.8</ele>
        <time>2016-06-25T13:04:10Z</time>
      </trkpt>
      <trkpt lat="44.04455" lon="6.95067">
        <ele>1614.7</ele>
        <time>2016-06-25T13:04:14Z</time>
      </trkpt>
      <trkpt lat="44.04451" lon="6.95055">
        <ele>1615.6</ele>
        <time>2016-06-25T13:04:17Z</time>
      </trkpt>
      <trkpt lat="44.04444" lon="6.95046">
        <ele>1615</ele>
        <time>2016-06-25T13:04:21Z</time>
      </trkpt>
      <trkpt lat="44.04436" lon="6.95035">
        <ele>1615.7</ele>
        <time>2016-06-25T13:04:26Z</time>
      </trkpt>
      <trkpt lat="44.04429" lon="6.95025">
        <ele>1615.1</ele>
        <time>2016-06-25T13:04:30Z</time>
      </trkpt>
      <trkpt lat="44.04423" lon="6.95015">
        <ele>1616.7</ele>
        <time>2016-06-25T13:04:34Z</time>
      </trkpt>
      <trkpt lat="44.04417" lon="6.95005">
        <ele>1617.8</ele>
        <time>2016-06-25T13:04:38Z</time>
      </trkpt>
      <trkpt lat="44.04409" lon="6.94994">
        <ele>1618.4</ele>
        <time>2016-06-25T13:04:43Z</time>
      </trkpt>
      <trkpt lat="44.04402" lon="6.94983">
        <ele>1620.4</ele>
        <time>2016-06-25T13:04:48Z</time>
      </trkpt>
      <trkpt lat="44.04395" lon="6.94973">
        <ele>1621.3</ele>
        <time>2016-06-25T13:04:53Z</time>
      </trkpt>
      <trkpt lat="44.04389" lon="6.94961">
        <ele>1621.6</ele>
        <time>2016-06-25T13:04:58Z</time>
      </trkpt>
      <trkpt lat="44.04385" lon="6.94949">
        <ele>1621.6</ele>
        <time>2016-06-25T13:05:03Z</time>
      </trkpt>
      <trkpt lat="44.0438" lon="6.94937">
        <ele>1621</ele>
        <time>2016-06-25T13:05:08Z</time>
      </trkpt>
      <trkpt lat="44.04374" lon="6.94925">
        <ele>1621.2</ele>
        <time>2016-06-25T13:05:13Z</time>
      </trkpt>
      <trkpt lat="44.04369" lon="6.94912">
        <ele>1621.9</ele>
        <time>2016-06-25T13:05:18Z</time>
      </trkpt>
      <trkpt lat="44.0436" lon="6.94907">
        <ele>1623</ele>
        <time>2016-06-25T13:05:23Z</time>
      </trkpt>
      <trkpt lat="44.04351" lon="6.94912">
        <ele>1623.1</ele>
        <time>2016-06-25T13:05:30Z</time>
      </trkpt>
      <trkpt lat="44.04341" lon="6.94914">
        <ele>1625.5</ele>
        <time>2016-06-25T13:05:37Z</time>
      </trkpt>
      <trkpt lat="44.04333" lon="6.94907">
        <ele>1625.9</ele>
        <time>2016-06-25T13:05:43Z</time>
      </trkpt>
      <trkpt lat="44.04326" lon="6.94899">
        <ele>1628.2</ele>
        <time>2016-06-25T13:05:49Z</time>
      </trkpt>
      <trkpt lat="44.04319" lon="6.9489">
        <ele>1628.9</ele>
        <time>2016-06-25T13:05:55Z</time>
      </trkpt>
      <trkpt lat="44.04313" lon="6.94881">
        <ele>1629.2</ele>
        <time>2016-06-25T13:06:01Z</time>
      </trkpt>
      <trkpt lat="44.04306" lon="6.94869">
        <ele>1631</ele>
        <time>2016-06-25T13:06:08Z</time>
      </trkpt>
      <trkpt lat="44.04301" lon="6.94859">
        <ele>1631.7</ele>
        <time>2016-06-25T13:06:14Z</time>
      </trkpt>
      <trkpt lat="44.04294" lon="6.94849">
        <ele>1632.2</ele>
        <time>2016-06-25T13:06:21Z</time>
      </trkpt>
      <trkpt lat="44.0429" lon="6.94837">
        <ele>1633.9</ele>
        <time>2016-06-25T13:06:29Z</time>
      </trkpt>
      <trkpt lat="44.04287" lon="6.94824">
        <ele>1634.4</ele>
        <time>2016-06-25T13:06:36Z</time>
      </trkpt>
      <trkpt lat="44.04288" lon="6.94811">
        <ele>1635.1</ele>
        <time>2016-06-25T13:06:42Z</time>
      </trkpt>
      <trkpt lat="44.04292" lon="6.94798">
        <ele>1635.7</ele>
        <time>2016-06-25T13:06:48Z</time>
      </trkpt>
      <trkpt lat="44.04298" lon="6.94786">
        <ele>1637.6</ele>
        <time>2016-06-25T13:06:54Z</time>
      </trkpt>
      <trkpt lat="44.04304" lon="6.94774">
        <ele>1637.9</ele>
        <time>2016-06-25T13:07:00Z</time>
      </trkpt>
      <trkpt lat="44.04311" lon="6.94764">
        <ele>1638.2</ele>
        <time>2016-06-25T13:07:05Z</time>
      </trkpt>
      <trkpt lat="44.04319" lon="6.94755">
        <ele>1638.2</ele>
        <time>2016-06-25T13:07:10Z</time>
      </trkpt>
      <trkpt lat="44.04325" lon="6.94743">
        <ele>1638.5</ele>
        <time>2016-06-25T13:07:15Z</time>
      </trkpt>
      <trkpt lat="44.04331" lon="6.94731">
        <ele>1638.6</ele>
        <time>2016-06-25T13:07:20Z</time>
      </trkpt>
      <trkpt lat="44.04336" lon="6.94719">
        <ele>1638.4</ele>
        <time>2016-06-25T13:07:25Z</time>
      </trkpt>
      <trkpt lat="44.04341" lon="6.94706">
        <ele>1639.3</ele>
        <time>2016-06-25T13:07:30Z</time>
      </trkpt>
      <trkpt lat="44.04347" lon="6.94693">
        <ele>1639.8</ele>
        <time>2016-06-25T13:07:35Z</time>
      </trkpt>
      <trkpt lat="44.04352" lon="6.94679">
        <ele>1640</ele>
        <time>2016-06-25T13:07:40Z</time>
      </trkpt>
      <trkpt lat="44.04357" lon="6.94666">
        <ele>1639.6</ele>
        <time>2016-06-25T13:07:45Z</time>
      </trkpt>
      <trkpt lat="44.04363" lon="6.94652">
        <ele>1640.2</ele>
        <time>2016-06-25T13:07:50Z</time>
      </trkpt>
      <trkpt lat="44.04367" lon="6.94641">
        <ele>1640.2</ele>
        <time>2016-06-25T13:07:54Z</time>
      </trkpt>
      <trkpt lat="44.04371" lon="6.94627">
        <ele>1641.1</ele>
        <time>2016-06-25T13:07:59Z</time>
      </trkpt>
      <trkpt lat="44.04376" lon="6.94615">
        <ele>1640</ele>
        <time>2016-06-25T13:08:04Z</time>
      </trkpt>
      <trkpt lat="44.04384" lon="6.94606">
        <ele>1641.1</ele>
        <time>2016-06-25T13:08:09Z</time>
      </trkpt>
      <trkpt lat="44.04393" lon="6.94603">
        <ele>1641.5</ele>
        <time>2016-06-25T13:08:14Z</time>
      </trkpt>
      <trkpt lat="44.044" lon="6.94593">
        <ele>1641.8</ele>
        <time>2016-06-25T13:08:20Z</time>
      </trkpt>
      <trkpt lat="44.04404" lon="6.94579">
        <ele>1642.1</ele>
        <time>2016-06-25T13:08:26Z</time>
      </trkpt>
      <trkpt lat="44.04408" lon="6.94568">
        <ele>1643.2</ele>
        <time>2016-06-25T13:08:31Z</time>
      </trkpt>
      <trkpt lat="44.04414" lon="6.94555">
        <ele>1644.5</ele>
        <time>2016-06-25T13:08:37Z</time>
      </trkpt>
      <trkpt lat="44.04413" lon="6.94542">
        <ele>1645.4</ele>
        <time>2016-06-25T13:08:43Z</time>
      </trkpt>
      <trkpt lat="44.04405" lon="6.94533">
        <ele>1647</ele>
        <time>2016-06-25T13:08:50Z</time>
      </trkpt>
      <trkpt lat="44.04398" lon="6.94524">
        <ele>1647.8</ele>
        <time>2016-06-25T13:08:57Z</time>
      </trkpt>
      <trkpt lat="44.04394" lon="6.94512">
        <ele>1649.5</ele>
        <time>2016-06-25T13:09:04Z</time>
      </trkpt>
      <trkpt lat="44.0439" lon="6.94499">
        <ele>1651.1</ele>
        <time>2016-06-25T13:09:12Z</time>
      </trkpt>
      <trkpt lat="44.04386" lon="6.94487">
        <ele>1652.8</ele>
        <time>2016-06-25T13:09:20Z</time>
      </trkpt>
      <trkpt lat="44.04381" lon="6.94475">
        <ele>1654.3</ele>
        <time>2016-06-25T13:09:28Z</time>
      </trkpt>
      <trkpt lat="44.04376" lon="6.94463">
        <ele>1656.7</ele>
        <time>2016-06-25T13:09:37Z</time>
      </trkpt>
      <trkpt lat="44.04371" lon="6.94452">
        <ele>1658.2</ele>
        <time>2016-06-25T13:09:45Z</time>
      </trkpt>
      <trkpt lat="44.04367" lon="6.94439">
        <ele>1659.5</ele>
        <time>2016-06-25T13:09:54Z</time>
      </trkpt>
      <trkpt lat="44.04364" lon="6.94427">
        <ele>1660.4</ele>
        <time>2016-06-25T13:10:03Z</time>
      </trkpt>
      <trkpt lat="44.04363" lon="6.94413">
        <ele>1662.4</ele>
        <time>2016-06-25T13:10:12Z</time>
      </trkpt>
      <trkpt lat="44.04363" lon="6.944">
        <ele>1662</ele>
        <time>2016-06-25T13:10:20Z</time>
      </trkpt>
      <trkpt lat="44.04364" lon="6.94386">
        <ele>1660.9</ele>
        <time>2016-06-25T13:10:26Z</time>
      </trkpt>
      <trkpt lat="44.04364" lon="6.94372">
        <ele>1661.8</ele>
        <time>2016-06-25T13:10:31Z</time>
      </trkpt>
      <trkpt lat="44.04363" lon="6.94359">
        <ele>1662.1</ele>
        <time>2016-06-25T13:10:35Z</time>
      </trkpt>
      <trkpt lat="44.04362" lon="6.94346">
        <ele>1661.7</ele>
        <time>2016-06-25T13:10:39Z</time>
      </trkpt>
      <trkpt lat="44.04362" lon="6.94333">
        <ele>1662.9</ele>
        <time>2016-06-25T13:10:43Z</time>
      </trkpt>
      <trkpt lat="44.04362" lon="6.94319">
        <ele>1662.9</ele>
        <time>2016-06-25T13:10:48Z</time>
      </trkpt>
      <trkpt lat="44.04364" lon="6.94305">
        <ele>1664.4</ele>
        <time>2016-06-25T13:10:53Z</time>
      </trkpt>
      <trkpt lat="44.04364" lon="6.9429">
        <ele>1663.7</ele>
        <time>2016-06-25T13:10:58Z</time>
      </trkpt>
      <trkpt lat="44.04364" lon="6.94276">
        <ele>1664.2</ele>
        <time>2016-06-25T13:11:03Z</time>
      </trkpt>
      <trkpt lat="44.04363" lon="6.94262">
        <ele>1665.1</ele>
        <time>2016-06-25T13:11:08Z</time>
      </trkpt>
      <trkpt lat="44.04362" lon="6.94246">
        <ele>1665.5</ele>
        <time>2016-06-25T13:11:13Z</time>
      </trkpt>
      <trkpt lat="44.04363" lon="6.94232">
        <ele>1666.5</ele>
        <time>2016-06-25T13:11:18Z</time>
      </trkpt>
      <trkpt lat="44.04364" lon="6.94217">
        <ele>1666.1</ele>
        <time>2016-06-25T13:11:23Z</time>
      </trkpt>
      <trkpt lat="44.04365" lon="6.94204">
        <ele>1666.2</ele>
        <time>2016-06-25T13:11:28Z</time>
      </trkpt>
      <trkpt lat="44.04367" lon="6.94191">
        <ele>1666.8</ele>
        <time>2016-06-25T13:11:33Z</time>
      </trkpt>
      <trkpt lat="44.04369" lon="6.94178">
        <ele>1667.4</ele>
        <time>2016-06-25T13:11:38Z</time>
      </trkpt>
      <trkpt lat="44.04373" lon="6.94166">
        <ele>1667.8</ele>
        <time>2016-06-25T13:11:43Z</time>
      </trkpt>
      <trkpt lat="44.04379" lon="6.94154">
        <ele>1668.3</ele>
        <time>2016-06-25T13:11:48Z</time>
      </trkpt>
      <trkpt lat="44.04386" lon="6.94143">
        <ele>1669.7</ele>
        <time>2016-06-25T13:11:53Z</time>
      </trkpt>
      <trkpt lat="44.04393" lon="6.94135">
        <ele>1669.1</ele>
        <time>2016-06-25T13:11:57Z</time>
      </trkpt>
      <trkpt lat="44.04402" lon="6.94128">
        <ele>1668.7</ele>
        <time>2016-06-25T13:12:02Z</time>
      </trkpt>
      <trkpt lat="44.04409" lon="6.94117">
        <ele>1670.5</ele>
        <time>2016-06-25T13:12:07Z</time>
      </trkpt>
      <trkpt lat="44.04405" lon="6.94104">
        <ele>1671.8</ele>
        <time>2016-06-25T13:12:12Z</time>
      </trkpt>
      <trkpt lat="44.04399" lon="6.94093">
        <ele>1671.6</ele>
        <time>2016-06-25T13:12:17Z</time>
      </trkpt>
      <trkpt lat="44.044" lon="6.9408">
        <ele>1671.8</ele>
        <time>2016-06-25T13:12:22Z</time>
      </trkpt>
      <trkpt lat="44.04398" lon="6.94067">
        <ele>1672</ele>
        <time>2016-06-25T13:12:27Z</time>
      </trkpt>
      <trkpt lat="44.04399" lon="6.94053">
        <ele>1673.1</ele>
        <time>2016-06-25T13:12:32Z</time>
      </trkpt>
      <trkpt lat="44.044" lon="6.94039">
        <ele>1673.2</ele>
        <time>2016-06-25T13:12:37Z</time>
      </trkpt>
      <trkpt lat="44.04401" lon="6.94026">
        <ele>1672.9</ele>
        <time>2016-06-25T13:12:41Z</time>
      </trkpt>
      <trkpt lat="44.04403" lon="6.94013">
        <ele>1671.6</ele>
        <time>2016-06-25T13:12:45Z</time>
      </trkpt>
      <trkpt lat="44.04407" lon="6.93999">
        <ele>1671.3</ele>
        <time>2016-06-25T13:12:50Z</time>
      </trkpt>
      <trkpt lat="44.0441" lon="6.93985">
        <ele>1670.8</ele>
        <time>2016-06-25T13:12:54Z</time>
      </trkpt>
      <trkpt lat="44.04413" lon="6.9397">
        <ele>1672.3</ele>
        <time>2016-06-25T13:12:58Z</time>
      </trkpt>
      <trkpt lat="44.04417" lon="6.93958">
        <ele>1671.4</ele>
        <time>2016-06-25T13:13:02Z</time>
      </trkpt>
      <trkpt lat="44.04422" lon="6.93944">
        <ele>1671.8</ele>
        <time>2016-06-25T13:13:07Z</time>
      </trkpt>
      <trkpt lat="44.04427" lon="6.93933">
        <ele>1670.9</ele>
        <time>2016-06-25T13:13:11Z</time>
      </trkpt>
      <trkpt lat="44.04437" lon="6.93927">
        <ele>1670.5</ele>
        <time>2016-06-25T13:13:15Z</time>
      </trkpt>
      <trkpt lat="44.04445" lon="6.93918">
        <ele>1669.8</ele>
        <time>2016-06-25T13:13:19Z</time>
      </trkpt>
      <trkpt lat="44.04448" lon="6.93906">
        <ele>1669.3</ele>
        <time>2016-06-25T13:13:23Z</time>
      </trkpt>
      <trkpt lat="44.04448" lon="6.93892">
        <ele>1669.6</ele>
        <time>2016-06-25T13:13:28Z</time>
      </trkpt>
      <trkpt lat="44.04446" lon="6.93879">
        <ele>1669.8</ele>
        <time>2016-06-25T13:13:34Z</time>
      </trkpt>
      <trkpt lat="44.04447" lon="6.93864">
        <ele>1669.4</ele>
        <time>2016-06-25T13:13:39Z</time>
      </trkpt>
      <trkpt lat="44.04449" lon="6.93851">
        <ele>1669.6</ele>
        <time>2016-06-25T13:13:43Z</time>
      </trkpt>
      <trkpt lat="44.04452" lon="6.93836">
        <ele>1671.4</ele>
        <time>2016-06-25T13:13:47Z</time>
      </trkpt>
      <trkpt lat="44.04457" lon="6.93822">
        <ele>1670.2</ele>
        <time>2016-06-25T13:13:51Z</time>
      </trkpt>
      <trkpt lat="44.04463" lon="6.93808">
        <ele>1670.4</ele>
        <time>2016-06-25T13:13:55Z</time>
      </trkpt>
      <trkpt lat="44.04469" lon="6.93797">
        <ele>1670.2</ele>
        <time>2016-06-25T13:13:58Z</time>
      </trkpt>
      <trkpt lat="44.04474" lon="6.93786">
        <ele>1669.7</ele>
        <time>2016-06-25T13:14:01Z</time>
      </trkpt>
      <trkpt lat="44.04482" lon="6.93775">
        <ele>1669</ele>
        <time>2016-06-25T13:14:04Z</time>
      </trkpt>
      <trkpt lat="44.0449" lon="6.93767">
        <ele>1669.1</ele>
        <time>2016-06-25T13:14:06Z</time>
      </trkpt>
      <trkpt lat="44.04498" lon="6.93758">
        <ele>1666.9</ele>
        <time>2016-06-25T13:14:08Z</time>
      </trkpt>
      <trkpt lat="44.04507" lon="6.93746">
        <ele>1666</ele>
        <time>2016-06-25T13:14:10Z</time>
      </trkpt>
      <trkpt lat="44.04517" lon="6.93732">
        <ele>1664.4</ele>
        <time>2016-06-25T13:14:12Z</time>
      </trkpt>
      <trkpt lat="44.04526" lon="6.93718">
        <ele>1663.2</ele>
        <time>2016-06-25T13:14:14Z</time>
      </trkpt>
      <trkpt lat="44.04535" lon="6.93704">
        <ele>1661.8</ele>
        <time>2016-06-25T13:14:16Z</time>
      </trkpt>
      <trkpt lat="44.04545" lon="6.9369">
        <ele>1661.4</ele>
        <time>2016-06-25T13:14:18Z</time>
      </trkpt>
      <trkpt lat="44.04552" lon="6.93676">
        <ele>1661.7</ele>
        <time>2016-06-25T13:14:20Z</time>
      </trkpt>
      <trkpt lat="44.04561" lon="6.93663">
        <ele>1660.2</ele>
        <time>2016-06-25T13:14:22Z</time>
      </trkpt>
      <trkpt lat="44.04569" lon="6.9365">
        <ele>1658.5</ele>
        <time>2016-06-25T13:14:24Z</time>
      </trkpt>
      <trkpt lat="44.04569" lon="6.93636">
        <ele>1656.5</ele>
        <time>2016-06-25T13:14:27Z</time>
      </trkpt>
      <trkpt lat="44.04573" lon="6.93649">
        <ele>1657.1</ele>
        <time>2016-06-25T13:15:43Z</time>
      </trkpt>
      <trkpt lat="44.04569" lon="6.93637">
        <ele>1656.8</ele>
        <time>2016-06-25T13:16:07Z</time>
      </trkpt>
      <trkpt lat="44.04565" lon="6.93626">
        <ele>1654.7</ele>
        <time>2016-06-25T13:18:24Z</time>
      </trkpt>
      <trkpt lat="44.04558" lon="6.93617">
        <ele>1655</ele>
        <time>2016-06-25T13:18:53Z</time>
      </trkpt>
      <trkpt lat="44.04549" lon="6.93615">
        <ele>1655.4</ele>
        <time>2016-06-25T13:18:59Z</time>
      </trkpt>
      <trkpt lat="44.0454" lon="6.9361">
        <ele>1656.8</ele>
        <time>2016-06-25T13:19:05Z</time>
      </trkpt>
      <trkpt lat="44.04532" lon="6.93604">
        <ele>1657.2</ele>
        <time>2016-06-25T13:19:11Z</time>
      </trkpt>
      <trkpt lat="44.04523" lon="6.93601">
        <ele>1658.8</ele>
        <time>2016-06-25T13:19:17Z</time>
      </trkpt>
      <trkpt lat="44.04513" lon="6.936">
        <ele>1660.9</ele>
        <time>2016-06-25T13:19:23Z</time>
      </trkpt>
      <trkpt lat="44.04503" lon="6.93598">
        <ele>1661.5</ele>
        <time>2016-06-25T13:19:30Z</time>
      </trkpt>
      <trkpt lat="44.04495" lon="6.93592">
        <ele>1661.9</ele>
        <time>2016-06-25T13:19:36Z</time>
      </trkpt>
      <trkpt lat="44.04488" lon="6.93582">
        <ele>1661.6</ele>
        <time>2016-06-25T13:19:42Z</time>
      </trkpt>
      <trkpt lat="44.04485" lon="6.93568">
        <ele>1662.1</ele>
        <time>2016-06-25T13:19:48Z</time>
      </trkpt>
      <trkpt lat="44.04483" lon="6.93553">
        <ele>1662.5</ele>
        <time>2016-06-25T13:19:54Z</time>
      </trkpt>
      <trkpt lat="44.04482" lon="6.93541">
        <ele>1662.5</ele>
        <time>2016-06-25T13:19:59Z</time>
      </trkpt>
      <trkpt lat="44.04479" lon="6.93528">
        <ele>1663.9</ele>
        <time>2016-06-25T13:20:04Z</time>
      </trkpt>
      <trkpt lat="44.04477" lon="6.93515">
        <ele>1664.9</ele>
        <time>2016-06-25T13:20:09Z</time>
      </trkpt>
      <trkpt lat="44.04473" lon="6.93503">
        <ele>1666.1</ele>
        <time>2016-06-25T13:20:14Z</time>
      </trkpt>
      <trkpt lat="44.04468" lon="6.93491">
        <ele>1666.4</ele>
        <time>2016-06-25T13:20:19Z</time>
      </trkpt>
      <trkpt lat="44.04465" lon="6.93478">
        <ele>1667.3</ele>
        <time>2016-06-25T13:20:24Z</time>
      </trkpt>
      <trkpt lat="44.04461" lon="6.93466">
        <ele>1668.1</ele>
        <time>2016-06-25T13:20:29Z</time>
      </trkpt>
      <trkpt lat="44.04455" lon="6.93455">
        <ele>1669.4</ele>
        <time>2016-06-25T13:20:34Z</time>
      </trkpt>
      <trkpt lat="44.04452" lon="6.93442">
        <ele>1669.9</ele>
        <time>2016-06-25T13:20:39Z</time>
      </trkpt>
      <trkpt lat="44.04448" lon="6.93429">
        <ele>1670</ele>
        <time>2016-06-25T13:20:44Z</time>
      </trkpt>
      <trkpt lat="44.04444" lon="6.93416">
        <ele>1670.2</ele>
        <time>2016-06-25T13:20:49Z</time>
      </trkpt>
      <trkpt lat="44.04442" lon="6.93404">
        <ele>1671.8</ele>
        <time>2016-06-25T13:20:54Z</time>
      </trkpt>
      <trkpt lat="44.04441" lon="6.93389">
        <ele>1672.7</ele>
        <time>2016-06-25T13:20:59Z</time>
      </trkpt>
      <trkpt lat="44.04439" lon="6.93377">
        <ele>1672.3</ele>
        <time>2016-06-25T13:21:03Z</time>
      </trkpt>
      <trkpt lat="44.04436" lon="6.93362">
        <ele>1673.1</ele>
        <time>2016-06-25T13:21:08Z</time>
      </trkpt>
      <trkpt lat="44.04434" lon="6.93346">
        <ele>1674.2</ele>
        <time>2016-06-25T13:21:13Z</time>
      </trkpt>
      <trkpt lat="44.04432" lon="6.93332">
        <ele>1675.1</ele>
        <time>2016-06-25T13:21:17Z</time>
      </trkpt>
      <trkpt lat="44.0443" lon="6.93319">
        <ele>1675.2</ele>
        <time>2016-06-25T13:21:21Z</time>
      </trkpt>
      <trkpt lat="44.04428" lon="6.93305">
        <ele>1675.6</ele>
        <time>2016-06-25T13:21:26Z</time>
      </trkpt>
      <trkpt lat="44.04429" lon="6.93291">
        <ele>1676.4</ele>
        <time>2016-06-25T13:21:31Z</time>
      </trkpt>
      <trkpt lat="44.04432" lon="6.93279">
        <ele>1676.3</ele>
        <time>2016-06-25T13:21:35Z</time>
      </trkpt>
      <trkpt lat="44.04431" lon="6.93266">
        <ele>1675.2</ele>
        <time>2016-06-25T13:21:39Z</time>
      </trkpt>
      <trkpt lat="44.04427" lon="6.93252">
        <ele>1675.1</ele>
        <time>2016-06-25T13:21:44Z</time>
      </trkpt>
      <trkpt lat="44.04422" lon="6.9324">
        <ele>1676.5</ele>
        <time>2016-06-25T13:21:49Z</time>
      </trkpt>
      <trkpt lat="44.0442" lon="6.93227">
        <ele>1677.4</ele>
        <time>2016-06-25T13:21:53Z</time>
      </trkpt>
      <trkpt lat="44.04417" lon="6.93215">
        <ele>1678.5</ele>
        <time>2016-06-25T13:21:57Z</time>
      </trkpt>
      <trkpt lat="44.04413" lon="6.93203">
        <ele>1678.9</ele>
        <time>2016-06-25T13:22:01Z</time>
      </trkpt>
      <trkpt lat="44.0441" lon="6.93191">
        <ele>1679.1</ele>
        <time>2016-06-25T13:22:05Z</time>
      </trkpt>
      <trkpt lat="44.04411" lon="6.93176">
        <ele>1678.5</ele>
        <time>2016-06-25T13:22:09Z</time>
      </trkpt>
      <trkpt lat="44.04408" lon="6.9316">
        <ele>1679.3</ele>
        <time>2016-06-25T13:22:13Z</time>
      </trkpt>
      <trkpt lat="44.04406" lon="6.93146">
        <ele>1679.3</ele>
        <time>2016-06-25T13:22:17Z</time>
      </trkpt>
      <trkpt lat="44.04403" lon="6.93133">
        <ele>1679.7</ele>
        <time>2016-06-25T13:22:21Z</time>
      </trkpt>
      <trkpt lat="44.04398" lon="6.9312">
        <ele>1679.9</ele>
        <time>2016-06-25T13:22:25Z</time>
      </trkpt>
      <trkpt lat="44.04392" lon="6.93108">
        <ele>1680</ele>
        <time>2016-06-25T13:22:29Z</time>
      </trkpt>
      <trkpt lat="44.04388" lon="6.93096">
        <ele>1680.3</ele>
        <time>2016-06-25T13:22:33Z</time>
      </trkpt>
      <trkpt lat="44.04384" lon="6.93082">
        <ele>1680.5</ele>
        <time>2016-06-25T13:22:37Z</time>
      </trkpt>
      <trkpt lat="44.04381" lon="6.93069">
        <ele>1681.7</ele>
        <time>2016-06-25T13:22:41Z</time>
      </trkpt>
      <trkpt lat="44.04378" lon="6.93057">
        <ele>1682.3</ele>
        <time>2016-06-25T13:22:45Z</time>
      </trkpt>
      <trkpt lat="44.04375" lon="6.93042">
        <ele>1682</ele>
        <time>2016-06-25T13:22:50Z</time>
      </trkpt>
      <trkpt lat="44.04376" lon="6.93028">
        <ele>1683.5</ele>
        <time>2016-06-25T13:22:55Z</time>
      </trkpt>
      <trkpt lat="44.04382" lon="6.93015">
        <ele>1683.9</ele>
        <time>2016-06-25T13:23:00Z</time>
      </trkpt>
      <trkpt lat="44.04384" lon="6.93001">
        <ele>1684.1</ele>
        <time>2016-06-25T13:23:05Z</time>
      </trkpt>
      <trkpt lat="44.04377" lon="6.9299">
        <ele>1684.6</ele>
        <time>2016-06-25T13:23:11Z</time>
      </trkpt>
      <trkpt lat="44.0437" lon="6.92981">
        <ele>1685.6</ele>
        <time>2016-06-25T13:23:16Z</time>
      </trkpt>
      <trkpt lat="44.04369" lon="6.92967">
        <ele>1685.4</ele>
        <time>2016-06-25T13:23:21Z</time>
      </trkpt>
      <trkpt lat="44.04368" lon="6.92954">
        <ele>1686.7</ele>
        <time>2016-06-25T13:23:25Z</time>
      </trkpt>
      <trkpt lat="44.04367" lon="6.92941">
        <ele>1686.3</ele>
        <time>2016-06-25T13:23:29Z</time>
      </trkpt>
      <trkpt lat="44.04365" lon="6.92928">
        <ele>1686.6</ele>
        <time>2016-06-25T13:23:33Z</time>
      </trkpt>
      <trkpt lat="44.04363" lon="6.92915">
        <ele>1685.7</ele>
        <time>2016-06-25T13:23:37Z</time>
      </trkpt>
      <trkpt lat="44.04359" lon="6.92902">
        <ele>1685.5</ele>
        <time>2016-06-25T13:23:42Z</time>
      </trkpt>
      <trkpt lat="44.04357" lon="6.92888">
        <ele>1686.7</ele>
        <time>2016-06-25T13:23:47Z</time>
      </trkpt>
      <trkpt lat="44.04354" lon="6.92874">
        <ele>1688.1</ele>
        <time>2016-06-25T13:23:52Z</time>
      </trkpt>
      <trkpt lat="44.04349" lon="6.9286">
        <ele>1689.5</ele>
        <time>2016-06-25T13:23:58Z</time>
      </trkpt>
      <trkpt lat="44.04343" lon="6.9285">
        <ele>1691.1</ele>
        <time>2016-06-25T13:24:04Z</time>
      </trkpt>
      <trkpt lat="44.04333" lon="6.92851">
        <ele>1692.9</ele>
        <time>2016-06-25T13:24:11Z</time>
      </trkpt>
      <trkpt lat="44.04327" lon="6.9286">
        <ele>1693.3</ele>
        <time>2016-06-25T13:24:16Z</time>
      </trkpt>
      <trkpt lat="44.04324" lon="6.92872">
        <ele>1693.7</ele>
        <time>2016-06-25T13:24:21Z</time>
      </trkpt>
      <trkpt lat="44.04321" lon="6.92886">
        <ele>1695.3</ele>
        <time>2016-06-25T13:24:27Z</time>
      </trkpt>
      <trkpt lat="44.04314" lon="6.92878">
        <ele>1695.5</ele>
        <time>2016-06-25T13:31:39Z</time>
      </trkpt>
      <trkpt lat="44.04313" lon="6.92863">
        <ele>1694.7</ele>
        <time>2016-06-25T13:32:09Z</time>
      </trkpt>
      <trkpt lat="44.04311" lon="6.92849">
        <ele>1696</ele>
        <time>2016-06-25T13:32:16Z</time>
      </trkpt>
      <trkpt lat="44.04308" lon="6.92837">
        <ele>1697.9</ele>
        <time>2016-06-25T13:32:23Z</time>
      </trkpt>
      <trkpt lat="44.04306" lon="6.92824">
        <ele>1699.8</ele>
        <time>2016-06-25T13:32:31Z</time>
      </trkpt>
      <trkpt lat="44.04306" lon="6.9281">
        <ele>1701.6</ele>
        <time>2016-06-25T13:32:40Z</time>
      </trkpt>
      <trkpt lat="44.04307" lon="6.92796">
        <ele>1702.8</ele>
        <time>2016-06-25T13:32:49Z</time>
      </trkpt>
      <trkpt lat="44.04306" lon="6.92783">
        <ele>1703.9</ele>
        <time>2016-06-25T13:32:56Z</time>
      </trkpt>
      <trkpt lat="44.04303" lon="6.9277">
        <ele>1705.9</ele>
        <time>2016-06-25T13:33:04Z</time>
      </trkpt>
      <trkpt lat="44.04303" lon="6.92756">
        <ele>1707.5</ele>
        <time>2016-06-25T13:33:12Z</time>
      </trkpt>
      <trkpt lat="44.04303" lon="6.92743">
        <ele>1707.6</ele>
        <time>2016-06-25T13:33:20Z</time>
      </trkpt>
      <trkpt lat="44.04302" lon="6.9273">
        <ele>1709.3</ele>
        <time>2016-06-25T13:33:28Z</time>
      </trkpt>
      <trkpt lat="44.043" lon="6.92716">
        <ele>1711.1</ele>
        <time>2016-06-25T13:33:37Z</time>
      </trkpt>
      <trkpt lat="44.04295" lon="6.92705">
        <ele>1712.1</ele>
        <time>2016-06-25T13:33:45Z</time>
      </trkpt>
      <trkpt lat="44.04288" lon="6.92694">
        <ele>1713</ele>
        <time>2016-06-25T13:33:53Z</time>
      </trkpt>
      <trkpt lat="44.04282" lon="6.92683">
        <ele>1713.5</ele>
        <time>2016-06-25T13:34:01Z</time>
      </trkpt>
      <trkpt lat="44.04276" lon="6.92673">
        <ele>1716.5</ele>
        <time>2016-06-25T13:34:08Z</time>
      </trkpt>
      <trkpt lat="44.0427" lon="6.92663">
        <ele>1716.2</ele>
        <time>2016-06-25T13:34:15Z</time>
      </trkpt>
      <trkpt lat="44.04263" lon="6.92654">
        <ele>1717.6</ele>
        <time>2016-06-25T13:34:22Z</time>
      </trkpt>
      <trkpt lat="44.04257" lon="6.92643">
        <ele>1717.8</ele>
        <time>2016-06-25T13:34:30Z</time>
      </trkpt>
      <trkpt lat="44.0425" lon="6.92634">
        <ele>1716.4</ele>
        <time>2016-06-25T13:34:37Z</time>
      </trkpt>
      <trkpt lat="44.04242" lon="6.92625">
        <ele>1719.2</ele>
        <time>2016-06-25T13:34:44Z</time>
      </trkpt>
      <trkpt lat="44.04235" lon="6.92615">
        <ele>1720.1</ele>
        <time>2016-06-25T13:34:51Z</time>
      </trkpt>
      <trkpt lat="44.04231" lon="6.92604">
        <ele>1723.5</ele>
        <time>2016-06-25T13:35:29Z</time>
      </trkpt>
      <trkpt lat="44.04233" lon="6.92591">
        <ele>1721.9</ele>
        <time>2016-06-25T13:35:36Z</time>
      </trkpt>
      <trkpt lat="44.04242" lon="6.92584">
        <ele>1723.4</ele>
        <time>2016-06-25T13:35:43Z</time>
      </trkpt>
      <trkpt lat="44.04253" lon="6.92584">
        <ele>1723.7</ele>
        <time>2016-06-25T13:35:48Z</time>
      </trkpt>
      <trkpt lat="44.04262" lon="6.92585">
        <ele>1723.5</ele>
        <time>2016-06-25T13:35:51Z</time>
      </trkpt>
      <trkpt lat="44.04273" lon="6.92586">
        <ele>1722.6</ele>
        <time>2016-06-25T13:35:54Z</time>
      </trkpt>
      <trkpt lat="44.04284" lon="6.92586">
        <ele>1722.7</ele>
        <time>2016-06-25T13:35:57Z</time>
      </trkpt>
      <trkpt lat="44.04295" lon="6.92583">
        <ele>1721.7</ele>
        <time>2016-06-25T13:36:00Z</time>
      </trkpt>
      <trkpt lat="44.04303" lon="6.92574">
        <ele>1722.1</ele>
        <time>2016-06-25T13:36:04Z</time>
      </trkpt>
      <trkpt lat="44.04302" lon="6.92561">
        <ele>1722.7</ele>
        <time>2016-06-25T13:38:02Z</time>
      </trkpt>
      <trkpt lat="44.04305" lon="6.92548">
        <ele>1722.7</ele>
        <time>2016-06-25T13:38:13Z</time>
      </trkpt>
      <trkpt lat="44.0431" lon="6.92537">
        <ele>1723.6</ele>
        <time>2016-06-25T13:38:23Z</time>
      </trkpt>
      <trkpt lat="44.04301" lon="6.92542">
        <ele>1726.4</ele>
        <time>2016-06-25T13:38:40Z</time>
      </trkpt>
      <trkpt lat="44.04294" lon="6.9255">
        <ele>1728.5</ele>
        <time>2016-06-25T13:38:52Z</time>
      </trkpt>
      <trkpt lat="44.04285" lon="6.92548">
        <ele>1730</ele>
        <time>2016-06-25T13:39:27Z</time>
      </trkpt>
      <trkpt lat="44.04286" lon="6.92535">
        <ele>1730.7</ele>
        <time>2016-06-25T13:39:48Z</time>
      </trkpt>
      <trkpt lat="44.04289" lon="6.92523">
        <ele>1733.5</ele>
        <time>2016-06-25T13:40:02Z</time>
      </trkpt>
      <trkpt lat="44.04293" lon="6.92512">
        <ele>1736.8</ele>
        <time>2016-06-25T13:40:17Z</time>
      </trkpt>
      <trkpt lat="44.04296" lon="6.925">
        <ele>1739</ele>
        <time>2016-06-25T13:40:34Z</time>
      </trkpt>
      <trkpt lat="44.043" lon="6.92488">
        <ele>1741.9</ele>
        <time>2016-06-25T13:40:53Z</time>
      </trkpt>
      <trkpt lat="44.04302" lon="6.92475">
        <ele>1744.2</ele>
        <time>2016-06-25T13:41:38Z</time>
      </trkpt>
      <trkpt lat="44.04303" lon="6.92462">
        <ele>1748.3</ele>
        <time>2016-06-25T13:41:52Z</time>
      </trkpt>
      <trkpt lat="44.04306" lon="6.9245">
        <ele>1749.6</ele>
        <time>2016-06-25T13:42:06Z</time>
      </trkpt>
      <trkpt lat="44.04308" lon="6.92438">
        <ele>1751.5</ele>
        <time>2016-06-25T13:42:22Z</time>
      </trkpt>
      <trkpt lat="44.0431" lon="6.92425">
        <ele>1754</ele>
        <time>2016-06-25T13:42:40Z</time>
      </trkpt>
      <trkpt lat="44.04311" lon="6.92412">
        <ele>1756.4</ele>
        <time>2016-06-25T13:42:57Z</time>
      </trkpt>
      <trkpt lat="44.04309" lon="6.92399">
        <ele>1757.8</ele>
        <time>2016-06-25T13:43:10Z</time>
      </trkpt>
      <trkpt lat="44.04308" lon="6.92386">
        <ele>1756.8</ele>
        <time>2016-06-25T13:43:22Z</time>
      </trkpt>
      <trkpt lat="44.04314" lon="6.92376">
        <ele>1757.4</ele>
        <time>2016-06-25T13:43:50Z</time>
      </trkpt>
      <trkpt lat="44.0432" lon="6.92366">
        <ele>1761.8</ele>
        <time>2016-06-25T13:44:15Z</time>
      </trkpt>
      <trkpt lat="44.04315" lon="6.92354">
        <ele>1763.4</ele>
        <time>2016-06-25T13:44:31Z</time>
      </trkpt>
      <trkpt lat="44.04315" lon="6.92341">
        <ele>1767.2</ele>
        <time>2016-06-25T13:44:47Z</time>
      </trkpt>
      <trkpt lat="44.04318" lon="6.92329">
        <ele>1769.1</ele>
        <time>2016-06-25T13:45:03Z</time>
      </trkpt>
      <trkpt lat="44.04322" lon="6.92317">
        <ele>1771.6</ele>
        <time>2016-06-25T13:45:20Z</time>
      </trkpt>
      <trkpt lat="44.04325" lon="6.92306">
        <ele>1774.2</ele>
        <time>2016-06-25T13:45:53Z</time>
      </trkpt>
      <trkpt lat="44.04331" lon="6.92296">
        <ele>1780.5</ele>
        <time>2016-06-25T13:46:48Z</time>
      </trkpt>
      <trkpt lat="44.0434" lon="6.92293">
        <ele>1782.2</ele>
        <time>2016-06-25T13:47:32Z</time>
      </trkpt>
      <trkpt lat="44.04349" lon="6.92289">
        <ele>1782.7</ele>
        <time>2016-06-25T13:47:47Z</time>
      </trkpt>
      <trkpt lat="44.04351" lon="6.92277">
        <ele>1786.6</ele>
        <time>2016-06-25T13:50:16Z</time>
      </trkpt>
      <trkpt lat="44.04349" lon="6.92264">
        <ele>1790</ele>
        <time>2016-06-25T13:50:44Z</time>
      </trkpt>
      <trkpt lat="44.0434" lon="6.92264">
        <ele>1795.2</ele>
        <time>2016-06-25T13:51:27Z</time>
      </trkpt>
      <trkpt lat="44.04333" lon="6.92256">
        <ele>1801.3</ele>
        <time>2016-06-25T13:52:15Z</time>
      </trkpt>
      <trkpt lat="44.04324" lon="6.92252">
        <ele>1806.4</ele>
        <time>2016-06-25T13:52:48Z</time>
      </trkpt>
      <trkpt lat="44.04315" lon="6.92257">
        <ele>1809.2</ele>
        <time>2016-06-25T13:53:04Z</time>
      </trkpt>
      <trkpt lat="44.04307" lon="6.92254">
        <ele>1811.9</ele>
        <time>2016-06-25T13:53:19Z</time>
      </trkpt>
      <trkpt lat="44.04307" lon="6.92242">
        <ele>1813</ele>
        <time>2016-06-25T13:53:31Z</time>
      </trkpt>
      <trkpt lat="44.04298" lon="6.9224">
        <ele>1816.1</ele>
        <time>2016-06-25T13:53:59Z</time>
      </trkpt>
      <trkpt lat="44.04289" lon="6.92243">
        <ele>1817.2</ele>
        <time>2016-06-25T13:54:14Z</time>
      </trkpt>
      <trkpt lat="44.04286" lon="6.92231">
        <ele>1819.7</ele>
        <time>2016-06-25T13:55:24Z</time>
      </trkpt>
      <trkpt lat="44.04286" lon="6.92218">
        <ele>1822.9</ele>
        <time>2016-06-25T13:55:48Z</time>
      </trkpt>
      <trkpt lat="44.04289" lon="6.92205">
        <ele>1824.7</ele>
        <time>2016-06-25T13:56:05Z</time>
      </trkpt>
      <trkpt lat="44.04294" lon="6.92195">
        <ele>1827.1</ele>
        <time>2016-06-25T13:56:20Z</time>
      </trkpt>
      <trkpt lat="44.04299" lon="6.92184">
        <ele>1827.8</ele>
        <time>2016-06-25T13:56:33Z</time>
      </trkpt>
      <trkpt lat="44.04304" lon="6.92174">
        <ele>1830.1</ele>
        <time>2016-06-25T13:56:52Z</time>
      </trkpt>
      <trkpt lat="44.04312" lon="6.92167">
        <ele>1831.6</ele>
        <time>2016-06-25T13:57:06Z</time>
      </trkpt>
      <trkpt lat="44.04317" lon="6.92156">
        <ele>1832.4</ele>
        <time>2016-06-25T13:57:20Z</time>
      </trkpt>
      <trkpt lat="44.04322" lon="6.92145">
        <ele>1834</ele>
        <time>2016-06-25T13:57:33Z</time>
      </trkpt>
      <trkpt lat="44.04324" lon="6.92133">
        <ele>1834.2</ele>
        <time>2016-06-25T13:57:45Z</time>
      </trkpt>
      <trkpt lat="44.04324" lon="6.9212">
        <ele>1836.8</ele>
        <time>2016-06-25T13:58:04Z</time>
      </trkpt>
      <trkpt lat="44.04325" lon="6.92107">
        <ele>1836.7</ele>
        <time>2016-06-25T13:58:46Z</time>
      </trkpt>
      <trkpt lat="44.04333" lon="6.92102">
        <ele>1838.3</ele>
        <time>2016-06-25T13:59:00Z</time>
      </trkpt>
      <trkpt lat="44.04342" lon="6.92099">
        <ele>1840.7</ele>
        <time>2016-06-25T13:59:11Z</time>
      </trkpt>
      <trkpt lat="44.0435" lon="6.92094">
        <ele>1842.8</ele>
        <time>2016-06-25T13:59:24Z</time>
      </trkpt>
      <trkpt lat="44.04359" lon="6.92091">
        <ele>1844.4</ele>
        <time>2016-06-25T13:59:36Z</time>
      </trkpt>
      <trkpt lat="44.04367" lon="6.92085">
        <ele>1846.5</ele>
        <time>2016-06-25T13:59:49Z</time>
      </trkpt>
      <trkpt lat="44.04374" lon="6.92076">
        <ele>1847.9</ele>
        <time>2016-06-25T14:00:02Z</time>
      </trkpt>
      <trkpt lat="44.0438" lon="6.92065">
        <ele>1849.2</ele>
        <time>2016-06-25T14:00:16Z</time>
      </trkpt>
      <trkpt lat="44.04386" lon="6.92055">
        <ele>1851</ele>
        <time>2016-06-25T14:00:30Z</time>
      </trkpt>
      <trkpt lat="44.0439" lon="6.92043">
        <ele>1853.1</ele>
        <time>2016-06-25T14:00:45Z</time>
      </trkpt>
      <trkpt lat="44.04393" lon="6.92031">
        <ele>1855.2</ele>
        <time>2016-06-25T14:01:00Z</time>
      </trkpt>
      <trkpt lat="44.04394" lon="6.92018">
        <ele>1857.9</ele>
        <time>2016-06-25T14:01:30Z</time>
      </trkpt>
      <trkpt lat="44.04385" lon="6.92022">
        <ele>1861.9</ele>
        <time>2016-06-25T14:13:00Z</time>
      </trkpt>
      <trkpt lat="44.04376" lon="6.9202">
        <ele>1865</ele>
        <time>2016-06-25T14:13:12Z</time>
      </trkpt>
      <trkpt lat="44.04367" lon="6.92017">
        <ele>1866.1</ele>
        <time>2016-06-25T14:13:23Z</time>
      </trkpt>
      <trkpt lat="44.0436" lon="6.92008">
        <ele>1867.7</ele>
        <time>2016-06-25T14:13:35Z</time>
      </trkpt>
      <trkpt lat="44.04351" lon="6.92008">
        <ele>1869.5</ele>
        <time>2016-06-25T14:13:47Z</time>
      </trkpt>
      <trkpt lat="44.04343" lon="6.92014">
        <ele>1870.1</ele>
        <time>2016-06-25T14:14:00Z</time>
      </trkpt>
      <trkpt lat="44.04333" lon="6.92014">
        <ele>1872.5</ele>
        <time>2016-06-25T14:14:13Z</time>
      </trkpt>
      <trkpt lat="44.04324" lon="6.92014">
        <ele>1874.2</ele>
        <time>2016-06-25T14:14:26Z</time>
      </trkpt>
      <trkpt lat="44.04314" lon="6.92016">
        <ele>1877.4</ele>
        <time>2016-06-25T14:14:45Z</time>
      </trkpt>
      <trkpt lat="44.04305" lon="6.92015">
        <ele>1877.7</ele>
        <time>2016-06-25T14:14:57Z</time>
      </trkpt>
      <trkpt lat="44.04296" lon="6.9202">
        <ele>1880.9</ele>
        <time>2016-06-25T14:15:11Z</time>
      </trkpt>
      <trkpt lat="44.04286" lon="6.9202">
        <ele>1882</ele>
        <time>2016-06-25T14:15:23Z</time>
      </trkpt>
      <trkpt lat="44.04277" lon="6.92023">
        <ele>1883.3</ele>
        <time>2016-06-25T14:15:35Z</time>
      </trkpt>
      <trkpt lat="44.04268" lon="6.92028">
        <ele>1885.2</ele>
        <time>2016-06-25T14:15:49Z</time>
      </trkpt>
      <trkpt lat="44.04259" lon="6.92031">
        <ele>1888.4</ele>
        <time>2016-06-25T14:16:03Z</time>
      </trkpt>
      <trkpt lat="44.0425" lon="6.92034">
        <ele>1891.1</ele>
        <time>2016-06-25T14:16:17Z</time>
      </trkpt>
      <trkpt lat="44.04241" lon="6.9204">
        <ele>1892.7</ele>
        <time>2016-06-25T14:16:30Z</time>
      </trkpt>
      <trkpt lat="44.04233" lon="6.92045">
        <ele>1893.4</ele>
        <time>2016-06-25T14:16:42Z</time>
      </trkpt>
      <trkpt lat="44.04224" lon="6.9205">
        <ele>1895.4</ele>
        <time>2016-06-25T14:16:53Z</time>
      </trkpt>
      <trkpt lat="44.04215" lon="6.92053">
        <ele>1896.9</ele>
        <time>2016-06-25T14:17:07Z</time>
      </trkpt>
      <trkpt lat="44.04206" lon="6.92055">
        <ele>1900</ele>
        <time>2016-06-25T14:17:21Z</time>
      </trkpt>
      <trkpt lat="44.04197" lon="6.92056">
        <ele>1901.3</ele>
        <time>2016-06-25T14:17:35Z</time>
      </trkpt>
      <trkpt lat="44.04188" lon="6.92059">
        <ele>1903</ele>
        <time>2016-06-25T14:17:49Z</time>
      </trkpt>
      <trkpt lat="44.04179" lon="6.92053">
        <ele>1903.4</ele>
        <time>2016-06-25T14:18:00Z</time>
      </trkpt>
      <trkpt lat="44.04171" lon="6.92056">
        <ele>1902.5</ele>
        <time>2016-06-25T14:18:14Z</time>
      </trkpt>
      <trkpt lat="44.04161" lon="6.92057">
        <ele>1903.9</ele>
        <time>2016-06-25T14:18:36Z</time>
      </trkpt>
      <trkpt lat="44.04153" lon="6.92064">
        <ele>1902.7</ele>
        <time>2016-06-25T14:18:42Z</time>
      </trkpt>
      <trkpt lat="44.04145" lon="6.92068">
        <ele>1902.6</ele>
        <time>2016-06-25T14:18:50Z</time>
      </trkpt>
      <trkpt lat="44.04136" lon="6.92075">
        <ele>1903.6</ele>
        <time>2016-06-25T14:18:56Z</time>
      </trkpt>
      <trkpt lat="44.04128" lon="6.92082">
        <ele>1903.2</ele>
        <time>2016-06-25T14:19:01Z</time>
      </trkpt>
      <trkpt lat="44.0412" lon="6.9209">
        <ele>1903.1</ele>
        <time>2016-06-25T14:19:06Z</time>
      </trkpt>
      <trkpt lat="44.04114" lon="6.92099">
        <ele>1904.9</ele>
        <time>2016-06-25T14:19:12Z</time>
      </trkpt>
      <trkpt lat="44.04105" lon="6.921">
        <ele>1907</ele>
        <time>2016-06-25T14:19:20Z</time>
      </trkpt>
      <trkpt lat="44.04095" lon="6.92103">
        <ele>1910.5</ele>
        <time>2016-06-25T14:19:34Z</time>
      </trkpt>
      <trkpt lat="44.04086" lon="6.92107">
        <ele>1910.5</ele>
        <time>2016-06-25T14:19:54Z</time>
      </trkpt>
      <trkpt lat="44.04078" lon="6.92111">
        <ele>1911.3</ele>
        <time>2016-06-25T14:20:01Z</time>
      </trkpt>
      <trkpt lat="44.04069" lon="6.92114">
        <ele>1912</ele>
        <time>2016-06-25T14:20:07Z</time>
      </trkpt>
      <trkpt lat="44.04059" lon="6.92117">
        <ele>1912.6</ele>
        <time>2016-06-25T14:20:13Z</time>
      </trkpt>
      <trkpt lat="44.0405" lon="6.92122">
        <ele>1913.2</ele>
        <time>2016-06-25T14:20:19Z</time>
      </trkpt>
      <trkpt lat="44.0404" lon="6.92126">
        <ele>1914.3</ele>
        <time>2016-06-25T14:20:26Z</time>
      </trkpt>
      <trkpt lat="44.04032" lon="6.9213">
        <ele>1915.9</ele>
        <time>2016-06-25T14:20:32Z</time>
      </trkpt>
      <trkpt lat="44.04022" lon="6.92132">
        <ele>1918.3</ele>
        <time>2016-06-25T14:20:39Z</time>
      </trkpt>
      <trkpt lat="44.04013" lon="6.92134">
        <ele>1919.3</ele>
        <time>2016-06-25T14:20:46Z</time>
      </trkpt>
      <trkpt lat="44.04004" lon="6.92135">
        <ele>1918.8</ele>
        <time>2016-06-25T14:20:53Z</time>
      </trkpt>
      <trkpt lat="44.03995" lon="6.92136">
        <ele>1920.6</ele>
        <time>2016-06-25T14:21:00Z</time>
      </trkpt>
      <trkpt lat="44.03985" lon="6.92139">
        <ele>1921.2</ele>
        <time>2016-06-25T14:21:08Z</time>
      </trkpt>
      <trkpt lat="44.03976" lon="6.9214">
        <ele>1922.2</ele>
        <time>2016-06-25T14:21:17Z</time>
      </trkpt>
      <trkpt lat="44.03967" lon="6.92144">
        <ele>1921.4</ele>
        <time>2016-06-25T14:21:27Z</time>
      </trkpt>
      <trkpt lat="44.03958" lon="6.92146">
        <ele>1923</ele>
        <time>2016-06-25T14:21:44Z</time>
      </trkpt>
      <trkpt lat="44.03948" lon="6.92149">
        <ele>1924.6</ele>
        <time>2016-06-25T14:21:53Z</time>
      </trkpt>
      <trkpt lat="44.0394" lon="6.92155">
        <ele>1924.9</ele>
        <time>2016-06-25T14:21:59Z</time>
      </trkpt>
      <trkpt lat="44.03931" lon="6.92159">
        <ele>1925.1</ele>
        <time>2016-06-25T14:22:05Z</time>
      </trkpt>
      <trkpt lat="44.03921" lon="6.92162">
        <ele>1925.9</ele>
        <time>2016-06-25T14:22:11Z</time>
      </trkpt>
      <trkpt lat="44.03911" lon="6.92165">
        <ele>1926.1</ele>
        <time>2016-06-25T14:22:17Z</time>
      </trkpt>
      <trkpt lat="44.03901" lon="6.92169">
        <ele>1927.3</ele>
        <time>2016-06-25T14:22:23Z</time>
      </trkpt>
      <trkpt lat="44.03892" lon="6.92171">
        <ele>1927.6</ele>
        <time>2016-06-25T14:22:28Z</time>
      </trkpt>
      <trkpt lat="44.03882" lon="6.92174">
        <ele>1927.6</ele>
        <time>2016-06-25T14:22:34Z</time>
      </trkpt>
      <trkpt lat="44.03872" lon="6.92174">
        <ele>1927.8</ele>
        <time>2016-06-25T14:22:40Z</time>
      </trkpt>
      <trkpt lat="44.03862" lon="6.92175">
        <ele>1929.1</ele>
        <time>2016-06-25T14:23:04Z</time>
      </trkpt>
      <trkpt lat="44.0385" lon="6.92176">
        <ele>1928.1</ele>
        <time>2016-06-25T14:23:16Z</time>
      </trkpt>
      <trkpt lat="44.0384" lon="6.92173">
        <ele>1928.1</ele>
        <time>2016-06-25T14:23:19Z</time>
      </trkpt>
      <trkpt lat="44.03828" lon="6.92174">
        <ele>1928.2</ele>
        <time>2016-06-25T14:23:22Z</time>
      </trkpt>
      <trkpt lat="44.03815" lon="6.92177">
        <ele>1926.6</ele>
        <time>2016-06-25T14:23:25Z</time>
      </trkpt>
      <trkpt lat="44.03805" lon="6.92182">
        <ele>1925.8</ele>
        <time>2016-06-25T14:23:27Z</time>
      </trkpt>
      <trkpt lat="44.03794" lon="6.92188">
        <ele>1925.5</ele>
        <time>2016-06-25T14:23:29Z</time>
      </trkpt>
      <trkpt lat="44.03784" lon="6.92193">
        <ele>1925.5</ele>
        <time>2016-06-25T14:23:31Z</time>
      </trkpt>
      <trkpt lat="44.03775" lon="6.92198">
        <ele>1924.2</ele>
        <time>2016-06-25T14:23:33Z</time>
      </trkpt>
      <trkpt lat="44.03765" lon="6.92198">
        <ele>1924.3</ele>
        <time>2016-06-25T14:23:36Z</time>
      </trkpt>
      <trkpt lat="44.03755" lon="6.92203">
        <ele>1924.5</ele>
        <time>2016-06-25T14:23:40Z</time>
      </trkpt>
      <trkpt lat="44.03747" lon="6.92212">
        <ele>1924.4</ele>
        <time>2016-06-25T14:23:43Z</time>
      </trkpt>
      <trkpt lat="44.03741" lon="6.92223">
        <ele>1924.2</ele>
        <time>2016-06-25T14:23:46Z</time>
      </trkpt>
      <trkpt lat="44.03733" lon="6.92234">
        <ele>1925</ele>
        <time>2016-06-25T14:23:49Z</time>
      </trkpt>
      <trkpt lat="44.03727" lon="6.92244">
        <ele>1925.2</ele>
        <time>2016-06-25T14:23:52Z</time>
      </trkpt>
      <trkpt lat="44.0372" lon="6.92255">
        <ele>1925.9</ele>
        <time>2016-06-25T14:23:56Z</time>
      </trkpt>
      <trkpt lat="44.03712" lon="6.92266">
        <ele>1927.2</ele>
        <time>2016-06-25T14:24:00Z</time>
      </trkpt>
      <trkpt lat="44.03706" lon="6.92278">
        <ele>1927.5</ele>
        <time>2016-06-25T14:24:04Z</time>
      </trkpt>
      <trkpt lat="44.03699" lon="6.92289">
        <ele>1927</ele>
        <time>2016-06-25T14:24:08Z</time>
      </trkpt>
      <trkpt lat="44.03692" lon="6.923">
        <ele>1928</ele>
        <time>2016-06-25T14:24:12Z</time>
      </trkpt>
      <trkpt lat="44.03685" lon="6.9231">
        <ele>1929</ele>
        <time>2016-06-25T14:24:16Z</time>
      </trkpt>
      <trkpt lat="44.0368" lon="6.9232">
        <ele>1928.9</ele>
        <time>2016-06-25T14:24:20Z</time>
      </trkpt>
      <trkpt lat="44.03674" lon="6.9233">
        <ele>1929.3</ele>
        <time>2016-06-25T14:24:24Z</time>
      </trkpt>
      <trkpt lat="44.03667" lon="6.92339">
        <ele>1929.6</ele>
        <time>2016-06-25T14:24:28Z</time>
      </trkpt>
      <trkpt lat="44.03661" lon="6.92349">
        <ele>1931.5</ele>
        <time>2016-06-25T14:24:32Z</time>
      </trkpt>
      <trkpt lat="44.03654" lon="6.92358">
        <ele>1931.7</ele>
        <time>2016-06-25T14:24:36Z</time>
      </trkpt>
      <trkpt lat="44.03646" lon="6.92365">
        <ele>1931.1</ele>
        <time>2016-06-25T14:24:42Z</time>
      </trkpt>
      <trkpt lat="44.03636" lon="6.92368">
        <ele>1933.5</ele>
        <time>2016-06-25T14:25:10Z</time>
      </trkpt>
      <trkpt lat="44.03627" lon="6.92368">
        <ele>1933</ele>
        <time>2016-06-25T14:25:14Z</time>
      </trkpt>
      <trkpt lat="44.03617" lon="6.92371">
        <ele>1932.7</ele>
        <time>2016-06-25T14:25:17Z</time>
      </trkpt>
      <trkpt lat="44.03607" lon="6.92372">
        <ele>1932</ele>
        <time>2016-06-25T14:25:20Z</time>
      </trkpt>
      <trkpt lat="44.03597" lon="6.92369">
        <ele>1933.5</ele>
        <time>2016-06-25T14:25:25Z</time>
      </trkpt>
      <trkpt lat="44.03585" lon="6.92368">
        <ele>1933.7</ele>
        <time>2016-06-25T14:25:30Z</time>
      </trkpt>
      <trkpt lat="44.03574" lon="6.92369">
        <ele>1934.3</ele>
        <time>2016-06-25T14:25:35Z</time>
      </trkpt>
      <trkpt lat="44.03565" lon="6.9237">
        <ele>1934.2</ele>
        <time>2016-06-25T14:25:39Z</time>
      </trkpt>
      <trkpt lat="44.03556" lon="6.92373">
        <ele>1934.8</ele>
        <time>2016-06-25T14:25:43Z</time>
      </trkpt>
      <trkpt lat="44.03546" lon="6.92373">
        <ele>1936</ele>
        <time>2016-06-25T14:25:47Z</time>
      </trkpt>
      <trkpt lat="44.03535" lon="6.92375">
        <ele>1936</ele>
        <time>2016-06-25T14:25:52Z</time>
      </trkpt>
      <trkpt lat="44.03528" lon="6.92384">
        <ele>1936.1</ele>
        <time>2016-06-25T14:25:57Z</time>
      </trkpt>
      <trkpt lat="44.0352" lon="6.92392">
        <ele>1937.8</ele>
        <time>2016-06-25T14:26:02Z</time>
      </trkpt>
      <trkpt lat="44.03511" lon="6.92399">
        <ele>1938.5</ele>
        <time>2016-06-25T14:26:08Z</time>
      </trkpt>
      <trkpt lat="44.03503" lon="6.92406">
        <ele>1939.9</ele>
        <time>2016-06-25T14:26:14Z</time>
      </trkpt>
      <trkpt lat="44.03495" lon="6.92411">
        <ele>1938.7</ele>
        <time>2016-06-25T14:26:20Z</time>
      </trkpt>
      <trkpt lat="44.03486" lon="6.92417">
        <ele>1941</ele>
        <time>2016-06-25T14:26:26Z</time>
      </trkpt>
      <trkpt lat="44.03477" lon="6.92424">
        <ele>1943.2</ele>
        <time>2016-06-25T14:26:32Z</time>
      </trkpt>
      <trkpt lat="44.0347" lon="6.92431">
        <ele>1943</ele>
        <time>2016-06-25T14:26:38Z</time>
      </trkpt>
      <trkpt lat="44.03462" lon="6.92439">
        <ele>1942.4</ele>
        <time>2016-06-25T14:26:44Z</time>
      </trkpt>
      <trkpt lat="44.03454" lon="6.92447">
        <ele>1944.2</ele>
        <time>2016-06-25T14:26:51Z</time>
      </trkpt>
      <trkpt lat="44.03445" lon="6.92453">
        <ele>1945</ele>
        <time>2016-06-25T14:26:58Z</time>
      </trkpt>
      <trkpt lat="44.03436" lon="6.92459">
        <ele>1947.4</ele>
        <time>2016-06-25T14:27:06Z</time>
      </trkpt>
      <trkpt lat="44.03428" lon="6.92463">
        <ele>1948.4</ele>
        <time>2016-06-25T14:27:13Z</time>
      </trkpt>
      <trkpt lat="44.03418" lon="6.92468">
        <ele>1948.9</ele>
        <time>2016-06-25T14:27:20Z</time>
      </trkpt>
      <trkpt lat="44.03409" lon="6.92472">
        <ele>1950.4</ele>
        <time>2016-06-25T14:27:27Z</time>
      </trkpt>
      <trkpt lat="44.034" lon="6.92477">
        <ele>1951.4</ele>
        <time>2016-06-25T14:27:35Z</time>
      </trkpt>
      <trkpt lat="44.03391" lon="6.92482">
        <ele>1953.8</ele>
        <time>2016-06-25T14:27:43Z</time>
      </trkpt>
      <trkpt lat="44.03382" lon="6.92486">
        <ele>1954.7</ele>
        <time>2016-06-25T14:27:51Z</time>
      </trkpt>
      <trkpt lat="44.03373" lon="6.92492">
        <ele>1955.4</ele>
        <time>2016-06-25T14:27:59Z</time>
      </trkpt>
      <trkpt lat="44.03364" lon="6.92498">
        <ele>1957.2</ele>
        <time>2016-06-25T14:28:07Z</time>
      </trkpt>
      <trkpt lat="44.03354" lon="6.925">
        <ele>1958.2</ele>
        <time>2016-06-25T14:28:15Z</time>
      </trkpt>
      <trkpt lat="44.03344" lon="6.92499">
        <ele>1960.7</ele>
        <time>2016-06-25T14:28:24Z</time>
      </trkpt>
      <trkpt lat="44.03335" lon="6.92498">
        <ele>1961.6</ele>
        <time>2016-06-25T14:28:32Z</time>
      </trkpt>
      <trkpt lat="44.03326" lon="6.92494">
        <ele>1963.3</ele>
        <time>2016-06-25T14:28:42Z</time>
      </trkpt>
      <trkpt lat="44.03336" lon="6.92492">
        <ele>1965.7</ele>
        <time>2016-06-25T14:30:07Z</time>
      </trkpt>
      <trkpt lat="44.03344" lon="6.92487">
        <ele>1966.1</ele>
        <time>2016-06-25T14:30:22Z</time>
      </trkpt>
      <trkpt lat="44.03337" lon="6.92498">
        <ele>1964.4</ele>
        <time>2016-06-25T14:31:17Z</time>
      </trkpt>
      <trkpt lat="44.0333" lon="6.92506">
        <ele>1966.4</ele>
        <time>2016-06-25T14:31:21Z</time>
      </trkpt>
      <trkpt lat="44.0332" lon="6.92512">
        <ele>1965.7</ele>
        <time>2016-06-25T14:31:26Z</time>
      </trkpt>
      <trkpt lat="44.03317" lon="6.925">
        <ele>1965.5</ele>
        <time>2016-06-25T14:32:32Z</time>
      </trkpt>
      <trkpt lat="44.03315" lon="6.92487">
        <ele>1966.6</ele>
        <time>2016-06-25T14:45:18Z</time>
      </trkpt>
      <trkpt lat="44.03311" lon="6.92471">
        <ele>1962.3</ele>
        <time>2016-06-25T14:45:26Z</time>
      </trkpt>
      <trkpt lat="44.03309" lon="6.92455">
        <ele>1961.1</ele>
        <time>2016-06-25T14:45:29Z</time>
      </trkpt>
      <trkpt lat="44.03309" lon="6.92439">
        <ele>1959.3</ele>
        <time>2016-06-25T14:45:33Z</time>
      </trkpt>
      <trkpt lat="44.03308" lon="6.92426">
        <ele>1957.1</ele>
        <time>2016-06-25T14:45:36Z</time>
      </trkpt>
      <trkpt lat="44.03308" lon="6.92413">
        <ele>1955.6</ele>
        <time>2016-06-25T14:45:39Z</time>
      </trkpt>
      <trkpt lat="44.033" lon="6.92403">
        <ele>1953.6</ele>
        <time>2016-06-25T14:45:42Z</time>
      </trkpt>
      <trkpt lat="44.0329" lon="6.92396">
        <ele>1952.3</ele>
        <time>2016-06-25T14:45:44Z</time>
      </trkpt>
      <trkpt lat="44.03281" lon="6.92389">
        <ele>1951.7</ele>
        <time>2016-06-25T14:45:46Z</time>
      </trkpt>
      <trkpt lat="44.03274" lon="6.9238">
        <ele>1951.4</ele>
        <time>2016-06-25T14:45:48Z</time>
      </trkpt>
      <trkpt lat="44.03264" lon="6.92368">
        <ele>1951.4</ele>
        <time>2016-06-25T14:45:51Z</time>
      </trkpt>
      <trkpt lat="44.03258" lon="6.92359">
        <ele>1951.7</ele>
        <time>2016-06-25T14:45:54Z</time>
      </trkpt>
      <trkpt lat="44.03248" lon="6.92363">
        <ele>1947.8</ele>
        <time>2016-06-25T14:46:12Z</time>
      </trkpt>
      <trkpt lat="44.0324" lon="6.92354">
        <ele>1945.6</ele>
        <time>2016-06-25T14:46:15Z</time>
      </trkpt>
      <trkpt lat="44.03233" lon="6.92341">
        <ele>1944.3</ele>
        <time>2016-06-25T14:46:18Z</time>
      </trkpt>
      <trkpt lat="44.03227" lon="6.92328">
        <ele>1943</ele>
        <time>2016-06-25T14:46:21Z</time>
      </trkpt>
      <trkpt lat="44.03219" lon="6.92314">
        <ele>1941.4</ele>
        <time>2016-06-25T14:46:24Z</time>
      </trkpt>
      <trkpt lat="44.0321" lon="6.92302">
        <ele>1940.3</ele>
        <time>2016-06-25T14:46:27Z</time>
      </trkpt>
      <trkpt lat="44.03202" lon="6.92293">
        <ele>1940.2</ele>
        <time>2016-06-25T14:46:29Z</time>
      </trkpt>
      <trkpt lat="44.03191" lon="6.92284">
        <ele>1939.3</ele>
        <time>2016-06-25T14:46:32Z</time>
      </trkpt>
      <trkpt lat="44.03183" lon="6.92279">
        <ele>1939</ele>
        <time>2016-06-25T14:46:39Z</time>
      </trkpt>
      <trkpt lat="44.03174" lon="6.92269">
        <ele>1939.5</ele>
        <time>2016-06-25T14:46:45Z</time>
      </trkpt>
      <trkpt lat="44.03169" lon="6.92258">
        <ele>1938.9</ele>
        <time>2016-06-25T14:46:48Z</time>
      </trkpt>
      <trkpt lat="44.03164" lon="6.92244">
        <ele>1938.8</ele>
        <time>2016-06-25T14:46:51Z</time>
      </trkpt>
      <trkpt lat="44.03159" lon="6.9223">
        <ele>1938.4</ele>
        <time>2016-06-25T14:46:54Z</time>
      </trkpt>
      <trkpt lat="44.03155" lon="6.92217">
        <ele>1938.5</ele>
        <time>2016-06-25T14:46:57Z</time>
      </trkpt>
      <trkpt lat="44.03151" lon="6.92204">
        <ele>1937.5</ele>
        <time>2016-06-25T14:47:00Z</time>
      </trkpt>
      <trkpt lat="44.0315" lon="6.92191">
        <ele>1937.2</ele>
        <time>2016-06-25T14:47:03Z</time>
      </trkpt>
      <trkpt lat="44.03152" lon="6.92178">
        <ele>1935.6</ele>
        <time>2016-06-25T14:47:06Z</time>
      </trkpt>
      <trkpt lat="44.0316" lon="6.92164">
        <ele>1934.3</ele>
        <time>2016-06-25T14:47:09Z</time>
      </trkpt>
      <trkpt lat="44.03167" lon="6.92154">
        <ele>1933.8</ele>
        <time>2016-06-25T14:47:11Z</time>
      </trkpt>
      <trkpt lat="44.03175" lon="6.92146">
        <ele>1931.9</ele>
        <time>2016-06-25T14:47:14Z</time>
      </trkpt>
      <trkpt lat="44.03181" lon="6.92136">
        <ele>1930.5</ele>
        <time>2016-06-25T14:47:17Z</time>
      </trkpt>
      <trkpt lat="44.03189" lon="6.92123">
        <ele>1925.3</ele>
        <time>2016-06-25T14:47:21Z</time>
      </trkpt>
      <trkpt lat="44.03192" lon="6.92111">
        <ele>1918.8</ele>
        <time>2016-06-25T14:47:27Z</time>
      </trkpt>
      <trkpt lat="44.03197" lon="6.921">
        <ele>1915.1</ele>
        <time>2016-06-25T14:47:36Z</time>
      </trkpt>
      <trkpt lat="44.03202" lon="6.92087">
        <ele>1913.1</ele>
        <time>2016-06-25T14:47:42Z</time>
      </trkpt>
      <trkpt lat="44.03201" lon="6.92075">
        <ele>1909.6</ele>
        <time>2016-06-25T14:47:48Z</time>
      </trkpt>
      <trkpt lat="44.03199" lon="6.9206">
        <ele>1907.9</ele>
        <time>2016-06-25T14:47:51Z</time>
      </trkpt>
      <trkpt lat="44.03197" lon="6.92046">
        <ele>1905.8</ele>
        <time>2016-06-25T14:47:54Z</time>
      </trkpt>
      <trkpt lat="44.03197" lon="6.92032">
        <ele>1904.6</ele>
        <time>2016-06-25T14:47:58Z</time>
      </trkpt>
      <trkpt lat="44.03198" lon="6.9202">
        <ele>1903.9</ele>
        <time>2016-06-25T14:48:03Z</time>
      </trkpt>
      <trkpt lat="44.03201" lon="6.92006">
        <ele>1904.2</ele>
        <time>2016-06-25T14:48:07Z</time>
      </trkpt>
      <trkpt lat="44.03203" lon="6.91989">
        <ele>1902.9</ele>
        <time>2016-06-25T14:48:11Z</time>
      </trkpt>
      <trkpt lat="44.03202" lon="6.91976">
        <ele>1901.8</ele>
        <time>2016-06-25T14:48:15Z</time>
      </trkpt>
      <trkpt lat="44.03205" lon="6.91962">
        <ele>1900</ele>
        <time>2016-06-25T14:48:19Z</time>
      </trkpt>
      <trkpt lat="44.03208" lon="6.9195">
        <ele>1895.9</ele>
        <time>2016-06-25T14:50:25Z</time>
      </trkpt>
      <trkpt lat="44.03216" lon="6.91943">
        <ele>1897</ele>
        <time>2016-06-25T14:52:22Z</time>
      </trkpt>
      <trkpt lat="44.03223" lon="6.9193">
        <ele>1894.9</ele>
        <time>2016-06-25T14:52:26Z</time>
      </trkpt>
      <trkpt lat="44.03229" lon="6.91919">
        <ele>1892.1</ele>
        <time>2016-06-25T14:52:29Z</time>
      </trkpt>
      <trkpt lat="44.03232" lon="6.91905">
        <ele>1890.3</ele>
        <time>2016-06-25T14:52:32Z</time>
      </trkpt>
      <trkpt lat="44.0323" lon="6.91893">
        <ele>1887.4</ele>
        <time>2016-06-25T14:52:35Z</time>
      </trkpt>
      <trkpt lat="44.03231" lon="6.91878">
        <ele>1885.4</ele>
        <time>2016-06-25T14:52:39Z</time>
      </trkpt>
      <trkpt lat="44.03233" lon="6.91865">
        <ele>1883.2</ele>
        <time>2016-06-25T14:52:42Z</time>
      </trkpt>
      <trkpt lat="44.03233" lon="6.91853">
        <ele>1880.7</ele>
        <time>2016-06-25T14:52:45Z</time>
      </trkpt>
      <trkpt lat="44.03228" lon="6.9184">
        <ele>1879.9</ele>
        <time>2016-06-25T14:52:49Z</time>
      </trkpt>
      <trkpt lat="44.03221" lon="6.91829">
        <ele>1878.6</ele>
        <time>2016-06-25T14:52:53Z</time>
      </trkpt>
      <trkpt lat="44.03216" lon="6.91819">
        <ele>1876.6</ele>
        <time>2016-06-25T14:53:01Z</time>
      </trkpt>
      <trkpt lat="44.03208" lon="6.91812">
        <ele>1876.5</ele>
        <time>2016-06-25T14:53:08Z</time>
      </trkpt>
      <trkpt lat="44.03203" lon="6.91801">
        <ele>1876.1</ele>
        <time>2016-06-25T14:53:11Z</time>
      </trkpt>
      <trkpt lat="44.03198" lon="6.91789">
        <ele>1874.9</ele>
        <time>2016-06-25T14:53:14Z</time>
      </trkpt>
      <trkpt lat="44.03196" lon="6.91776">
        <ele>1873.3</ele>
        <time>2016-06-25T14:53:22Z</time>
      </trkpt>
      <trkpt lat="44.03196" lon="6.91762">
        <ele>1870.7</ele>
        <time>2016-06-25T14:53:26Z</time>
      </trkpt>
      <trkpt lat="44.03196" lon="6.91748">
        <ele>1868.2</ele>
        <time>2016-06-25T14:53:29Z</time>
      </trkpt>
      <trkpt lat="44.03196" lon="6.91732">
        <ele>1864.8</ele>
        <time>2016-06-25T14:53:33Z</time>
      </trkpt>
      <trkpt lat="44.03192" lon="6.91719">
        <ele>1863.1</ele>
        <time>2016-06-25T14:53:37Z</time>
      </trkpt>
      <trkpt lat="44.0319" lon="6.91706">
        <ele>1860.5</ele>
        <time>2016-06-25T14:53:52Z</time>
      </trkpt>
      <trkpt lat="44.03182" lon="6.91693">
        <ele>1859.6</ele>
        <time>2016-06-25T14:53:56Z</time>
      </trkpt>
      <trkpt lat="44.03177" lon="6.91681">
        <ele>1857.9</ele>
        <time>2016-06-25T14:53:59Z</time>
      </trkpt>
      <trkpt lat="44.03172" lon="6.9167">
        <ele>1854.2</ele>
        <time>2016-06-25T14:54:03Z</time>
      </trkpt>
      <trkpt lat="44.0317" lon="6.91654">
        <ele>1851.7</ele>
        <time>2016-06-25T14:54:07Z</time>
      </trkpt>
      <trkpt lat="44.03169" lon="6.91639">
        <ele>1849.7</ele>
        <time>2016-06-25T14:54:10Z</time>
      </trkpt>
      <trkpt lat="44.03162" lon="6.91625">
        <ele>1846.8</ele>
        <time>2016-06-25T14:54:13Z</time>
      </trkpt>
      <trkpt lat="44.03156" lon="6.91611">
        <ele>1844.3</ele>
        <time>2016-06-25T14:54:16Z</time>
      </trkpt>
      <trkpt lat="44.03149" lon="6.916">
        <ele>1840.7</ele>
        <time>2016-06-25T14:54:19Z</time>
      </trkpt>
      <trkpt lat="44.03142" lon="6.9159">
        <ele>1837.6</ele>
        <time>2016-06-25T14:54:22Z</time>
      </trkpt>
      <trkpt lat="44.03137" lon="6.91578">
        <ele>1835.2</ele>
        <time>2016-06-25T14:54:25Z</time>
      </trkpt>
      <trkpt lat="44.03129" lon="6.91567">
        <ele>1833.2</ele>
        <time>2016-06-25T14:54:28Z</time>
      </trkpt>
      <trkpt lat="44.0312" lon="6.91563">
        <ele>1828.7</ele>
        <time>2016-06-25T14:54:32Z</time>
      </trkpt>
      <trkpt lat="44.03108" lon="6.9156">
        <ele>1825</ele>
        <time>2016-06-25T14:55:03Z</time>
      </trkpt>
      <trkpt lat="44.03098" lon="6.91558">
        <ele>1822.6</ele>
        <time>2016-06-25T14:55:07Z</time>
      </trkpt>
      <trkpt lat="44.03089" lon="6.91557">
        <ele>1820</ele>
        <time>2016-06-25T14:55:11Z</time>
      </trkpt>
      <trkpt lat="44.03079" lon="6.9155">
        <ele>1817.6</ele>
        <time>2016-06-25T14:55:15Z</time>
      </trkpt>
      <trkpt lat="44.0308" lon="6.91537">
        <ele>1813.9</ele>
        <time>2016-06-25T14:55:26Z</time>
      </trkpt>
      <trkpt lat="44.03082" lon="6.91525">
        <ele>1811.7</ele>
        <time>2016-06-25T14:55:36Z</time>
      </trkpt>
      <trkpt lat="44.03072" lon="6.91521">
        <ele>1809.3</ele>
        <time>2016-06-25T14:55:42Z</time>
      </trkpt>
      <trkpt lat="44.03063" lon="6.91518">
        <ele>1805.7</ele>
        <time>2016-06-25T14:55:50Z</time>
      </trkpt>
      <trkpt lat="44.03066" lon="6.91502">
        <ele>1803.2</ele>
        <time>2016-06-25T14:55:55Z</time>
      </trkpt>
      <trkpt lat="44.03065" lon="6.91489">
        <ele>1801.4</ele>
        <time>2016-06-25T14:55:58Z</time>
      </trkpt>
      <trkpt lat="44.03065" lon="6.91475">
        <ele>1800.5</ele>
        <time>2016-06-25T14:56:01Z</time>
      </trkpt>
      <trkpt lat="44.03062" lon="6.91463">
        <ele>1797.2</ele>
        <time>2016-06-25T14:56:05Z</time>
      </trkpt>
      <trkpt lat="44.03053" lon="6.91455">
        <ele>1793.8</ele>
        <time>2016-06-25T14:56:11Z</time>
      </trkpt>
      <trkpt lat="44.03044" lon="6.91453">
        <ele>1790.8</ele>
        <time>2016-06-25T14:56:15Z</time>
      </trkpt>
      <trkpt lat="44.03037" lon="6.91443">
        <ele>1786</ele>
        <time>2016-06-25T14:56:21Z</time>
      </trkpt>
      <trkpt lat="44.03036" lon="6.91428">
        <ele>1782.4</ele>
        <time>2016-06-25T14:56:26Z</time>
      </trkpt>
      <trkpt lat="44.03039" lon="6.91416">
        <ele>1780</ele>
        <time>2016-06-25T14:56:29Z</time>
      </trkpt>
      <trkpt lat="44.03035" lon="6.91404">
        <ele>1774.8</ele>
        <time>2016-06-25T14:56:35Z</time>
      </trkpt>
      <trkpt lat="44.03025" lon="6.91401">
        <ele>1772.8</ele>
        <time>2016-06-25T14:56:39Z</time>
      </trkpt>
      <trkpt lat="44.03027" lon="6.91387">
        <ele>1771.7</ele>
        <time>2016-06-25T14:57:19Z</time>
      </trkpt>
      <trkpt lat="44.03027" lon="6.91372">
        <ele>1769.3</ele>
        <time>2016-06-25T14:57:27Z</time>
      </trkpt>
      <trkpt lat="44.03016" lon="6.91371">
        <ele>1766.5</ele>
        <time>2016-06-25T14:57:32Z</time>
      </trkpt>
      <trkpt lat="44.03006" lon="6.91372">
        <ele>1765.5</ele>
        <time>2016-06-25T14:57:35Z</time>
      </trkpt>
      <trkpt lat="44.02994" lon="6.91367">
        <ele>1763.8</ele>
        <time>2016-06-25T14:57:38Z</time>
      </trkpt>
      <trkpt lat="44.02984" lon="6.91363">
        <ele>1762.3</ele>
        <time>2016-06-25T14:57:42Z</time>
      </trkpt>
      <trkpt lat="44.02975" lon="6.91372">
        <ele>1761.2</ele>
        <time>2016-06-25T14:58:15Z</time>
      </trkpt>
      <trkpt lat="44.02964" lon="6.9138">
        <ele>1759.5</ele>
        <time>2016-06-25T14:58:18Z</time>
      </trkpt>
      <trkpt lat="44.02953" lon="6.91386">
        <ele>1759.2</ele>
        <time>2016-06-25T14:58:20Z</time>
      </trkpt>
      <trkpt lat="44.02942" lon="6.91393">
        <ele>1756.9</ele>
        <time>2016-06-25T14:58:23Z</time>
      </trkpt>
      <trkpt lat="44.02934" lon="6.914">
        <ele>1755.4</ele>
        <time>2016-06-25T14:58:25Z</time>
      </trkpt>
      <trkpt lat="44.02929" lon="6.9141">
        <ele>1754.4</ele>
        <time>2016-06-25T14:58:27Z</time>
      </trkpt>
      <trkpt lat="44.02924" lon="6.91421">
        <ele>1752.8</ele>
        <time>2016-06-25T14:58:29Z</time>
      </trkpt>
      <trkpt lat="44.02918" lon="6.91437">
        <ele>1751.8</ele>
        <time>2016-06-25T14:58:32Z</time>
      </trkpt>
      <trkpt lat="44.02909" lon="6.91453">
        <ele>1750.4</ele>
        <time>2016-06-25T14:58:35Z</time>
      </trkpt>
      <trkpt lat="44.02901" lon="6.91464">
        <ele>1748.9</ele>
        <time>2016-06-25T14:58:37Z</time>
      </trkpt>
      <trkpt lat="44.0289" lon="6.91471">
        <ele>1746.4</ele>
        <time>2016-06-25T14:58:40Z</time>
      </trkpt>
      <trkpt lat="44.02882" lon="6.91481">
        <ele>1746.1</ele>
        <time>2016-06-25T14:58:44Z</time>
      </trkpt>
      <trkpt lat="44.02873" lon="6.91486">
        <ele>1747.4</ele>
        <time>2016-06-25T14:58:49Z</time>
      </trkpt>
      <trkpt lat="44.02868" lon="6.91496">
        <ele>1747.1</ele>
        <time>2016-06-25T14:58:53Z</time>
      </trkpt>
      <trkpt lat="44.0287" lon="6.91509">
        <ele>1742.9</ele>
        <time>2016-06-25T14:59:20Z</time>
      </trkpt>
      <trkpt lat="44.0288" lon="6.91516">
        <ele>1737</ele>
        <time>2016-06-25T15:00:41Z</time>
      </trkpt>
      <trkpt lat="44.0287" lon="6.91539">
        <ele>1733</ele>
        <time>2016-06-25T15:00:49Z</time>
      </trkpt>
      <trkpt lat="44.02863" lon="6.91551">
        <ele>1731.3</ele>
        <time>2016-06-25T15:00:52Z</time>
      </trkpt>
      <trkpt lat="44.02855" lon="6.9156">
        <ele>1729.3</ele>
        <time>2016-06-25T15:00:54Z</time>
      </trkpt>
      <trkpt lat="44.02846" lon="6.91569">
        <ele>1728.2</ele>
        <time>2016-06-25T15:00:56Z</time>
      </trkpt>
      <trkpt lat="44.02838" lon="6.91576">
        <ele>1727.1</ele>
        <time>2016-06-25T15:00:58Z</time>
      </trkpt>
      <trkpt lat="44.0283" lon="6.91583">
        <ele>1725.8</ele>
        <time>2016-06-25T15:01:00Z</time>
      </trkpt>
      <trkpt lat="44.02821" lon="6.91589">
        <ele>1724.6</ele>
        <time>2016-06-25T15:01:02Z</time>
      </trkpt>
      <trkpt lat="44.02811" lon="6.91597">
        <ele>1724.5</ele>
        <time>2016-06-25T15:01:05Z</time>
      </trkpt>
      <trkpt lat="44.02803" lon="6.91601">
        <ele>1725</ele>
        <time>2016-06-25T15:01:08Z</time>
      </trkpt>
      <trkpt lat="44.02793" lon="6.91602">
        <ele>1724.2</ele>
        <time>2016-06-25T15:01:12Z</time>
      </trkpt>
      <trkpt lat="44.02784" lon="6.91599">
        <ele>1723.3</ele>
        <time>2016-06-25T15:01:33Z</time>
      </trkpt>
      <trkpt lat="44.02777" lon="6.91588">
        <ele>1722.3</ele>
        <time>2016-06-25T15:01:38Z</time>
      </trkpt>
      <trkpt lat="44.02766" lon="6.91591">
        <ele>1721.4</ele>
        <time>2016-06-25T15:01:41Z</time>
      </trkpt>
      <trkpt lat="44.02756" lon="6.91594">
        <ele>1719.4</ele>
        <time>2016-06-25T15:01:45Z</time>
      </trkpt>
      <trkpt lat="44.02747" lon="6.91596">
        <ele>1716.3</ele>
        <time>2016-06-25T15:01:50Z</time>
      </trkpt>
      <trkpt lat="44.02738" lon="6.91597">
        <ele>1710.9</ele>
        <time>2016-06-25T15:02:03Z</time>
      </trkpt>
      <trkpt lat="44.02728" lon="6.91597">
        <ele>1709.1</ele>
        <time>2016-06-25T15:02:12Z</time>
      </trkpt>
      <trkpt lat="44.02717" lon="6.91598">
        <ele>1708.3</ele>
        <time>2016-06-25T15:02:31Z</time>
      </trkpt>
      <trkpt lat="44.02707" lon="6.91595">
        <ele>1707.7</ele>
        <time>2016-06-25T15:02:34Z</time>
      </trkpt>
      <trkpt lat="44.02699" lon="6.91589">
        <ele>1708.1</ele>
        <time>2016-06-25T15:02:38Z</time>
      </trkpt>
      <trkpt lat="44.02689" lon="6.91585">
        <ele>1708.3</ele>
        <time>2016-06-25T15:02:43Z</time>
      </trkpt>
      <trkpt lat="44.0268" lon="6.91575">
        <ele>1709</ele>
        <time>2016-06-25T15:02:49Z</time>
      </trkpt>
      <trkpt lat="44.02672" lon="6.91566">
        <ele>1709.4</ele>
        <time>2016-06-25T15:02:53Z</time>
      </trkpt>
      <trkpt lat="44.02665" lon="6.91555">
        <ele>1709</ele>
        <time>2016-06-25T15:02:57Z</time>
      </trkpt>
      <trkpt lat="44.0266" lon="6.91545">
        <ele>1706.1</ele>
        <time>2016-06-25T15:03:14Z</time>
      </trkpt>
      <trkpt lat="44.02651" lon="6.91551">
        <ele>1705.4</ele>
        <time>2016-06-25T15:03:22Z</time>
      </trkpt>
      <trkpt lat="44.02642" lon="6.91554">
        <ele>1706.3</ele>
        <time>2016-06-25T15:03:31Z</time>
      </trkpt>
      <trkpt lat="44.02633" lon="6.91548">
        <ele>1706</ele>
        <time>2016-06-25T15:03:41Z</time>
      </trkpt>
      <trkpt lat="44.02623" lon="6.91539">
        <ele>1706.1</ele>
        <time>2016-06-25T15:03:45Z</time>
      </trkpt>
      <trkpt lat="44.02619" lon="6.91528">
        <ele>1705.5</ele>
        <time>2016-06-25T15:04:22Z</time>
      </trkpt>
      <trkpt lat="44.02618" lon="6.91514">
        <ele>1705.2</ele>
        <time>2016-06-25T15:04:27Z</time>
      </trkpt>
      <trkpt lat="44.02608" lon="6.91515">
        <ele>1704</ele>
        <time>2016-06-25T15:04:34Z</time>
      </trkpt>
      <trkpt lat="44.026" lon="6.91523">
        <ele>1703.5</ele>
        <time>2016-06-25T15:04:38Z</time>
      </trkpt>
      <trkpt lat="44.0259" lon="6.91531">
        <ele>1701.8</ele>
        <time>2016-06-25T15:04:42Z</time>
      </trkpt>
      <trkpt lat="44.02581" lon="6.91539">
        <ele>1699.2</ele>
        <time>2016-06-25T15:04:45Z</time>
      </trkpt>
      <trkpt lat="44.0257" lon="6.91539">
        <ele>1696.1</ele>
        <time>2016-06-25T15:04:49Z</time>
      </trkpt>
      <trkpt lat="44.0256" lon="6.91546">
        <ele>1690.9</ele>
        <time>2016-06-25T15:04:53Z</time>
      </trkpt>
      <trkpt lat="44.0255" lon="6.91548">
        <ele>1688.9</ele>
        <time>2016-06-25T15:04:56Z</time>
      </trkpt>
      <trkpt lat="44.02537" lon="6.91553">
        <ele>1686.4</ele>
        <time>2016-06-25T15:05:00Z</time>
      </trkpt>
      <trkpt lat="44.02526" lon="6.91561">
        <ele>1684.8</ele>
        <time>2016-06-25T15:05:03Z</time>
      </trkpt>
      <trkpt lat="44.02517" lon="6.91565">
        <ele>1682.7</ele>
        <time>2016-06-25T15:05:05Z</time>
      </trkpt>
      <trkpt lat="44.02503" lon="6.91569">
        <ele>1681.3</ele>
        <time>2016-06-25T15:05:08Z</time>
      </trkpt>
      <trkpt lat="44.02493" lon="6.91568">
        <ele>1680.4</ele>
        <time>2016-06-25T15:05:10Z</time>
      </trkpt>
      <trkpt lat="44.02482" lon="6.91566">
        <ele>1678.7</ele>
        <time>2016-06-25T15:05:12Z</time>
      </trkpt>
      <trkpt lat="44.0247" lon="6.91565">
        <ele>1677.1</ele>
        <time>2016-06-25T15:05:14Z</time>
      </trkpt>
      <trkpt lat="44.02459" lon="6.91562">
        <ele>1675.5</ele>
        <time>2016-06-25T15:05:16Z</time>
      </trkpt>
      <trkpt lat="44.0245" lon="6.91556">
        <ele>1674.4</ele>
        <time>2016-06-25T15:05:18Z</time>
      </trkpt>
      <trkpt lat="44.0244" lon="6.91543">
        <ele>1673.1</ele>
        <time>2016-06-25T15:05:21Z</time>
      </trkpt>
      <trkpt lat="44.02429" lon="6.91535">
        <ele>1670.8</ele>
        <time>2016-06-25T15:05:24Z</time>
      </trkpt>
      <trkpt lat="44.02419" lon="6.91526">
        <ele>1669.5</ele>
        <time>2016-06-25T15:05:27Z</time>
      </trkpt>
      <trkpt lat="44.02405" lon="6.91524">
        <ele>1667.7</ele>
        <time>2016-06-25T15:05:30Z</time>
      </trkpt>
      <trkpt lat="44.02395" lon="6.91524">
        <ele>1666</ele>
        <time>2016-06-25T15:05:32Z</time>
      </trkpt>
      <trkpt lat="44.02386" lon="6.91523">
        <ele>1664.4</ele>
        <time>2016-06-25T15:05:34Z</time>
      </trkpt>
      <trkpt lat="44.02374" lon="6.91518">
        <ele>1663</ele>
        <time>2016-06-25T15:05:36Z</time>
      </trkpt>
      <trkpt lat="44.02364" lon="6.91515">
        <ele>1660.6</ele>
        <time>2016-06-25T15:05:38Z</time>
      </trkpt>
      <trkpt lat="44.02355" lon="6.91512">
        <ele>1658.8</ele>
        <time>2016-06-25T15:05:40Z</time>
      </trkpt>
      <trkpt lat="44.02344" lon="6.91511">
        <ele>1657.5</ele>
        <time>2016-06-25T15:05:43Z</time>
      </trkpt>
      <trkpt lat="44.02335" lon="6.91509">
        <ele>1657</ele>
        <time>2016-06-25T15:05:45Z</time>
      </trkpt>
      <trkpt lat="44.02324" lon="6.91515">
        <ele>1655.5</ele>
        <time>2016-06-25T15:05:48Z</time>
      </trkpt>
      <trkpt lat="44.02317" lon="6.91523">
        <ele>1654</ele>
        <time>2016-06-25T15:05:51Z</time>
      </trkpt>
      <trkpt lat="44.02308" lon="6.91524">
        <ele>1650.2</ele>
        <time>2016-06-25T15:05:56Z</time>
      </trkpt>
      <trkpt lat="44.02298" lon="6.91523">
        <ele>1648.2</ele>
        <time>2016-06-25T15:05:59Z</time>
      </trkpt>
      <trkpt lat="44.02289" lon="6.91516">
        <ele>1644.7</ele>
        <time>2016-06-25T15:06:07Z</time>
      </trkpt>
      <trkpt lat="44.02281" lon="6.9151">
        <ele>1641.6</ele>
        <time>2016-06-25T15:06:10Z</time>
      </trkpt>
      <trkpt lat="44.0227" lon="6.91507">
        <ele>1637.9</ele>
        <time>2016-06-25T15:06:13Z</time>
      </trkpt>
      <trkpt lat="44.02259" lon="6.91503">
        <ele>1634.3</ele>
        <time>2016-06-25T15:06:16Z</time>
      </trkpt>
      <trkpt lat="44.0225" lon="6.91503">
        <ele>1633</ele>
        <time>2016-06-25T15:06:18Z</time>
      </trkpt>
      <trkpt lat="44.0224" lon="6.91503">
        <ele>1631.7</ele>
        <time>2016-06-25T15:06:20Z</time>
      </trkpt>
      <trkpt lat="44.02232" lon="6.91517">
        <ele>1628.9</ele>
        <time>2016-06-25T15:06:23Z</time>
      </trkpt>
      <trkpt lat="44.02224" lon="6.91524">
        <ele>1626.2</ele>
        <time>2016-06-25T15:06:25Z</time>
      </trkpt>
      <trkpt lat="44.02212" lon="6.9153">
        <ele>1624.2</ele>
        <time>2016-06-25T15:06:27Z</time>
      </trkpt>
      <trkpt lat="44.02199" lon="6.91537">
        <ele>1623.1</ele>
        <time>2016-06-25T15:06:29Z</time>
      </trkpt>
      <trkpt lat="44.0219" lon="6.91541">
        <ele>1621.3</ele>
        <time>2016-06-25T15:06:31Z</time>
      </trkpt>
      <trkpt lat="44.02182" lon="6.91547">
        <ele>1616.3</ele>
        <time>2016-06-25T15:06:46Z</time>
      </trkpt>
      <trkpt lat="44.02173" lon="6.91555">
        <ele>1614.9</ele>
        <time>2016-06-25T15:07:14Z</time>
      </trkpt>
      <trkpt lat="44.02164" lon="6.91562">
        <ele>1613.1</ele>
        <time>2016-06-25T15:07:17Z</time>
      </trkpt>
      <trkpt lat="44.02157" lon="6.91571">
        <ele>1611.6</ele>
        <time>2016-06-25T15:07:21Z</time>
      </trkpt>
      <trkpt lat="44.0216" lon="6.91583">
        <ele>1608.9</ele>
        <time>2016-06-25T15:07:46Z</time>
      </trkpt>
      <trkpt lat="44.02163" lon="6.91597">
        <ele>1607.8</ele>
        <time>2016-06-25T15:07:52Z</time>
      </trkpt>
      <trkpt lat="44.02156" lon="6.91607">
        <ele>1604.8</ele>
        <time>2016-06-25T15:07:57Z</time>
      </trkpt>
      <trkpt lat="44.02148" lon="6.91619">
        <ele>1602.6</ele>
        <time>2016-06-25T15:08:00Z</time>
      </trkpt>
      <trkpt lat="44.02141" lon="6.91634">
        <ele>1598.4</ele>
        <time>2016-06-25T15:08:03Z</time>
      </trkpt>
      <trkpt lat="44.02134" lon="6.91646">
        <ele>1596</ele>
        <time>2016-06-25T15:08:06Z</time>
      </trkpt>
      <trkpt lat="44.02127" lon="6.91658">
        <ele>1593.9</ele>
        <time>2016-06-25T15:08:09Z</time>
      </trkpt>
      <trkpt lat="44.02123" lon="6.91671">
        <ele>1591.4</ele>
        <time>2016-06-25T15:08:12Z</time>
      </trkpt>
      <trkpt lat="44.02121" lon="6.91686">
        <ele>1587.3</ele>
        <time>2016-06-25T15:08:15Z</time>
      </trkpt>
      <trkpt lat="44.02121" lon="6.91702">
        <ele>1583.1</ele>
        <time>2016-06-25T15:08:18Z</time>
      </trkpt>
      <trkpt lat="44.02122" lon="6.91718">
        <ele>1578.5</ele>
        <time>2016-06-25T15:08:21Z</time>
      </trkpt>
      <trkpt lat="44.02115" lon="6.91729">
        <ele>1574.1</ele>
        <time>2016-06-25T15:08:24Z</time>
      </trkpt>
      <trkpt lat="44.02104" lon="6.91737">
        <ele>1568.8</ele>
        <time>2016-06-25T15:08:27Z</time>
      </trkpt>
      <trkpt lat="44.02093" lon="6.91738">
        <ele>1565.1</ele>
        <time>2016-06-25T15:08:30Z</time>
      </trkpt>
      <trkpt lat="44.02082" lon="6.91734">
        <ele>1562.9</ele>
        <time>2016-06-25T15:08:33Z</time>
      </trkpt>
      <trkpt lat="44.02071" lon="6.9174">
        <ele>1559.3</ele>
        <time>2016-06-25T15:08:38Z</time>
      </trkpt>
      <trkpt lat="44.0206" lon="6.91746">
        <ele>1556.7</ele>
        <time>2016-06-25T15:08:41Z</time>
      </trkpt>
      <trkpt lat="44.02051" lon="6.91748">
        <ele>1555.2</ele>
        <time>2016-06-25T15:08:44Z</time>
      </trkpt>
      <trkpt lat="44.02043" lon="6.91754">
        <ele>1553.1</ele>
        <time>2016-06-25T15:08:49Z</time>
      </trkpt>
      <trkpt lat="44.02034" lon="6.91762">
        <ele>1551.2</ele>
        <time>2016-06-25T15:08:53Z</time>
      </trkpt>
      <trkpt lat="44.02027" lon="6.91772">
        <ele>1549.5</ele>
        <time>2016-06-25T15:08:56Z</time>
      </trkpt>
      <trkpt lat="44.02018" lon="6.91784">
        <ele>1548.6</ele>
        <time>2016-06-25T15:08:59Z</time>
      </trkpt>
      <trkpt lat="44.02011" lon="6.91792">
        <ele>1547.5</ele>
        <time>2016-06-25T15:09:01Z</time>
      </trkpt>
      <trkpt lat="44.02001" lon="6.91803">
        <ele>1543.4</ele>
        <time>2016-06-25T15:09:04Z</time>
      </trkpt>
      <trkpt lat="44.01992" lon="6.91812">
        <ele>1540</ele>
        <time>2016-06-25T15:09:07Z</time>
      </trkpt>
      <trkpt lat="44.01983" lon="6.9182">
        <ele>1536.6</ele>
        <time>2016-06-25T15:09:10Z</time>
      </trkpt>
      <trkpt lat="44.01976" lon="6.91826">
        <ele>1533.9</ele>
        <time>2016-06-25T15:09:13Z</time>
      </trkpt>
      <trkpt lat="44.01969" lon="6.91835">
        <ele>1530.9</ele>
        <time>2016-06-25T15:09:16Z</time>
      </trkpt>
      <trkpt lat="44.01959" lon="6.91845">
        <ele>1529.2</ele>
        <time>2016-06-25T15:09:19Z</time>
      </trkpt>
      <trkpt lat="44.01953" lon="6.91856">
        <ele>1527.4</ele>
        <time>2016-06-25T15:09:22Z</time>
      </trkpt>
      <trkpt lat="44.01948" lon="6.91867">
        <ele>1523.6</ele>
        <time>2016-06-25T15:09:26Z</time>
      </trkpt>
      <trkpt lat="44.01939" lon="6.91864">
        <ele>1517.9</ele>
        <time>2016-06-25T15:09:44Z</time>
      </trkpt>
      <trkpt lat="44.01932" lon="6.91875">
        <ele>1517.1</ele>
        <time>2016-06-25T15:09:55Z</time>
      </trkpt>
      <trkpt lat="44.01932" lon="6.91888">
        <ele>1515.8</ele>
        <time>2016-06-25T15:10:00Z</time>
      </trkpt>
      <trkpt lat="44.01934" lon="6.91902">
        <ele>1518.3</ele>
        <time>2016-06-25T15:10:11Z</time>
      </trkpt>
      <trkpt lat="44.01927" lon="6.91912">
        <ele>1518.8</ele>
        <time>2016-06-25T15:10:16Z</time>
      </trkpt>
      <trkpt lat="44.01926" lon="6.91926">
        <ele>1518.6</ele>
        <time>2016-06-25T15:10:19Z</time>
      </trkpt>
      <trkpt lat="44.01929" lon="6.9194">
        <ele>1519.3</ele>
        <time>2016-06-25T15:10:26Z</time>
      </trkpt>
      <trkpt lat="44.01928" lon="6.91953">
        <ele>1519.7</ele>
        <time>2016-06-25T15:10:31Z</time>
      </trkpt>
      <trkpt lat="44.01927" lon="6.91966">
        <ele>1520.7</ele>
        <time>2016-06-25T15:10:36Z</time>
      </trkpt>
      <trkpt lat="44.01927" lon="6.9198">
        <ele>1520.7</ele>
        <time>2016-06-25T15:10:40Z</time>
      </trkpt>
      <trkpt lat="44.01928" lon="6.91994">
        <ele>1519.4</ele>
        <time>2016-06-25T15:10:44Z</time>
      </trkpt>
      <trkpt lat="44.01935" lon="6.92008">
        <ele>1517.4</ele>
        <time>2016-06-25T15:10:49Z</time>
      </trkpt>
      <trkpt lat="44.01941" lon="6.92018">
        <ele>1515.2</ele>
        <time>2016-06-25T15:10:52Z</time>
      </trkpt>
      <trkpt lat="44.01944" lon="6.92032">
        <ele>1511.8</ele>
        <time>2016-06-25T15:10:56Z</time>
      </trkpt>
      <trkpt lat="44.01943" lon="6.92045">
        <ele>1509.3</ele>
        <time>2016-06-25T15:11:10Z</time>
      </trkpt>
      <trkpt lat="44.01946" lon="6.92061">
        <ele>1508.6</ele>
        <time>2016-06-25T15:11:44Z</time>
      </trkpt>
      <trkpt lat="44.01951" lon="6.92074">
        <ele>1506</ele>
        <time>2016-06-25T15:11:48Z</time>
      </trkpt>
      <trkpt lat="44.01956" lon="6.92088">
        <ele>1502.3</ele>
        <time>2016-06-25T15:11:52Z</time>
      </trkpt>
      <trkpt lat="44.01953" lon="6.92103">
        <ele>1497.4</ele>
        <time>2016-06-25T15:11:57Z</time>
      </trkpt>
      <trkpt lat="44.0195" lon="6.92118">
        <ele>1495.8</ele>
        <time>2016-06-25T15:12:01Z</time>
      </trkpt>
      <trkpt lat="44.01946" lon="6.9213">
        <ele>1494.7</ele>
        <time>2016-06-25T15:12:05Z</time>
      </trkpt>
      <trkpt lat="44.01944" lon="6.92145">
        <ele>1493.7</ele>
        <time>2016-06-25T15:12:08Z</time>
      </trkpt>
      <trkpt lat="44.0194" lon="6.92157">
        <ele>1493.1</ele>
        <time>2016-06-25T15:12:11Z</time>
      </trkpt>
      <trkpt lat="44.01937" lon="6.92169">
        <ele>1493</ele>
        <time>2016-06-25T15:12:14Z</time>
      </trkpt>
      <trkpt lat="44.01935" lon="6.92183">
        <ele>1492.8</ele>
        <time>2016-06-25T15:12:22Z</time>
      </trkpt>
      <trkpt lat="44.01935" lon="6.92199">
        <ele>1491.8</ele>
        <time>2016-06-25T15:12:26Z</time>
      </trkpt>
      <trkpt lat="44.01932" lon="6.92213">
        <ele>1488.8</ele>
        <time>2016-06-25T15:12:29Z</time>
      </trkpt>
      <trkpt lat="44.01931" lon="6.92225">
        <ele>1486.3</ele>
        <time>2016-06-25T15:12:32Z</time>
      </trkpt>
      <trkpt lat="44.01926" lon="6.92238">
        <ele>1482.9</ele>
        <time>2016-06-25T15:12:36Z</time>
      </trkpt>
      <trkpt lat="44.01919" lon="6.92248">
        <ele>1476.3</ele>
        <time>2016-06-25T15:12:48Z</time>
      </trkpt>
      <trkpt lat="44.01924" lon="6.9226">
        <ele>1472.3</ele>
        <time>2016-06-25T15:13:07Z</time>
      </trkpt>
      <trkpt lat="44.01926" lon="6.92273">
        <ele>1470</ele>
        <time>2016-06-25T15:13:19Z</time>
      </trkpt>
      <trkpt lat="44.01929" lon="6.92287">
        <ele>1466.7</ele>
        <time>2016-06-25T15:13:23Z</time>
      </trkpt>
      <trkpt lat="44.0193" lon="6.923">
        <ele>1462.7</ele>
        <time>2016-06-25T15:13:26Z</time>
      </trkpt>
      <trkpt lat="44.01924" lon="6.92311">
        <ele>1456.4</ele>
        <time>2016-06-25T15:13:31Z</time>
      </trkpt>
      <trkpt lat="44.01919" lon="6.92323">
        <ele>1451.9</ele>
        <time>2016-06-25T15:13:44Z</time>
      </trkpt>
      <trkpt lat="44.01913" lon="6.92336">
        <ele>1452</ele>
        <time>2016-06-25T15:13:48Z</time>
      </trkpt>
      <trkpt lat="44.01904" lon="6.92344">
        <ele>1451.3</ele>
        <time>2016-06-25T15:13:51Z</time>
      </trkpt>
      <trkpt lat="44.01891" lon="6.92343">
        <ele>1449.4</ele>
        <time>2016-06-25T15:13:55Z</time>
      </trkpt>
      <trkpt lat="44.01882" lon="6.92347">
        <ele>1450</ele>
        <time>2016-06-25T15:14:04Z</time>
      </trkpt>
      <trkpt lat="44.01876" lon="6.92358">
        <ele>1450.3</ele>
        <time>2016-06-25T15:14:14Z</time>
      </trkpt>
      <trkpt lat="44.01871" lon="6.92369">
        <ele>1451.2</ele>
        <time>2016-06-25T15:14:25Z</time>
      </trkpt>
      <trkpt lat="44.01867" lon="6.9238">
        <ele>1449.9</ele>
        <time>2016-06-25T15:14:32Z</time>
      </trkpt>
      <trkpt lat="44.01871" lon="6.92393">
        <ele>1447.7</ele>
        <time>2016-06-25T15:14:37Z</time>
      </trkpt>
      <trkpt lat="44.01869" lon="6.92408">
        <ele>1446.9</ele>
        <time>2016-06-25T15:14:40Z</time>
      </trkpt>
      <trkpt lat="44.01866" lon="6.92424">
        <ele>1446.7</ele>
        <time>2016-06-25T15:14:43Z</time>
      </trkpt>
      <trkpt lat="44.01865" lon="6.92441">
        <ele>1446.4</ele>
        <time>2016-06-25T15:14:46Z</time>
      </trkpt>
      <trkpt lat="44.01861" lon="6.92456">
        <ele>1445.3</ele>
        <time>2016-06-25T15:14:49Z</time>
      </trkpt>
      <trkpt lat="44.01854" lon="6.92471">
        <ele>1444</ele>
        <time>2016-06-25T15:14:52Z</time>
      </trkpt>
      <trkpt lat="44.01849" lon="6.92487">
        <ele>1443.4</ele>
        <time>2016-06-25T15:14:55Z</time>
      </trkpt>
      <trkpt lat="44.01845" lon="6.92504">
        <ele>1442.9</ele>
        <time>2016-06-25T15:14:58Z</time>
      </trkpt>
      <trkpt lat="44.01843" lon="6.92521">
        <ele>1443.1</ele>
        <time>2016-06-25T15:15:01Z</time>
      </trkpt>
      <trkpt lat="44.01842" lon="6.92539">
        <ele>1441.7</ele>
        <time>2016-06-25T15:15:04Z</time>
      </trkpt>
      <trkpt lat="44.01842" lon="6.92552">
        <ele>1440.4</ele>
        <time>2016-06-25T15:15:06Z</time>
      </trkpt>
      <trkpt lat="44.01842" lon="6.92568">
        <ele>1439.3</ele>
        <time>2016-06-25T15:15:08Z</time>
      </trkpt>
      <trkpt lat="44.01843" lon="6.92587">
        <ele>1438</ele>
        <time>2016-06-25T15:15:10Z</time>
      </trkpt>
      <trkpt lat="44.01843" lon="6.92607">
        <ele>1436.6</ele>
        <time>2016-06-25T15:15:12Z</time>
      </trkpt>
      <trkpt lat="44.01845" lon="6.92624">
        <ele>1435.3</ele>
        <time>2016-06-25T15:15:14Z</time>
      </trkpt>
      <trkpt lat="44.01846" lon="6.92637">
        <ele>1434.3</ele>
        <time>2016-06-25T15:15:16Z</time>
      </trkpt>
      <trkpt lat="44.01845" lon="6.92652">
        <ele>1432.6</ele>
        <time>2016-06-25T15:15:19Z</time>
      </trkpt>
      <trkpt lat="44.01845" lon="6.92665">
        <ele>1431.4</ele>
        <time>2016-06-25T15:15:21Z</time>
      </trkpt>
      <trkpt lat="44.01846" lon="6.92682">
        <ele>1429.9</ele>
        <time>2016-06-25T15:15:23Z</time>
      </trkpt>
      <trkpt lat="44.01846" lon="6.92697">
        <ele>1429</ele>
        <time>2016-06-25T15:15:25Z</time>
      </trkpt>
      <trkpt lat="44.01846" lon="6.9271">
        <ele>1427.3</ele>
        <time>2016-06-25T15:15:27Z</time>
      </trkpt>
      <trkpt lat="44.01844" lon="6.92724">
        <ele>1425.7</ele>
        <time>2016-06-25T15:15:29Z</time>
      </trkpt>
      <trkpt lat="44.01843" lon="6.92739">
        <ele>1423.5</ele>
        <time>2016-06-25T15:15:31Z</time>
      </trkpt>
      <trkpt lat="44.01842" lon="6.92752">
        <ele>1421</ele>
        <time>2016-06-25T15:15:33Z</time>
      </trkpt>
      <trkpt lat="44.01838" lon="6.9277">
        <ele>1417.9</ele>
        <time>2016-06-25T15:15:36Z</time>
      </trkpt>
      <trkpt lat="44.01828" lon="6.92779">
        <ele>1414.8</ele>
        <time>2016-06-25T15:15:39Z</time>
      </trkpt>
      <trkpt lat="44.01821" lon="6.92788">
        <ele>1410.6</ele>
        <time>2016-06-25T15:15:43Z</time>
      </trkpt>
      <trkpt lat="44.01814" lon="6.92801">
        <ele>1406.5</ele>
        <time>2016-06-25T15:15:47Z</time>
      </trkpt>
      <trkpt lat="44.01808" lon="6.92813">
        <ele>1402.5</ele>
        <time>2016-06-25T15:15:51Z</time>
      </trkpt>
      <trkpt lat="44.01803" lon="6.92825">
        <ele>1398.9</ele>
        <time>2016-06-25T15:15:55Z</time>
      </trkpt>
      <trkpt lat="44.01793" lon="6.92829">
        <ele>1394.3</ele>
        <time>2016-06-25T15:16:00Z</time>
      </trkpt>
      <trkpt lat="44.01787" lon="6.9284">
        <ele>1390.9</ele>
        <time>2016-06-25T15:16:04Z</time>
      </trkpt>
      <trkpt lat="44.01779" lon="6.92847">
        <ele>1387.7</ele>
        <time>2016-06-25T15:16:07Z</time>
      </trkpt>
      <trkpt lat="44.01775" lon="6.92858">
        <ele>1384.6</ele>
        <time>2016-06-25T15:16:11Z</time>
      </trkpt>
      <trkpt lat="44.01767" lon="6.92866">
        <ele>1383.5</ele>
        <time>2016-06-25T15:16:14Z</time>
      </trkpt>
      <trkpt lat="44.01764" lon="6.92878">
        <ele>1381.8</ele>
        <time>2016-06-25T15:16:17Z</time>
      </trkpt>
      <trkpt lat="44.01763" lon="6.92891">
        <ele>1380.5</ele>
        <time>2016-06-25T15:16:19Z</time>
      </trkpt>
      <trkpt lat="44.01758" lon="6.92902">
        <ele>1379.1</ele>
        <time>2016-06-25T15:16:22Z</time>
      </trkpt>
      <trkpt lat="44.01747" lon="6.929">
        <ele>1375.6</ele>
        <time>2016-06-25T15:16:27Z</time>
      </trkpt>
      <trkpt lat="44.01737" lon="6.92892">
        <ele>1371.6</ele>
        <time>2016-06-25T15:16:31Z</time>
      </trkpt>
      <trkpt lat="44.01729" lon="6.92884">
        <ele>1367.2</ele>
        <time>2016-06-25T15:16:35Z</time>
      </trkpt>
      <trkpt lat="44.01723" lon="6.92873">
        <ele>1360.9</ele>
        <time>2016-06-25T15:17:44Z</time>
      </trkpt>
      <trkpt lat="44.01717" lon="6.92883">
        <ele>1359</ele>
        <time>2016-06-25T15:17:50Z</time>
      </trkpt>
      <trkpt lat="44.01711" lon="6.92894">
        <ele>1354.4</ele>
        <time>2016-06-25T15:17:55Z</time>
      </trkpt>
      <trkpt lat="44.01708" lon="6.92906">
        <ele>1352</ele>
        <time>2016-06-25T15:17:59Z</time>
      </trkpt>
      <trkpt lat="44.01697" lon="6.92907">
        <ele>1347</ele>
        <time>2016-06-25T15:18:05Z</time>
      </trkpt>
      <trkpt lat="44.01688" lon="6.92904">
        <ele>1342.6</ele>
        <time>2016-06-25T15:18:10Z</time>
      </trkpt>
      <trkpt lat="44.01682" lon="6.92914">
        <ele>1339.5</ele>
        <time>2016-06-25T15:18:13Z</time>
      </trkpt>
      <trkpt lat="44.01676" lon="6.92927">
        <ele>1336.9</ele>
        <time>2016-06-25T15:18:16Z</time>
      </trkpt>
      <trkpt lat="44.0167" lon="6.9294">
        <ele>1333.2</ele>
        <time>2016-06-25T15:18:22Z</time>
      </trkpt>
      <trkpt lat="44.01664" lon="6.92951">
        <ele>1332</ele>
        <time>2016-06-25T15:18:26Z</time>
      </trkpt>
      <trkpt lat="44.01659" lon="6.92962">
        <ele>1332.4</ele>
        <time>2016-06-25T15:18:34Z</time>
      </trkpt>
      <trkpt lat="44.01652" lon="6.92976">
        <ele>1332.5</ele>
        <time>2016-06-25T15:18:40Z</time>
      </trkpt>
      <trkpt lat="44.01652" lon="6.9299">
        <ele>1331.8</ele>
        <time>2016-06-25T15:18:44Z</time>
      </trkpt>
      <trkpt lat="44.01646" lon="6.93001">
        <ele>1333.1</ele>
        <time>2016-06-25T15:18:47Z</time>
      </trkpt>
      <trkpt lat="44.01639" lon="6.9301">
        <ele>1331.9</ele>
        <time>2016-06-25T15:18:49Z</time>
      </trkpt>
      <trkpt lat="44.01634" lon="6.93024">
        <ele>1330.7</ele>
        <time>2016-06-25T15:18:52Z</time>
      </trkpt>
      <trkpt lat="44.01627" lon="6.93034">
        <ele>1330</ele>
        <time>2016-06-25T15:18:55Z</time>
      </trkpt>
      <trkpt lat="44.01619" lon="6.93046">
        <ele>1329</ele>
        <time>2016-06-25T15:18:58Z</time>
      </trkpt>
      <trkpt lat="44.01616" lon="6.93059">
        <ele>1329.2</ele>
        <time>2016-06-25T15:19:05Z</time>
      </trkpt>
      <trkpt lat="44.01614" lon="6.93071">
        <ele>1329.5</ele>
        <time>2016-06-25T15:19:11Z</time>
      </trkpt>
      <trkpt lat="44.01611" lon="6.93083">
        <ele>1330.2</ele>
        <time>2016-06-25T15:19:17Z</time>
      </trkpt>
      <trkpt lat="44.01608" lon="6.93097">
        <ele>1331.2</ele>
        <time>2016-06-25T15:19:25Z</time>
      </trkpt>
      <trkpt lat="44.01598" lon="6.931">
        <ele>1333.4</ele>
        <time>2016-06-25T15:19:34Z</time>
      </trkpt>
      <trkpt lat="44.0159" lon="6.93106">
        <ele>1334.3</ele>
        <time>2016-06-25T15:19:40Z</time>
      </trkpt>
      <trkpt lat="44.01586" lon="6.93119">
        <ele>1333.8</ele>
        <time>2016-06-25T15:19:46Z</time>
      </trkpt>
      <trkpt lat="44.01588" lon="6.93131">
        <ele>1334</ele>
        <time>2016-06-25T15:19:50Z</time>
      </trkpt>
      <trkpt lat="44.01589" lon="6.93145">
        <ele>1334</ele>
        <time>2016-06-25T15:19:56Z</time>
      </trkpt>
      <trkpt lat="44.01583" lon="6.93157">
        <ele>1336.3</ele>
        <time>2016-06-25T15:20:20Z</time>
      </trkpt>
      <trkpt lat="44.01572" lon="6.93164">
        <ele>1335.4</ele>
        <time>2016-06-25T15:20:23Z</time>
      </trkpt>
      <trkpt lat="44.01563" lon="6.93166">
        <ele>1334.4</ele>
        <time>2016-06-25T15:20:26Z</time>
      </trkpt>
      <trkpt lat="44.01552" lon="6.93171">
        <ele>1331.7</ele>
        <time>2016-06-25T15:20:29Z</time>
      </trkpt>
      <trkpt lat="44.01544" lon="6.93179">
        <ele>1328.5</ele>
        <time>2016-06-25T15:20:32Z</time>
      </trkpt>
      <trkpt lat="44.01541" lon="6.93195">
        <ele>1324.5</ele>
        <time>2016-06-25T15:20:43Z</time>
      </trkpt>
      <trkpt lat="44.01539" lon="6.9321">
        <ele>1323.2</ele>
        <time>2016-06-25T15:20:47Z</time>
      </trkpt>
      <trkpt lat="44.01545" lon="6.93223">
        <ele>1324.1</ele>
        <time>2016-06-25T15:20:52Z</time>
      </trkpt>
      <trkpt lat="44.01547" lon="6.93237">
        <ele>1323.1</ele>
        <time>2016-06-25T15:21:05Z</time>
      </trkpt>
      <trkpt lat="44.01552" lon="6.93247">
        <ele>1323.9</ele>
        <time>2016-06-25T15:21:09Z</time>
      </trkpt>
      <trkpt lat="44.01557" lon="6.93261">
        <ele>1324</ele>
        <time>2016-06-25T15:21:14Z</time>
      </trkpt>
      <trkpt lat="44.01559" lon="6.93274">
        <ele>1323.5</ele>
        <time>2016-06-25T15:21:18Z</time>
      </trkpt>
      <trkpt lat="44.01558" lon="6.93289">
        <ele>1323.3</ele>
        <time>2016-06-25T15:21:22Z</time>
      </trkpt>
      <trkpt lat="44.01554" lon="6.93301">
        <ele>1322.6</ele>
        <time>2016-06-25T15:21:26Z</time>
      </trkpt>
      <trkpt lat="44.01548" lon="6.93315">
        <ele>1322.5</ele>
        <time>2016-06-25T15:21:30Z</time>
      </trkpt>
      <trkpt lat="44.01539" lon="6.93321">
        <ele>1323.1</ele>
        <time>2016-06-25T15:21:33Z</time>
      </trkpt>
      <trkpt lat="44.01537" lon="6.93336">
        <ele>1320.1</ele>
        <time>2016-06-25T15:21:36Z</time>
      </trkpt>
      <trkpt lat="44.0154" lon="6.93349">
        <ele>1318.2</ele>
        <time>2016-06-25T15:21:40Z</time>
      </trkpt>
      <trkpt lat="44.01539" lon="6.93363">
        <ele>1319.2</ele>
        <time>2016-06-25T15:21:46Z</time>
      </trkpt>
      <trkpt lat="44.01538" lon="6.93376">
        <ele>1319.8</ele>
        <time>2016-06-25T15:21:50Z</time>
      </trkpt>
      <trkpt lat="44.01536" lon="6.9339">
        <ele>1320.7</ele>
        <time>2016-06-25T15:21:55Z</time>
      </trkpt>
      <trkpt lat="44.0153" lon="6.934">
        <ele>1320.5</ele>
        <time>2016-06-25T15:21:59Z</time>
      </trkpt>
      <trkpt lat="44.01522" lon="6.93414">
        <ele>1320.5</ele>
        <time>2016-06-25T15:22:02Z</time>
      </trkpt>
      <trkpt lat="44.01518" lon="6.93426">
        <ele>1320.1</ele>
        <time>2016-06-25T15:22:04Z</time>
      </trkpt>
      <trkpt lat="44.01517" lon="6.93442">
        <ele>1319.4</ele>
        <time>2016-06-25T15:22:07Z</time>
      </trkpt>
      <trkpt lat="44.01513" lon="6.93458">
        <ele>1318.5</ele>
        <time>2016-06-25T15:22:10Z</time>
      </trkpt>
      <trkpt lat="44.01509" lon="6.93471">
        <ele>1317.9</ele>
        <time>2016-06-25T15:22:12Z</time>
      </trkpt>
      <trkpt lat="44.01505" lon="6.93486">
        <ele>1316.5</ele>
        <time>2016-06-25T15:22:15Z</time>
      </trkpt>
      <trkpt lat="44.015" lon="6.93498">
        <ele>1314.5</ele>
        <time>2016-06-25T15:22:18Z</time>
      </trkpt>
      <trkpt lat="44.01498" lon="6.93513">
        <ele>1311.6</ele>
        <time>2016-06-25T15:22:22Z</time>
      </trkpt>
      <trkpt lat="44.0149" lon="6.93518">
        <ele>1308.3</ele>
        <time>2016-06-25T15:22:28Z</time>
      </trkpt>
      <trkpt lat="44.01483" lon="6.93529">
        <ele>1303</ele>
        <time>2016-06-25T15:22:34Z</time>
      </trkpt>
      <trkpt lat="44.01478" lon="6.9354">
        <ele>1302.1</ele>
        <time>2016-06-25T15:22:37Z</time>
      </trkpt>
      <trkpt lat="44.01473" lon="6.93555">
        <ele>1298.3</ele>
        <time>2016-06-25T15:22:41Z</time>
      </trkpt>
      <trkpt lat="44.01469" lon="6.93566">
        <ele>1296</ele>
        <time>2016-06-25T15:22:44Z</time>
      </trkpt>
      <trkpt lat="44.01464" lon="6.9358">
        <ele>1292.4</ele>
        <time>2016-06-25T15:22:48Z</time>
      </trkpt>
      <trkpt lat="44.0146" lon="6.93595">
        <ele>1288</ele>
        <time>2016-06-25T15:22:52Z</time>
      </trkpt>
      <trkpt lat="44.01457" lon="6.93607">
        <ele>1285.6</ele>
        <time>2016-06-25T15:22:55Z</time>
      </trkpt>
      <trkpt lat="44.01452" lon="6.9362">
        <ele>1281.8</ele>
        <time>2016-06-25T15:22:59Z</time>
      </trkpt>
      <trkpt lat="44.01446" lon="6.93634">
        <ele>1278.2</ele>
        <time>2016-06-25T15:23:03Z</time>
      </trkpt>
      <trkpt lat="44.01441" lon="6.93648">
        <ele>1274.5</ele>
        <time>2016-06-25T15:23:07Z</time>
      </trkpt>
      <trkpt lat="44.01438" lon="6.93663">
        <ele>1270</ele>
        <time>2016-06-25T15:23:11Z</time>
      </trkpt>
      <trkpt lat="44.01436" lon="6.93678">
        <ele>1266.3</ele>
        <time>2016-06-25T15:23:16Z</time>
      </trkpt>
      <trkpt lat="44.01434" lon="6.9369">
        <ele>1264.6</ele>
        <time>2016-06-25T15:25:32Z</time>
      </trkpt>
      <trkpt lat="44.01439" lon="6.93701">
        <ele>1264.3</ele>
        <time>2016-06-25T15:26:46Z</time>
      </trkpt>
      <trkpt lat="44.01435" lon="6.93715">
        <ele>1261.2</ele>
        <time>2016-06-25T15:26:52Z</time>
      </trkpt>
      <trkpt lat="44.01429" lon="6.93726">
        <ele>1256.4</ele>
        <time>2016-06-25T15:26:57Z</time>
      </trkpt>
      <trkpt lat="44.0142" lon="6.93726">
        <ele>1249.5</ele>
        <time>2016-06-25T15:27:16Z</time>
      </trkpt>
      <trkpt lat="44.01413" lon="6.93715">
        <ele>1248</ele>
        <time>2016-06-25T15:27:20Z</time>
      </trkpt>
      <trkpt lat="44.01404" lon="6.9371">
        <ele>1244.3</ele>
        <time>2016-06-25T15:27:25Z</time>
      </trkpt>
      <trkpt lat="44.014" lon="6.93724">
        <ele>1240.4</ele>
        <time>2016-06-25T15:27:31Z</time>
      </trkpt>
      <trkpt lat="44.01394" lon="6.93733">
        <ele>1237.3</ele>
        <time>2016-06-25T15:27:34Z</time>
      </trkpt>
      <trkpt lat="44.01386" lon="6.93744">
        <ele>1234.9</ele>
        <time>2016-06-25T15:27:37Z</time>
      </trkpt>
      <trkpt lat="44.01382" lon="6.93757">
        <ele>1232.6</ele>
        <time>2016-06-25T15:27:40Z</time>
      </trkpt>
      <trkpt lat="44.01377" lon="6.93768">
        <ele>1230.1</ele>
        <time>2016-06-25T15:27:43Z</time>
      </trkpt>
      <trkpt lat="44.0137" lon="6.9376">
        <ele>1226.6</ele>
        <time>2016-06-25T15:27:48Z</time>
      </trkpt>
      <trkpt lat="44.01364" lon="6.93769">
        <ele>1222.2</ele>
        <time>2016-06-25T15:27:53Z</time>
      </trkpt>
      <trkpt lat="44.01363" lon="6.93786">
        <ele>1221.1</ele>
        <time>2016-06-25T15:27:56Z</time>
      </trkpt>
      <trkpt lat="44.01357" lon="6.93796">
        <ele>1219.4</ele>
        <time>2016-06-25T15:28:01Z</time>
      </trkpt>
      <trkpt lat="44.01349" lon="6.9379">
        <ele>1213.9</ele>
        <time>2016-06-25T15:29:24Z</time>
      </trkpt>
      <trkpt lat="44.01341" lon="6.93785">
        <ele>1211</ele>
        <time>2016-06-25T15:29:45Z</time>
      </trkpt>
      <trkpt lat="44.01334" lon="6.93795">
        <ele>1208.6</ele>
        <time>2016-06-25T15:29:49Z</time>
      </trkpt>
      <trkpt lat="44.0133" lon="6.93807">
        <ele>1204.7</ele>
        <time>2016-06-25T15:29:52Z</time>
      </trkpt>
      <trkpt lat="44.01327" lon="6.93821">
        <ele>1201</ele>
        <time>2016-06-25T15:29:55Z</time>
      </trkpt>
      <trkpt lat="44.01327" lon="6.93835">
        <ele>1197.6</ele>
        <time>2016-06-25T15:30:00Z</time>
      </trkpt>
      <trkpt lat="44.0133" lon="6.93847">
        <ele>1196.5</ele>
        <time>2016-06-25T15:30:05Z</time>
      </trkpt>
      <trkpt lat="44.01322" lon="6.93855">
        <ele>1190.7</ele>
        <time>2016-06-25T15:30:15Z</time>
      </trkpt>
      <trkpt lat="44.0132" lon="6.93868">
        <ele>1187.5</ele>
        <time>2016-06-25T15:30:21Z</time>
      </trkpt>
      <trkpt lat="44.01311" lon="6.9387">
        <ele>1183.7</ele>
        <time>2016-06-25T15:30:26Z</time>
      </trkpt>
      <trkpt lat="44.01315" lon="6.93884">
        <ele>1179.8</ele>
        <time>2016-06-25T15:30:31Z</time>
      </trkpt>
      <trkpt lat="44.01321" lon="6.93896">
        <ele>1177.9</ele>
        <time>2016-06-25T15:30:34Z</time>
      </trkpt>
      <trkpt lat="44.01328" lon="6.93906">
        <ele>1175.8</ele>
        <time>2016-06-25T15:30:37Z</time>
      </trkpt>
      <trkpt lat="44.01338" lon="6.93911">
        <ele>1172.2</ele>
        <time>2016-06-25T15:30:41Z</time>
      </trkpt>
      <trkpt lat="44.01349" lon="6.93914">
        <ele>1167.1</ele>
        <time>2016-06-25T15:30:45Z</time>
      </trkpt>
      <trkpt lat="44.01358" lon="6.93911">
        <ele>1163.7</ele>
        <time>2016-06-25T15:30:49Z</time>
      </trkpt>
      <trkpt lat="44.0137" lon="6.93911">
        <ele>1160.5</ele>
        <time>2016-06-25T15:30:53Z</time>
      </trkpt>
      <trkpt lat="44.0138" lon="6.93904">
        <ele>1157</ele>
        <time>2016-06-25T15:30:57Z</time>
      </trkpt>
      <trkpt lat="44.01388" lon="6.93896">
        <ele>1154.6</ele>
        <time>2016-06-25T15:31:00Z</time>
      </trkpt>
      <trkpt lat="44.01398" lon="6.93889">
        <ele>1152.2</ele>
        <time>2016-06-25T15:31:04Z</time>
      </trkpt>
      <trkpt lat="44.01401" lon="6.93901">
        <ele>1146.7</ele>
        <time>2016-06-25T15:31:11Z</time>
      </trkpt>
      <trkpt lat="44.0141" lon="6.93906">
        <ele>1143.2</ele>
        <time>2016-06-25T15:31:21Z</time>
      </trkpt>
      <trkpt lat="44.01416" lon="6.93915">
        <ele>1145.8</ele>
        <time>2016-06-25T15:34:19Z</time>
      </trkpt>
      <trkpt lat="44.01425" lon="6.93915">
        <ele>1149.7</ele>
        <time>2016-06-25T15:34:40Z</time>
      </trkpt>
      <trkpt lat="44.01419" lon="6.93925">
        <ele>1152.2</ele>
        <time>2016-06-25T15:35:00Z</time>
      </trkpt>
      <trkpt lat="44.01414" lon="6.93936">
        <ele>1155.2</ele>
        <time>2016-06-25T15:35:17Z</time>
      </trkpt>
      <trkpt lat="44.0141" lon="6.93947">
        <ele>1157.6</ele>
        <time>2016-06-25T15:35:32Z</time>
      </trkpt>
      <trkpt lat="44.0141" lon="6.9396">
        <ele>1159.4</ele>
        <time>2016-06-25T15:35:50Z</time>
      </trkpt>
      <trkpt lat="44.01405" lon="6.93971">
        <ele>1162.6</ele>
        <time>2016-06-25T15:36:06Z</time>
      </trkpt>
      <trkpt lat="44.01398" lon="6.93981">
        <ele>1163.4</ele>
        <time>2016-06-25T15:36:18Z</time>
      </trkpt>
      <trkpt lat="44.01391" lon="6.93991">
        <ele>1164.7</ele>
        <time>2016-06-25T15:36:25Z</time>
      </trkpt>
      <trkpt lat="44.01385" lon="6.94002">
        <ele>1164.5</ele>
        <time>2016-06-25T15:36:36Z</time>
      </trkpt>
      <trkpt lat="44.01381" lon="6.94014">
        <ele>1166.4</ele>
        <time>2016-06-25T15:36:52Z</time>
      </trkpt>
      <trkpt lat="44.01377" lon="6.94026">
        <ele>1167.4</ele>
        <time>2016-06-25T15:37:09Z</time>
      </trkpt>
      <trkpt lat="44.0137" lon="6.94034">
        <ele>1167.9</ele>
        <time>2016-06-25T15:37:21Z</time>
      </trkpt>
      <trkpt lat="44.01365" lon="6.94044">
        <ele>1168.7</ele>
        <time>2016-06-25T15:37:31Z</time>
      </trkpt>
      <trkpt lat="44.01357" lon="6.94053">
        <ele>1170.6</ele>
        <time>2016-06-25T15:37:43Z</time>
      </trkpt>
      <trkpt lat="44.0135" lon="6.94061">
        <ele>1170.5</ele>
        <time>2016-06-25T15:37:54Z</time>
      </trkpt>
      <trkpt lat="44.01344" lon="6.94071">
        <ele>1171.7</ele>
        <time>2016-06-25T15:38:04Z</time>
      </trkpt>
      <trkpt lat="44.01337" lon="6.94081">
        <ele>1173.3</ele>
        <time>2016-06-25T15:38:19Z</time>
      </trkpt>
      <trkpt lat="44.01331" lon="6.94094">
        <ele>1173.5</ele>
        <time>2016-06-25T15:38:24Z</time>
      </trkpt>
      <trkpt lat="44.01328" lon="6.94108">
        <ele>1174.1</ele>
        <time>2016-06-25T15:38:29Z</time>
      </trkpt>
      <trkpt lat="44.01325" lon="6.94121">
        <ele>1173.7</ele>
        <time>2016-06-25T15:38:33Z</time>
      </trkpt>
      <trkpt lat="44.01324" lon="6.94134">
        <ele>1174.3</ele>
        <time>2016-06-25T15:38:37Z</time>
      </trkpt>
      <trkpt lat="44.01325" lon="6.94147">
        <ele>1174.8</ele>
        <time>2016-06-25T15:38:41Z</time>
      </trkpt>
      <trkpt lat="44.01326" lon="6.94162">
        <ele>1176.5</ele>
        <time>2016-06-25T15:38:46Z</time>
      </trkpt>
      <trkpt lat="44.01327" lon="6.94175">
        <ele>1177.9</ele>
        <time>2016-06-25T15:38:51Z</time>
      </trkpt>
      <trkpt lat="44.01324" lon="6.94187">
        <ele>1176.3</ele>
        <time>2016-06-25T15:38:55Z</time>
      </trkpt>
      <trkpt lat="44.01323" lon="6.94199">
        <ele>1177.4</ele>
        <time>2016-06-25T15:38:59Z</time>
      </trkpt>
      <trkpt lat="44.01323" lon="6.94214">
        <ele>1177.7</ele>
        <time>2016-06-25T15:39:04Z</time>
      </trkpt>
      <trkpt lat="44.01328" lon="6.94225">
        <ele>1182</ele>
        <time>2016-06-25T15:39:33Z</time>
      </trkpt>
      <trkpt lat="44.01334" lon="6.94235">
        <ele>1184.8</ele>
        <time>2016-06-25T15:40:07Z</time>
      </trkpt>
      <trkpt lat="44.01341" lon="6.94245">
        <ele>1187.3</ele>
        <time>2016-06-25T15:40:21Z</time>
      </trkpt>
      <trkpt lat="44.01346" lon="6.94255">
        <ele>1188.9</ele>
        <time>2016-06-25T15:40:33Z</time>
      </trkpt>
      <trkpt lat="44.01351" lon="6.94265">
        <ele>1189.7</ele>
        <time>2016-06-25T15:40:42Z</time>
      </trkpt>
      <trkpt lat="44.01355" lon="6.94277">
        <ele>1192</ele>
        <time>2016-06-25T15:40:54Z</time>
      </trkpt>
      <trkpt lat="44.01358" lon="6.94289">
        <ele>1191.8</ele>
        <time>2016-06-25T15:43:41Z</time>
      </trkpt>
      <trkpt lat="44.01365" lon="6.94299">
        <ele>1191.9</ele>
        <time>2016-06-25T15:43:46Z</time>
      </trkpt>
      <trkpt lat="44.01371" lon="6.94309">
        <ele>1191.8</ele>
        <time>2016-06-25T15:43:49Z</time>
      </trkpt>
      <trkpt lat="44.01374" lon="6.94326">
        <ele>1192.1</ele>
        <time>2016-06-25T15:43:52Z</time>
      </trkpt>
      <trkpt lat="44.01375" lon="6.9434">
        <ele>1191.5</ele>
        <time>2016-06-25T15:43:54Z</time>
      </trkpt>
      <trkpt lat="44.01375" lon="6.94352">
        <ele>1191</ele>
        <time>2016-06-25T15:43:56Z</time>
      </trkpt>
      <trkpt lat="44.01375" lon="6.94368">
        <ele>1190.1</ele>
        <time>2016-06-25T15:43:59Z</time>
      </trkpt>
      <trkpt lat="44.01375" lon="6.94381">
        <ele>1184.1</ele>
        <time>2016-06-25T15:44:58Z</time>
      </trkpt>
      <trkpt lat="44.01376" lon="6.94394">
        <ele>1183.8</ele>
        <time>2016-06-25T15:45:01Z</time>
      </trkpt>
      <trkpt lat="44.01375" lon="6.94413">
        <ele>1182.3</ele>
        <time>2016-06-25T15:45:04Z</time>
      </trkpt>
      <trkpt lat="44.01376" lon="6.94428">
        <ele>1181.4</ele>
        <time>2016-06-25T15:45:06Z</time>
      </trkpt>
      <trkpt lat="44.01378" lon="6.94443">
        <ele>1180.9</ele>
        <time>2016-06-25T15:45:08Z</time>
      </trkpt>
      <trkpt lat="44.01381" lon="6.94459">
        <ele>1179.8</ele>
        <time>2016-06-25T15:45:10Z</time>
      </trkpt>
      <trkpt lat="44.01384" lon="6.94472">
        <ele>1179.3</ele>
        <time>2016-06-25T15:45:12Z</time>
      </trkpt>
      <trkpt lat="44.01387" lon="6.94487">
        <ele>1178.8</ele>
        <time>2016-06-25T15:45:14Z</time>
      </trkpt>
      <trkpt lat="44.0139" lon="6.94501">
        <ele>1178.2</ele>
        <time>2016-06-25T15:45:16Z</time>
      </trkpt>
      <trkpt lat="44.01391" lon="6.94518">
        <ele>1177.7</ele>
        <time>2016-06-25T15:45:18Z</time>
      </trkpt>
      <trkpt lat="44.01393" lon="6.94533">
        <ele>1177.4</ele>
        <time>2016-06-25T15:45:20Z</time>
      </trkpt>
      <trkpt lat="44.01393" lon="6.94549">
        <ele>1175.9</ele>
        <time>2016-06-25T15:45:22Z</time>
      </trkpt>
      <trkpt lat="44.01391" lon="6.94564">
        <ele>1175.1</ele>
        <time>2016-06-25T15:45:24Z</time>
      </trkpt>
      <trkpt lat="44.01386" lon="6.94576">
        <ele>1174.6</ele>
        <time>2016-06-25T15:45:26Z</time>
      </trkpt>
      <trkpt lat="44.01381" lon="6.94591">
        <ele>1172.5</ele>
        <time>2016-06-25T15:45:30Z</time>
      </trkpt>
      <trkpt lat="44.01376" lon="6.94604">
        <ele>1170</ele>
        <time>2016-06-25T15:45:33Z</time>
      </trkpt>
      <trkpt lat="44.01369" lon="6.94619">
        <ele>1166.6</ele>
        <time>2016-06-25T15:45:36Z</time>
      </trkpt>
      <trkpt lat="44.01364" lon="6.94632">
        <ele>1163.7</ele>
        <time>2016-06-25T15:45:40Z</time>
      </trkpt>
      <trkpt lat="44.01356" lon="6.94644">
        <ele>1160.5</ele>
        <time>2016-06-25T15:45:43Z</time>
      </trkpt>
      <trkpt lat="44.01349" lon="6.94652">
        <ele>1158.9</ele>
        <time>2016-06-25T15:45:45Z</time>
      </trkpt>
      <trkpt lat="44.0134" lon="6.94662">
        <ele>1155.8</ele>
        <time>2016-06-25T15:45:48Z</time>
      </trkpt>
      <trkpt lat="44.01329" lon="6.94675">
        <ele>1151.7</ele>
        <time>2016-06-25T15:45:51Z</time>
      </trkpt>
      <trkpt lat="44.01321" lon="6.94684">
        <ele>1149.8</ele>
        <time>2016-06-25T15:45:53Z</time>
      </trkpt>
      <trkpt lat="44.01311" lon="6.94693">
        <ele>1148.3</ele>
        <time>2016-06-25T15:45:55Z</time>
      </trkpt>
      <trkpt lat="44.013" lon="6.94701">
        <ele>1146.5</ele>
        <time>2016-06-25T15:45:57Z</time>
      </trkpt>
      <trkpt lat="44.01291" lon="6.94708">
        <ele>1145.8</ele>
        <time>2016-06-25T15:45:59Z</time>
      </trkpt>
      <trkpt lat="44.01279" lon="6.94717">
        <ele>1144.1</ele>
        <time>2016-06-25T15:46:02Z</time>
      </trkpt>
      <trkpt lat="44.0127" lon="6.94723">
        <ele>1142.8</ele>
        <time>2016-06-25T15:46:04Z</time>
      </trkpt>
      <trkpt lat="44.01261" lon="6.94729">
        <ele>1141.2</ele>
        <time>2016-06-25T15:46:06Z</time>
      </trkpt>
      <trkpt lat="44.01249" lon="6.94737">
        <ele>1137.7</ele>
        <time>2016-06-25T15:46:09Z</time>
      </trkpt>
      <trkpt lat="44.0124" lon="6.94735">
        <ele>1130.7</ele>
        <time>2016-06-25T15:46:17Z</time>
      </trkpt>
      <trkpt lat="44.01233" lon="6.94747">
        <ele>1128.2</ele>
        <time>2016-06-25T15:46:20Z</time>
      </trkpt>
      <trkpt lat="44.01225" lon="6.94759">
        <ele>1124.7</ele>
        <time>2016-06-25T15:46:23Z</time>
      </trkpt>
      <trkpt lat="44.01218" lon="6.94771">
        <ele>1122.1</ele>
        <time>2016-06-25T15:46:26Z</time>
      </trkpt>
      <trkpt lat="44.01208" lon="6.94774">
        <ele>1113.5</ele>
        <time>2016-06-25T15:46:35Z</time>
      </trkpt>
      <trkpt lat="44.01203" lon="6.94787">
        <ele>1111.9</ele>
        <time>2016-06-25T15:46:39Z</time>
      </trkpt>
      <trkpt lat="44.01201" lon="6.94802">
        <ele>1109.5</ele>
        <time>2016-06-25T15:46:42Z</time>
      </trkpt>
      <trkpt lat="44.01199" lon="6.94818">
        <ele>1107.2</ele>
        <time>2016-06-25T15:46:45Z</time>
      </trkpt>
      <trkpt lat="44.01198" lon="6.94837">
        <ele>1104.3</ele>
        <time>2016-06-25T15:46:48Z</time>
      </trkpt>
      <trkpt lat="44.01197" lon="6.94852">
        <ele>1101.3</ele>
        <time>2016-06-25T15:46:51Z</time>
      </trkpt>
      <trkpt lat="44.01198" lon="6.9487">
        <ele>1099</ele>
        <time>2016-06-25T15:46:54Z</time>
      </trkpt>
      <trkpt lat="44.01197" lon="6.94885">
        <ele>1097.6</ele>
        <time>2016-06-25T15:46:56Z</time>
      </trkpt>
      <trkpt lat="44.01197" lon="6.94901">
        <ele>1094.7</ele>
        <time>2016-06-25T15:46:59Z</time>
      </trkpt>
      <trkpt lat="44.01194" lon="6.94912">
        <ele>1088.2</ele>
        <time>2016-06-25T15:47:07Z</time>
      </trkpt>
      <trkpt lat="44.01199" lon="6.94923">
        <ele>1087.4</ele>
        <time>2016-06-25T15:47:10Z</time>
      </trkpt>
      <trkpt lat="44.01204" lon="6.94938">
        <ele>1086</ele>
        <time>2016-06-25T15:47:13Z</time>
      </trkpt>
      <trkpt lat="44.01203" lon="6.9495">
        <ele>1078.3</ele>
        <time>2016-06-25T15:47:30Z</time>
      </trkpt>
      <trkpt lat="44.01206" lon="6.94964">
        <ele>1076.8</ele>
        <time>2016-06-25T15:47:33Z</time>
      </trkpt>
      <trkpt lat="44.01206" lon="6.94979">
        <ele>1075</ele>
        <time>2016-06-25T15:47:36Z</time>
      </trkpt>
      <trkpt lat="44.01207" lon="6.94993">
        <ele>1073</ele>
        <time>2016-06-25T15:47:39Z</time>
      </trkpt>
      <trkpt lat="44.01205" lon="6.95006">
        <ele>1070.5</ele>
        <time>2016-06-25T15:47:42Z</time>
      </trkpt>
      <trkpt lat="44.01204" lon="6.95019">
        <ele>1067</ele>
        <time>2016-06-25T15:47:46Z</time>
      </trkpt>
      <trkpt lat="44.01209" lon="6.95029">
        <ele>1064.5</ele>
        <time>2016-06-25T15:47:49Z</time>
      </trkpt>
      <trkpt lat="44.01216" lon="6.95039">
        <ele>1061.2</ele>
        <time>2016-06-25T15:47:53Z</time>
      </trkpt>
      <trkpt lat="44.01225" lon="6.95043">
        <ele>1059.1</ele>
        <time>2016-06-25T15:47:56Z</time>
      </trkpt>
      <trkpt lat="44.01236" lon="6.95049">
        <ele>1057.6</ele>
        <time>2016-06-25T15:47:59Z</time>
      </trkpt>
      <trkpt lat="44.01245" lon="6.95054">
        <ele>1055.7</ele>
        <time>2016-06-25T15:48:05Z</time>
      </trkpt>
      <trkpt lat="44.01238" lon="6.95064">
        <ele>1052.7</ele>
        <time>2016-06-25T15:48:17Z</time>
      </trkpt>
      <trkpt lat="44.01229" lon="6.95059">
        <ele>1049</ele>
        <time>2016-06-25T15:48:48Z</time>
      </trkpt>
      <trkpt lat="44.01221" lon="6.95054">
        <ele>1051.4</ele>
        <time>2016-06-25T15:49:41Z</time>
      </trkpt>
      <trkpt lat="44.01212" lon="6.95054">
        <ele>1054.1</ele>
        <time>2016-06-25T15:49:57Z</time>
      </trkpt>
      <trkpt lat="44.01205" lon="6.95063">
        <ele>1056.9</ele>
        <time>2016-06-25T15:50:11Z</time>
      </trkpt>
      <trkpt lat="44.01199" lon="6.95074">
        <ele>1058.4</ele>
        <time>2016-06-25T15:50:22Z</time>
      </trkpt>
      <trkpt lat="44.0119" lon="6.95081">
        <ele>1057.9</ele>
        <time>2016-06-25T15:50:27Z</time>
      </trkpt>
      <trkpt lat="44.0118" lon="6.95085">
        <ele>1056.9</ele>
        <time>2016-06-25T15:50:31Z</time>
      </trkpt>
      <trkpt lat="44.01172" lon="6.95093">
        <ele>1056</ele>
        <time>2016-06-25T15:50:34Z</time>
      </trkpt>
      <trkpt lat="44.01164" lon="6.95107">
        <ele>1053.6</ele>
        <time>2016-06-25T15:50:37Z</time>
      </trkpt>
      <trkpt lat="44.01157" lon="6.95119">
        <ele>1052.2</ele>
        <time>2016-06-25T15:50:40Z</time>
      </trkpt>
      <trkpt lat="44.0115" lon="6.95134">
        <ele>1050.9</ele>
        <time>2016-06-25T15:50:43Z</time>
      </trkpt>
      <trkpt lat="44.01147" lon="6.95147">
        <ele>1049.9</ele>
        <time>2016-06-25T15:50:45Z</time>
      </trkpt>
      <trkpt lat="44.01141" lon="6.95158">
        <ele>1048.9</ele>
        <time>2016-06-25T15:50:47Z</time>
      </trkpt>
      <trkpt lat="44.01136" lon="6.95168">
        <ele>1047.6</ele>
        <time>2016-06-25T15:50:49Z</time>
      </trkpt>
      <trkpt lat="44.01133" lon="6.95183">
        <ele>1046.2</ele>
        <time>2016-06-25T15:50:52Z</time>
      </trkpt>
      <trkpt lat="44.01129" lon="6.95198">
        <ele>1044.2</ele>
        <time>2016-06-25T15:50:56Z</time>
      </trkpt>
      <trkpt lat="44.01118" lon="6.95199">
        <ele>1042.2</ele>
        <time>2016-06-25T15:51:00Z</time>
      </trkpt>
      <trkpt lat="44.01107" lon="6.95197">
        <ele>1041.1</ele>
        <time>2016-06-25T15:51:03Z</time>
      </trkpt>
      <trkpt lat="44.01097" lon="6.95197">
        <ele>1041.1</ele>
        <time>2016-06-25T15:51:06Z</time>
      </trkpt>
      <trkpt lat="44.01087" lon="6.95203">
        <ele>1040.4</ele>
        <time>2016-06-25T15:51:09Z</time>
      </trkpt>
      <trkpt lat="44.0108" lon="6.95213">
        <ele>1039.4</ele>
        <time>2016-06-25T15:51:12Z</time>
      </trkpt>
      <trkpt lat="44.01072" lon="6.95227">
        <ele>1038.6</ele>
        <time>2016-06-25T15:51:15Z</time>
      </trkpt>
      <trkpt lat="44.01062" lon="6.95237">
        <ele>1037.7</ele>
        <time>2016-06-25T15:51:18Z</time>
      </trkpt>
      <trkpt lat="44.01051" lon="6.95245">
        <ele>1036.7</ele>
        <time>2016-06-25T15:51:20Z</time>
      </trkpt>
      <trkpt lat="44.0104" lon="6.95251">
        <ele>1034.9</ele>
        <time>2016-06-25T15:51:22Z</time>
      </trkpt>
      <trkpt lat="44.01031" lon="6.95253">
        <ele>1033.3</ele>
        <time>2016-06-25T15:51:24Z</time>
      </trkpt>
      <trkpt lat="44.01018" lon="6.95255">
        <ele>1031.5</ele>
        <time>2016-06-25T15:51:27Z</time>
      </trkpt>
      <trkpt lat="44.01008" lon="6.95256">
        <ele>1030.9</ele>
        <time>2016-06-25T15:51:29Z</time>
      </trkpt>
      <trkpt lat="44.00996" lon="6.95253">
        <ele>1030.3</ele>
        <time>2016-06-25T15:51:31Z</time>
      </trkpt>
      <trkpt lat="44.00985" lon="6.95252">
        <ele>1029.8</ele>
        <time>2016-06-25T15:51:33Z</time>
      </trkpt>
      <trkpt lat="44.00975" lon="6.95256">
        <ele>1029.4</ele>
        <time>2016-06-25T15:51:35Z</time>
      </trkpt>
      <trkpt lat="44.00966" lon="6.95264">
        <ele>1028</ele>
        <time>2016-06-25T15:51:37Z</time>
      </trkpt>
      <trkpt lat="44.00957" lon="6.95274">
        <ele>1025.8</ele>
        <time>2016-06-25T15:51:39Z</time>
      </trkpt>
      <trkpt lat="44.0095" lon="6.95284">
        <ele>1024</ele>
        <time>2016-06-25T15:51:41Z</time>
      </trkpt>
      <trkpt lat="44.00942" lon="6.95292">
        <ele>1023.3</ele>
        <time>2016-06-25T15:51:43Z</time>
      </trkpt>
      <trkpt lat="44.00932" lon="6.95298">
        <ele>1022.8</ele>
        <time>2016-06-25T15:51:45Z</time>
      </trkpt>
      <trkpt lat="44.00924" lon="6.95302">
        <ele>1021.3</ele>
        <time>2016-06-25T15:51:47Z</time>
      </trkpt>
      <trkpt lat="44.00912" lon="6.95307">
        <ele>1019.8</ele>
        <time>2016-06-25T15:51:50Z</time>
      </trkpt>
      <trkpt lat="44.00902" lon="6.95308">
        <ele>1018.9</ele>
        <time>2016-06-25T15:51:52Z</time>
      </trkpt>
      <trkpt lat="44.00892" lon="6.95308">
        <ele>1018.2</ele>
        <time>2016-06-25T15:51:54Z</time>
      </trkpt>
      <trkpt lat="44.00881" lon="6.95306">
        <ele>1018.5</ele>
        <time>2016-06-25T15:51:57Z</time>
      </trkpt>
      <trkpt lat="44.00867" lon="6.95304">
        <ele>1018.9</ele>
        <time>2016-06-25T15:52:00Z</time>
      </trkpt>
      <trkpt lat="44.00856" lon="6.95303">
        <ele>1018.7</ele>
        <time>2016-06-25T15:52:02Z</time>
      </trkpt>
      <trkpt lat="44.00847" lon="6.95304">
        <ele>1018.3</ele>
        <time>2016-06-25T15:52:04Z</time>
      </trkpt>
      <trkpt lat="44.00836" lon="6.95307">
        <ele>1018.9</ele>
        <time>2016-06-25T15:52:07Z</time>
      </trkpt>
      <trkpt lat="44.00827" lon="6.95312">
        <ele>1019.5</ele>
        <time>2016-06-25T15:52:10Z</time>
      </trkpt>
      <trkpt lat="44.00819" lon="6.9532">
        <ele>1019.2</ele>
        <time>2016-06-25T15:52:14Z</time>
      </trkpt>
      <trkpt lat="44.00816" lon="6.95332">
        <ele>1019.3</ele>
        <time>2016-06-25T15:52:19Z</time>
      </trkpt>
      <trkpt lat="44.00816" lon="6.95344">
        <ele>1021</ele>
        <time>2016-06-25T15:52:42Z</time>
      </trkpt>
      <trkpt lat="44.00811" lon="6.95355">
        <ele>1024.8</ele>
        <time>2016-06-25T15:53:07Z</time>
      </trkpt>
      <trkpt lat="44.00804" lon="6.95364">
        <ele>1028.4</ele>
        <time>2016-06-25T15:53:19Z</time>
      </trkpt>
      <trkpt lat="44.00799" lon="6.95375">
        <ele>1030.6</ele>
        <time>2016-06-25T15:53:30Z</time>
      </trkpt>
      <trkpt lat="44.00798" lon="6.95388">
        <ele>1032</ele>
        <time>2016-06-25T15:53:40Z</time>
      </trkpt>
      <trkpt lat="44.00797" lon="6.95401">
        <ele>1032.4</ele>
        <time>2016-06-25T15:53:49Z</time>
      </trkpt>
      <trkpt lat="44.00796" lon="6.95417">
        <ele>1033.3</ele>
        <time>2016-06-25T15:53:55Z</time>
      </trkpt>
      <trkpt lat="44.00795" lon="6.95433">
        <ele>1033</ele>
        <time>2016-06-25T15:53:59Z</time>
      </trkpt>
      <trkpt lat="44.00793" lon="6.95447">
        <ele>1032.8</ele>
        <time>2016-06-25T15:54:03Z</time>
      </trkpt>
      <trkpt lat="44.0079" lon="6.9546">
        <ele>1032.1</ele>
        <time>2016-06-25T15:54:07Z</time>
      </trkpt>
      <trkpt lat="44.00789" lon="6.95473">
        <ele>1033.1</ele>
        <time>2016-06-25T15:54:21Z</time>
      </trkpt>
      <trkpt lat="44.00784" lon="6.95483">
        <ele>1035.2</ele>
        <time>2016-06-25T15:54:34Z</time>
      </trkpt>
      <trkpt lat="44.0078" lon="6.95495">
        <ele>1037</ele>
        <time>2016-06-25T15:54:45Z</time>
      </trkpt>
      <trkpt lat="44.00773" lon="6.95502">
        <ele>1037</ele>
        <time>2016-06-25T15:54:55Z</time>
      </trkpt>
      <trkpt lat="44.00767" lon="6.95512">
        <ele>1040.2</ele>
        <time>2016-06-25T15:55:07Z</time>
      </trkpt>
      <trkpt lat="44.0076" lon="6.95521">
        <ele>1041.1</ele>
        <time>2016-06-25T15:55:26Z</time>
      </trkpt>
      <trkpt lat="44.00753" lon="6.9553">
        <ele>1039.4</ele>
        <time>2016-06-25T15:55:33Z</time>
      </trkpt>
      <trkpt lat="44.00753" lon="6.95543">
        <ele>1040.2</ele>
        <time>2016-06-25T15:55:44Z</time>
      </trkpt>
      <trkpt lat="44.00754" lon="6.95556">
        <ele>1042.9</ele>
        <time>2016-06-25T15:55:56Z</time>
      </trkpt>
      <trkpt lat="44.00757" lon="6.95568">
        <ele>1045.8</ele>
        <time>2016-06-25T15:56:12Z</time>
      </trkpt>
      <trkpt lat="44.00758" lon="6.95582">
        <ele>1045.8</ele>
        <time>2016-06-25T15:56:24Z</time>
      </trkpt>
      <trkpt lat="44.00754" lon="6.95596">
        <ele>1048.1</ele>
        <time>2016-06-25T15:56:29Z</time>
      </trkpt>
      <trkpt lat="44.00749" lon="6.95608">
        <ele>1049.3</ele>
        <time>2016-06-25T15:56:35Z</time>
      </trkpt>
      <trkpt lat="44.00738" lon="6.95609">
        <ele>1049</ele>
        <time>2016-06-25T15:56:39Z</time>
      </trkpt>
      <trkpt lat="44.0073" lon="6.95614">
        <ele>1050.4</ele>
        <time>2016-06-25T15:56:49Z</time>
      </trkpt>
      <trkpt lat="44.00726" lon="6.95626">
        <ele>1052.4</ele>
        <time>2016-06-25T15:56:59Z</time>
      </trkpt>
      <trkpt lat="44.00719" lon="6.95633">
        <ele>1053.3</ele>
        <time>2016-06-25T15:57:12Z</time>
      </trkpt>
      <trkpt lat="44.0071" lon="6.95639">
        <ele>1056.2</ele>
        <time>2016-06-25T15:57:25Z</time>
      </trkpt>
      <trkpt lat="44.00701" lon="6.95645">
        <ele>1057.5</ele>
        <time>2016-06-25T15:57:34Z</time>
      </trkpt>
      <trkpt lat="44.00694" lon="6.95651">
        <ele>1059.3</ele>
        <time>2016-06-25T15:57:49Z</time>
      </trkpt>
      <trkpt lat="44.00687" lon="6.95662">
        <ele>1059.1</ele>
        <time>2016-06-25T15:57:54Z</time>
      </trkpt>
      <trkpt lat="44.00682" lon="6.95673">
        <ele>1059.2</ele>
        <time>2016-06-25T15:58:00Z</time>
      </trkpt>
      <trkpt lat="44.00673" lon="6.95682">
        <ele>1059.8</ele>
        <time>2016-06-25T15:58:04Z</time>
      </trkpt>
      <trkpt lat="44.00665" lon="6.95691">
        <ele>1059.2</ele>
        <time>2016-06-25T15:58:09Z</time>
      </trkpt>
      <trkpt lat="44.00657" lon="6.95698">
        <ele>1059.8</ele>
        <time>2016-06-25T15:58:12Z</time>
      </trkpt>
      <trkpt lat="44.00651" lon="6.95712">
        <ele>1058.9</ele>
        <time>2016-06-25T15:58:15Z</time>
      </trkpt>
      <trkpt lat="44.00643" lon="6.95725">
        <ele>1058.2</ele>
        <time>2016-06-25T15:58:18Z</time>
      </trkpt>
      <trkpt lat="44.00632" lon="6.95729">
        <ele>1057.5</ele>
        <time>2016-06-25T15:58:21Z</time>
      </trkpt>
      <trkpt lat="44.00621" lon="6.95738">
        <ele>1057.7</ele>
        <time>2016-06-25T15:58:24Z</time>
      </trkpt>
      <trkpt lat="44.00612" lon="6.95748">
        <ele>1057.1</ele>
        <time>2016-06-25T15:58:27Z</time>
      </trkpt>
      <trkpt lat="44.00604" lon="6.95759">
        <ele>1057.3</ele>
        <time>2016-06-25T15:58:31Z</time>
      </trkpt>
      <trkpt lat="44.00602" lon="6.95775">
        <ele>1057.2</ele>
        <time>2016-06-25T15:58:34Z</time>
      </trkpt>
      <trkpt lat="44.00598" lon="6.95791">
        <ele>1056.2</ele>
        <time>2016-06-25T15:58:37Z</time>
      </trkpt>
      <trkpt lat="44.00597" lon="6.95804">
        <ele>1055.4</ele>
        <time>2016-06-25T15:58:39Z</time>
      </trkpt>
      <trkpt lat="44.00597" lon="6.95821">
        <ele>1054.6</ele>
        <time>2016-06-25T15:58:42Z</time>
      </trkpt>
      <trkpt lat="44.00591" lon="6.95837">
        <ele>1052.6</ele>
        <time>2016-06-25T15:58:45Z</time>
      </trkpt>
      <trkpt lat="44.00588" lon="6.95849">
        <ele>1051</ele>
        <time>2016-06-25T15:58:47Z</time>
      </trkpt>
      <trkpt lat="44.00584" lon="6.95866">
        <ele>1050.2</ele>
        <time>2016-06-25T15:58:50Z</time>
      </trkpt>
      <trkpt lat="44.00582" lon="6.9588">
        <ele>1050</ele>
        <time>2016-06-25T15:58:53Z</time>
      </trkpt>
      <trkpt lat="44.00583" lon="6.95896">
        <ele>1050.3</ele>
        <time>2016-06-25T15:58:57Z</time>
      </trkpt>
      <trkpt lat="44.00587" lon="6.95914">
        <ele>1050.6</ele>
        <time>2016-06-25T15:59:00Z</time>
      </trkpt>
      <trkpt lat="44.00593" lon="6.95924">
        <ele>1050.2</ele>
        <time>2016-06-25T15:59:02Z</time>
      </trkpt>
      <trkpt lat="44.00599" lon="6.95937">
        <ele>1049.6</ele>
        <time>2016-06-25T15:59:05Z</time>
      </trkpt>
      <trkpt lat="44.00606" lon="6.95947">
        <ele>1049</ele>
        <time>2016-06-25T15:59:09Z</time>
      </trkpt>
      <trkpt lat="44.00606" lon="6.95962">
        <ele>1048.8</ele>
        <time>2016-06-25T15:59:13Z</time>
      </trkpt>
      <trkpt lat="44.00608" lon="6.95975">
        <ele>1048.9</ele>
        <time>2016-06-25T15:59:16Z</time>
      </trkpt>
      <trkpt lat="44.00612" lon="6.9599">
        <ele>1049.1</ele>
        <time>2016-06-25T15:59:19Z</time>
      </trkpt>
      <trkpt lat="44.00619" lon="6.96002">
        <ele>1048.1</ele>
        <time>2016-06-25T15:59:22Z</time>
      </trkpt>
      <trkpt lat="44.00627" lon="6.96015">
        <ele>1046.7</ele>
        <time>2016-06-25T15:59:25Z</time>
      </trkpt>
      <trkpt lat="44.00633" lon="6.96028">
        <ele>1045.4</ele>
        <time>2016-06-25T15:59:27Z</time>
      </trkpt>
      <trkpt lat="44.00642" lon="6.96037">
        <ele>1043.1</ele>
        <time>2016-06-25T15:59:30Z</time>
      </trkpt>
      <trkpt lat="44.0065" lon="6.96047">
        <ele>1041.6</ele>
        <time>2016-06-25T15:59:33Z</time>
      </trkpt>
      <trkpt lat="44.00652" lon="6.96061">
        <ele>1040.3</ele>
        <time>2016-06-25T15:59:36Z</time>
      </trkpt>
      <trkpt lat="44.00657" lon="6.96071">
        <ele>1038.6</ele>
        <time>2016-06-25T15:59:41Z</time>
      </trkpt>
      <trkpt lat="44.00651" lon="6.96081">
        <ele>1037.7</ele>
        <time>2016-06-25T15:59:52Z</time>
      </trkpt>
      <trkpt lat="44.00646" lon="6.96093">
        <ele>1039.6</ele>
        <time>2016-06-25T16:00:01Z</time>
      </trkpt>
      <trkpt lat="44.00639" lon="6.96103">
        <ele>1040.4</ele>
        <time>2016-06-25T16:00:10Z</time>
      </trkpt>
      <trkpt lat="44.00632" lon="6.96113">
        <ele>1040.2</ele>
        <time>2016-06-25T16:00:15Z</time>
      </trkpt>
      <trkpt lat="44.00624" lon="6.96124">
        <ele>1040.4</ele>
        <time>2016-06-25T16:00:20Z</time>
      </trkpt>
      <trkpt lat="44.00615" lon="6.96131">
        <ele>1040.1</ele>
        <time>2016-06-25T16:00:24Z</time>
      </trkpt>
      <trkpt lat="44.00604" lon="6.96135">
        <ele>1040</ele>
        <time>2016-06-25T16:00:29Z</time>
      </trkpt>
      <trkpt lat="44.00594" lon="6.96138">
        <ele>1039.4</ele>
        <time>2016-06-25T16:00:32Z</time>
      </trkpt>
      <trkpt lat="44.00586" lon="6.96144">
        <ele>1038.9</ele>
        <time>2016-06-25T16:00:36Z</time>
      </trkpt>
      <trkpt lat="44.00578" lon="6.96153">
        <ele>1039.8</ele>
        <time>2016-06-25T16:00:40Z</time>
      </trkpt>
      <trkpt lat="44.00568" lon="6.96159">
        <ele>1039.6</ele>
        <time>2016-06-25T16:00:43Z</time>
      </trkpt>
      <trkpt lat="44.00559" lon="6.96163">
        <ele>1040.1</ele>
        <time>2016-06-25T16:00:47Z</time>
      </trkpt>
      <trkpt lat="44.00548" lon="6.96164">
        <ele>1040.1</ele>
        <time>2016-06-25T16:00:51Z</time>
      </trkpt>
      <trkpt lat="44.00541" lon="6.96172">
        <ele>1041.6</ele>
        <time>2016-06-25T16:01:02Z</time>
      </trkpt>
      <trkpt lat="44.00532" lon="6.96173">
        <ele>1046.2</ele>
        <time>2016-06-25T16:02:05Z</time>
      </trkpt>
      <trkpt lat="44.0052" lon="6.96175">
        <ele>1045.4</ele>
        <time>2016-06-25T16:02:36Z</time>
      </trkpt>
      <trkpt lat="44.00512" lon="6.96182">
        <ele>1046</ele>
        <time>2016-06-25T16:02:40Z</time>
      </trkpt>
      <trkpt lat="44.00507" lon="6.96192">
        <ele>1045.5</ele>
        <time>2016-06-25T16:02:44Z</time>
      </trkpt>
      <trkpt lat="44.00499" lon="6.96203">
        <ele>1043.1</ele>
        <time>2016-06-25T16:02:48Z</time>
      </trkpt>
      <trkpt lat="44.00492" lon="6.96217">
        <ele>1042</ele>
        <time>2016-06-25T16:02:51Z</time>
      </trkpt>
      <trkpt lat="44.00486" lon="6.96227">
        <ele>1038.5</ele>
        <time>2016-06-25T16:02:54Z</time>
      </trkpt>
      <trkpt lat="44.00478" lon="6.96239">
        <ele>1035.5</ele>
        <time>2016-06-25T16:02:58Z</time>
      </trkpt>
      <trkpt lat="44.00471" lon="6.96253">
        <ele>1034.3</ele>
        <time>2016-06-25T16:03:01Z</time>
      </trkpt>
      <trkpt lat="44.00465" lon="6.96266">
        <ele>1032.8</ele>
        <time>2016-06-25T16:03:03Z</time>
      </trkpt>
      <trkpt lat="44.00458" lon="6.96281">
        <ele>1031.3</ele>
        <time>2016-06-25T16:03:06Z</time>
      </trkpt>
      <trkpt lat="44.00455" lon="6.96296">
        <ele>1030.7</ele>
        <time>2016-06-25T16:03:09Z</time>
      </trkpt>
      <trkpt lat="44.00453" lon="6.96315">
        <ele>1030.4</ele>
        <time>2016-06-25T16:03:12Z</time>
      </trkpt>
      <trkpt lat="44.00452" lon="6.96327">
        <ele>1030.2</ele>
        <time>2016-06-25T16:03:14Z</time>
      </trkpt>
      <trkpt lat="44.00451" lon="6.96344">
        <ele>1029.7</ele>
        <time>2016-06-25T16:03:17Z</time>
      </trkpt>
      <trkpt lat="44.00449" lon="6.96357">
        <ele>1027.9</ele>
        <time>2016-06-25T16:03:20Z</time>
      </trkpt>
      <trkpt lat="44.0045" lon="6.96374">
        <ele>1025.8</ele>
        <time>2016-06-25T16:03:23Z</time>
      </trkpt>
      <trkpt lat="44.00451" lon="6.9639">
        <ele>1024.5</ele>
        <time>2016-06-25T16:03:26Z</time>
      </trkpt>
      <trkpt lat="44.00451" lon="6.96405">
        <ele>1024.1</ele>
        <time>2016-06-25T16:03:29Z</time>
      </trkpt>
      <trkpt lat="44.00451" lon="6.96418">
        <ele>1023.4</ele>
        <time>2016-06-25T16:03:31Z</time>
      </trkpt>
      <trkpt lat="44.00453" lon="6.96431">
        <ele>1022.9</ele>
        <time>2016-06-25T16:03:33Z</time>
      </trkpt>
      <trkpt lat="44.00453" lon="6.96445">
        <ele>1022.3</ele>
        <time>2016-06-25T16:03:35Z</time>
      </trkpt>
      <trkpt lat="44.00453" lon="6.96459">
        <ele>1021.1</ele>
        <time>2016-06-25T16:03:37Z</time>
      </trkpt>
      <trkpt lat="44.00453" lon="6.96473">
        <ele>1020.1</ele>
        <time>2016-06-25T16:03:39Z</time>
      </trkpt>
      <trkpt lat="44.00454" lon="6.96487">
        <ele>1018.7</ele>
        <time>2016-06-25T16:03:41Z</time>
      </trkpt>
      <trkpt lat="44.00454" lon="6.96505">
        <ele>1015.7</ele>
        <time>2016-06-25T16:03:44Z</time>
      </trkpt>
      <trkpt lat="44.00457" lon="6.96519">
        <ele>1014.1</ele>
        <time>2016-06-25T16:03:46Z</time>
      </trkpt>
      <trkpt lat="44.00461" lon="6.96532">
        <ele>1012.9</ele>
        <time>2016-06-25T16:03:48Z</time>
      </trkpt>
      <trkpt lat="44.00462" lon="6.96546">
        <ele>1011.5</ele>
        <time>2016-06-25T16:03:50Z</time>
      </trkpt>
      <trkpt lat="44.00463" lon="6.96562">
        <ele>1009.7</ele>
        <time>2016-06-25T16:03:53Z</time>
      </trkpt>
      <trkpt lat="44.00462" lon="6.96574">
        <ele>1008.9</ele>
        <time>2016-06-25T16:03:57Z</time>
      </trkpt>
      <trkpt lat="44.00454" lon="6.96582">
        <ele>1008.3</ele>
        <time>2016-06-25T16:04:02Z</time>
      </trkpt>
      <trkpt lat="44.00446" lon="6.96579">
        <ele>1010.5</ele>
        <time>2016-06-25T16:04:21Z</time>
      </trkpt>
      <trkpt lat="44.00436" lon="6.96577">
        <ele>1010</ele>
        <time>2016-06-25T16:05:28Z</time>
      </trkpt>
      <trkpt lat="44.00428" lon="6.96584">
        <ele>1010.7</ele>
        <time>2016-06-25T16:05:37Z</time>
      </trkpt>
      <trkpt lat="44.0042" lon="6.96593">
        <ele>1012.2</ele>
        <time>2016-06-25T16:05:47Z</time>
      </trkpt>
      <trkpt lat="44.00416" lon="6.96604">
        <ele>1012.3</ele>
        <time>2016-06-25T16:05:52Z</time>
      </trkpt>
      <trkpt lat="44.0041" lon="6.96614">
        <ele>1012.9</ele>
        <time>2016-06-25T16:05:56Z</time>
      </trkpt>
      <trkpt lat="44.00402" lon="6.96621">
        <ele>1011.5</ele>
        <time>2016-06-25T16:06:00Z</time>
      </trkpt>
      <trkpt lat="44.00394" lon="6.96629">
        <ele>1012.5</ele>
        <time>2016-06-25T16:06:06Z</time>
      </trkpt>
      <trkpt lat="44.00389" lon="6.96642">
        <ele>1010.2</ele>
        <time>2016-06-25T16:06:11Z</time>
      </trkpt>
      <trkpt lat="44.00385" lon="6.96654">
        <ele>1008.8</ele>
        <time>2016-06-25T16:06:14Z</time>
      </trkpt>
      <trkpt lat="44.00379" lon="6.96667">
        <ele>1007.2</ele>
        <time>2016-06-25T16:06:18Z</time>
      </trkpt>
      <trkpt lat="44.00375" lon="6.96679">
        <ele>1005.7</ele>
        <time>2016-06-25T16:06:21Z</time>
      </trkpt>
      <trkpt lat="44.00369" lon="6.96693">
        <ele>1005.2</ele>
        <time>2016-06-25T16:06:24Z</time>
      </trkpt>
      <trkpt lat="44.00364" lon="6.96709">
        <ele>1004.8</ele>
        <time>2016-06-25T16:06:27Z</time>
      </trkpt>
      <trkpt lat="44.00362" lon="6.96726">
        <ele>1003</ele>
        <time>2016-06-25T16:06:30Z</time>
      </trkpt>
      <trkpt lat="44.00359" lon="6.96739">
        <ele>1003</ele>
        <time>2016-06-25T16:06:34Z</time>
      </trkpt>
      <trkpt lat="44.00357" lon="6.96752">
        <ele>1003.3</ele>
        <time>2016-06-25T16:06:38Z</time>
      </trkpt>
      <trkpt lat="44.00355" lon="6.96768">
        <ele>1003.3</ele>
        <time>2016-06-25T16:06:41Z</time>
      </trkpt>
      <trkpt lat="44.00355" lon="6.96782">
        <ele>1002.2</ele>
        <time>2016-06-25T16:06:45Z</time>
      </trkpt>
      <trkpt lat="44.00355" lon="6.96795">
        <ele>1003</ele>
        <time>2016-06-25T16:06:49Z</time>
      </trkpt>
      <trkpt lat="44.00354" lon="6.96808">
        <ele>1003.5</ele>
        <time>2016-06-25T16:06:53Z</time>
      </trkpt>
      <trkpt lat="44.00354" lon="6.96824">
        <ele>1003.2</ele>
        <time>2016-06-25T16:06:58Z</time>
      </trkpt>
      <trkpt lat="44.00354" lon="6.96839">
        <ele>1002.7</ele>
        <time>2016-06-25T16:07:01Z</time>
      </trkpt>
      <trkpt lat="44.00356" lon="6.96856">
        <ele>1002.1</ele>
        <time>2016-06-25T16:07:05Z</time>
      </trkpt>
      <trkpt lat="44.00356" lon="6.9687">
        <ele>1002.2</ele>
        <time>2016-06-25T16:07:08Z</time>
      </trkpt>
      <trkpt lat="44.00356" lon="6.96883">
        <ele>1001.9</ele>
        <time>2016-06-25T16:07:11Z</time>
      </trkpt>
      <trkpt lat="44.00354" lon="6.96897">
        <ele>1001.8</ele>
        <time>2016-06-25T16:07:15Z</time>
      </trkpt>
      <trkpt lat="44.0035" lon="6.96912">
        <ele>1000.8</ele>
        <time>2016-06-25T16:07:18Z</time>
      </trkpt>
      <trkpt lat="44.00352" lon="6.96926">
        <ele>1000.2</ele>
        <time>2016-06-25T16:07:24Z</time>
      </trkpt>
      <trkpt lat="44.00351" lon="6.96939">
        <ele>1000.2</ele>
        <time>2016-06-25T16:07:30Z</time>
      </trkpt>
      <trkpt lat="44.00348" lon="6.96954">
        <ele>999.9</ele>
        <time>2016-06-25T16:07:37Z</time>
      </trkpt>
      <trkpt lat="44.00343" lon="6.96969">
        <ele>1000</ele>
        <time>2016-06-25T16:07:42Z</time>
      </trkpt>
      <trkpt lat="44.0034" lon="6.96983">
        <ele>998.1</ele>
        <time>2016-06-25T16:07:46Z</time>
      </trkpt>
      <trkpt lat="44.00338" lon="6.96996">
        <ele>997.1</ele>
        <time>2016-06-25T16:07:50Z</time>
      </trkpt>
      <trkpt lat="44.00334" lon="6.97011">
        <ele>994.9</ele>
        <time>2016-06-25T16:07:53Z</time>
      </trkpt>
      <trkpt lat="44.00334" lon="6.97028">
        <ele>992.2</ele>
        <time>2016-06-25T16:07:56Z</time>
      </trkpt>
      <trkpt lat="44.00333" lon="6.97042">
        <ele>989.4</ele>
        <time>2016-06-25T16:08:00Z</time>
      </trkpt>
      <trkpt lat="44.00328" lon="6.97057">
        <ele>987.6</ele>
        <time>2016-06-25T16:08:03Z</time>
      </trkpt>
      <trkpt lat="44.00323" lon="6.97074">
        <ele>985.8</ele>
        <time>2016-06-25T16:08:06Z</time>
      </trkpt>
      <trkpt lat="44.0032" lon="6.97087">
        <ele>984.7</ele>
        <time>2016-06-25T16:08:08Z</time>
      </trkpt>
      <trkpt lat="44.00317" lon="6.97103">
        <ele>983.3</ele>
        <time>2016-06-25T16:08:11Z</time>
      </trkpt>
      <trkpt lat="44.00314" lon="6.97118">
        <ele>981.6</ele>
        <time>2016-06-25T16:08:26Z</time>
      </trkpt>
      <trkpt lat="44.00313" lon="6.9713">
        <ele>981.1</ele>
        <time>2016-06-25T16:08:29Z</time>
      </trkpt>
      <trkpt lat="44.00311" lon="6.97146">
        <ele>979.4</ele>
        <time>2016-06-25T16:08:33Z</time>
      </trkpt>
      <trkpt lat="44.0031" lon="6.97159">
        <ele>977.2</ele>
        <time>2016-06-25T16:08:37Z</time>
      </trkpt>
      <trkpt lat="44.00311" lon="6.97173">
        <ele>975.1</ele>
        <time>2016-06-25T16:08:40Z</time>
      </trkpt>
      <trkpt lat="44.00313" lon="6.97189">
        <ele>972.3</ele>
        <time>2016-06-25T16:08:43Z</time>
      </trkpt>
      <trkpt lat="44.00316" lon="6.97205">
        <ele>969.6</ele>
        <time>2016-06-25T16:08:46Z</time>
      </trkpt>
      <trkpt lat="44.00321" lon="6.97218">
        <ele>968</ele>
        <time>2016-06-25T16:08:49Z</time>
      </trkpt>
      <trkpt lat="44.00322" lon="6.97231">
        <ele>964.1</ele>
        <time>2016-06-25T16:08:54Z</time>
      </trkpt>
      <trkpt lat="44.00313" lon="6.9723">
        <ele>959.4</ele>
        <time>2016-06-25T16:09:08Z</time>
      </trkpt>
      <trkpt lat="44.00312" lon="6.97243">
        <ele>955.9</ele>
        <time>2016-06-25T16:09:17Z</time>
      </trkpt>
      <trkpt lat="44.00305" lon="6.97253">
        <ele>949.2</ele>
        <time>2016-06-25T16:09:29Z</time>
      </trkpt>
      <trkpt lat="44.00302" lon="6.97267">
        <ele>947</ele>
        <time>2016-06-25T16:09:36Z</time>
      </trkpt>
      <trkpt lat="44.00295" lon="6.97275">
        <ele>944</ele>
        <time>2016-06-25T16:09:42Z</time>
      </trkpt>
      <trkpt lat="44.0029" lon="6.97287">
        <ele>940.7</ele>
        <time>2016-06-25T16:09:47Z</time>
      </trkpt>
      <trkpt lat="44.00285" lon="6.97299">
        <ele>938.3</ele>
        <time>2016-06-25T16:09:51Z</time>
      </trkpt>
      <trkpt lat="44.00281" lon="6.97313">
        <ele>936.2</ele>
        <time>2016-06-25T16:09:54Z</time>
      </trkpt>
      <trkpt lat="44.00275" lon="6.97328">
        <ele>935.8</ele>
        <time>2016-06-25T16:09:57Z</time>
      </trkpt>
      <trkpt lat="44.00272" lon="6.9734">
        <ele>934.5</ele>
        <time>2016-06-25T16:09:59Z</time>
      </trkpt>
      <trkpt lat="44.00265" lon="6.97354">
        <ele>932.7</ele>
        <time>2016-06-25T16:10:02Z</time>
      </trkpt>
      <trkpt lat="44.00254" lon="6.97359">
        <ele>930.1</ele>
        <time>2016-06-25T16:10:05Z</time>
      </trkpt>
      <trkpt lat="44.00243" lon="6.97364">
        <ele>927.7</ele>
        <time>2016-06-25T16:10:09Z</time>
      </trkpt>
      <trkpt lat="44.00238" lon="6.97374">
        <ele>924.2</ele>
        <time>2016-06-25T16:10:14Z</time>
      </trkpt>
      <trkpt lat="44.00229" lon="6.97376">
        <ele>919.2</ele>
        <time>2016-06-25T16:10:31Z</time>
      </trkpt>
      <trkpt lat="44.00222" lon="6.97389">
        <ele>917.8</ele>
        <time>2016-06-25T16:10:34Z</time>
      </trkpt>
      <trkpt lat="44.00219" lon="6.97402">
        <ele>915</ele>
        <time>2016-06-25T16:10:38Z</time>
      </trkpt>
      <trkpt lat="44.0021" lon="6.97398">
        <ele>911.7</ele>
        <time>2016-06-25T16:10:44Z</time>
      </trkpt>
      <trkpt lat="44.00211" lon="6.9741">
        <ele>909.7</ele>
        <time>2016-06-25T16:10:49Z</time>
      </trkpt>
      <trkpt lat="44.00208" lon="6.97423">
        <ele>908.9</ele>
        <time>2016-06-25T16:10:52Z</time>
      </trkpt>
      <trkpt lat="44.002" lon="6.97435">
        <ele>907.7</ele>
        <time>2016-06-25T16:10:56Z</time>
      </trkpt>
      <trkpt lat="44.00197" lon="6.97449">
        <ele>906.4</ele>
        <time>2016-06-25T16:10:59Z</time>
      </trkpt>
      <trkpt lat="44.00191" lon="6.97459">
        <ele>905</ele>
        <time>2016-06-25T16:11:01Z</time>
      </trkpt>
      <trkpt lat="44.0018" lon="6.97465">
        <ele>902</ele>
        <time>2016-06-25T16:11:04Z</time>
      </trkpt>
      <trkpt lat="44.00168" lon="6.97465">
        <ele>899.3</ele>
        <time>2016-06-25T16:11:07Z</time>
      </trkpt>
      <trkpt lat="44.00159" lon="6.97466">
        <ele>896.5</ele>
        <time>2016-06-25T16:11:19Z</time>
      </trkpt>
      <trkpt lat="44.00153" lon="6.97479">
        <ele>895.7</ele>
        <time>2016-06-25T16:14:41Z</time>
      </trkpt>
      <trkpt lat="44.00152" lon="6.97492">
        <ele>896.4</ele>
        <time>2016-06-25T16:14:45Z</time>
      </trkpt>
      <trkpt lat="44.00147" lon="6.97504">
        <ele>895</ele>
        <time>2016-06-25T16:14:50Z</time>
      </trkpt>
      <trkpt lat="44.00142" lon="6.97517">
        <ele>894.1</ele>
        <time>2016-06-25T16:14:54Z</time>
      </trkpt>
      <trkpt lat="44.00143" lon="6.97532">
        <ele>892.7</ele>
        <time>2016-06-25T16:14:57Z</time>
      </trkpt>
      <trkpt lat="44.00144" lon="6.97545">
        <ele>891.1</ele>
        <time>2016-06-25T16:15:04Z</time>
      </trkpt>
      <trkpt lat="44.00145" lon="6.97558">
        <ele>891.9</ele>
        <time>2016-06-25T16:15:23Z</time>
      </trkpt>
      <trkpt lat="44.00146" lon="6.97571">
        <ele>890.8</ele>
        <time>2016-06-25T16:15:28Z</time>
      </trkpt>
      <trkpt lat="44.00151" lon="6.97583">
        <ele>890</ele>
        <time>2016-06-25T16:15:32Z</time>
      </trkpt>
      <trkpt lat="44.00156" lon="6.97596">
        <ele>888.8</ele>
        <time>2016-06-25T16:15:36Z</time>
      </trkpt>
      <trkpt lat="44.00161" lon="6.97608">
        <ele>887</ele>
        <time>2016-06-25T16:15:39Z</time>
      </trkpt>
      <trkpt lat="44.00164" lon="6.97623">
        <ele>885.7</ele>
        <time>2016-06-25T16:15:42Z</time>
      </trkpt>
      <trkpt lat="44.00167" lon="6.97639">
        <ele>882.9</ele>
        <time>2016-06-25T16:15:45Z</time>
      </trkpt>
      <trkpt lat="44.00173" lon="6.97651">
        <ele>881.1</ele>
        <time>2016-06-25T16:15:48Z</time>
      </trkpt>
      <trkpt lat="44.00178" lon="6.97661">
        <ele>879.5</ele>
        <time>2016-06-25T16:15:51Z</time>
      </trkpt>
      <trkpt lat="44.0018" lon="6.97675">
        <ele>876.6</ele>
        <time>2016-06-25T16:15:54Z</time>
      </trkpt>
      <trkpt lat="44.00177" lon="6.97689">
        <ele>875.5</ele>
        <time>2016-06-25T16:16:06Z</time>
      </trkpt>
      <trkpt lat="44.0017" lon="6.97699">
        <ele>874.5</ele>
        <time>2016-06-25T16:16:10Z</time>
      </trkpt>
      <trkpt lat="44.00163" lon="6.97711">
        <ele>873.4</ele>
        <time>2016-06-25T16:16:13Z</time>
      </trkpt>
      <trkpt lat="44.00154" lon="6.97722">
        <ele>872.2</ele>
        <time>2016-06-25T16:16:16Z</time>
      </trkpt>
      <trkpt lat="44.0015" lon="6.97736">
        <ele>870.3</ele>
        <time>2016-06-25T16:16:19Z</time>
      </trkpt>
      <trkpt lat="44.00149" lon="6.9775">
        <ele>869</ele>
        <time>2016-06-25T16:16:22Z</time>
      </trkpt>
      <trkpt lat="44.00148" lon="6.97764">
        <ele>867.9</ele>
        <time>2016-06-25T16:16:26Z</time>
      </trkpt>
      <trkpt lat="44.00149" lon="6.97778">
        <ele>865.1</ele>
        <time>2016-06-25T16:16:36Z</time>
      </trkpt>
      <trkpt lat="44.00149" lon="6.97791">
        <ele>863.8</ele>
        <time>2016-06-25T16:16:40Z</time>
      </trkpt>
      <trkpt lat="44.00146" lon="6.97805">
        <ele>862.8</ele>
        <time>2016-06-25T16:16:43Z</time>
      </trkpt>
      <trkpt lat="44.00147" lon="6.97824">
        <ele>861.8</ele>
        <time>2016-06-25T16:16:46Z</time>
      </trkpt>
      <trkpt lat="44.00147" lon="6.97839">
        <ele>861.4</ele>
        <time>2016-06-25T16:16:49Z</time>
      </trkpt>
      <trkpt lat="44.00149" lon="6.97855">
        <ele>860.8</ele>
        <time>2016-06-25T16:16:52Z</time>
      </trkpt>
      <trkpt lat="44.00152" lon="6.97868">
        <ele>861.2</ele>
        <time>2016-06-25T16:16:54Z</time>
      </trkpt>
      <trkpt lat="44.00155" lon="6.9788">
        <ele>860.4</ele>
        <time>2016-06-25T16:16:56Z</time>
      </trkpt>
      <trkpt lat="44.00159" lon="6.97894">
        <ele>858.9</ele>
        <time>2016-06-25T16:16:59Z</time>
      </trkpt>
      <trkpt lat="44.00154" lon="6.97906">
        <ele>857.7</ele>
        <time>2016-06-25T16:17:12Z</time>
      </trkpt>
      <trkpt lat="44.00146" lon="6.97914">
        <ele>859.1</ele>
        <time>2016-06-25T16:17:18Z</time>
      </trkpt>
      <trkpt lat="44.00139" lon="6.97922">
        <ele>859</ele>
        <time>2016-06-25T16:17:26Z</time>
      </trkpt>
      <trkpt lat="44.00131" lon="6.97928">
        <ele>859.9</ele>
        <time>2016-06-25T16:17:33Z</time>
      </trkpt>
      <trkpt lat="44.00122" lon="6.97935">
        <ele>861.4</ele>
        <time>2016-06-25T16:17:41Z</time>
      </trkpt>
      <trkpt lat="44.00116" lon="6.97944">
        <ele>860.5</ele>
        <time>2016-06-25T16:17:49Z</time>
      </trkpt>
      <trkpt lat="44.00111" lon="6.97955">
        <ele>860.2</ele>
        <time>2016-06-25T16:17:58Z</time>
      </trkpt>
      <trkpt lat="44.00112" lon="6.97969">
        <ele>860.5</ele>
        <time>2016-06-25T16:18:05Z</time>
      </trkpt>
      <trkpt lat="44.00112" lon="6.97983">
        <ele>861.7</ele>
        <time>2016-06-25T16:18:12Z</time>
      </trkpt>
      <trkpt lat="44.00113" lon="6.97996">
        <ele>861.8</ele>
        <time>2016-06-25T16:18:19Z</time>
      </trkpt>
      <trkpt lat="44.00114" lon="6.98009">
        <ele>861.5</ele>
        <time>2016-06-25T16:18:27Z</time>
      </trkpt>
      <trkpt lat="44.00118" lon="6.98021">
        <ele>862.5</ele>
        <time>2016-06-25T16:18:34Z</time>
      </trkpt>
      <trkpt lat="44.00121" lon="6.98034">
        <ele>863.6</ele>
        <time>2016-06-25T16:18:42Z</time>
      </trkpt>
      <trkpt lat="44.00123" lon="6.98046">
        <ele>863.9</ele>
        <time>2016-06-25T16:18:50Z</time>
      </trkpt>
      <trkpt lat="44.00126" lon="6.98059">
        <ele>864.2</ele>
        <time>2016-06-25T16:18:57Z</time>
      </trkpt>
      <trkpt lat="44.00126" lon="6.98075">
        <ele>864.5</ele>
        <time>2016-06-25T16:19:01Z</time>
      </trkpt>
      <trkpt lat="44.00125" lon="6.98088">
        <ele>864.2</ele>
        <time>2016-06-25T16:19:05Z</time>
      </trkpt>
      <trkpt lat="44.0013" lon="6.981">
        <ele>864.6</ele>
        <time>2016-06-25T16:19:23Z</time>
      </trkpt>
      <trkpt lat="44.0013" lon="6.98113">
        <ele>864.9</ele>
        <time>2016-06-25T16:21:46Z</time>
      </trkpt>
      <trkpt lat="44.00129" lon="6.98125">
        <ele>863.5</ele>
        <time>2016-06-25T16:21:53Z</time>
      </trkpt>
      <trkpt lat="44.0013" lon="6.98139">
        <ele>863.3</ele>
        <time>2016-06-25T16:21:56Z</time>
      </trkpt>
      <trkpt lat="44.0013" lon="6.98158">
        <ele>862.6</ele>
        <time>2016-06-25T16:21:59Z</time>
      </trkpt>
      <trkpt lat="44.00128" lon="6.9817">
        <ele>861.8</ele>
        <time>2016-06-25T16:22:01Z</time>
      </trkpt>
      <trkpt lat="44.00123" lon="6.98185">
        <ele>861.3</ele>
        <time>2016-06-25T16:22:04Z</time>
      </trkpt>
      <trkpt lat="44.00121" lon="6.98202">
        <ele>860.4</ele>
        <time>2016-06-25T16:22:07Z</time>
      </trkpt>
      <trkpt lat="44.00123" lon="6.98217">
        <ele>858</ele>
        <time>2016-06-25T16:22:10Z</time>
      </trkpt>
      <trkpt lat="44.00126" lon="6.98233">
        <ele>856.6</ele>
        <time>2016-06-25T16:22:13Z</time>
      </trkpt>
      <trkpt lat="44.00129" lon="6.98248">
        <ele>855.5</ele>
        <time>2016-06-25T16:22:15Z</time>
      </trkpt>
      <trkpt lat="44.00134" lon="6.98264">
        <ele>853.7</ele>
        <time>2016-06-25T16:22:17Z</time>
      </trkpt>
      <trkpt lat="44.00135" lon="6.98281">
        <ele>852.2</ele>
        <time>2016-06-25T16:22:19Z</time>
      </trkpt>
      <trkpt lat="44.00136" lon="6.98297">
        <ele>850.8</ele>
        <time>2016-06-25T16:22:21Z</time>
      </trkpt>
      <trkpt lat="44.00138" lon="6.98315">
        <ele>848.7</ele>
        <time>2016-06-25T16:22:23Z</time>
      </trkpt>
      <trkpt lat="44.00142" lon="6.9833">
        <ele>847.2</ele>
        <time>2016-06-25T16:22:25Z</time>
      </trkpt>
      <trkpt lat="44.00145" lon="6.98344">
        <ele>846.1</ele>
        <time>2016-06-25T16:22:27Z</time>
      </trkpt>
      <trkpt lat="44.00146" lon="6.98356">
        <ele>845.5</ele>
        <time>2016-06-25T16:22:29Z</time>
      </trkpt>
      <trkpt lat="44.00146" lon="6.98372">
        <ele>845.1</ele>
        <time>2016-06-25T16:22:32Z</time>
      </trkpt>
      <trkpt lat="44.00147" lon="6.98386">
        <ele>844.6</ele>
        <time>2016-06-25T16:22:35Z</time>
      </trkpt>
      <trkpt lat="44.00148" lon="6.98401">
        <ele>845.7</ele>
        <time>2016-06-25T16:22:38Z</time>
      </trkpt>
      <trkpt lat="44.00151" lon="6.98418">
        <ele>845.3</ele>
        <time>2016-06-25T16:22:41Z</time>
      </trkpt>
      <trkpt lat="44.00152" lon="6.98431">
        <ele>844.9</ele>
        <time>2016-06-25T16:22:43Z</time>
      </trkpt>
      <trkpt lat="44.00152" lon="6.98447">
        <ele>844.2</ele>
        <time>2016-06-25T16:22:46Z</time>
      </trkpt>
      <trkpt lat="44.0015" lon="6.98459">
        <ele>843.5</ele>
        <time>2016-06-25T16:22:49Z</time>
      </trkpt>
      <trkpt lat="44.00153" lon="6.98476">
        <ele>842.8</ele>
        <time>2016-06-25T16:22:52Z</time>
      </trkpt>
      <trkpt lat="44.00157" lon="6.9849">
        <ele>840.5</ele>
        <time>2016-06-25T16:22:55Z</time>
      </trkpt>
      <trkpt lat="44.00145" lon="6.98488">
        <ele>838.3</ele>
        <time>2016-06-25T16:26:16Z</time>
      </trkpt>
      <trkpt lat="44.00144" lon="6.98501">
        <ele>833.4</ele>
        <time>2016-06-25T16:26:23Z</time>
      </trkpt>
      <trkpt lat="44.0015" lon="6.98512">
        <ele>830.6</ele>
        <time>2016-06-25T16:26:26Z</time>
      </trkpt>
      <trkpt lat="44.00142" lon="6.9852">
        <ele>823.6</ele>
        <time>2016-06-25T16:26:36Z</time>
      </trkpt>
      <trkpt lat="44.00133" lon="6.98523">
        <ele>817.6</ele>
        <time>2016-06-25T16:26:47Z</time>
      </trkpt>
      <trkpt lat="44.00124" lon="6.98519">
        <ele>813.7</ele>
        <time>2016-06-25T16:26:53Z</time>
      </trkpt>
      <trkpt lat="44.00118" lon="6.98529">
        <ele>809.1</ele>
        <time>2016-06-25T16:26:59Z</time>
      </trkpt>
      <trkpt lat="44.00111" lon="6.98519">
        <ele>806.4</ele>
        <time>2016-06-25T16:27:03Z</time>
      </trkpt>
      <trkpt lat="44.00108" lon="6.98505">
        <ele>804.6</ele>
        <time>2016-06-25T16:27:07Z</time>
      </trkpt>
      <trkpt lat="44.00101" lon="6.9852">
        <ele>801.6</ele>
        <time>2016-06-25T16:27:12Z</time>
      </trkpt>
      <trkpt lat="44.00098" lon="6.98535">
        <ele>798.6</ele>
        <time>2016-06-25T16:27:15Z</time>
      </trkpt>
      <trkpt lat="44.00099" lon="6.98548">
        <ele>796.9</ele>
        <time>2016-06-25T16:27:18Z</time>
      </trkpt>
      <trkpt lat="44.00101" lon="6.98562">
        <ele>794.4</ele>
        <time>2016-06-25T16:27:21Z</time>
      </trkpt>
      <trkpt lat="44.00104" lon="6.98575">
        <ele>791.4</ele>
        <time>2016-06-25T16:27:24Z</time>
      </trkpt>
      <trkpt lat="44.00107" lon="6.98589">
        <ele>787.9</ele>
        <time>2016-06-25T16:27:27Z</time>
      </trkpt>
      <trkpt lat="44.00112" lon="6.98603">
        <ele>784</ele>
        <time>2016-06-25T16:27:30Z</time>
      </trkpt>
      <trkpt lat="44.00116" lon="6.98618">
        <ele>778.6</ele>
        <time>2016-06-25T16:27:34Z</time>
      </trkpt>
      <trkpt lat="44.00114" lon="6.9863">
        <ele>775.8</ele>
        <time>2016-06-25T16:27:37Z</time>
      </trkpt>
      <trkpt lat="44.00104" lon="6.98629">
        <ele>768</ele>
        <time>2016-06-25T16:27:47Z</time>
      </trkpt>
      <trkpt lat="44.00104" lon="6.98642">
        <ele>766.1</ele>
        <time>2016-06-25T16:27:51Z</time>
      </trkpt>
      <trkpt lat="44.00102" lon="6.98656">
        <ele>762.4</ele>
        <time>2016-06-25T16:27:54Z</time>
      </trkpt>
      <trkpt lat="44.00105" lon="6.98668">
        <ele>759.6</ele>
        <time>2016-06-25T16:27:57Z</time>
      </trkpt>
      <trkpt lat="44.0011" lon="6.9868">
        <ele>756.7</ele>
        <time>2016-06-25T16:28:01Z</time>
      </trkpt>
      <trkpt lat="44.00113" lon="6.98693">
        <ele>750.6</ele>
        <time>2016-06-25T16:28:11Z</time>
      </trkpt>
      <trkpt lat="44.00119" lon="6.98708">
        <ele>749.6</ele>
        <time>2016-06-25T16:28:14Z</time>
      </trkpt>
      <trkpt lat="44.00121" lon="6.98722">
        <ele>747.6</ele>
        <time>2016-06-25T16:28:17Z</time>
      </trkpt>
      <trkpt lat="44.00118" lon="6.98736">
        <ele>745.3</ele>
        <time>2016-06-25T16:28:20Z</time>
      </trkpt>
      <trkpt lat="44.00112" lon="6.98747">
        <ele>742.2</ele>
        <time>2016-06-25T16:28:24Z</time>
      </trkpt>
      <trkpt lat="44.00108" lon="6.98734">
        <ele>734.9</ele>
        <time>2016-06-25T16:28:44Z</time>
      </trkpt>
      <trkpt lat="44.00102" lon="6.98723">
        <ele>733.2</ele>
        <time>2016-06-25T16:28:47Z</time>
      </trkpt>
      <trkpt lat="44.00092" lon="6.98716">
        <ele>731.1</ele>
        <time>2016-06-25T16:28:51Z</time>
      </trkpt>
      <trkpt lat="44.00095" lon="6.98728">
        <ele>727.9</ele>
        <time>2016-06-25T16:28:59Z</time>
      </trkpt>
      <trkpt lat="44.00093" lon="6.98741">
        <ele>725.4</ele>
        <time>2016-06-25T16:29:03Z</time>
      </trkpt>
      <trkpt lat="44.00096" lon="6.98756">
        <ele>723.4</ele>
        <time>2016-06-25T16:29:06Z</time>
      </trkpt>
      <trkpt lat="44.00097" lon="6.98769">
        <ele>721.4</ele>
        <time>2016-06-25T16:29:09Z</time>
      </trkpt>
      <trkpt lat="44.00088" lon="6.98759">
        <ele>717.1</ele>
        <time>2016-06-25T16:29:16Z</time>
      </trkpt>
      <trkpt lat="44.00082" lon="6.98746">
        <ele>713.9</ele>
        <time>2016-06-25T16:29:20Z</time>
      </trkpt>
      <trkpt lat="44.00081" lon="6.98761">
        <ele>707.8</ele>
        <time>2016-06-25T16:29:30Z</time>
      </trkpt>
      <trkpt lat="44.0008" lon="6.98775">
        <ele>706.1</ele>
        <time>2016-06-25T16:29:34Z</time>
      </trkpt>
      <trkpt lat="44.00077" lon="6.98788">
        <ele>704.8</ele>
        <time>2016-06-25T16:29:37Z</time>
      </trkpt>
      <trkpt lat="44.00076" lon="6.98801">
        <ele>703.8</ele>
        <time>2016-06-25T16:29:40Z</time>
      </trkpt>
      <trkpt lat="44.00068" lon="6.98794">
        <ele>698.5</ele>
        <time>2016-06-25T16:29:48Z</time>
      </trkpt>
      <trkpt lat="44.00065" lon="6.98782">
        <ele>695</ele>
        <time>2016-06-25T16:30:23Z</time>
      </trkpt>
      <trkpt lat="44.00056" lon="6.98787">
        <ele>690.7</ele>
        <time>2016-06-25T16:30:46Z</time>
      </trkpt>
      <trkpt lat="44.00046" lon="6.98791">
        <ele>688</ele>
        <time>2016-06-25T16:30:52Z</time>
      </trkpt>
      <trkpt lat="44.00037" lon="6.98798">
        <ele>684.4</ele>
        <time>2016-06-25T16:30:58Z</time>
      </trkpt>
      <trkpt lat="44.00031" lon="6.98807">
        <ele>678.9</ele>
        <time>2016-06-25T16:31:13Z</time>
      </trkpt>
      <trkpt lat="44.00022" lon="6.98811">
        <ele>676.1</ele>
        <time>2016-06-25T16:31:33Z</time>
      </trkpt>
      <trkpt lat="44.00012" lon="6.98811">
        <ele>670.8</ele>
        <time>2016-06-25T16:31:46Z</time>
      </trkpt>
      <trkpt lat="44.00006" lon="6.98824">
        <ele>669.3</ele>
        <time>2016-06-25T16:31:52Z</time>
      </trkpt>
      <trkpt lat="44.00011" lon="6.98836">
        <ele>664.4</ele>
        <time>2016-06-25T16:31:58Z</time>
      </trkpt>
      <trkpt lat="44.00001" lon="6.98836">
        <ele>660.7</ele>
        <time>2016-06-25T16:32:06Z</time>
      </trkpt>
      <trkpt lat="44.00005" lon="6.98848">
        <ele>657.2</ele>
        <time>2016-06-25T16:32:14Z</time>
      </trkpt>
      <trkpt lat="44" lon="6.9886">
        <ele>652</ele>
        <time>2016-06-25T16:32:26Z</time>
      </trkpt>
      <trkpt lat="43.9999" lon="6.98865">
        <ele>648.9</ele>
        <time>2016-06-25T16:32:30Z</time>
      </trkpt>
      <trkpt lat="43.99988" lon="6.98852">
        <ele>647.4</ele>
        <time>2016-06-25T16:32:35Z</time>
      </trkpt>
      <trkpt lat="43.9998" lon="6.98859">
        <ele>642.9</ele>
        <time>2016-06-25T16:32:57Z</time>
      </trkpt>
      <trkpt lat="43.99976" lon="6.98845">
        <ele>639.2</ele>
        <time>2016-06-25T16:33:05Z</time>
      </trkpt>
      <trkpt lat="43.99973" lon="6.98833">
        <ele>637.6</ele>
        <time>2016-06-25T16:33:08Z</time>
      </trkpt>
      <trkpt lat="43.99969" lon="6.98846">
        <ele>633.6</ele>
        <time>2016-06-25T16:33:16Z</time>
      </trkpt>
      <trkpt lat="43.99966" lon="6.98859">
        <ele>632.2</ele>
        <time>2016-06-25T16:33:20Z</time>
      </trkpt>
      <trkpt lat="43.99963" lon="6.98874">
        <ele>629.9</ele>
        <time>2016-06-25T16:33:23Z</time>
      </trkpt>
      <trkpt lat="43.99962" lon="6.98887">
        <ele>626.3</ele>
        <time>2016-06-25T16:33:48Z</time>
      </trkpt>
      <trkpt lat="43.99971" lon="6.98895">
        <ele>626</ele>
        <time>2016-06-25T16:34:52Z</time>
      </trkpt>
      <trkpt lat="43.99982" lon="6.989">
        <ele>626.1</ele>
        <time>2016-06-25T16:34:56Z</time>
      </trkpt>
      <trkpt lat="43.99991" lon="6.98903">
        <ele>626.4</ele>
        <time>2016-06-25T16:35:00Z</time>
      </trkpt>
      <trkpt lat="44.00002" lon="6.98904">
        <ele>626.8</ele>
        <time>2016-06-25T16:35:26Z</time>
      </trkpt>
      <trkpt lat="44.00011" lon="6.98907">
        <ele>626.8</ele>
        <time>2016-06-25T16:35:30Z</time>
      </trkpt>
      <trkpt lat="44.00021" lon="6.98913">
        <ele>627.3</ele>
        <time>2016-06-25T16:35:34Z</time>
      </trkpt>
      <trkpt lat="44.0003" lon="6.98919">
        <ele>627.7</ele>
        <time>2016-06-25T16:35:38Z</time>
      </trkpt>
      <trkpt lat="44.00039" lon="6.98926">
        <ele>628</ele>
        <time>2016-06-25T16:35:42Z</time>
      </trkpt>
      <trkpt lat="44.00048" lon="6.98932">
        <ele>628.8</ele>
        <time>2016-06-25T16:35:46Z</time>
      </trkpt>
      <trkpt lat="44.00057" lon="6.98939">
        <ele>629.6</ele>
        <time>2016-06-25T16:35:50Z</time>
      </trkpt>
      <trkpt lat="44.00066" lon="6.98946">
        <ele>630.6</ele>
        <time>2016-06-25T16:35:54Z</time>
      </trkpt>
      <trkpt lat="44.00075" lon="6.98954">
        <ele>632</ele>
        <time>2016-06-25T16:35:59Z</time>
      </trkpt>
      <trkpt lat="44.00084" lon="6.98962">
        <ele>633.1</ele>
        <time>2016-06-25T16:36:04Z</time>
      </trkpt>
      <trkpt lat="44.00092" lon="6.98969">
        <ele>634.1</ele>
        <time>2016-06-25T16:36:08Z</time>
      </trkpt>
      <trkpt lat="44.00101" lon="6.98978">
        <ele>634.4</ele>
        <time>2016-06-25T16:36:13Z</time>
      </trkpt>
      <trkpt lat="44.0011" lon="6.98986">
        <ele>635.1</ele>
        <time>2016-06-25T16:36:18Z</time>
      </trkpt>
      <trkpt lat="44.00119" lon="6.98994">
        <ele>636.1</ele>
        <time>2016-06-25T16:36:23Z</time>
      </trkpt>
      <trkpt lat="44.00127" lon="6.99001">
        <ele>637.6</ele>
        <time>2016-06-25T16:36:28Z</time>
      </trkpt>
      <trkpt lat="44.00137" lon="6.99005">
        <ele>637.7</ele>
        <time>2016-06-25T16:36:33Z</time>
      </trkpt>
      <trkpt lat="44.00147" lon="6.99012">
        <ele>638.9</ele>
        <time>2016-06-25T16:36:38Z</time>
      </trkpt>
      <trkpt lat="44.00156" lon="6.99019">
        <ele>639.5</ele>
        <time>2016-06-25T16:36:43Z</time>
      </trkpt>
      <trkpt lat="44.00163" lon="6.99028">
        <ele>640.2</ele>
        <time>2016-06-25T16:36:48Z</time>
      </trkpt>
      <trkpt lat="44.00171" lon="6.99037">
        <ele>641.3</ele>
        <time>2016-06-25T16:36:53Z</time>
      </trkpt>
      <trkpt lat="44.00182" lon="6.99041">
        <ele>641.8</ele>
        <time>2016-06-25T16:36:58Z</time>
      </trkpt>
      <trkpt lat="44.00191" lon="6.99045">
        <ele>644</ele>
        <time>2016-06-25T16:37:02Z</time>
      </trkpt>
      <trkpt lat="44.00201" lon="6.99051">
        <ele>644.7</ele>
        <time>2016-06-25T16:37:07Z</time>
      </trkpt>
      <trkpt lat="44.0021" lon="6.99057">
        <ele>644.9</ele>
        <time>2016-06-25T16:37:12Z</time>
      </trkpt>
      <trkpt lat="44.00218" lon="6.99063">
        <ele>646.1</ele>
        <time>2016-06-25T16:37:17Z</time>
      </trkpt>
      <trkpt lat="44.00228" lon="6.9907">
        <ele>646.7</ele>
        <time>2016-06-25T16:37:22Z</time>
      </trkpt>
      <trkpt lat="44.00238" lon="6.99072">
        <ele>646.3</ele>
        <time>2016-06-25T16:37:27Z</time>
      </trkpt>
      <trkpt lat="44.00247" lon="6.99073">
        <ele>647.3</ele>
        <time>2016-06-25T16:37:31Z</time>
      </trkpt>
      <trkpt lat="44.00258" lon="6.99073">
        <ele>647.8</ele>
        <time>2016-06-25T16:37:36Z</time>
      </trkpt>
      <trkpt lat="44.00268" lon="6.99072">
        <ele>648.7</ele>
        <time>2016-06-25T16:37:41Z</time>
      </trkpt>
      <trkpt lat="44.00277" lon="6.99071">
        <ele>648.8</ele>
        <time>2016-06-25T16:37:45Z</time>
      </trkpt>
      <trkpt lat="44.00287" lon="6.99069">
        <ele>648.9</ele>
        <time>2016-06-25T16:37:50Z</time>
      </trkpt>
      <trkpt lat="44.00296" lon="6.99071">
        <ele>650.4</ele>
        <time>2016-06-25T16:37:55Z</time>
      </trkpt>
      <trkpt lat="44.00306" lon="6.99074">
        <ele>651.5</ele>
        <time>2016-06-25T16:38:00Z</time>
      </trkpt>
      <trkpt lat="44.00315" lon="6.99078">
        <ele>651.8</ele>
        <time>2016-06-25T16:38:05Z</time>
      </trkpt>
      <trkpt lat="44.00323" lon="6.99083">
        <ele>653.3</ele>
        <time>2016-06-25T16:38:10Z</time>
      </trkpt>
      <trkpt lat="44.00332" lon="6.99091">
        <ele>653</ele>
        <time>2016-06-25T16:38:15Z</time>
      </trkpt>
      <trkpt lat="44.00341" lon="6.99099">
        <ele>654.6</ele>
        <time>2016-06-25T16:38:20Z</time>
      </trkpt>
      <trkpt lat="44.00349" lon="6.99109">
        <ele>654.4</ele>
        <time>2016-06-25T16:38:25Z</time>
      </trkpt>
      <trkpt lat="44.00356" lon="6.99121">
        <ele>656.3</ele>
        <time>2016-06-25T16:38:30Z</time>
      </trkpt>
      <trkpt lat="44.00362" lon="6.99131">
        <ele>655.7</ele>
        <time>2016-06-25T16:38:34Z</time>
      </trkpt>
      <trkpt lat="44.00368" lon="6.99141">
        <ele>656.8</ele>
        <time>2016-06-25T16:38:38Z</time>
      </trkpt>
      <trkpt lat="44.00374" lon="6.99151">
        <ele>657.6</ele>
        <time>2016-06-25T16:38:42Z</time>
      </trkpt>
      <trkpt lat="44.0038" lon="6.99161">
        <ele>658.2</ele>
        <time>2016-06-25T16:38:46Z</time>
      </trkpt>
      <trkpt lat="44.00387" lon="6.9917">
        <ele>659.4</ele>
        <time>2016-06-25T16:38:50Z</time>
      </trkpt>
      <trkpt lat="44.00396" lon="6.99178">
        <ele>659.7</ele>
        <time>2016-06-25T16:38:54Z</time>
      </trkpt>
      <trkpt lat="44.00405" lon="6.99182">
        <ele>659.8</ele>
        <time>2016-06-25T16:38:58Z</time>
      </trkpt>
      <trkpt lat="44.00416" lon="6.99183">
        <ele>660</ele>
        <time>2016-06-25T16:39:02Z</time>
      </trkpt>
      <trkpt lat="44.00427" lon="6.99185">
        <ele>660.8</ele>
        <time>2016-06-25T16:39:06Z</time>
      </trkpt>
      <trkpt lat="44.00439" lon="6.99187">
        <ele>660.7</ele>
        <time>2016-06-25T16:39:10Z</time>
      </trkpt>
      <trkpt lat="44.00448" lon="6.99182">
        <ele>660.9</ele>
        <time>2016-06-25T16:39:14Z</time>
      </trkpt>
      <trkpt lat="44.00455" lon="6.99173">
        <ele>660.3</ele>
        <time>2016-06-25T16:39:19Z</time>
      </trkpt>
      <trkpt lat="44.00466" lon="6.9917">
        <ele>660.4</ele>
        <time>2016-06-25T16:39:23Z</time>
      </trkpt>
      <trkpt lat="44.00476" lon="6.99169">
        <ele>659.7</ele>
        <time>2016-06-25T16:39:26Z</time>
      </trkpt>
      <trkpt lat="44.00481" lon="6.99162">
        <ele>660.1</ele>
        <time>2016-06-25T16:40:25Z</time>
      </trkpt>
    </trkseg>
  </trk>
</gpx>